<?xml version='1.0' encoding='UTF-8'?><gpx version="1.1" creator="JPX - https://github.com/jenetics/jpx" xmlns="http://www.topografix.com/GPX/1/1"><trk><trkseg><trkpt lat="45.6536655" lon="8.2725163"><ele>395.3333333333333</ele><time>2026-05-02T07:49:44.087Z</time></trkpt><trkpt lat="45.6536187" lon="8.2726239"><ele>394.66666666666663</ele><time>2026-05-02T07:49:49.995Z</time></trkpt><trkpt lat="45.6535781" lon="8.2727467"><ele>394.0</ele><time>2026-05-02T07:49:51.996Z</time></trkpt><trkpt lat="45.6536161" lon="8.2726512"><ele>393.3333333333333</ele><time>2026-05-02T07:49:53.006Z</time></trkpt><trkpt lat="45.6536213" lon="8.2726153"><ele>392.66666666666663</ele><time>2026-05-02T07:50:44.002Z</time></trkpt><trkpt lat="45.6534951" lon="8.272604"><ele>392.0</ele><time>2026-05-02T07:51:08.995Z</time></trkpt><trkpt lat="45.6533499" lon="8.2726774"><ele>391.99999999999994</ele><time>2026-05-02T07:51:14.006Z</time></trkpt><trkpt lat="45.653251" lon="8.2727723"><ele>392.0</ele><time>2026-05-02T07:51:15.997Z</time></trkpt><trkpt lat="45.6531582" lon="8.272888"><ele>392.0</ele><time>2026-05-02T07:51:18.01Z</time></trkpt><trkpt lat="45.653109" lon="8.2729498"><ele>392.0</ele><time>2026-05-02T07:51:19.005Z</time></trkpt><trkpt lat="45.6530614" lon="8.2730095"><ele>391.99999999999994</ele><time>2026-05-02T07:51:20.001Z</time></trkpt><trkpt lat="45.6530125" lon="8.2730804"><ele>392.0</ele><time>2026-05-02T07:51:21.009Z</time></trkpt><trkpt lat="45.6529668" lon="8.2731539"><ele>392.16666666666663</ele><time>2026-05-02T07:51:22.005Z</time></trkpt><trkpt lat="45.6529219" lon="8.273222"><ele>392.3333333333333</ele><time>2026-05-02T07:51:22.992Z</time></trkpt><trkpt lat="45.6528314" lon="8.273352"><ele>392.5</ele><time>2026-05-02T07:51:24.992Z</time></trkpt><trkpt lat="45.6527896" lon="8.2734298"><ele>392.66666666666663</ele><time>2026-05-02T07:51:26.001Z</time></trkpt><trkpt lat="45.6527435" lon="8.2735035"><ele>392.8333333333333</ele><time>2026-05-02T07:51:26.997Z</time></trkpt><trkpt lat="45.6526969" lon="8.2735867"><ele>393.0</ele><time>2026-05-02T07:51:28.006Z</time></trkpt><trkpt lat="45.6526496" lon="8.2736711"><ele>392.8333333333333</ele><time>2026-05-02T07:51:28.993Z</time></trkpt><trkpt lat="45.6525938" lon="8.2737499"><ele>392.66666666666663</ele><time>2026-05-02T07:51:30.006Z</time></trkpt><trkpt lat="45.6524709" lon="8.2738913"><ele>392.5</ele><time>2026-05-02T07:51:32.003Z</time></trkpt><trkpt lat="45.6524179" lon="8.2739559"><ele>392.3333333333333</ele><time>2026-05-02T07:51:32.994Z</time></trkpt><trkpt lat="45.6523561" lon="8.2740067"><ele>392.16666666666663</ele><time>2026-05-02T07:51:34.011Z</time></trkpt><trkpt lat="45.6522917" lon="8.2740543"><ele>392.0</ele><time>2026-05-02T07:51:35.002Z</time></trkpt><trkpt lat="45.6522237" lon="8.2741064"><ele>392.0</ele><time>2026-05-02T07:51:36.011Z</time></trkpt><trkpt lat="45.6521382" lon="8.2742323"><ele>392.0</ele><time>2026-05-02T07:51:38.007Z</time></trkpt><trkpt lat="45.6520906" lon="8.2743246"><ele>392.0</ele><time>2026-05-02T07:51:40.004Z</time></trkpt><trkpt lat="45.652021" lon="8.2743811"><ele>392.0</ele><time>2026-05-02T07:51:51.998Z</time></trkpt><trkpt lat="45.6519038" lon="8.274588"><ele>391.3333333333333</ele><time>2026-05-02T07:51:56.002Z</time></trkpt><trkpt lat="45.6518515" lon="8.2746714"><ele>390.66666666666663</ele><time>2026-05-02T07:51:57.008Z</time></trkpt><trkpt lat="45.6518064" lon="8.2747577"><ele>390.0</ele><time>2026-05-02T07:51:58.002Z</time></trkpt><trkpt lat="45.6517613" lon="8.2748411"><ele>389.33333333333337</ele><time>2026-05-02T07:51:59.008Z</time></trkpt><trkpt lat="45.6517116" lon="8.2749192"><ele>388.6666666666667</ele><time>2026-05-02T07:51:59.996Z</time></trkpt><trkpt lat="45.6516596" lon="8.2749991"><ele>388.0</ele><time>2026-05-02T07:52:01.006Z</time></trkpt><trkpt lat="45.6516061" lon="8.2750739"><ele>388.00000000000006</ele><time>2026-05-02T07:52:02.004Z</time></trkpt><trkpt lat="45.6515481" lon="8.2751442"><ele>388.0</ele><time>2026-05-02T07:52:03.003Z</time></trkpt><trkpt lat="45.6514856" lon="8.2752032"><ele>388.0</ele><time>2026-05-02T07:52:03.998Z</time></trkpt><trkpt lat="45.6514142" lon="8.2752577"><ele>388.0</ele><time>2026-05-02T07:52:05.003Z</time></trkpt><trkpt lat="45.6513391" lon="8.2753112"><ele>388.00000000000006</ele><time>2026-05-02T07:52:06.011Z</time></trkpt><trkpt lat="45.6512678" lon="8.2753626"><ele>388.0</ele><time>2026-05-02T07:52:07.003Z</time></trkpt><trkpt lat="45.6511982" lon="8.2754154"><ele>388.2</ele><time>2026-05-02T07:52:08.005Z</time></trkpt><trkpt lat="45.6511239" lon="8.2754752"><ele>388.4</ele><time>2026-05-02T07:52:09.012Z</time></trkpt><trkpt lat="45.6510447" lon="8.2755369"><ele>388.59999999999997</ele><time>2026-05-02T07:52:10.012Z</time></trkpt><trkpt lat="45.6509614" lon="8.2756062"><ele>388.79999999999995</ele><time>2026-05-02T07:52:11Z</time></trkpt><trkpt lat="45.6508694" lon="8.2756724"><ele>389.0</ele><time>2026-05-02T07:52:12Z</time></trkpt><trkpt lat="45.6507689" lon="8.2757256"><ele>389.0</ele><time>2026-05-02T07:52:13.002Z</time></trkpt><trkpt lat="45.6505503" lon="8.2757954"><ele>389.0</ele><time>2026-05-02T07:52:15.008Z</time></trkpt><trkpt lat="45.6504376" lon="8.2758163"><ele>389.0</ele><time>2026-05-02T07:52:16Z</time></trkpt><trkpt lat="45.6503181" lon="8.2758349"><ele>387.25</ele><time>2026-05-02T07:52:17.004Z</time></trkpt><trkpt lat="45.6501992" lon="8.2758511"><ele>385.5</ele><time>2026-05-02T07:52:18Z</time></trkpt><trkpt lat="45.6500817" lon="8.2758667"><ele>383.75</ele><time>2026-05-02T07:52:19.001Z</time></trkpt><trkpt lat="45.6499647" lon="8.2758836"><ele>382.0</ele><time>2026-05-02T07:52:20.004Z</time></trkpt><trkpt lat="45.6498543" lon="8.2758932"><ele>382.0</ele><time>2026-05-02T07:52:21.004Z</time></trkpt><trkpt lat="45.6497468" lon="8.2759038"><ele>382.0</ele><time>2026-05-02T07:52:22.006Z</time></trkpt><trkpt lat="45.6496367" lon="8.2759068"><ele>382.0</ele><time>2026-05-02T07:52:22.997Z</time></trkpt><trkpt lat="45.6495274" lon="8.2759003"><ele>382.0</ele><time>2026-05-02T07:52:24.007Z</time></trkpt><trkpt lat="45.6494196" lon="8.2758843"><ele>382.0</ele><time>2026-05-02T07:52:25.002Z</time></trkpt><trkpt lat="45.6493118" lon="8.2758637"><ele>380.8</ele><time>2026-05-02T07:52:25.992Z</time></trkpt><trkpt lat="45.649204" lon="8.2758409"><ele>379.6</ele><time>2026-05-02T07:52:27.01Z</time></trkpt><trkpt lat="45.6491004" lon="8.2758155"><ele>378.40000000000003</ele><time>2026-05-02T07:52:27.999Z</time></trkpt><trkpt lat="45.6489977" lon="8.2757886"><ele>377.20000000000005</ele><time>2026-05-02T07:52:29.01Z</time></trkpt><trkpt lat="45.648897" lon="8.2757636"><ele>376.0</ele><time>2026-05-02T07:52:29.993Z</time></trkpt><trkpt lat="45.6487977" lon="8.2757411"><ele>376.0</ele><time>2026-05-02T07:52:31.007Z</time></trkpt><trkpt lat="45.6486976" lon="8.2757235"><ele>376.0</ele><time>2026-05-02T07:52:31.999Z</time></trkpt><trkpt lat="45.6485959" lon="8.2757043"><ele>376.0</ele><time>2026-05-02T07:52:33.003Z</time></trkpt><trkpt lat="45.6484952" lon="8.2756841"><ele>376.0</ele><time>2026-05-02T07:52:33.998Z</time></trkpt><trkpt lat="45.6482731" lon="8.2756347"><ele>375.75</ele><time>2026-05-02T07:52:36.013Z</time></trkpt><trkpt lat="45.6481535" lon="8.275608"><ele>375.5</ele><time>2026-05-02T07:52:37.009Z</time></trkpt><trkpt lat="45.6480289" lon="8.2755812"><ele>375.25</ele><time>2026-05-02T07:52:38.008Z</time></trkpt><trkpt lat="45.6479047" lon="8.2755555"><ele>375.0</ele><time>2026-05-02T07:52:39.002Z</time></trkpt><trkpt lat="45.6477785" lon="8.2755136"><ele>374.75</ele><time>2026-05-02T07:52:40.014Z</time></trkpt><trkpt lat="45.6476528" lon="8.2754513"><ele>374.5</ele><time>2026-05-02T07:52:41.001Z</time></trkpt><trkpt lat="45.6475365" lon="8.2753612"><ele>374.25</ele><time>2026-05-02T07:52:42.015Z</time></trkpt><trkpt lat="45.6474324" lon="8.2752558"><ele>374.0</ele><time>2026-05-02T07:52:42.996Z</time></trkpt><trkpt lat="45.647336" lon="8.2751462"><ele>374.0</ele><time>2026-05-02T07:52:44.008Z</time></trkpt><trkpt lat="45.647248" lon="8.2750478"><ele>374.0</ele><time>2026-05-02T07:52:45.001Z</time></trkpt><trkpt lat="45.6471665" lon="8.2749585"><ele>374.0</ele><time>2026-05-02T07:52:46.004Z</time></trkpt><trkpt lat="45.6470931" lon="8.2748719"><ele>374.0</ele><time>2026-05-02T07:52:47.006Z</time></trkpt><trkpt lat="45.6470269" lon="8.274792"><ele>374.0</ele><time>2026-05-02T07:52:48.003Z</time></trkpt><trkpt lat="45.6469667" lon="8.2747266"><ele>374.0</ele><time>2026-05-02T07:52:49.006Z</time></trkpt><trkpt lat="45.646908" lon="8.2746839"><ele>374.0</ele><time>2026-05-02T07:52:50.015Z</time></trkpt><trkpt lat="45.646797" lon="8.2746646"><ele>374.0</ele><time>2026-05-02T07:52:52.009Z</time></trkpt><trkpt lat="45.6467373" lon="8.2746981"><ele>374.0</ele><time>2026-05-02T07:52:53.001Z</time></trkpt><trkpt lat="45.6466729" lon="8.2747469"><ele>374.0</ele><time>2026-05-02T07:52:54.007Z</time></trkpt><trkpt lat="45.646605" lon="8.2748004"><ele>374.0</ele><time>2026-05-02T07:52:54.997Z</time></trkpt><trkpt lat="45.646457" lon="8.2749081"><ele>374.1666666666667</ele><time>2026-05-02T07:52:57Z</time></trkpt><trkpt lat="45.6463796" lon="8.274964"><ele>374.33333333333337</ele><time>2026-05-02T07:52:58.003Z</time></trkpt><trkpt lat="45.6463014" lon="8.2750196"><ele>374.5</ele><time>2026-05-02T07:52:58.999Z</time></trkpt><trkpt lat="45.6462223" lon="8.2750788"><ele>374.6666666666667</ele><time>2026-05-02T07:53:00.01Z</time></trkpt><trkpt lat="45.6461454" lon="8.2751425"><ele>374.8333333333333</ele><time>2026-05-02T07:53:01.014Z</time></trkpt><trkpt lat="45.6460717" lon="8.2752093"><ele>375.0</ele><time>2026-05-02T07:53:02.013Z</time></trkpt><trkpt lat="45.6459959" lon="8.2752782"><ele>375.0</ele><time>2026-05-02T07:53:03.002Z</time></trkpt><trkpt lat="45.6459173" lon="8.2753394"><ele>375.0</ele><time>2026-05-02T07:53:04.002Z</time></trkpt><trkpt lat="45.64583" lon="8.2753899"><ele>375.0</ele><time>2026-05-02T07:53:05.001Z</time></trkpt><trkpt lat="45.645735" lon="8.2754208"><ele>375.0</ele><time>2026-05-02T07:53:06.006Z</time></trkpt><trkpt lat="45.6456346" lon="8.2754379"><ele>375.0</ele><time>2026-05-02T07:53:07.013Z</time></trkpt><trkpt lat="45.6455414" lon="8.2754489"><ele>375.0</ele><time>2026-05-02T07:53:08.012Z</time></trkpt><trkpt lat="45.6454482" lon="8.2754608"><ele>375.0</ele><time>2026-05-02T07:53:08.996Z</time></trkpt><trkpt lat="45.6453546" lon="8.2754803"><ele>375.0</ele><time>2026-05-02T07:53:10.006Z</time></trkpt><trkpt lat="45.6452541" lon="8.2755027"><ele>375.0</ele><time>2026-05-02T07:53:11.001Z</time></trkpt><trkpt lat="45.6451465" lon="8.2755374"><ele>375.0</ele><time>2026-05-02T07:53:12.011Z</time></trkpt><trkpt lat="45.6450329" lon="8.2755793"><ele>377.5</ele><time>2026-05-02T07:53:13.004Z</time></trkpt><trkpt lat="45.6449111" lon="8.2756305"><ele>380.0</ele><time>2026-05-02T07:53:14.01Z</time></trkpt><trkpt lat="45.6447784" lon="8.2756986"><ele>382.5</ele><time>2026-05-02T07:53:15.004Z</time></trkpt><trkpt lat="45.644647" lon="8.2757694"><ele>385.0</ele><time>2026-05-02T07:53:16.004Z</time></trkpt><trkpt lat="45.6443747" lon="8.2759016"><ele>385.0</ele><time>2026-05-02T07:53:18.004Z</time></trkpt><trkpt lat="45.6442341" lon="8.2759789"><ele>385.0</ele><time>2026-05-02T07:53:19.009Z</time></trkpt><trkpt lat="45.6440937" lon="8.2760632"><ele>385.0</ele><time>2026-05-02T07:53:19.998Z</time></trkpt><trkpt lat="45.6439635" lon="8.2761434"><ele>385.0</ele><time>2026-05-02T07:53:21.004Z</time></trkpt><trkpt lat="45.6438451" lon="8.2762239"><ele>385.0</ele><time>2026-05-02T07:53:22.009Z</time></trkpt><trkpt lat="45.6437474" lon="8.2763036"><ele>385.0</ele><time>2026-05-02T07:53:23.004Z</time></trkpt><trkpt lat="45.6436599" lon="8.2764043"><ele>385.0</ele><time>2026-05-02T07:53:24.009Z</time></trkpt><trkpt lat="45.6435774" lon="8.276512"><ele>385.0</ele><time>2026-05-02T07:53:25.009Z</time></trkpt><trkpt lat="45.6434994" lon="8.2766089"><ele>385.0</ele><time>2026-05-02T07:53:26.009Z</time></trkpt><trkpt lat="45.6434201" lon="8.2766939"><ele>385.1666666666667</ele><time>2026-05-02T07:53:26.998Z</time></trkpt><trkpt lat="45.6433412" lon="8.2767737"><ele>385.33333333333337</ele><time>2026-05-02T07:53:28.012Z</time></trkpt><trkpt lat="45.6432674" lon="8.2768552"><ele>385.5</ele><time>2026-05-02T07:53:29Z</time></trkpt><trkpt lat="45.6431992" lon="8.2769333"><ele>385.66666666666663</ele><time>2026-05-02T07:53:30Z</time></trkpt><trkpt lat="45.6431326" lon="8.2770053"><ele>385.8333333333333</ele><time>2026-05-02T07:53:31.006Z</time></trkpt><trkpt lat="45.6430765" lon="8.277078"><ele>386.0</ele><time>2026-05-02T07:53:31.999Z</time></trkpt><trkpt lat="45.6430201" lon="8.2771505"><ele>386.0</ele><time>2026-05-02T07:53:33.013Z</time></trkpt><trkpt lat="45.6429602" lon="8.2772141"><ele>386.0</ele><time>2026-05-02T07:53:34.015Z</time></trkpt><trkpt lat="45.6429065" lon="8.2772677"><ele>386.0</ele><time>2026-05-02T07:53:35.005Z</time></trkpt><trkpt lat="45.6428352" lon="8.2773486"><ele>386.0</ele><time>2026-05-02T07:53:37.009Z</time></trkpt><trkpt lat="45.642741" lon="8.2775188"><ele>386.0</ele><time>2026-05-02T07:53:42.016Z</time></trkpt><trkpt lat="45.6427225" lon="8.2776453"><ele>385.16666666666663</ele><time>2026-05-02T07:53:44.996Z</time></trkpt><trkpt lat="45.6427359" lon="8.2777493"><ele>384.3333333333333</ele><time>2026-05-02T07:53:47.006Z</time></trkpt><trkpt lat="45.6427706" lon="8.2778622"><ele>383.5</ele><time>2026-05-02T07:53:49.006Z</time></trkpt><trkpt lat="45.6428237" lon="8.277958"><ele>382.66666666666663</ele><time>2026-05-02T07:53:50.993Z</time></trkpt><trkpt lat="45.6429069" lon="8.2779929"><ele>381.8333333333333</ele><time>2026-05-02T07:53:53.009Z</time></trkpt><trkpt lat="45.6430076" lon="8.2780112"><ele>381.0</ele><time>2026-05-02T07:53:55.001Z</time></trkpt><trkpt lat="45.6430889" lon="8.2780853"><ele>380.0</ele><time>2026-05-02T07:53:56.998Z</time></trkpt><trkpt lat="45.6431432" lon="8.2781997"><ele>379.0</ele><time>2026-05-02T07:53:59.004Z</time></trkpt><trkpt lat="45.6432547" lon="8.278399"><ele>378.0</ele><time>2026-05-02T07:54:02.999Z</time></trkpt><trkpt lat="45.6432989" lon="8.278509"><ele>377.0</ele><time>2026-05-02T07:54:05.01Z</time></trkpt><trkpt lat="45.643331" lon="8.2786081"><ele>376.0</ele><time>2026-05-02T07:54:07.004Z</time></trkpt><trkpt lat="45.6433607" lon="8.2787203"><ele>376.0</ele><time>2026-05-02T07:54:08.997Z</time></trkpt><trkpt lat="45.643383" lon="8.278837"><ele>376.0</ele><time>2026-05-02T07:54:10.998Z</time></trkpt><trkpt lat="45.6433925" lon="8.2789342"><ele>376.0</ele><time>2026-05-02T07:54:13.002Z</time></trkpt><trkpt lat="45.6433778" lon="8.2790525"><ele>376.0</ele><time>2026-05-02T07:54:16.011Z</time></trkpt><trkpt lat="45.6433473" lon="8.2791511"><ele>376.0</ele><time>2026-05-02T07:54:19.006Z</time></trkpt><trkpt lat="45.6432976" lon="8.2792452"><ele>376.0</ele><time>2026-05-02T07:54:21.994Z</time></trkpt><trkpt lat="45.6432065" lon="8.279424"><ele>375.5</ele><time>2026-05-02T07:54:27Z</time></trkpt><trkpt lat="45.6431967" lon="8.2795149"><ele>375.0</ele><time>2026-05-02T07:54:29.003Z</time></trkpt><trkpt lat="45.6431577" lon="8.2796325"><ele>374.5</ele><time>2026-05-02T07:54:32.007Z</time></trkpt><trkpt lat="45.6431016" lon="8.2797366"><ele>374.0</ele><time>2026-05-02T07:54:34.01Z</time></trkpt><trkpt lat="45.6430376" lon="8.2798528"><ele>373.5</ele><time>2026-05-02T07:54:36.006Z</time></trkpt><trkpt lat="45.6429794" lon="8.2799418"><ele>373.0</ele><time>2026-05-02T07:54:38.008Z</time></trkpt><trkpt lat="45.6429392" lon="8.2800188"><ele>372.79999999999995</ele><time>2026-05-02T07:54:40.006Z</time></trkpt><trkpt lat="45.6428974" lon="8.2800872"><ele>372.6</ele><time>2026-05-02T07:54:42.009Z</time></trkpt><trkpt lat="45.6428557" lon="8.2801707"><ele>372.4</ele><time>2026-05-02T07:54:44.002Z</time></trkpt><trkpt lat="45.6427799" lon="8.2803746"><ele>372.20000000000005</ele><time>2026-05-02T07:54:49.003Z</time></trkpt><trkpt lat="45.6427192" lon="8.2804308"><ele>372.0</ele><time>2026-05-02T07:54:50.999Z</time></trkpt><trkpt lat="45.6426133" lon="8.2804804"><ele>372.0</ele><time>2026-05-02T07:54:53.013Z</time></trkpt><trkpt lat="45.642499" lon="8.2805246"><ele>372.0</ele><time>2026-05-02T07:54:55.004Z</time></trkpt><trkpt lat="45.6424035" lon="8.2805451"><ele>372.0</ele><time>2026-05-02T07:54:57Z</time></trkpt><trkpt lat="45.6423203" lon="8.2805511"><ele>372.0</ele><time>2026-05-02T07:54:59.012Z</time></trkpt><trkpt lat="45.6422447" lon="8.2805674"><ele>372.0</ele><time>2026-05-02T07:55:01.009Z</time></trkpt><trkpt lat="45.6421856" lon="8.2806113"><ele>372.0</ele><time>2026-05-02T07:55:03.007Z</time></trkpt><trkpt lat="45.6421231" lon="8.2806671"><ele>372.0</ele><time>2026-05-02T07:55:05.006Z</time></trkpt><trkpt lat="45.6419987" lon="8.2807167"><ele>372.0</ele><time>2026-05-02T07:55:09.012Z</time></trkpt><trkpt lat="45.6419496" lon="8.2807743"><ele>372.0</ele><time>2026-05-02T07:55:11.012Z</time></trkpt><trkpt lat="45.641899" lon="8.2808579"><ele>372.0</ele><time>2026-05-02T07:55:13.003Z</time></trkpt><trkpt lat="45.6418531" lon="8.280951"><ele>372.0</ele><time>2026-05-02T07:55:16.004Z</time></trkpt><trkpt lat="45.641802" lon="8.2810915"><ele>371.40000000000003</ele><time>2026-05-02T07:56:05.998Z</time></trkpt><trkpt lat="45.6418581" lon="8.2813033"><ele>370.8</ele><time>2026-05-02T07:56:13.011Z</time></trkpt><trkpt lat="45.6418594" lon="8.2814109"><ele>370.2</ele><time>2026-05-02T07:56:16.006Z</time></trkpt><trkpt lat="45.6418569" lon="8.281513"><ele>369.6</ele><time>2026-05-02T07:56:19.019Z</time></trkpt><trkpt lat="45.6418358" lon="8.2816176"><ele>369.0</ele><time>2026-05-02T07:56:28.001Z</time></trkpt><trkpt lat="45.6417122" lon="8.281792"><ele>368.5</ele><time>2026-05-02T07:56:34.006Z</time></trkpt><trkpt lat="45.64166" lon="8.2818864"><ele>368.0</ele><time>2026-05-02T07:56:37.002Z</time></trkpt><trkpt lat="45.6416074" lon="8.2819586"><ele>367.5</ele><time>2026-05-02T07:56:40.005Z</time></trkpt><trkpt lat="45.6415464" lon="8.2820274"><ele>367.0</ele><time>2026-05-02T07:56:43.005Z</time></trkpt><trkpt lat="45.641503" lon="8.2821057"><ele>366.5</ele><time>2026-05-02T07:56:46.999Z</time></trkpt><trkpt lat="45.6415163" lon="8.2822019"><ele>366.0</ele><time>2026-05-02T07:56:52.997Z</time></trkpt><trkpt lat="45.641592" lon="8.2823618"><ele>363.6666666666667</ele><time>2026-05-02T07:57:03.011Z</time></trkpt><trkpt lat="45.6416513" lon="8.2823984"><ele>361.3333333333333</ele><time>2026-05-02T07:57:06.998Z</time></trkpt><trkpt lat="45.6417131" lon="8.2824472"><ele>359.0</ele><time>2026-05-02T07:57:11Z</time></trkpt><trkpt lat="45.6417239" lon="8.2825393"><ele>356.66666666666663</ele><time>2026-05-02T07:57:14.011Z</time></trkpt><trkpt lat="45.641627" lon="8.2826944"><ele>354.3333333333333</ele><time>2026-05-02T07:57:22.004Z</time></trkpt><trkpt lat="45.6415778" lon="8.2827542"><ele>352.0</ele><time>2026-05-02T07:57:25.001Z</time></trkpt><trkpt lat="45.6415129" lon="8.282759"><ele>352.0</ele><time>2026-05-02T07:57:28.008Z</time></trkpt><trkpt lat="45.641431" lon="8.2826894"><ele>352.0</ele><time>2026-05-02T07:57:31.004Z</time></trkpt><trkpt lat="45.6413753" lon="8.2826384"><ele>352.0</ele><time>2026-05-02T07:57:34.006Z</time></trkpt><trkpt lat="45.6413009" lon="8.2826508"><ele>352.0</ele><time>2026-05-02T07:57:37.997Z</time></trkpt><trkpt lat="45.6412924" lon="8.2828439"><ele>352.0</ele><time>2026-05-02T07:57:49Z</time></trkpt><trkpt lat="45.6413098" lon="8.2829347"><ele>352.0</ele><time>2026-05-02T07:57:53Z</time></trkpt><trkpt lat="45.6413206" lon="8.2830309"><ele>349.20000000000005</ele><time>2026-05-02T07:57:56.996Z</time></trkpt><trkpt lat="45.6413504" lon="8.2831331"><ele>346.4</ele><time>2026-05-02T07:58:01.006Z</time></trkpt><trkpt lat="45.6414247" lon="8.2833334"><ele>343.6</ele><time>2026-05-02T07:58:08.011Z</time></trkpt><trkpt lat="45.6414721" lon="8.28345"><ele>340.79999999999995</ele><time>2026-05-02T07:58:13.009Z</time></trkpt><trkpt lat="45.6414944" lon="8.2835544"><ele>338.0</ele><time>2026-05-02T07:58:17.004Z</time></trkpt><trkpt lat="45.6414648" lon="8.2836542"><ele>338.0</ele><time>2026-05-02T07:58:21.016Z</time></trkpt><trkpt lat="45.6414729" lon="8.2837442"><ele>338.0</ele><time>2026-05-02T07:58:24.008Z</time></trkpt><trkpt lat="45.6414936" lon="8.2839281"><ele>338.0</ele><time>2026-05-02T07:58:36.004Z</time></trkpt><trkpt lat="45.6415019" lon="8.284028"><ele>338.0</ele><time>2026-05-02T07:58:39.01Z</time></trkpt><trkpt lat="45.6415426" lon="8.2841255"><ele>338.0</ele><time>2026-05-02T07:58:42.007Z</time></trkpt><trkpt lat="45.6415951" lon="8.2841926"><ele>338.0</ele><time>2026-05-02T07:58:46.015Z</time></trkpt><trkpt lat="45.6416632" lon="8.2843612"><ele>336.59999999999997</ele><time>2026-05-02T07:58:54.01Z</time></trkpt><trkpt lat="45.6416596" lon="8.2844567"><ele>335.2</ele><time>2026-05-02T07:58:57.007Z</time></trkpt><trkpt lat="45.6416173" lon="8.284567"><ele>333.8</ele><time>2026-05-02T07:59:25.007Z</time></trkpt><trkpt lat="45.6414806" lon="8.2846997"><ele>332.4</ele><time>2026-05-02T07:59:30.995Z</time></trkpt><trkpt lat="45.6414091" lon="8.2847288"><ele>331.0</ele><time>2026-05-02T07:59:33.001Z</time></trkpt><trkpt lat="45.6413192" lon="8.2847316"><ele>331.0</ele><time>2026-05-02T07:59:36.006Z</time></trkpt><trkpt lat="45.6412466" lon="8.2847055"><ele>331.0</ele><time>2026-05-02T07:59:39.005Z</time></trkpt><trkpt lat="45.6411782" lon="8.2847094"><ele>331.0</ele><time>2026-05-02T07:59:43.009Z</time></trkpt><trkpt lat="45.6410975" lon="8.2847368"><ele>331.0</ele><time>2026-05-02T07:59:47.01Z</time></trkpt><trkpt lat="45.640934" lon="8.2847448"><ele>331.0</ele><time>2026-05-02T07:59:51.986Z</time></trkpt><trkpt lat="45.6408613" lon="8.2847392"><ele>332.16666666666663</ele><time>2026-05-02T07:59:54.009Z</time></trkpt><trkpt lat="45.6407664" lon="8.2847043"><ele>333.3333333333333</ele><time>2026-05-02T07:59:57.009Z</time></trkpt><trkpt lat="45.6407113" lon="8.2846341"><ele>334.5</ele><time>2026-05-02T07:59:59.001Z</time></trkpt><trkpt lat="45.6406797" lon="8.2845526"><ele>335.6666666666667</ele><time>2026-05-02T08:00:01.01Z</time></trkpt><trkpt lat="45.6406205" lon="8.2844776"><ele>336.83333333333337</ele><time>2026-05-02T08:00:03.01Z</time></trkpt><trkpt lat="45.640534" lon="8.2844667"><ele>338.0</ele><time>2026-05-02T08:00:05.012Z</time></trkpt><trkpt lat="45.6404632" lon="8.2844826"><ele>338.0</ele><time>2026-05-02T08:00:06.005Z</time></trkpt><trkpt lat="45.6403707" lon="8.284506"><ele>338.0</ele><time>2026-05-02T08:00:07.008Z</time></trkpt><trkpt lat="45.640264" lon="8.2845303"><ele>338.0</ele><time>2026-05-02T08:00:07.999Z</time></trkpt><trkpt lat="45.6400672" lon="8.2845696"><ele>338.0</ele><time>2026-05-02T08:00:10.002Z</time></trkpt><trkpt lat="45.6399905" lon="8.2845762"><ele>338.1666666666667</ele><time>2026-05-02T08:00:10.998Z</time></trkpt><trkpt lat="45.6398821" lon="8.2845818"><ele>338.33333333333337</ele><time>2026-05-02T08:00:13.008Z</time></trkpt><trkpt lat="45.6398028" lon="8.2845904"><ele>338.5</ele><time>2026-05-02T08:00:15.003Z</time></trkpt><trkpt lat="45.639728" lon="8.2845825"><ele>338.6666666666667</ele><time>2026-05-02T08:00:16.999Z</time></trkpt><trkpt lat="45.6396603" lon="8.2845537"><ele>338.8333333333333</ele><time>2026-05-02T08:00:19.002Z</time></trkpt><trkpt lat="45.6395664" lon="8.284511"><ele>339.0</ele><time>2026-05-02T08:00:22.003Z</time></trkpt><trkpt lat="45.6394952" lon="8.2844825"><ele>337.2</ele><time>2026-05-02T08:00:24.007Z</time></trkpt><trkpt lat="45.6394292" lon="8.2844679"><ele>335.4</ele><time>2026-05-02T08:00:26.007Z</time></trkpt><trkpt lat="45.639352" lon="8.2844747"><ele>333.6</ele><time>2026-05-02T08:00:27.999Z</time></trkpt><trkpt lat="45.6392478" lon="8.2844706"><ele>331.8</ele><time>2026-05-02T08:00:30.004Z</time></trkpt><trkpt lat="45.6390897" lon="8.2845006"><ele>330.0</ele><time>2026-05-02T08:00:34Z</time></trkpt><trkpt lat="45.6390188" lon="8.2844819"><ele>330.0</ele><time>2026-05-02T08:00:36.004Z</time></trkpt><trkpt lat="45.6389487" lon="8.2844433"><ele>330.0</ele><time>2026-05-02T08:00:38.011Z</time></trkpt><trkpt lat="45.6389105" lon="8.2843468"><ele>330.0</ele><time>2026-05-02T08:00:41.002Z</time></trkpt><trkpt lat="45.638869" lon="8.2842683"><ele>330.0</ele><time>2026-05-02T08:00:44.006Z</time></trkpt><trkpt lat="45.6388004" lon="8.28426"><ele>330.0</ele><time>2026-05-02T08:00:47.995Z</time></trkpt><trkpt lat="45.6387273" lon="8.2842271"><ele>330.0</ele><time>2026-05-02T08:00:51.995Z</time></trkpt><trkpt lat="45.6385998" lon="8.2841597"><ele>330.6</ele><time>2026-05-02T08:01:07.008Z</time></trkpt><trkpt lat="45.6385411" lon="8.2842005"><ele>331.2</ele><time>2026-05-02T08:02:37.014Z</time></trkpt><trkpt lat="45.6384655" lon="8.2843858"><ele>331.79999999999995</ele><time>2026-05-02T08:02:43.004Z</time></trkpt><trkpt lat="45.6384039" lon="8.2844383"><ele>332.4</ele><time>2026-05-02T08:02:53.006Z</time></trkpt><trkpt lat="45.6383253" lon="8.2844934"><ele>333.0</ele><time>2026-05-02T08:02:56.002Z</time></trkpt><trkpt lat="45.6382484" lon="8.2845572"><ele>333.0</ele><time>2026-05-02T08:02:59.009Z</time></trkpt><trkpt lat="45.6381331" lon="8.2846585"><ele>333.0</ele><time>2026-05-02T08:03:02.998Z</time></trkpt><trkpt lat="45.6380746" lon="8.2847137"><ele>333.0</ele><time>2026-05-02T08:03:04.999Z</time></trkpt><trkpt lat="45.6380097" lon="8.2847594"><ele>333.0</ele><time>2026-05-02T08:03:06.998Z</time></trkpt><trkpt lat="45.6379426" lon="8.2847877"><ele>333.0</ele><time>2026-05-02T08:03:09.009Z</time></trkpt><trkpt lat="45.6378732" lon="8.284844"><ele>333.0</ele><time>2026-05-02T08:03:11.986Z</time></trkpt><trkpt lat="45.6378196" lon="8.2849022"><ele>332.79999999999995</ele><time>2026-05-02T08:03:15.005Z</time></trkpt><trkpt lat="45.6377513" lon="8.2849548"><ele>332.6</ele><time>2026-05-02T08:03:18.997Z</time></trkpt><trkpt lat="45.6376436" lon="8.2850046"><ele>332.4</ele><time>2026-05-02T08:03:26.012Z</time></trkpt><trkpt lat="45.6374879" lon="8.2851481"><ele>332.20000000000005</ele><time>2026-05-02T08:03:32.008Z</time></trkpt><trkpt lat="45.6374601" lon="8.2852353"><ele>332.0</ele><time>2026-05-02T08:03:34.003Z</time></trkpt><trkpt lat="45.6374287" lon="8.285357"><ele>332.0</ele><time>2026-05-02T08:03:36.997Z</time></trkpt><trkpt lat="45.6374215" lon="8.2854824"><ele>332.0</ele><time>2026-05-02T08:03:39.998Z</time></trkpt><trkpt lat="45.6374152" lon="8.2855905"><ele>332.0</ele><time>2026-05-02T08:03:43.001Z</time></trkpt><trkpt lat="45.6373762" lon="8.2856874"><ele>332.0</ele><time>2026-05-02T08:03:46.005Z</time></trkpt><trkpt lat="45.6373215" lon="8.2857877"><ele>332.0</ele><time>2026-05-02T08:03:50.01Z</time></trkpt><trkpt lat="45.637244" lon="8.2859598"><ele>330.6666666666667</ele><time>2026-05-02T08:03:57.001Z</time></trkpt><trkpt lat="45.6371941" lon="8.2860698"><ele>329.33333333333337</ele><time>2026-05-02T08:04:00.017Z</time></trkpt><trkpt lat="45.637149" lon="8.2861557"><ele>328.0</ele><time>2026-05-02T08:04:03.008Z</time></trkpt><trkpt lat="45.6370939" lon="8.2862064"><ele>326.6666666666667</ele><time>2026-05-02T08:04:06Z</time></trkpt><trkpt lat="45.6370279" lon="8.2862291"><ele>325.3333333333333</ele><time>2026-05-02T08:04:09.003Z</time></trkpt><trkpt lat="45.6369654" lon="8.2862583"><ele>324.0</ele><time>2026-05-02T08:04:12.004Z</time></trkpt><trkpt lat="45.6368464" lon="8.2863304"><ele>324.0</ele><time>2026-05-02T08:04:20.002Z</time></trkpt><trkpt lat="45.6367838" lon="8.286361"><ele>324.0</ele><time>2026-05-02T08:04:22.006Z</time></trkpt><trkpt lat="45.6367108" lon="8.2863903"><ele>324.0</ele><time>2026-05-02T08:04:24.003Z</time></trkpt><trkpt lat="45.6366358" lon="8.2863947"><ele>324.0</ele><time>2026-05-02T08:04:26.006Z</time></trkpt><trkpt lat="45.6365496" lon="8.2863911"><ele>324.0</ele><time>2026-05-02T08:04:28.008Z</time></trkpt><trkpt lat="45.6364674" lon="8.2864029"><ele>324.0</ele><time>2026-05-02T08:04:30.005Z</time></trkpt><trkpt lat="45.6364021" lon="8.2864085"><ele>324.0</ele><time>2026-05-02T08:04:31.998Z</time></trkpt><trkpt lat="45.6363172" lon="8.2864024"><ele>324.0</ele><time>2026-05-02T08:04:35.001Z</time></trkpt><trkpt lat="45.636184" lon="8.2863496"><ele>324.0</ele><time>2026-05-02T08:04:39.004Z</time></trkpt><trkpt lat="45.6361106" lon="8.2862961"><ele>324.0</ele><time>2026-05-02T08:04:42.002Z</time></trkpt><trkpt lat="45.6360541" lon="8.2862439"><ele>324.0</ele><time>2026-05-02T08:04:48.007Z</time></trkpt><trkpt lat="45.6359897" lon="8.2862456"><ele>324.0</ele><time>2026-05-02T08:04:53.005Z</time></trkpt><trkpt lat="45.6359425" lon="8.286327"><ele>322.59999999999997</ele><time>2026-05-02T08:05:06.987Z</time></trkpt><trkpt lat="45.635872" lon="8.2865076"><ele>321.2</ele><time>2026-05-02T08:05:20.991Z</time></trkpt><trkpt lat="45.6358401" lon="8.286586"><ele>319.79999999999995</ele><time>2026-05-02T08:05:22.997Z</time></trkpt><trkpt lat="45.6358016" lon="8.2866615"><ele>318.4</ele><time>2026-05-02T08:05:24.994Z</time></trkpt><trkpt lat="45.6357516" lon="8.2867521"><ele>317.0</ele><time>2026-05-02T08:05:28.002Z</time></trkpt><trkpt lat="45.6356313" lon="8.286846"><ele>317.0</ele><time>2026-05-02T08:05:34.009Z</time></trkpt><trkpt lat="45.6355427" lon="8.2868938"><ele>317.0</ele><time>2026-05-02T08:05:36.994Z</time></trkpt><trkpt lat="45.6354839" lon="8.2869326"><ele>317.0</ele><time>2026-05-02T08:05:39.001Z</time></trkpt><trkpt lat="45.6353936" lon="8.2869682"><ele>317.0</ele><time>2026-05-02T08:05:41.994Z</time></trkpt><trkpt lat="45.6353303" lon="8.2869823"><ele>317.0</ele><time>2026-05-02T08:05:44.005Z</time></trkpt><trkpt lat="45.6352605" lon="8.2870004"><ele>317.0</ele><time>2026-05-02T08:05:46.005Z</time></trkpt><trkpt lat="45.6351692" lon="8.2870278"><ele>317.0</ele><time>2026-05-02T08:05:49.01Z</time></trkpt><trkpt lat="45.6350073" lon="8.2870619"><ele>317.0</ele><time>2026-05-02T08:05:54.997Z</time></trkpt><trkpt lat="45.6349355" lon="8.2870987"><ele>317.0</ele><time>2026-05-02T08:05:58.995Z</time></trkpt><trkpt lat="45.6348672" lon="8.2871461"><ele>317.0</ele><time>2026-05-02T08:06:01.999Z</time></trkpt><trkpt lat="45.6348016" lon="8.2871901"><ele>317.0</ele><time>2026-05-02T08:06:04.009Z</time></trkpt><trkpt lat="45.6347188" lon="8.2872621"><ele>317.0</ele><time>2026-05-02T08:06:05.993Z</time></trkpt><trkpt lat="45.6346091" lon="8.2873635"><ele>317.0</ele><time>2026-05-02T08:06:08Z</time></trkpt><trkpt lat="45.6345396" lon="8.2874361"><ele>317.0</ele><time>2026-05-02T08:06:09.007Z</time></trkpt><trkpt lat="45.6344647" lon="8.2875235"><ele>317.0</ele><time>2026-05-02T08:06:09.99Z</time></trkpt><trkpt lat="45.6342977" lon="8.2877168"><ele>318.0</ele><time>2026-05-02T08:06:11.998Z</time></trkpt><trkpt lat="45.6342152" lon="8.2878169"><ele>319.0</ele><time>2026-05-02T08:06:13.007Z</time></trkpt><trkpt lat="45.6341344" lon="8.2879157"><ele>320.0</ele><time>2026-05-02T08:06:14.003Z</time></trkpt><trkpt lat="45.6340486" lon="8.2880307"><ele>321.0</ele><time>2026-05-02T08:06:15.003Z</time></trkpt><trkpt lat="45.6339501" lon="8.2881647"><ele>321.0</ele><time>2026-05-02T08:06:16.003Z</time></trkpt><trkpt lat="45.633848" lon="8.2882938"><ele>321.0</ele><time>2026-05-02T08:06:16.999Z</time></trkpt><trkpt lat="45.633733" lon="8.2884093"><ele>321.0</ele><time>2026-05-02T08:06:17.997Z</time></trkpt><trkpt lat="45.6336206" lon="8.2885083"><ele>321.0</ele><time>2026-05-02T08:06:18.997Z</time></trkpt><trkpt lat="45.6335131" lon="8.2885984"><ele>319.8333333333333</ele><time>2026-05-02T08:06:20.003Z</time></trkpt><trkpt lat="45.6334063" lon="8.2886816"><ele>318.6666666666667</ele><time>2026-05-02T08:06:21.005Z</time></trkpt><trkpt lat="45.6333141" lon="8.2887452"><ele>317.5</ele><time>2026-05-02T08:06:21.993Z</time></trkpt><trkpt lat="45.6332359" lon="8.2888017"><ele>316.33333333333337</ele><time>2026-05-02T08:06:23Z</time></trkpt><trkpt lat="45.6331732" lon="8.2887861"><ele>315.1666666666667</ele><time>2026-05-02T08:06:24.999Z</time></trkpt><trkpt lat="45.6330993" lon="8.2887853"><ele>314.0</ele><time>2026-05-02T08:06:27.007Z</time></trkpt><trkpt lat="45.633011" lon="8.2887842"><ele>314.0</ele><time>2026-05-02T08:06:30.007Z</time></trkpt><trkpt lat="45.6329315" lon="8.2887669"><ele>314.0</ele><time>2026-05-02T08:06:33.003Z</time></trkpt><trkpt lat="45.6327608" lon="8.2886177"><ele>314.0</ele><time>2026-05-02T08:07:02.991Z</time></trkpt><trkpt lat="45.6327101" lon="8.2885255"><ele>314.0</ele><time>2026-05-02T08:07:06.009Z</time></trkpt><trkpt lat="45.6326654" lon="8.2884282"><ele>314.0</ele><time>2026-05-02T08:07:08.995Z</time></trkpt><trkpt lat="45.6326069" lon="8.2883161"><ele>313.4</ele><time>2026-05-02T08:07:12.009Z</time></trkpt><trkpt lat="45.6325366" lon="8.2882573"><ele>312.79999999999995</ele><time>2026-05-02T08:07:15Z</time></trkpt><trkpt lat="45.632459" lon="8.2881888"><ele>312.20000000000005</ele><time>2026-05-02T08:07:18Z</time></trkpt><trkpt lat="45.6323704" lon="8.2882886"><ele>311.6</ele><time>2026-05-02T08:07:31.002Z</time></trkpt><trkpt lat="45.632352" lon="8.2884042"><ele>311.0</ele><time>2026-05-02T08:07:31.992Z</time></trkpt><trkpt lat="45.6323271" lon="8.2885493"><ele>311.0</ele><time>2026-05-02T08:07:33.007Z</time></trkpt><trkpt lat="45.6323005" lon="8.2887294"><ele>311.0</ele><time>2026-05-02T08:07:33.995Z</time></trkpt><trkpt lat="45.6322617" lon="8.2889228"><ele>311.0</ele><time>2026-05-02T08:07:34.997Z</time></trkpt><trkpt lat="45.632203" lon="8.2891087"><ele>311.0</ele><time>2026-05-02T08:07:36.004Z</time></trkpt><trkpt lat="45.6321045" lon="8.2892697"><ele>313.33333333333337</ele><time>2026-05-02T08:07:37.006Z</time></trkpt><trkpt lat="45.6319735" lon="8.2894051"><ele>315.6666666666667</ele><time>2026-05-02T08:07:38.006Z</time></trkpt><trkpt lat="45.6318063" lon="8.28951"><ele>318.0</ele><time>2026-05-02T08:07:39.007Z</time></trkpt><trkpt lat="45.6314298" lon="8.2896047"><ele>318.0</ele><time>2026-05-02T08:07:41.007Z</time></trkpt><trkpt lat="45.6312686" lon="8.2896099"><ele>318.0</ele><time>2026-05-02T08:07:42.03Z</time></trkpt><trkpt lat="45.6311344" lon="8.2896055"><ele>318.0</ele><time>2026-05-02T08:07:43.004Z</time></trkpt><trkpt lat="45.6310285" lon="8.2895971"><ele>318.0</ele><time>2026-05-02T08:07:44.01Z</time></trkpt><trkpt lat="45.6309497" lon="8.2895838"><ele>319.4</ele><time>2026-05-02T08:07:45.008Z</time></trkpt><trkpt lat="45.6308871" lon="8.2895677"><ele>320.8</ele><time>2026-05-02T08:07:46.01Z</time></trkpt><trkpt lat="45.6307791" lon="8.2895133"><ele>322.2</ele><time>2026-05-02T08:07:47.995Z</time></trkpt><trkpt lat="45.6306864" lon="8.2894087"><ele>323.6</ele><time>2026-05-02T08:07:50.01Z</time></trkpt><trkpt lat="45.6306268" lon="8.2892506"><ele>325.0</ele><time>2026-05-02T08:07:52.006Z</time></trkpt><trkpt lat="45.630582" lon="8.2891009"><ele>325.0</ele><time>2026-05-02T08:07:54.002Z</time></trkpt><trkpt lat="45.6305328" lon="8.2889689"><ele>325.0</ele><time>2026-05-02T08:07:56Z</time></trkpt><trkpt lat="45.6304679" lon="8.2888614"><ele>325.0</ele><time>2026-05-02T08:07:58.006Z</time></trkpt><trkpt lat="45.6303974" lon="8.2887982"><ele>325.0</ele><time>2026-05-02T08:07:59.995Z</time></trkpt><trkpt lat="45.6302435" lon="8.2887627"><ele>325.0</ele><time>2026-05-02T08:08:04.005Z</time></trkpt><trkpt lat="45.6301616" lon="8.288782"><ele>326.0</ele><time>2026-05-02T08:08:05.995Z</time></trkpt><trkpt lat="45.6300869" lon="8.2888455"><ele>327.0</ele><time>2026-05-02T08:08:08.012Z</time></trkpt><trkpt lat="45.6300226" lon="8.2889565"><ele>328.0</ele><time>2026-05-02T08:08:10.005Z</time></trkpt><trkpt lat="45.6299914" lon="8.2890762"><ele>329.0</ele><time>2026-05-02T08:08:11.997Z</time></trkpt><trkpt lat="45.6299669" lon="8.2892005"><ele>330.0</ele><time>2026-05-02T08:08:13.995Z</time></trkpt><trkpt lat="45.629951" lon="8.2893257"><ele>330.0</ele><time>2026-05-02T08:08:15.991Z</time></trkpt><trkpt lat="45.629946" lon="8.2894163"><ele>330.0</ele><time>2026-05-02T08:08:17.001Z</time></trkpt><trkpt lat="45.6299336" lon="8.2895229"><ele>330.0</ele><time>2026-05-02T08:08:17.999Z</time></trkpt><trkpt lat="45.6299048" lon="8.2896292"><ele>330.0</ele><time>2026-05-02T08:08:19.005Z</time></trkpt><trkpt lat="45.6298647" lon="8.2897264"><ele>330.0</ele><time>2026-05-02T08:08:19.999Z</time></trkpt><trkpt lat="45.6298133" lon="8.2898091"><ele>330.0</ele><time>2026-05-02T08:08:21.009Z</time></trkpt><trkpt lat="45.6297031" lon="8.2899496"><ele>331.5714285714286</ele><time>2026-05-02T08:08:23Z</time></trkpt><trkpt lat="45.6296514" lon="8.2900276"><ele>333.14285714285717</ele><time>2026-05-02T08:08:24Z</time></trkpt><trkpt lat="45.629615" lon="8.2901164"><ele>334.7142857142857</ele><time>2026-05-02T08:08:25.002Z</time></trkpt><trkpt lat="45.6295901" lon="8.2902128"><ele>336.28571428571433</ele><time>2026-05-02T08:08:26.003Z</time></trkpt><trkpt lat="45.6295872" lon="8.2903143"><ele>337.8571428571429</ele><time>2026-05-02T08:08:27.008Z</time></trkpt><trkpt lat="45.6295967" lon="8.2904159"><ele>339.42857142857144</ele><time>2026-05-02T08:08:27.994Z</time></trkpt><trkpt lat="45.6295928" lon="8.290509"><ele>341.0</ele><time>2026-05-02T08:08:29.008Z</time></trkpt><trkpt lat="45.6295671" lon="8.2905926"><ele>341.2857142857143</ele><time>2026-05-02T08:08:30.002Z</time></trkpt><trkpt lat="45.6295216" lon="8.2906566"><ele>341.57142857142856</ele><time>2026-05-02T08:08:31.01Z</time></trkpt><trkpt lat="45.6294601" lon="8.2906875"><ele>341.8571428571429</ele><time>2026-05-02T08:08:31.996Z</time></trkpt><trkpt lat="45.629388" lon="8.2906922"><ele>342.1428571428571</ele><time>2026-05-02T08:08:33.011Z</time></trkpt><trkpt lat="45.6293159" lon="8.2906804"><ele>342.42857142857144</ele><time>2026-05-02T08:08:33.998Z</time></trkpt><trkpt lat="45.6292396" lon="8.2906656"><ele>342.7142857142857</ele><time>2026-05-02T08:08:35.004Z</time></trkpt><trkpt lat="45.6291606" lon="8.2906642"><ele>343.0</ele><time>2026-05-02T08:08:36.003Z</time></trkpt><trkpt lat="45.6290828" lon="8.2906846"><ele>343.0</ele><time>2026-05-02T08:08:37.005Z</time></trkpt><trkpt lat="45.6290093" lon="8.2907183"><ele>343.0</ele><time>2026-05-02T08:08:38.004Z</time></trkpt><trkpt lat="45.6289528" lon="8.2907777"><ele>343.0</ele><time>2026-05-02T08:08:38.998Z</time></trkpt><trkpt lat="45.6289131" lon="8.2908598"><ele>343.0</ele><time>2026-05-02T08:08:39.992Z</time></trkpt><trkpt lat="45.6288966" lon="8.2909712"><ele>343.0</ele><time>2026-05-02T08:08:41.001Z</time></trkpt><trkpt lat="45.6289001" lon="8.2910801"><ele>343.0</ele><time>2026-05-02T08:08:42.003Z</time></trkpt><trkpt lat="45.6289338" lon="8.2912707"><ele>343.0</ele><time>2026-05-02T08:08:44Z</time></trkpt><trkpt lat="45.6289493" lon="8.2913581"><ele>343.0</ele><time>2026-05-02T08:08:44.997Z</time></trkpt><trkpt lat="45.6289632" lon="8.2914495"><ele>343.0</ele><time>2026-05-02T08:08:46.007Z</time></trkpt><trkpt lat="45.6289632" lon="8.291552"><ele>343.0</ele><time>2026-05-02T08:08:47.001Z</time></trkpt><trkpt lat="45.6289467" lon="8.2916621"><ele>343.0</ele><time>2026-05-02T08:08:48.002Z</time></trkpt><trkpt lat="45.6289161" lon="8.2917663"><ele>343.0</ele><time>2026-05-02T08:08:49.002Z</time></trkpt><trkpt lat="45.6288671" lon="8.291859"><ele>343.0</ele><time>2026-05-02T08:08:50.006Z</time></trkpt><trkpt lat="45.6288052" lon="8.2919422"><ele>344.0</ele><time>2026-05-02T08:08:51.008Z</time></trkpt><trkpt lat="45.6287351" lon="8.2920215"><ele>345.0</ele><time>2026-05-02T08:08:51.995Z</time></trkpt><trkpt lat="45.6286638" lon="8.2921002"><ele>346.0</ele><time>2026-05-02T08:08:53.004Z</time></trkpt><trkpt lat="45.6285922" lon="8.2921725"><ele>347.0</ele><time>2026-05-02T08:08:54.012Z</time></trkpt><trkpt lat="45.6285173" lon="8.2922375"><ele>348.0</ele><time>2026-05-02T08:08:55.009Z</time></trkpt><trkpt lat="45.628439" lon="8.2922914"><ele>349.0</ele><time>2026-05-02T08:08:56.001Z</time></trkpt><trkpt lat="45.628359" lon="8.2923407"><ele>349.0</ele><time>2026-05-02T08:08:56.996Z</time></trkpt><trkpt lat="45.6282816" lon="8.2923923"><ele>349.0</ele><time>2026-05-02T08:08:58.002Z</time></trkpt><trkpt lat="45.6282094" lon="8.2924514"><ele>349.0</ele><time>2026-05-02T08:08:59.002Z</time></trkpt><trkpt lat="45.6281412" lon="8.2925085"><ele>349.0</ele><time>2026-05-02T08:09:00.004Z</time></trkpt><trkpt lat="45.6280825" lon="8.2925739"><ele>349.0</ele><time>2026-05-02T08:09:00.999Z</time></trkpt><trkpt lat="45.6280399" lon="8.2926487"><ele>349.0</ele><time>2026-05-02T08:09:02.015Z</time></trkpt><trkpt lat="45.6280081" lon="8.2927307"><ele>349.0</ele><time>2026-05-02T08:09:03.007Z</time></trkpt><trkpt lat="45.6278935" lon="8.2929747"><ele>349.0</ele><time>2026-05-02T08:09:07.004Z</time></trkpt><trkpt lat="45.6278218" lon="8.2930854"><ele>349.0</ele><time>2026-05-02T08:09:08.995Z</time></trkpt><trkpt lat="45.6277308" lon="8.2931823"><ele>349.0</ele><time>2026-05-02T08:09:10.997Z</time></trkpt><trkpt lat="45.627668" lon="8.2932195"><ele>349.0</ele><time>2026-05-02T08:09:12.001Z</time></trkpt><trkpt lat="45.6276035" lon="8.2932465"><ele>349.0</ele><time>2026-05-02T08:09:12.999Z</time></trkpt><trkpt lat="45.6275355" lon="8.2932613"><ele>349.0</ele><time>2026-05-02T08:09:14.005Z</time></trkpt><trkpt lat="45.6274695" lon="8.2932649"><ele>349.0</ele><time>2026-05-02T08:09:15.005Z</time></trkpt><trkpt lat="45.6274065" lon="8.2932596"><ele>349.0</ele><time>2026-05-02T08:09:16.009Z</time></trkpt><trkpt lat="45.6272918" lon="8.293253"><ele>349.0</ele><time>2026-05-02T08:09:18.014Z</time></trkpt><trkpt lat="45.6271996" lon="8.293246"><ele>349.0</ele><time>2026-05-02T08:09:20.009Z</time></trkpt><trkpt lat="45.6270944" lon="8.2932176"><ele>349.0</ele><time>2026-05-02T08:09:22.007Z</time></trkpt><trkpt lat="45.6269832" lon="8.2931697"><ele>349.0</ele><time>2026-05-02T08:09:24.005Z</time></trkpt><trkpt lat="45.6267938" lon="8.2931714"><ele>349.0</ele><time>2026-05-02T08:09:27.998Z</time></trkpt><trkpt lat="45.6266852" lon="8.2932516"><ele>350.79999999999995</ele><time>2026-05-02T08:09:29.996Z</time></trkpt><trkpt lat="45.6265867" lon="8.2933594"><ele>352.59999999999997</ele><time>2026-05-02T08:09:31.993Z</time></trkpt><trkpt lat="45.6265068" lon="8.2934651"><ele>354.4</ele><time>2026-05-02T08:09:33.998Z</time></trkpt><trkpt lat="45.6264695" lon="8.2935381"><ele>356.2</ele><time>2026-05-02T08:09:35.998Z</time></trkpt><trkpt lat="45.6263791" lon="8.2934818"><ele>358.0</ele><time>2026-05-02T08:09:39.005Z</time></trkpt><trkpt lat="45.6263124" lon="8.2934242"><ele>358.0</ele><time>2026-05-02T08:09:40.999Z</time></trkpt><trkpt lat="45.6262501" lon="8.2933669"><ele>358.0</ele><time>2026-05-02T08:09:44.001Z</time></trkpt><trkpt lat="45.6261749" lon="8.2933432"><ele>358.0</ele><time>2026-05-02T08:09:46.991Z</time></trkpt><trkpt lat="45.6260028" lon="8.2933288"><ele>358.0</ele><time>2026-05-02T08:09:50.996Z</time></trkpt><trkpt lat="45.6259278" lon="8.2933866"><ele>358.0</ele><time>2026-05-02T08:09:52.998Z</time></trkpt><trkpt lat="45.6258425" lon="8.2934882"><ele>358.0</ele><time>2026-05-02T08:09:55.012Z</time></trkpt><trkpt lat="45.6257575" lon="8.2936096"><ele>358.0</ele><time>2026-05-02T08:09:57Z</time></trkpt><trkpt lat="45.6256705" lon="8.293711"><ele>358.0</ele><time>2026-05-02T08:09:58.987Z</time></trkpt><trkpt lat="45.6255743" lon="8.2938311"><ele>358.0</ele><time>2026-05-02T08:10:00.996Z</time></trkpt><trkpt lat="45.625527" lon="8.2939043"><ele>358.0</ele><time>2026-05-02T08:10:01.998Z</time></trkpt><trkpt lat="45.625476" lon="8.2939743"><ele>358.0</ele><time>2026-05-02T08:10:03Z</time></trkpt><trkpt lat="45.6254229" lon="8.2940381"><ele>358.0</ele><time>2026-05-02T08:10:04.01Z</time></trkpt><trkpt lat="45.6253729" lon="8.2940971"><ele>358.0</ele><time>2026-05-02T08:10:05Z</time></trkpt><trkpt lat="45.6252886" lon="8.2942242"><ele>358.0</ele><time>2026-05-02T08:10:07.001Z</time></trkpt><trkpt lat="45.6252172" lon="8.2943524"><ele>358.0</ele><time>2026-05-02T08:10:09.003Z</time></trkpt><trkpt lat="45.6251513" lon="8.2946548"><ele>356.0</ele><time>2026-05-02T08:10:12.999Z</time></trkpt><trkpt lat="45.625133" lon="8.2947594"><ele>354.0</ele><time>2026-05-02T08:10:13.998Z</time></trkpt><trkpt lat="45.6251169" lon="8.2948805"><ele>352.0</ele><time>2026-05-02T08:10:15Z</time></trkpt><trkpt lat="45.6250873" lon="8.295017"><ele>350.0</ele><time>2026-05-02T08:10:16.006Z</time></trkpt><trkpt lat="45.6250508" lon="8.2951563"><ele>348.0</ele><time>2026-05-02T08:10:17.002Z</time></trkpt><trkpt lat="45.6250011" lon="8.2952843"><ele>348.0</ele><time>2026-05-02T08:10:18.003Z</time></trkpt><trkpt lat="45.6249388" lon="8.2953991"><ele>348.0</ele><time>2026-05-02T08:10:19Z</time></trkpt><trkpt lat="45.6248732" lon="8.2955053"><ele>348.0</ele><time>2026-05-02T08:10:19.999Z</time></trkpt><trkpt lat="45.6248015" lon="8.2956115"><ele>348.0</ele><time>2026-05-02T08:10:21.004Z</time></trkpt><trkpt lat="45.6247284" lon="8.2957169"><ele>348.0</ele><time>2026-05-02T08:10:22.012Z</time></trkpt><trkpt lat="45.6246507" lon="8.2958266"><ele>346.79999999999995</ele><time>2026-05-02T08:10:22.995Z</time></trkpt><trkpt lat="45.6245739" lon="8.2959429"><ele>345.6</ele><time>2026-05-02T08:10:24.009Z</time></trkpt><trkpt lat="45.6245024" lon="8.2960596"><ele>344.4</ele><time>2026-05-02T08:10:25.003Z</time></trkpt><trkpt lat="45.6244254" lon="8.2961752"><ele>343.20000000000005</ele><time>2026-05-02T08:10:26Z</time></trkpt><trkpt lat="45.6243483" lon="8.2962906"><ele>342.0</ele><time>2026-05-02T08:10:26.998Z</time></trkpt><trkpt lat="45.6242711" lon="8.2964087"><ele>341.0</ele><time>2026-05-02T08:10:28.004Z</time></trkpt><trkpt lat="45.6241943" lon="8.2965268"><ele>340.0</ele><time>2026-05-02T08:10:29Z</time></trkpt><trkpt lat="45.6241175" lon="8.2966412"><ele>339.0</ele><time>2026-05-02T08:10:30.008Z</time></trkpt><trkpt lat="45.6239719" lon="8.2968561"><ele>338.0</ele><time>2026-05-02T08:10:32Z</time></trkpt><trkpt lat="45.6239069" lon="8.2969574"><ele>338.0</ele><time>2026-05-02T08:10:32.991Z</time></trkpt><trkpt lat="45.623841" lon="8.2970621"><ele>338.0</ele><time>2026-05-02T08:10:34.003Z</time></trkpt><trkpt lat="45.6237696" lon="8.2971703"><ele>338.0</ele><time>2026-05-02T08:10:34.997Z</time></trkpt><trkpt lat="45.623696" lon="8.2972831"><ele>338.0</ele><time>2026-05-02T08:10:35.997Z</time></trkpt><trkpt lat="45.6236252" lon="8.2973934"><ele>338.0</ele><time>2026-05-02T08:10:36.995Z</time></trkpt><trkpt lat="45.6235616" lon="8.2975095"><ele>337.79999999999995</ele><time>2026-05-02T08:10:37.996Z</time></trkpt><trkpt lat="45.6235031" lon="8.2976294"><ele>337.6</ele><time>2026-05-02T08:10:39.002Z</time></trkpt><trkpt lat="45.6234517" lon="8.2977588"><ele>337.4</ele><time>2026-05-02T08:10:40.001Z</time></trkpt><trkpt lat="45.6234096" lon="8.2978897"><ele>337.20000000000005</ele><time>2026-05-02T08:10:41.004Z</time></trkpt><trkpt lat="45.6233678" lon="8.2980123"><ele>337.0</ele><time>2026-05-02T08:10:41.998Z</time></trkpt><trkpt lat="45.623315" lon="8.2981216"><ele>337.5</ele><time>2026-05-02T08:10:43Z</time></trkpt><trkpt lat="45.6232583" lon="8.2982214"><ele>338.0</ele><time>2026-05-02T08:10:44.003Z</time></trkpt><trkpt lat="45.6231992" lon="8.2983073"><ele>338.5</ele><time>2026-05-02T08:10:45.005Z</time></trkpt><trkpt lat="45.6231354" lon="8.2983946"><ele>339.0</ele><time>2026-05-02T08:10:46.016Z</time></trkpt><trkpt lat="45.6230719" lon="8.2984834"><ele>339.5</ele><time>2026-05-02T08:10:47.008Z</time></trkpt><trkpt lat="45.6230129" lon="8.2985811"><ele>340.0</ele><time>2026-05-02T08:10:48.013Z</time></trkpt><trkpt lat="45.6229598" lon="8.2986858"><ele>340.0</ele><time>2026-05-02T08:10:48.999Z</time></trkpt><trkpt lat="45.6229126" lon="8.2987982"><ele>340.0</ele><time>2026-05-02T08:10:50.009Z</time></trkpt><trkpt lat="45.622877" lon="8.2989162"><ele>340.0</ele><time>2026-05-02T08:10:51.006Z</time></trkpt><trkpt lat="45.6228199" lon="8.2991664"><ele>340.0</ele><time>2026-05-02T08:10:53.005Z</time></trkpt><trkpt lat="45.6227948" lon="8.2992896"><ele>339.5</ele><time>2026-05-02T08:10:54.004Z</time></trkpt><trkpt lat="45.6227711" lon="8.2994112"><ele>339.0</ele><time>2026-05-02T08:10:55.01Z</time></trkpt><trkpt lat="45.6227469" lon="8.2995252"><ele>338.5</ele><time>2026-05-02T08:10:56.002Z</time></trkpt><trkpt lat="45.6227246" lon="8.2996384"><ele>338.0</ele><time>2026-05-02T08:10:57.009Z</time></trkpt><trkpt lat="45.6227016" lon="8.2997482"><ele>337.5</ele><time>2026-05-02T08:10:57.993Z</time></trkpt><trkpt lat="45.6226719" lon="8.2998557"><ele>337.0</ele><time>2026-05-02T08:10:59.013Z</time></trkpt><trkpt lat="45.6226345" lon="8.2999616"><ele>336.66666666666663</ele><time>2026-05-02T08:11:00.002Z</time></trkpt><trkpt lat="45.6225928" lon="8.3000609"><ele>336.3333333333333</ele><time>2026-05-02T08:11:01.003Z</time></trkpt><trkpt lat="45.6225416" lon="8.3001526"><ele>336.0</ele><time>2026-05-02T08:11:02.005Z</time></trkpt><trkpt lat="45.6224845" lon="8.3002343"><ele>335.6666666666667</ele><time>2026-05-02T08:11:03.004Z</time></trkpt><trkpt lat="45.6224197" lon="8.3003138"><ele>335.33333333333337</ele><time>2026-05-02T08:11:04.003Z</time></trkpt><trkpt lat="45.6223556" lon="8.300395"><ele>335.0</ele><time>2026-05-02T08:11:05.005Z</time></trkpt><trkpt lat="45.6222918" lon="8.3004799"><ele>335.0</ele><time>2026-05-02T08:11:06.004Z</time></trkpt><trkpt lat="45.6222269" lon="8.3005678"><ele>335.0</ele><time>2026-05-02T08:11:07.008Z</time></trkpt><trkpt lat="45.6221665" lon="8.30065"><ele>335.0</ele><time>2026-05-02T08:11:07.996Z</time></trkpt><trkpt lat="45.6221082" lon="8.3007302"><ele>335.0</ele><time>2026-05-02T08:11:09.007Z</time></trkpt><trkpt lat="45.6220483" lon="8.3008081"><ele>335.0</ele><time>2026-05-02T08:11:09.996Z</time></trkpt><trkpt lat="45.6219853" lon="8.3008864"><ele>335.0</ele><time>2026-05-02T08:11:11.004Z</time></trkpt><trkpt lat="45.6219235" lon="8.3009618"><ele>334.6</ele><time>2026-05-02T08:11:12.004Z</time></trkpt><trkpt lat="45.6218054" lon="8.3011222"><ele>334.2</ele><time>2026-05-02T08:11:14.005Z</time></trkpt><trkpt lat="45.6217453" lon="8.3012108"><ele>333.79999999999995</ele><time>2026-05-02T08:11:15.004Z</time></trkpt><trkpt lat="45.6216809" lon="8.3012951"><ele>333.4</ele><time>2026-05-02T08:11:16.002Z</time></trkpt><trkpt lat="45.6216082" lon="8.301383"><ele>333.0</ele><time>2026-05-02T08:11:17.005Z</time></trkpt><trkpt lat="45.6215354" lon="8.3014759"><ele>331.79999999999995</ele><time>2026-05-02T08:11:17.99Z</time></trkpt><trkpt lat="45.6214632" lon="8.3015804"><ele>330.6</ele><time>2026-05-02T08:11:19.005Z</time></trkpt><trkpt lat="45.6213917" lon="8.3016793"><ele>329.4</ele><time>2026-05-02T08:11:19.996Z</time></trkpt><trkpt lat="45.6213157" lon="8.3017879"><ele>328.20000000000005</ele><time>2026-05-02T08:11:21.012Z</time></trkpt><trkpt lat="45.6212427" lon="8.3018945"><ele>327.0</ele><time>2026-05-02T08:11:21.997Z</time></trkpt><trkpt lat="45.6211765" lon="8.3019941"><ele>327.40000000000003</ele><time>2026-05-02T08:11:23.006Z</time></trkpt><trkpt lat="45.6211147" lon="8.3020998"><ele>327.8</ele><time>2026-05-02T08:11:24.001Z</time></trkpt><trkpt lat="45.6210521" lon="8.3022066"><ele>328.2</ele><time>2026-05-02T08:11:25.001Z</time></trkpt><trkpt lat="45.6209905" lon="8.3023149"><ele>328.6</ele><time>2026-05-02T08:11:26Z</time></trkpt><trkpt lat="45.6209334" lon="8.3024212"><ele>329.0</ele><time>2026-05-02T08:11:27.007Z</time></trkpt><trkpt lat="45.6208761" lon="8.3025259"><ele>329.33333333333337</ele><time>2026-05-02T08:11:28.001Z</time></trkpt><trkpt lat="45.6208203" lon="8.3026288"><ele>329.6666666666667</ele><time>2026-05-02T08:11:28.998Z</time></trkpt><trkpt lat="45.6207677" lon="8.3027281"><ele>330.0</ele><time>2026-05-02T08:11:30Z</time></trkpt><trkpt lat="45.6207152" lon="8.3028218"><ele>330.3333333333333</ele><time>2026-05-02T08:11:30.987Z</time></trkpt><trkpt lat="45.6206602" lon="8.3029138"><ele>330.66666666666663</ele><time>2026-05-02T08:11:31.995Z</time></trkpt><trkpt lat="45.6206035" lon="8.3030098"><ele>331.0</ele><time>2026-05-02T08:11:32.995Z</time></trkpt><trkpt lat="45.6204971" lon="8.3032031"><ele>331.0</ele><time>2026-05-02T08:11:35.001Z</time></trkpt><trkpt lat="45.620443" lon="8.3032897"><ele>331.0</ele><time>2026-05-02T08:11:36.001Z</time></trkpt><trkpt lat="45.6203871" lon="8.3033751"><ele>331.0</ele><time>2026-05-02T08:11:36.989Z</time></trkpt><trkpt lat="45.6203285" lon="8.3034653"><ele>331.0</ele><time>2026-05-02T08:11:38.008Z</time></trkpt><trkpt lat="45.6202673" lon="8.3035548"><ele>331.0</ele><time>2026-05-02T08:11:39Z</time></trkpt><trkpt lat="45.6202036" lon="8.3036448"><ele>331.0</ele><time>2026-05-02T08:11:40.007Z</time></trkpt><trkpt lat="45.6201432" lon="8.3037335"><ele>331.0</ele><time>2026-05-02T08:11:40.999Z</time></trkpt><trkpt lat="45.620079" lon="8.3038186"><ele>331.0</ele><time>2026-05-02T08:11:42.007Z</time></trkpt><trkpt lat="45.6200195" lon="8.3039078"><ele>331.0</ele><time>2026-05-02T08:11:43Z</time></trkpt><trkpt lat="45.619973" lon="8.3039972"><ele>331.0</ele><time>2026-05-02T08:11:44.007Z</time></trkpt><trkpt lat="45.6199351" lon="8.304098"><ele>331.0</ele><time>2026-05-02T08:11:45.009Z</time></trkpt><trkpt lat="45.6199048" lon="8.3042089"><ele>331.0</ele><time>2026-05-02T08:11:46.006Z</time></trkpt><trkpt lat="45.619882" lon="8.3043271"><ele>330.16666666666663</ele><time>2026-05-02T08:11:47.003Z</time></trkpt><trkpt lat="45.6198582" lon="8.3044508"><ele>329.3333333333333</ele><time>2026-05-02T08:11:48.008Z</time></trkpt><trkpt lat="45.6198174" lon="8.3045624"><ele>328.5</ele><time>2026-05-02T08:11:49.001Z</time></trkpt><trkpt lat="45.619773" lon="8.3046638"><ele>327.6666666666667</ele><time>2026-05-02T08:11:50.013Z</time></trkpt><trkpt lat="45.6197289" lon="8.3047543"><ele>326.83333333333337</ele><time>2026-05-02T08:11:51.009Z</time></trkpt><trkpt lat="45.619675" lon="8.3048338"><ele>326.0</ele><time>2026-05-02T08:11:51.997Z</time></trkpt><trkpt lat="45.6196156" lon="8.3049024"><ele>325.20000000000005</ele><time>2026-05-02T08:11:53.005Z</time></trkpt><trkpt lat="45.6195497" lon="8.3049657"><ele>324.40000000000003</ele><time>2026-05-02T08:11:54.003Z</time></trkpt><trkpt lat="45.6194217" lon="8.30508"><ele>323.6</ele><time>2026-05-02T08:11:56.001Z</time></trkpt><trkpt lat="45.6193663" lon="8.3051448"><ele>322.8</ele><time>2026-05-02T08:11:57.002Z</time></trkpt><trkpt lat="45.6193071" lon="8.3052122"><ele>322.0</ele><time>2026-05-02T08:11:58.009Z</time></trkpt><trkpt lat="45.6192439" lon="8.3052792"><ele>322.0</ele><time>2026-05-02T08:11:59.006Z</time></trkpt><trkpt lat="45.619185" lon="8.3053506"><ele>322.0</ele><time>2026-05-02T08:12:00.001Z</time></trkpt><trkpt lat="45.6191251" lon="8.3054259"><ele>322.0</ele><time>2026-05-02T08:12:01.005Z</time></trkpt><trkpt lat="45.6190632" lon="8.3055071"><ele>322.0</ele><time>2026-05-02T08:12:02.001Z</time></trkpt><trkpt lat="45.6190089" lon="8.3055921"><ele>322.0</ele><time>2026-05-02T08:12:03.007Z</time></trkpt><trkpt lat="45.6189606" lon="8.3056791"><ele>322.0</ele><time>2026-05-02T08:12:03.995Z</time></trkpt><trkpt lat="45.6189104" lon="8.3057681"><ele>321.8333333333333</ele><time>2026-05-02T08:12:05.001Z</time></trkpt><trkpt lat="45.6188605" lon="8.3058624"><ele>321.66666666666663</ele><time>2026-05-02T08:12:06.007Z</time></trkpt><trkpt lat="45.618814" lon="8.3059576"><ele>321.5</ele><time>2026-05-02T08:12:06.998Z</time></trkpt><trkpt lat="45.6187752" lon="8.3060425"><ele>321.3333333333333</ele><time>2026-05-02T08:12:08.009Z</time></trkpt><trkpt lat="45.6187144" lon="8.3061745"><ele>321.1666666666667</ele><time>2026-05-02T08:12:10.009Z</time></trkpt><trkpt lat="45.6186672" lon="8.3062506"><ele>321.0</ele><time>2026-05-02T08:12:12.005Z</time></trkpt><trkpt lat="45.6185991" lon="8.3062604"><ele>320.25</ele><time>2026-05-02T08:12:14.007Z</time></trkpt><trkpt lat="45.6185051" lon="8.3062685"><ele>319.5</ele><time>2026-05-02T08:12:16.002Z</time></trkpt><trkpt lat="45.6182903" lon="8.3063128"><ele>318.75</ele><time>2026-05-02T08:12:20.007Z</time></trkpt><trkpt lat="45.6181776" lon="8.3063438"><ele>318.0</ele><time>2026-05-02T08:12:22.011Z</time></trkpt><trkpt lat="45.6180592" lon="8.3064291"><ele>318.0</ele><time>2026-05-02T08:12:24.001Z</time></trkpt><trkpt lat="45.6180005" lon="8.3064781"><ele>318.0</ele><time>2026-05-02T08:12:25.005Z</time></trkpt><trkpt lat="45.6179046" lon="8.3065005"><ele>318.0</ele><time>2026-05-02T08:12:27.001Z</time></trkpt><trkpt lat="45.6178362" lon="8.3064803"><ele>318.0</ele><time>2026-05-02T08:12:29Z</time></trkpt><trkpt lat="45.6177713" lon="8.3064344"><ele>318.0</ele><time>2026-05-02T08:12:32.004Z</time></trkpt><trkpt lat="45.6177935" lon="8.306303"><ele>318.0</ele><time>2026-05-02T08:12:37.001Z</time></trkpt><trkpt lat="45.6179193" lon="8.3061242"><ele>318.0</ele><time>2026-05-02T08:12:40.999Z</time></trkpt><trkpt lat="45.6179516" lon="8.3059715"><ele>318.0</ele><time>2026-05-02T08:12:43.006Z</time></trkpt><trkpt lat="45.6179956" lon="8.3058204"><ele>318.0</ele><time>2026-05-02T08:12:45.007Z</time></trkpt><trkpt lat="45.6180227" lon="8.305698"><ele>318.0</ele><time>2026-05-02T08:12:46.993Z</time></trkpt><trkpt lat="45.6180374" lon="8.3055911"><ele>318.0</ele><time>2026-05-02T08:12:49Z</time></trkpt><trkpt lat="45.6180574" lon="8.3054996"><ele>317.6666666666667</ele><time>2026-05-02T08:12:51.006Z</time></trkpt><trkpt lat="45.6180637" lon="8.3054085"><ele>317.3333333333333</ele><time>2026-05-02T08:12:53.006Z</time></trkpt><trkpt lat="45.6180611" lon="8.3053157"><ele>317.0</ele><time>2026-05-02T08:12:55.005Z</time></trkpt><trkpt lat="45.6180557" lon="8.3052247"><ele>316.66666666666663</ele><time>2026-05-02T08:12:56.996Z</time></trkpt><trkpt lat="45.6180562" lon="8.3051321"><ele>316.3333333333333</ele><time>2026-05-02T08:12:59Z</time></trkpt><trkpt lat="45.6181132" lon="8.3049326"><ele>316.0</ele><time>2026-05-02T08:13:02.998Z</time></trkpt><trkpt lat="45.6181408" lon="8.3048513"><ele>315.42857142857144</ele><time>2026-05-02T08:13:04.998Z</time></trkpt><trkpt lat="45.6181611" lon="8.3047453"><ele>314.8571428571429</ele><time>2026-05-02T08:13:08.007Z</time></trkpt><trkpt lat="45.6180975" lon="8.3046811"><ele>314.28571428571433</ele><time>2026-05-02T08:13:11.008Z</time></trkpt><trkpt lat="45.6180357" lon="8.304646"><ele>313.7142857142857</ele><time>2026-05-02T08:13:13.002Z</time></trkpt><trkpt lat="45.6179735" lon="8.3046135"><ele>313.1428571428571</ele><time>2026-05-02T08:13:15.002Z</time></trkpt><trkpt lat="45.6179179" lon="8.3045631"><ele>312.5714285714286</ele><time>2026-05-02T08:13:17.005Z</time></trkpt><trkpt lat="45.6178636" lon="8.3045019"><ele>312.0</ele><time>2026-05-02T08:13:19Z</time></trkpt><trkpt lat="45.617815" lon="8.3044321"><ele>312.0</ele><time>2026-05-02T08:13:20.998Z</time></trkpt><trkpt lat="45.6176999" lon="8.3042408"><ele>312.0</ele><time>2026-05-02T08:13:27.001Z</time></trkpt><trkpt lat="45.6176294" lon="8.3041682"><ele>312.0</ele><time>2026-05-02T08:13:37.998Z</time></trkpt><trkpt lat="45.617549" lon="8.3041911"><ele>312.0</ele><time>2026-05-02T08:13:41.006Z</time></trkpt><trkpt lat="45.617476" lon="8.3042446"><ele>312.0</ele><time>2026-05-02T08:13:43.998Z</time></trkpt><trkpt lat="45.6172913" lon="8.3043289"><ele>312.0</ele><time>2026-05-02T08:13:49.006Z</time></trkpt><trkpt lat="45.6172123" lon="8.3043555"><ele>312.0</ele><time>2026-05-02T08:13:51.006Z</time></trkpt><trkpt lat="45.6171446" lon="8.3043714"><ele>312.0</ele><time>2026-05-02T08:13:53.002Z</time></trkpt><trkpt lat="45.6170711" lon="8.3044222"><ele>312.0</ele><time>2026-05-02T08:13:56.007Z</time></trkpt><trkpt lat="45.6170102" lon="8.3045002"><ele>312.0</ele><time>2026-05-02T08:13:58.998Z</time></trkpt><trkpt lat="45.6169621" lon="8.3045858"><ele>312.0</ele><time>2026-05-02T08:14:02.004Z</time></trkpt><trkpt lat="45.6169083" lon="8.3046585"><ele>312.4</ele><time>2026-05-02T08:14:04.002Z</time></trkpt><trkpt lat="45.616843" lon="8.3047342"><ele>312.79999999999995</ele><time>2026-05-02T08:14:06.004Z</time></trkpt><trkpt lat="45.6167015" lon="8.3048609"><ele>313.2</ele><time>2026-05-02T08:14:10.003Z</time></trkpt><trkpt lat="45.6166231" lon="8.3049179"><ele>313.59999999999997</ele><time>2026-05-02T08:14:11.996Z</time></trkpt><trkpt lat="45.6165553" lon="8.3049893"><ele>314.0</ele><time>2026-05-02T08:14:14.001Z</time></trkpt><trkpt lat="45.6164899" lon="8.3050844"><ele>314.0</ele><time>2026-05-02T08:14:16Z</time></trkpt><trkpt lat="45.6164282" lon="8.3051822"><ele>314.0</ele><time>2026-05-02T08:14:17.994Z</time></trkpt><trkpt lat="45.6163614" lon="8.3052713"><ele>314.0</ele><time>2026-05-02T08:14:20.002Z</time></trkpt><trkpt lat="45.6163032" lon="8.305347"><ele>314.0</ele><time>2026-05-02T08:14:22.007Z</time></trkpt><trkpt lat="45.6162519" lon="8.3054093"><ele>314.0</ele><time>2026-05-02T08:14:24Z</time></trkpt><trkpt lat="45.6161933" lon="8.3054715"><ele>314.0</ele><time>2026-05-02T08:14:26.001Z</time></trkpt><trkpt lat="45.6161253" lon="8.3055425"><ele>316.0</ele><time>2026-05-02T08:14:27.994Z</time></trkpt><trkpt lat="45.615978" lon="8.3056978"><ele>318.0</ele><time>2026-05-02T08:14:32.002Z</time></trkpt><trkpt lat="45.6159248" lon="8.30576"><ele>320.0</ele><time>2026-05-02T08:14:34.005Z</time></trkpt><trkpt lat="45.6158214" lon="8.3058481"><ele>322.0</ele><time>2026-05-02T08:15:22.013Z</time></trkpt><trkpt lat="45.6156867" lon="8.306025"><ele>322.0</ele><time>2026-05-02T08:15:25.999Z</time></trkpt><trkpt lat="45.6156147" lon="8.3061273"><ele>322.0</ele><time>2026-05-02T08:15:28.002Z</time></trkpt><trkpt lat="45.6155376" lon="8.306196"><ele>322.0</ele><time>2026-05-02T08:15:29.997Z</time></trkpt><trkpt lat="45.6154217" lon="8.306242"><ele>322.0</ele><time>2026-05-02T08:15:32.016Z</time></trkpt><trkpt lat="45.6153041" lon="8.3062736"><ele>322.0</ele><time>2026-05-02T08:15:34.001Z</time></trkpt><trkpt lat="45.6151942" lon="8.3062511"><ele>321.6</ele><time>2026-05-02T08:15:36.003Z</time></trkpt><trkpt lat="45.6151247" lon="8.306147"><ele>321.20000000000005</ele><time>2026-05-02T08:15:37.998Z</time></trkpt><trkpt lat="45.6150813" lon="8.3060328"><ele>320.8</ele><time>2026-05-02T08:15:40Z</time></trkpt><trkpt lat="45.6150451" lon="8.305948"><ele>320.4</ele><time>2026-05-02T08:15:41.999Z</time></trkpt><trkpt lat="45.6149701" lon="8.305953"><ele>320.0</ele><time>2026-05-02T08:15:45.998Z</time></trkpt><trkpt lat="45.6148161" lon="8.3059322"><ele>320.0</ele><time>2026-05-02T08:15:51.993Z</time></trkpt><trkpt lat="45.6147376" lon="8.3059792"><ele>320.0</ele><time>2026-05-02T08:15:53.996Z</time></trkpt><trkpt lat="45.6146724" lon="8.306051"><ele>320.0</ele><time>2026-05-02T08:15:56.998Z</time></trkpt><trkpt lat="45.6145986" lon="8.3060967"><ele>320.0</ele><time>2026-05-02T08:15:58.999Z</time></trkpt><trkpt lat="45.614521" lon="8.3061065"><ele>320.0</ele><time>2026-05-02T08:16:00.994Z</time></trkpt><trkpt lat="45.6144355" lon="8.3061268"><ele>320.0</ele><time>2026-05-02T08:16:02.993Z</time></trkpt><trkpt lat="45.6143391" lon="8.3061303"><ele>319.8</ele><time>2026-05-02T08:16:04.995Z</time></trkpt><trkpt lat="45.6142624" lon="8.3060989"><ele>319.6</ele><time>2026-05-02T08:16:07.001Z</time></trkpt><trkpt lat="45.6140519" lon="8.3059992"><ele>319.4</ele><time>2026-05-02T08:16:10.998Z</time></trkpt><trkpt lat="45.6139812" lon="8.3060009"><ele>319.2</ele><time>2026-05-02T08:16:12.003Z</time></trkpt><trkpt lat="45.6139167" lon="8.3060116"><ele>319.0</ele><time>2026-05-02T08:16:12.999Z</time></trkpt><trkpt lat="45.6137967" lon="8.3060454"><ele>319.0</ele><time>2026-05-02T08:16:15.008Z</time></trkpt><trkpt lat="45.6136844" lon="8.3060937"><ele>319.0</ele><time>2026-05-02T08:16:17.004Z</time></trkpt><trkpt lat="45.6135792" lon="8.3061522"><ele>319.0</ele><time>2026-05-02T08:16:18.998Z</time></trkpt><trkpt lat="45.6134943" lon="8.3061968"><ele>319.0</ele><time>2026-05-02T08:16:21.002Z</time></trkpt><trkpt lat="45.6134228" lon="8.3061961"><ele>319.0</ele><time>2026-05-02T08:16:22.996Z</time></trkpt><trkpt lat="45.6133995" lon="8.3061042"><ele>318.3333333333333</ele><time>2026-05-02T08:16:24.995Z</time></trkpt><trkpt lat="45.6133867" lon="8.3059276"><ele>317.6666666666667</ele><time>2026-05-02T08:16:27.009Z</time></trkpt><trkpt lat="45.6133696" lon="8.3057761"><ele>317.0</ele><time>2026-05-02T08:16:29.003Z</time></trkpt><trkpt lat="45.6132249" lon="8.3055358"><ele>315.14285714285717</ele><time>2026-05-02T08:16:33.008Z</time></trkpt><trkpt lat="45.613164" lon="8.3054957"><ele>313.2857142857143</ele><time>2026-05-02T08:16:33.992Z</time></trkpt><trkpt lat="45.6130919" lon="8.3054588"><ele>311.42857142857144</ele><time>2026-05-02T08:16:35.008Z</time></trkpt><trkpt lat="45.6130211" lon="8.3054182"><ele>309.57142857142856</ele><time>2026-05-02T08:16:36.005Z</time></trkpt><trkpt lat="45.6129504" lon="8.3053722"><ele>307.7142857142857</ele><time>2026-05-02T08:16:37.004Z</time></trkpt><trkpt lat="45.6128804" lon="8.3053267"><ele>305.85714285714283</ele><time>2026-05-02T08:16:37.998Z</time></trkpt><trkpt lat="45.6128147" lon="8.3052803"><ele>304.0</ele><time>2026-05-02T08:16:39.013Z</time></trkpt><trkpt lat="45.6127488" lon="8.3052306"><ele>304.0</ele><time>2026-05-02T08:16:40.002Z</time></trkpt><trkpt lat="45.6126791" lon="8.3051858"><ele>304.0</ele><time>2026-05-02T08:16:41.002Z</time></trkpt><trkpt lat="45.612607" lon="8.3051507"><ele>304.0</ele><time>2026-05-02T08:16:41.999Z</time></trkpt><trkpt lat="45.6125366" lon="8.3051335"><ele>304.0</ele><time>2026-05-02T08:16:43.004Z</time></trkpt><trkpt lat="45.6124648" lon="8.3051322"><ele>304.0</ele><time>2026-05-02T08:16:44.007Z</time></trkpt><trkpt lat="45.612358" lon="8.3051426"><ele>304.0</ele><time>2026-05-02T08:16:46.001Z</time></trkpt><trkpt lat="45.612288" lon="8.3051182"><ele>304.0</ele><time>2026-05-02T08:16:49.007Z</time></trkpt><trkpt lat="45.6123337" lon="8.3050347"><ele>304.0</ele><time>2026-05-02T08:16:51.011Z</time></trkpt><trkpt lat="45.6125019" lon="8.3048914"><ele>304.0</ele><time>2026-05-02T08:16:55.002Z</time></trkpt><trkpt lat="45.6125792" lon="8.3048172"><ele>304.0</ele><time>2026-05-02T08:16:57.016Z</time></trkpt><trkpt lat="45.6126252" lon="8.3047394"><ele>304.0</ele><time>2026-05-02T08:16:59.002Z</time></trkpt><trkpt lat="45.6126263" lon="8.3046233"><ele>303.5</ele><time>2026-05-02T08:17:01.007Z</time></trkpt><trkpt lat="45.6125926" lon="8.3044755"><ele>303.0</ele><time>2026-05-02T08:17:03.007Z</time></trkpt><trkpt lat="45.612547" lon="8.3043255"><ele>302.5</ele><time>2026-05-02T08:17:05Z</time></trkpt><trkpt lat="45.6124923" lon="8.3041831"><ele>302.0</ele><time>2026-05-02T08:17:06.999Z</time></trkpt><trkpt lat="45.612415" lon="8.3040553"><ele>302.0</ele><time>2026-05-02T08:17:09.002Z</time></trkpt><trkpt lat="45.6123222" lon="8.3039721"><ele>302.0</ele><time>2026-05-02T08:17:11.008Z</time></trkpt><trkpt lat="45.6122264" lon="8.3038735"><ele>302.0</ele><time>2026-05-02T08:17:12.997Z</time></trkpt><trkpt lat="45.6120947" lon="8.3037429"><ele>302.0</ele><time>2026-05-02T08:17:14.994Z</time></trkpt><trkpt lat="45.6120126" lon="8.3036684"><ele>304.0</ele><time>2026-05-02T08:17:15.998Z</time></trkpt><trkpt lat="45.6119343" lon="8.3036081"><ele>306.0</ele><time>2026-05-02T08:17:16.996Z</time></trkpt><trkpt lat="45.6118691" lon="8.3035662"><ele>308.0</ele><time>2026-05-02T08:17:17.995Z</time></trkpt><trkpt lat="45.6117675" lon="8.3035406"><ele>310.0</ele><time>2026-05-02T08:17:20.002Z</time></trkpt><trkpt lat="45.6116733" lon="8.30354"><ele>312.0</ele><time>2026-05-02T08:17:21.999Z</time></trkpt><trkpt lat="45.6115752" lon="8.3035313"><ele>312.0</ele><time>2026-05-02T08:17:24.003Z</time></trkpt><trkpt lat="45.6114665" lon="8.3035134"><ele>312.0</ele><time>2026-05-02T08:17:26.006Z</time></trkpt><trkpt lat="45.6113411" lon="8.3034659"><ele>312.0</ele><time>2026-05-02T08:17:28.007Z</time></trkpt><trkpt lat="45.6112616" lon="8.303435"><ele>312.0</ele><time>2026-05-02T08:17:28.988Z</time></trkpt><trkpt lat="45.6111732" lon="8.3034"><ele>312.0</ele><time>2026-05-02T08:17:30.007Z</time></trkpt><trkpt lat="45.6110826" lon="8.3033586"><ele>311.5</ele><time>2026-05-02T08:17:31Z</time></trkpt><trkpt lat="45.6109936" lon="8.3033055"><ele>311.0</ele><time>2026-05-02T08:17:32.011Z</time></trkpt><trkpt lat="45.6109165" lon="8.3032361"><ele>310.5</ele><time>2026-05-02T08:17:33Z</time></trkpt><trkpt lat="45.6108517" lon="8.3031452"><ele>310.0</ele><time>2026-05-02T08:17:34.009Z</time></trkpt><trkpt lat="45.6107782" lon="8.302919"><ele>311.3333333333333</ele><time>2026-05-02T08:17:36.007Z</time></trkpt><trkpt lat="45.6107686" lon="8.3027935"><ele>312.66666666666663</ele><time>2026-05-02T08:17:37Z</time></trkpt><trkpt lat="45.6107691" lon="8.3026701"><ele>314.0</ele><time>2026-05-02T08:17:38.002Z</time></trkpt><trkpt lat="45.6107673" lon="8.3025704"><ele>315.3333333333333</ele><time>2026-05-02T08:17:38.996Z</time></trkpt><trkpt lat="45.6107392" lon="8.302426"><ele>316.6666666666667</ele><time>2026-05-02T08:17:41.001Z</time></trkpt><trkpt lat="45.610672" lon="8.3023783"><ele>318.0</ele><time>2026-05-02T08:17:43.003Z</time></trkpt><trkpt lat="45.6106077" lon="8.3023748"><ele>318.0</ele><time>2026-05-02T08:17:44.986Z</time></trkpt><trkpt lat="45.610505" lon="8.3023941"><ele>318.0</ele><time>2026-05-02T08:17:52.995Z</time></trkpt><trkpt lat="45.6103836" lon="8.3024452"><ele>318.0</ele><time>2026-05-02T08:17:55.007Z</time></trkpt><trkpt lat="45.6102425" lon="8.3024578"><ele>318.0</ele><time>2026-05-02T08:17:57.004Z</time></trkpt><trkpt lat="45.6101664" lon="8.3024535"><ele>318.0</ele><time>2026-05-02T08:17:58.002Z</time></trkpt><trkpt lat="45.6100925" lon="8.3024416"><ele>317.6666666666667</ele><time>2026-05-02T08:17:58.991Z</time></trkpt><trkpt lat="45.6100144" lon="8.3024326"><ele>317.3333333333333</ele><time>2026-05-02T08:18:00.016Z</time></trkpt><trkpt lat="45.6099373" lon="8.3024157"><ele>317.0</ele><time>2026-05-02T08:18:01.005Z</time></trkpt><trkpt lat="45.6098684" lon="8.3024003"><ele>316.66666666666663</ele><time>2026-05-02T08:18:01.999Z</time></trkpt><trkpt lat="45.6098066" lon="8.3023805"><ele>316.3333333333333</ele><time>2026-05-02T08:18:03.006Z</time></trkpt><trkpt lat="45.6097062" lon="8.302355"><ele>316.0</ele><time>2026-05-02T08:18:05.01Z</time></trkpt><trkpt lat="45.6096622" lon="8.3022317"><ele>315.66666666666663</ele><time>2026-05-02T08:18:06.993Z</time></trkpt><trkpt lat="45.6096683" lon="8.3021258"><ele>315.3333333333333</ele><time>2026-05-02T08:18:08.004Z</time></trkpt><trkpt lat="45.6096815" lon="8.3020101"><ele>315.0</ele><time>2026-05-02T08:18:09Z</time></trkpt><trkpt lat="45.6096911" lon="8.3018892"><ele>314.6666666666667</ele><time>2026-05-02T08:18:09.997Z</time></trkpt><trkpt lat="45.6096997" lon="8.3017788"><ele>314.33333333333337</ele><time>2026-05-02T08:18:10.993Z</time></trkpt><trkpt lat="45.6097086" lon="8.3016749"><ele>314.0</ele><time>2026-05-02T08:18:12.003Z</time></trkpt><trkpt lat="45.609719" lon="8.3015781"><ele>314.0</ele><time>2026-05-02T08:18:12.992Z</time></trkpt><trkpt lat="45.6097171" lon="8.3014871"><ele>314.0</ele><time>2026-05-02T08:18:14.008Z</time></trkpt><trkpt lat="45.6096999" lon="8.3013997"><ele>314.0</ele><time>2026-05-02T08:18:15Z</time></trkpt><trkpt lat="45.6096134" lon="8.3012667"><ele>314.0</ele><time>2026-05-02T08:18:17.017Z</time></trkpt><trkpt lat="45.6095041" lon="8.3011683"><ele>314.0</ele><time>2026-05-02T08:18:19.007Z</time></trkpt><trkpt lat="45.6093929" lon="8.301081"><ele>314.2</ele><time>2026-05-02T08:18:21.002Z</time></trkpt><trkpt lat="45.6093357" lon="8.3010359"><ele>314.4</ele><time>2026-05-02T08:18:22.002Z</time></trkpt><trkpt lat="45.6092464" lon="8.3009744"><ele>314.6</ele><time>2026-05-02T08:18:24.001Z</time></trkpt><trkpt lat="45.6091646" lon="8.3009284"><ele>314.8</ele><time>2026-05-02T08:18:26.004Z</time></trkpt><trkpt lat="45.6090785" lon="8.3008415"><ele>315.0</ele><time>2026-05-02T08:18:27.998Z</time></trkpt><trkpt lat="45.6089877" lon="8.3007496"><ele>315.0</ele><time>2026-05-02T08:18:30.007Z</time></trkpt><trkpt lat="45.6089031" lon="8.3006959"><ele>315.0</ele><time>2026-05-02T08:18:32.005Z</time></trkpt><trkpt lat="45.6088132" lon="8.3006905"><ele>315.0</ele><time>2026-05-02T08:18:34.009Z</time></trkpt><trkpt lat="45.6087257" lon="8.3007235"><ele>315.0</ele><time>2026-05-02T08:18:37.002Z</time></trkpt><trkpt lat="45.608665" lon="8.3006854"><ele>315.0</ele><time>2026-05-02T08:18:38.998Z</time></trkpt><trkpt lat="45.6085004" lon="8.3006492"><ele>315.0</ele><time>2026-05-02T08:18:47.004Z</time></trkpt><trkpt lat="45.6084153" lon="8.3006539"><ele>315.0</ele><time>2026-05-02T08:18:49.003Z</time></trkpt><trkpt lat="45.6083013" lon="8.3006567"><ele>315.0</ele><time>2026-05-02T08:18:51Z</time></trkpt><trkpt lat="45.6082376" lon="8.3006593"><ele>315.0</ele><time>2026-05-02T08:18:52.004Z</time></trkpt><trkpt lat="45.6081647" lon="8.3006627"><ele>315.0</ele><time>2026-05-02T08:18:53.006Z</time></trkpt><trkpt lat="45.6080787" lon="8.3006677"><ele>315.0</ele><time>2026-05-02T08:18:54.008Z</time></trkpt><trkpt lat="45.6079763" lon="8.3006813"><ele>315.0</ele><time>2026-05-02T08:18:54.999Z</time></trkpt><trkpt lat="45.6078631" lon="8.30068"><ele>315.0</ele><time>2026-05-02T08:18:56.004Z</time></trkpt><trkpt lat="45.6077427" lon="8.3006665"><ele>315.0</ele><time>2026-05-02T08:18:56.993Z</time></trkpt><trkpt lat="45.6076139" lon="8.3006258"><ele>315.0</ele><time>2026-05-02T08:18:58.003Z</time></trkpt><trkpt lat="45.6074805" lon="8.3005692"><ele>314.0</ele><time>2026-05-02T08:18:58.996Z</time></trkpt><trkpt lat="45.6073475" lon="8.3005105"><ele>313.0</ele><time>2026-05-02T08:19:00.016Z</time></trkpt><trkpt lat="45.6070871" lon="8.3004102"><ele>312.0</ele><time>2026-05-02T08:19:01.999Z</time></trkpt><trkpt lat="45.6069632" lon="8.3003618"><ele>309.75</ele><time>2026-05-02T08:19:02.997Z</time></trkpt><trkpt lat="45.6068398" lon="8.3003239"><ele>307.5</ele><time>2026-05-02T08:19:04.004Z</time></trkpt><trkpt lat="45.6067154" lon="8.3002985"><ele>305.25</ele><time>2026-05-02T08:19:05Z</time></trkpt><trkpt lat="45.6065893" lon="8.3002971"><ele>303.0</ele><time>2026-05-02T08:19:06.005Z</time></trkpt><trkpt lat="45.6064629" lon="8.3003178"><ele>303.0</ele><time>2026-05-02T08:19:06.994Z</time></trkpt><trkpt lat="45.6063417" lon="8.3003506"><ele>303.0</ele><time>2026-05-02T08:19:08.003Z</time></trkpt><trkpt lat="45.6062247" lon="8.3003867"><ele>303.0</ele><time>2026-05-02T08:19:08.998Z</time></trkpt><trkpt lat="45.6061131" lon="8.300438"><ele>303.0</ele><time>2026-05-02T08:19:09.997Z</time></trkpt><trkpt lat="45.6059975" lon="8.3004965"><ele>301.4</ele><time>2026-05-02T08:19:11.003Z</time></trkpt><trkpt lat="45.6058826" lon="8.3005488"><ele>299.8</ele><time>2026-05-02T08:19:12.003Z</time></trkpt><trkpt lat="45.6057841" lon="8.3006079"><ele>298.2</ele><time>2026-05-02T08:19:13.003Z</time></trkpt><trkpt lat="45.6056854" lon="8.300668"><ele>296.6</ele><time>2026-05-02T08:19:13.995Z</time></trkpt><trkpt lat="45.6055852" lon="8.3007245"><ele>295.0</ele><time>2026-05-02T08:19:15.004Z</time></trkpt><trkpt lat="45.6054942" lon="8.300785"><ele>295.0</ele><time>2026-05-02T08:19:16.002Z</time></trkpt><trkpt lat="45.6054082" lon="8.3008366"><ele>295.0</ele><time>2026-05-02T08:19:16.998Z</time></trkpt><trkpt lat="45.6053189" lon="8.3008874"><ele>295.0</ele><time>2026-05-02T08:19:18.006Z</time></trkpt><trkpt lat="45.6052323" lon="8.3009294"><ele>295.0</ele><time>2026-05-02T08:19:19Z</time></trkpt><trkpt lat="45.6051455" lon="8.3009536"><ele>295.0</ele><time>2026-05-02T08:19:20.011Z</time></trkpt><trkpt lat="45.6050604" lon="8.3009588"><ele>292.75</ele><time>2026-05-02T08:19:21.002Z</time></trkpt><trkpt lat="45.604892" lon="8.3009148"><ele>290.5</ele><time>2026-05-02T08:19:22.989Z</time></trkpt><trkpt lat="45.6048051" lon="8.3008788"><ele>288.25</ele><time>2026-05-02T08:19:24.007Z</time></trkpt><trkpt lat="45.6047153" lon="8.3008386"><ele>286.0</ele><time>2026-05-02T08:19:25Z</time></trkpt><trkpt lat="45.6046249" lon="8.300796"><ele>286.0</ele><time>2026-05-02T08:19:25.999Z</time></trkpt><trkpt lat="45.6045382" lon="8.3007456"><ele>286.0</ele><time>2026-05-02T08:19:26.996Z</time></trkpt><trkpt lat="45.6044545" lon="8.3006935"><ele>286.0</ele><time>2026-05-02T08:19:28.005Z</time></trkpt><trkpt lat="45.6043732" lon="8.3006392"><ele>286.0</ele><time>2026-05-02T08:19:29.002Z</time></trkpt><trkpt lat="45.6042977" lon="8.3005838"><ele>286.0</ele><time>2026-05-02T08:19:30.008Z</time></trkpt><trkpt lat="45.6042202" lon="8.3005379"><ele>286.0</ele><time>2026-05-02T08:19:30.988Z</time></trkpt><trkpt lat="45.6041414" lon="8.3005032"><ele>285.5</ele><time>2026-05-02T08:19:32Z</time></trkpt><trkpt lat="45.6040586" lon="8.3004783"><ele>285.0</ele><time>2026-05-02T08:19:32.987Z</time></trkpt><trkpt lat="45.6039781" lon="8.3004569"><ele>284.5</ele><time>2026-05-02T08:19:33.997Z</time></trkpt><trkpt lat="45.6038968" lon="8.3004349"><ele>284.0</ele><time>2026-05-02T08:19:34.994Z</time></trkpt><trkpt lat="45.6038151" lon="8.3004107"><ele>283.5</ele><time>2026-05-02T08:19:36.005Z</time></trkpt><trkpt lat="45.6037366" lon="8.3003856"><ele>283.0</ele><time>2026-05-02T08:19:36.992Z</time></trkpt><trkpt lat="45.6036539" lon="8.3003557"><ele>282.4</ele><time>2026-05-02T08:19:38.003Z</time></trkpt><trkpt lat="45.6035671" lon="8.300322"><ele>281.8</ele><time>2026-05-02T08:19:38.998Z</time></trkpt><trkpt lat="45.6034767" lon="8.3002885"><ele>281.2</ele><time>2026-05-02T08:19:39.998Z</time></trkpt><trkpt lat="45.6033897" lon="8.3002567"><ele>280.6</ele><time>2026-05-02T08:19:40.999Z</time></trkpt><trkpt lat="45.6033063" lon="8.3002298"><ele>280.0</ele><time>2026-05-02T08:19:42.006Z</time></trkpt><trkpt lat="45.6031449" lon="8.3002049"><ele>280.0</ele><time>2026-05-02T08:19:44.004Z</time></trkpt><trkpt lat="45.6030651" lon="8.300214"><ele>280.0</ele><time>2026-05-02T08:19:44.993Z</time></trkpt><trkpt lat="45.602985" lon="8.3002263"><ele>280.0</ele><time>2026-05-02T08:19:46.003Z</time></trkpt><trkpt lat="45.6029069" lon="8.3002431"><ele>280.0</ele><time>2026-05-02T08:19:46.999Z</time></trkpt><trkpt lat="45.6028268" lon="8.3002616"><ele>280.0</ele><time>2026-05-02T08:19:48.004Z</time></trkpt><trkpt lat="45.6027502" lon="8.3002832"><ele>280.0</ele><time>2026-05-02T08:19:49.004Z</time></trkpt><trkpt lat="45.6026767" lon="8.3003034"><ele>279.66666666666663</ele><time>2026-05-02T08:19:50.007Z</time></trkpt><trkpt lat="45.6026051" lon="8.3003233"><ele>279.3333333333333</ele><time>2026-05-02T08:19:51.005Z</time></trkpt><trkpt lat="45.6025333" lon="8.3003416"><ele>279.0</ele><time>2026-05-02T08:19:52.006Z</time></trkpt><trkpt lat="45.6024614" lon="8.3003538"><ele>278.6666666666667</ele><time>2026-05-02T08:19:53.007Z</time></trkpt><trkpt lat="45.6023805" lon="8.3003724"><ele>278.33333333333337</ele><time>2026-05-02T08:19:54.01Z</time></trkpt><trkpt lat="45.6022909" lon="8.3003979"><ele>278.0</ele><time>2026-05-02T08:19:54.996Z</time></trkpt><trkpt lat="45.6021935" lon="8.3004235"><ele>278.0</ele><time>2026-05-02T08:19:56.009Z</time></trkpt><trkpt lat="45.6020935" lon="8.3004501"><ele>278.0</ele><time>2026-05-02T08:19:56.999Z</time></trkpt><trkpt lat="45.6020045" lon="8.3004681"><ele>278.0</ele><time>2026-05-02T08:19:58.004Z</time></trkpt><trkpt lat="45.6019052" lon="8.3004893"><ele>278.0</ele><time>2026-05-02T08:19:59.998Z</time></trkpt><trkpt lat="45.6018266" lon="8.300481"><ele>278.0</ele><time>2026-05-02T08:20:58.993Z</time></trkpt><trkpt lat="45.6016397" lon="8.3005166"><ele>277.83333333333337</ele><time>2026-05-02T08:21:02.996Z</time></trkpt><trkpt lat="45.601546" lon="8.3005294"><ele>277.6666666666667</ele><time>2026-05-02T08:21:06.009Z</time></trkpt><trkpt lat="45.6014441" lon="8.3005279"><ele>277.5</ele><time>2026-05-02T08:21:08.003Z</time></trkpt><trkpt lat="45.6013801" lon="8.3005282"><ele>277.3333333333333</ele><time>2026-05-02T08:21:08.997Z</time></trkpt><trkpt lat="45.6013141" lon="8.3005325"><ele>277.16666666666663</ele><time>2026-05-02T08:21:10.006Z</time></trkpt><trkpt lat="45.601249" lon="8.3005351"><ele>277.0</ele><time>2026-05-02T08:21:11.002Z</time></trkpt><trkpt lat="45.6011854" lon="8.3005315"><ele>276.8</ele><time>2026-05-02T08:21:12Z</time></trkpt><trkpt lat="45.6011163" lon="8.3005333"><ele>276.6</ele><time>2026-05-02T08:21:13.001Z</time></trkpt><trkpt lat="45.601032" lon="8.3005367"><ele>276.40000000000003</ele><time>2026-05-02T08:21:14.001Z</time></trkpt><trkpt lat="45.6009306" lon="8.3005405"><ele>276.2</ele><time>2026-05-02T08:21:14.993Z</time></trkpt><trkpt lat="45.6008164" lon="8.3005419"><ele>276.0</ele><time>2026-05-02T08:21:16Z</time></trkpt><trkpt lat="45.6006975" lon="8.3005422"><ele>276.0</ele><time>2026-05-02T08:21:16.995Z</time></trkpt><trkpt lat="45.6005798" lon="8.3005389"><ele>276.0</ele><time>2026-05-02T08:21:18.001Z</time></trkpt><trkpt lat="45.6004601" lon="8.3005398"><ele>276.0</ele><time>2026-05-02T08:21:19.005Z</time></trkpt><trkpt lat="45.6003446" lon="8.3005423"><ele>276.0</ele><time>2026-05-02T08:21:19.999Z</time></trkpt><trkpt lat="45.6001193" lon="8.3005434"><ele>276.2</ele><time>2026-05-02T08:21:22.003Z</time></trkpt><trkpt lat="45.6000083" lon="8.300548"><ele>276.40000000000003</ele><time>2026-05-02T08:21:23.003Z</time></trkpt><trkpt lat="45.5998934" lon="8.3005552"><ele>276.6</ele><time>2026-05-02T08:21:23.997Z</time></trkpt><trkpt lat="45.5997827" lon="8.300562"><ele>276.8</ele><time>2026-05-02T08:21:24.999Z</time></trkpt><trkpt lat="45.5996732" lon="8.3005682"><ele>277.0</ele><time>2026-05-02T08:21:26.003Z</time></trkpt><trkpt lat="45.5995661" lon="8.3005776"><ele>276.8</ele><time>2026-05-02T08:21:27.007Z</time></trkpt><trkpt lat="45.5994658" lon="8.3005832"><ele>276.6</ele><time>2026-05-02T08:21:28.002Z</time></trkpt><trkpt lat="45.5993664" lon="8.3005894"><ele>276.40000000000003</ele><time>2026-05-02T08:21:29.001Z</time></trkpt><trkpt lat="45.5992636" lon="8.3005911"><ele>276.2</ele><time>2026-05-02T08:21:30.008Z</time></trkpt><trkpt lat="45.59916" lon="8.3005966"><ele>276.0</ele><time>2026-05-02T08:21:30.998Z</time></trkpt><trkpt lat="45.599057" lon="8.3005935"><ele>276.0</ele><time>2026-05-02T08:21:32.001Z</time></trkpt><trkpt lat="45.598955" lon="8.3005962"><ele>276.0</ele><time>2026-05-02T08:21:33.001Z</time></trkpt><trkpt lat="45.5988536" lon="8.3006055"><ele>276.0</ele><time>2026-05-02T08:21:34.002Z</time></trkpt><trkpt lat="45.5987491" lon="8.3006125"><ele>276.0</ele><time>2026-05-02T08:21:35.005Z</time></trkpt><trkpt lat="45.5986456" lon="8.3006161"><ele>276.0</ele><time>2026-05-02T08:21:36.006Z</time></trkpt><trkpt lat="45.5985438" lon="8.300618"><ele>276.0</ele><time>2026-05-02T08:21:37.005Z</time></trkpt><trkpt lat="45.5984411" lon="8.3006211"><ele>276.0</ele><time>2026-05-02T08:21:37.998Z</time></trkpt><trkpt lat="45.5983358" lon="8.3006294"><ele>276.0</ele><time>2026-05-02T08:21:38.997Z</time></trkpt><trkpt lat="45.5982351" lon="8.3006349"><ele>276.0</ele><time>2026-05-02T08:21:40.011Z</time></trkpt><trkpt lat="45.5981341" lon="8.3006378"><ele>276.0</ele><time>2026-05-02T08:21:41.008Z</time></trkpt><trkpt lat="45.5979353" lon="8.3006519"><ele>276.0</ele><time>2026-05-02T08:21:43.004Z</time></trkpt><trkpt lat="45.5978314" lon="8.3006623"><ele>276.0</ele><time>2026-05-02T08:21:44.004Z</time></trkpt><trkpt lat="45.5977276" lon="8.3006689"><ele>276.0</ele><time>2026-05-02T08:21:44.995Z</time></trkpt><trkpt lat="45.5976183" lon="8.3006776"><ele>276.0</ele><time>2026-05-02T08:21:46.005Z</time></trkpt><trkpt lat="45.5975077" lon="8.3006804"><ele>276.0</ele><time>2026-05-02T08:21:47.004Z</time></trkpt><trkpt lat="45.5973946" lon="8.3006762"><ele>276.0</ele><time>2026-05-02T08:21:48.002Z</time></trkpt><trkpt lat="45.5972841" lon="8.3006734"><ele>276.0</ele><time>2026-05-02T08:21:48.998Z</time></trkpt><trkpt lat="45.5971723" lon="8.3006687"><ele>276.0</ele><time>2026-05-02T08:21:50.009Z</time></trkpt><trkpt lat="45.597056" lon="8.3006605"><ele>276.0</ele><time>2026-05-02T08:21:51.005Z</time></trkpt><trkpt lat="45.5969362" lon="8.300656"><ele>275.75</ele><time>2026-05-02T08:21:52Z</time></trkpt><trkpt lat="45.59682" lon="8.3006486"><ele>275.5</ele><time>2026-05-02T08:21:53.007Z</time></trkpt><trkpt lat="45.5967012" lon="8.3006424"><ele>275.25</ele><time>2026-05-02T08:21:53.998Z</time></trkpt><trkpt lat="45.5965779" lon="8.3006404"><ele>275.0</ele><time>2026-05-02T08:21:55.004Z</time></trkpt><trkpt lat="45.5964568" lon="8.3006349"><ele>275.0</ele><time>2026-05-02T08:21:56.006Z</time></trkpt><trkpt lat="45.5963385" lon="8.3006271"><ele>275.0</ele><time>2026-05-02T08:21:57.001Z</time></trkpt><trkpt lat="45.5962203" lon="8.3006183"><ele>275.0</ele><time>2026-05-02T08:21:58.002Z</time></trkpt><trkpt lat="45.5961049" lon="8.3006118"><ele>275.0</ele><time>2026-05-02T08:21:59.001Z</time></trkpt><trkpt lat="45.5959916" lon="8.3006047"><ele>275.0</ele><time>2026-05-02T08:22:00.017Z</time></trkpt><trkpt lat="45.5958777" lon="8.3006027"><ele>275.0</ele><time>2026-05-02T08:22:01.005Z</time></trkpt><trkpt lat="45.5957649" lon="8.3006018"><ele>275.0</ele><time>2026-05-02T08:22:02.003Z</time></trkpt><trkpt lat="45.5955439" lon="8.3005878"><ele>275.0</ele><time>2026-05-02T08:22:04.005Z</time></trkpt><trkpt lat="45.5954322" lon="8.3005768"><ele>274.4</ele><time>2026-05-02T08:22:05.006Z</time></trkpt><trkpt lat="45.595324" lon="8.3005717"><ele>273.8</ele><time>2026-05-02T08:22:05.989Z</time></trkpt><trkpt lat="45.5952096" lon="8.3005666"><ele>273.2</ele><time>2026-05-02T08:22:07.001Z</time></trkpt><trkpt lat="45.5950983" lon="8.3005555"><ele>272.6</ele><time>2026-05-02T08:22:07.999Z</time></trkpt><trkpt lat="45.5949874" lon="8.3005426"><ele>272.0</ele><time>2026-05-02T08:22:08.999Z</time></trkpt><trkpt lat="45.59488" lon="8.3005263"><ele>272.0</ele><time>2026-05-02T08:22:10Z</time></trkpt><trkpt lat="45.5947708" lon="8.3005044"><ele>272.0</ele><time>2026-05-02T08:22:10.995Z</time></trkpt><trkpt lat="45.5946621" lon="8.3004659"><ele>272.0</ele><time>2026-05-02T08:22:11.993Z</time></trkpt><trkpt lat="45.5945567" lon="8.3004203"><ele>272.0</ele><time>2026-05-02T08:22:13Z</time></trkpt><trkpt lat="45.5944582" lon="8.3003641"><ele>272.0</ele><time>2026-05-02T08:22:13.994Z</time></trkpt><trkpt lat="45.5943632" lon="8.3003033"><ele>272.0</ele><time>2026-05-02T08:22:14.996Z</time></trkpt><trkpt lat="45.5942653" lon="8.3002525"><ele>272.0</ele><time>2026-05-02T08:22:15.999Z</time></trkpt><trkpt lat="45.5941611" lon="8.3002258"><ele>272.0</ele><time>2026-05-02T08:22:17.005Z</time></trkpt><trkpt lat="45.5940556" lon="8.3002157"><ele>272.0</ele><time>2026-05-02T08:22:17.993Z</time></trkpt><trkpt lat="45.5939533" lon="8.3002175"><ele>272.0</ele><time>2026-05-02T08:22:19.005Z</time></trkpt><trkpt lat="45.5938533" lon="8.3002172"><ele>272.0</ele><time>2026-05-02T08:22:19.992Z</time></trkpt><trkpt lat="45.5937521" lon="8.300221"><ele>272.0</ele><time>2026-05-02T08:22:20.993Z</time></trkpt><trkpt lat="45.5936575" lon="8.3002229"><ele>272.0</ele><time>2026-05-02T08:22:21.999Z</time></trkpt><trkpt lat="45.5935742" lon="8.3002254"><ele>272.0</ele><time>2026-05-02T08:22:23.007Z</time></trkpt><trkpt lat="45.5934011" lon="8.300226"><ele>271.8</ele><time>2026-05-02T08:22:25.009Z</time></trkpt><trkpt lat="45.5933027" lon="8.3002241"><ele>271.6</ele><time>2026-05-02T08:22:25.991Z</time></trkpt><trkpt lat="45.5932021" lon="8.3002214"><ele>271.40000000000003</ele><time>2026-05-02T08:22:27.006Z</time></trkpt><trkpt lat="45.5931005" lon="8.3002202"><ele>271.2</ele><time>2026-05-02T08:22:28.008Z</time></trkpt><trkpt lat="45.5929986" lon="8.3002232"><ele>271.0</ele><time>2026-05-02T08:22:29.003Z</time></trkpt><trkpt lat="45.5928932" lon="8.3002312"><ele>270.40000000000003</ele><time>2026-05-02T08:22:30.007Z</time></trkpt><trkpt lat="45.592795" lon="8.300237"><ele>269.8</ele><time>2026-05-02T08:22:30.997Z</time></trkpt><trkpt lat="45.5926968" lon="8.3002417"><ele>269.20000000000005</ele><time>2026-05-02T08:22:32.004Z</time></trkpt><trkpt lat="45.5926023" lon="8.3002448"><ele>268.6</ele><time>2026-05-02T08:22:32.996Z</time></trkpt><trkpt lat="45.5925028" lon="8.3002492"><ele>268.0</ele><time>2026-05-02T08:22:34.005Z</time></trkpt><trkpt lat="45.5923966" lon="8.3002548"><ele>268.0</ele><time>2026-05-02T08:22:34.999Z</time></trkpt><trkpt lat="45.5922831" lon="8.3002586"><ele>268.0</ele><time>2026-05-02T08:22:35.997Z</time></trkpt><trkpt lat="45.5921583" lon="8.3002513"><ele>268.0</ele><time>2026-05-02T08:22:36.999Z</time></trkpt><trkpt lat="45.5920215" lon="8.3002408"><ele>268.0</ele><time>2026-05-02T08:22:37.999Z</time></trkpt><trkpt lat="45.5918909" lon="8.3002215"><ele>267.8333333333333</ele><time>2026-05-02T08:22:39.008Z</time></trkpt><trkpt lat="45.5917792" lon="8.3002012"><ele>267.66666666666663</ele><time>2026-05-02T08:22:39.998Z</time></trkpt><trkpt lat="45.5916927" lon="8.300194"><ele>267.5</ele><time>2026-05-02T08:22:40.999Z</time></trkpt><trkpt lat="45.5916219" lon="8.3001991"><ele>267.3333333333333</ele><time>2026-05-02T08:22:42Z</time></trkpt><trkpt lat="45.5915574" lon="8.3002141"><ele>267.1666666666667</ele><time>2026-05-02T08:22:43.003Z</time></trkpt><trkpt lat="45.591452" lon="8.3002428"><ele>267.0</ele><time>2026-05-02T08:22:45.006Z</time></trkpt><trkpt lat="45.5912948" lon="8.3004228"><ele>267.0</ele><time>2026-05-02T08:22:49.009Z</time></trkpt><trkpt lat="45.5912006" lon="8.3005444"><ele>267.0</ele><time>2026-05-02T08:22:51.006Z</time></trkpt><trkpt lat="45.5911442" lon="8.3006063"><ele>267.0</ele><time>2026-05-02T08:22:52.006Z</time></trkpt><trkpt lat="45.5910839" lon="8.3006675"><ele>267.0</ele><time>2026-05-02T08:22:52.999Z</time></trkpt><trkpt lat="45.5910172" lon="8.3007113"><ele>267.0</ele><time>2026-05-02T08:22:54Z</time></trkpt><trkpt lat="45.5909475" lon="8.3007445"><ele>267.0</ele><time>2026-05-02T08:22:55.009Z</time></trkpt><trkpt lat="45.5908771" lon="8.3007676"><ele>267.0</ele><time>2026-05-02T08:22:55.996Z</time></trkpt><trkpt lat="45.5908067" lon="8.3007811"><ele>267.0</ele><time>2026-05-02T08:22:57.011Z</time></trkpt><trkpt lat="45.5907362" lon="8.3007862"><ele>267.0</ele><time>2026-05-02T08:22:57.994Z</time></trkpt><trkpt lat="45.5906533" lon="8.3007827"><ele>267.0</ele><time>2026-05-02T08:22:58.995Z</time></trkpt><trkpt lat="45.5905536" lon="8.3007755"><ele>267.0</ele><time>2026-05-02T08:23:00.006Z</time></trkpt><trkpt lat="45.5904343" lon="8.3007594"><ele>267.0</ele><time>2026-05-02T08:23:01.002Z</time></trkpt><trkpt lat="45.5902945" lon="8.3007462"><ele>266.75</ele><time>2026-05-02T08:23:02.003Z</time></trkpt><trkpt lat="45.590146" lon="8.3007336"><ele>266.5</ele><time>2026-05-02T08:23:03.008Z</time></trkpt><trkpt lat="45.5900005" lon="8.3007205"><ele>266.25</ele><time>2026-05-02T08:23:04.006Z</time></trkpt><trkpt lat="45.5898603" lon="8.3007086"><ele>266.0</ele><time>2026-05-02T08:23:05.002Z</time></trkpt><trkpt lat="45.5897298" lon="8.3006956"><ele>266.0</ele><time>2026-05-02T08:23:06Z</time></trkpt><trkpt lat="45.5895031" lon="8.3006737"><ele>266.0</ele><time>2026-05-02T08:23:07.995Z</time></trkpt><trkpt lat="45.5893982" lon="8.3006619"><ele>266.0</ele><time>2026-05-02T08:23:09.002Z</time></trkpt><trkpt lat="45.5892998" lon="8.3006539"><ele>266.0</ele><time>2026-05-02T08:23:09.999Z</time></trkpt><trkpt lat="45.5892035" lon="8.3006481"><ele>266.0</ele><time>2026-05-02T08:23:11.004Z</time></trkpt><trkpt lat="45.5891054" lon="8.3006419"><ele>266.0</ele><time>2026-05-02T08:23:12.001Z</time></trkpt><trkpt lat="45.5890084" lon="8.3006371"><ele>266.0</ele><time>2026-05-02T08:23:12.998Z</time></trkpt><trkpt lat="45.5889087" lon="8.3006258"><ele>266.0</ele><time>2026-05-02T08:23:13.996Z</time></trkpt><trkpt lat="45.5888126" lon="8.3006179"><ele>266.0</ele><time>2026-05-02T08:23:15.007Z</time></trkpt><trkpt lat="45.588718" lon="8.3006189"><ele>266.2</ele><time>2026-05-02T08:23:16.003Z</time></trkpt><trkpt lat="45.5886279" lon="8.3006279"><ele>266.40000000000003</ele><time>2026-05-02T08:23:17.002Z</time></trkpt><trkpt lat="45.588543" lon="8.3006521"><ele>266.6</ele><time>2026-05-02T08:23:18.004Z</time></trkpt><trkpt lat="45.5884553" lon="8.3006945"><ele>266.8</ele><time>2026-05-02T08:23:19.008Z</time></trkpt><trkpt lat="45.5883655" lon="8.3007477"><ele>267.0</ele><time>2026-05-02T08:23:20.01Z</time></trkpt><trkpt lat="45.5882724" lon="8.3008152"><ele>267.0</ele><time>2026-05-02T08:23:21.006Z</time></trkpt><trkpt lat="45.5881742" lon="8.3008785"><ele>267.0</ele><time>2026-05-02T08:23:22.003Z</time></trkpt><trkpt lat="45.5880681" lon="8.3009463"><ele>267.0</ele><time>2026-05-02T08:23:23.003Z</time></trkpt><trkpt lat="45.5879561" lon="8.3010223"><ele>267.0</ele><time>2026-05-02T08:23:24.004Z</time></trkpt><trkpt lat="45.5878468" lon="8.3011102"><ele>265.6666666666667</ele><time>2026-05-02T08:23:24.997Z</time></trkpt><trkpt lat="45.5877339" lon="8.301209"><ele>264.33333333333337</ele><time>2026-05-02T08:23:26.007Z</time></trkpt><trkpt lat="45.587628" lon="8.3012994"><ele>263.0</ele><time>2026-05-02T08:23:26.998Z</time></trkpt><trkpt lat="45.5874269" lon="8.3014704"><ele>263.0</ele><time>2026-05-02T08:23:29.002Z</time></trkpt><trkpt lat="45.5873349" lon="8.3015491"><ele>263.0</ele><time>2026-05-02T08:23:30.003Z</time></trkpt><trkpt lat="45.5872436" lon="8.3016195"><ele>263.0</ele><time>2026-05-02T08:23:31.011Z</time></trkpt><trkpt lat="45.5871512" lon="8.3016812"><ele>263.0</ele><time>2026-05-02T08:23:32.002Z</time></trkpt><trkpt lat="45.5870617" lon="8.301741"><ele>263.0</ele><time>2026-05-02T08:23:33.004Z</time></trkpt><trkpt lat="45.5869693" lon="8.3018063"><ele>262.6</ele><time>2026-05-02T08:23:34.002Z</time></trkpt><trkpt lat="45.5868751" lon="8.3018749"><ele>262.20000000000005</ele><time>2026-05-02T08:23:35.013Z</time></trkpt><trkpt lat="45.586784" lon="8.3019277"><ele>261.8</ele><time>2026-05-02T08:23:35.999Z</time></trkpt><trkpt lat="45.5866871" lon="8.301959"><ele>261.40000000000003</ele><time>2026-05-02T08:23:37.001Z</time></trkpt><trkpt lat="45.5865886" lon="8.3019654"><ele>261.0</ele><time>2026-05-02T08:23:38.002Z</time></trkpt><trkpt lat="45.586487" lon="8.3019499"><ele>261.0</ele><time>2026-05-02T08:23:39.002Z</time></trkpt><trkpt lat="45.5863942" lon="8.3019152"><ele>261.0</ele><time>2026-05-02T08:23:40.001Z</time></trkpt><trkpt lat="45.5863067" lon="8.3018715"><ele>261.0</ele><time>2026-05-02T08:23:41.004Z</time></trkpt><trkpt lat="45.5862234" lon="8.3018287"><ele>261.0</ele><time>2026-05-02T08:23:41.993Z</time></trkpt><trkpt lat="45.5861449" lon="8.3017914"><ele>261.0</ele><time>2026-05-02T08:23:43.006Z</time></trkpt><trkpt lat="45.5860758" lon="8.301763"><ele>261.0</ele><time>2026-05-02T08:23:44.007Z</time></trkpt><trkpt lat="45.5859677" lon="8.3017371"><ele>261.0</ele><time>2026-05-02T08:23:46Z</time></trkpt><trkpt lat="45.5858922" lon="8.3017402"><ele>261.0</ele><time>2026-05-02T08:23:47.999Z</time></trkpt><trkpt lat="45.5857286" lon="8.3018616"><ele>261.0</ele><time>2026-05-02T08:23:54.003Z</time></trkpt><trkpt lat="45.5856143" lon="8.3019032"><ele>261.0</ele><time>2026-05-02T08:23:55.998Z</time></trkpt><trkpt lat="45.5855391" lon="8.3019356"><ele>261.0</ele><time>2026-05-02T08:23:57Z</time></trkpt><trkpt lat="45.5854278" lon="8.3020137"><ele>261.0</ele><time>2026-05-02T08:23:58.002Z</time></trkpt><trkpt lat="45.5853101" lon="8.3021184"><ele>261.0</ele><time>2026-05-02T08:23:58.999Z</time></trkpt><trkpt lat="45.5851811" lon="8.3022592"><ele>261.0</ele><time>2026-05-02T08:24:00.008Z</time></trkpt><trkpt lat="45.5850475" lon="8.3024254"><ele>262.3333333333333</ele><time>2026-05-02T08:24:00.998Z</time></trkpt><trkpt lat="45.5849067" lon="8.3025957"><ele>263.66666666666663</ele><time>2026-05-02T08:24:02.009Z</time></trkpt><trkpt lat="45.584766" lon="8.3027598"><ele>265.0</ele><time>2026-05-02T08:24:03.001Z</time></trkpt><trkpt lat="45.5846442" lon="8.3029103"><ele>265.0</ele><time>2026-05-02T08:24:04.009Z</time></trkpt><trkpt lat="45.5845413" lon="8.3030337"><ele>265.0</ele><time>2026-05-02T08:24:04.992Z</time></trkpt><trkpt lat="45.5844507" lon="8.3031329"><ele>265.0</ele><time>2026-05-02T08:24:06.007Z</time></trkpt><trkpt lat="45.5843824" lon="8.3032065"><ele>265.0</ele><time>2026-05-02T08:24:07.005Z</time></trkpt><trkpt lat="45.5843247" lon="8.3032691"><ele>265.0</ele><time>2026-05-02T08:24:08.006Z</time></trkpt><trkpt lat="45.5842681" lon="8.3033429"><ele>265.25</ele><time>2026-05-02T08:24:10.006Z</time></trkpt><trkpt lat="45.584067" lon="8.3035573"><ele>265.5</ele><time>2026-05-02T08:24:48.985Z</time></trkpt><trkpt lat="45.5840062" lon="8.3036411"><ele>265.75</ele><time>2026-05-02T08:24:50.998Z</time></trkpt><trkpt lat="45.5839395" lon="8.3037239"><ele>266.0</ele><time>2026-05-02T08:24:52.998Z</time></trkpt><trkpt lat="45.5838738" lon="8.3037871"><ele>266.0</ele><time>2026-05-02T08:24:55.004Z</time></trkpt><trkpt lat="45.5838154" lon="8.3038457"><ele>266.0</ele><time>2026-05-02T08:24:56.993Z</time></trkpt><trkpt lat="45.5837427" lon="8.303905"><ele>266.0</ele><time>2026-05-02T08:24:58.999Z</time></trkpt><trkpt lat="45.5836619" lon="8.3039743"><ele>266.0</ele><time>2026-05-02T08:25:00.998Z</time></trkpt><trkpt lat="45.5835724" lon="8.304053"><ele>266.0</ele><time>2026-05-02T08:25:03.007Z</time></trkpt><trkpt lat="45.5834798" lon="8.3041234"><ele>265.8</ele><time>2026-05-02T08:25:04.996Z</time></trkpt><trkpt lat="45.5833894" lon="8.3041899"><ele>265.6</ele><time>2026-05-02T08:25:07Z</time></trkpt><trkpt lat="45.5832416" lon="8.3043072"><ele>265.4</ele><time>2026-05-02T08:25:11.001Z</time></trkpt><trkpt lat="45.5831911" lon="8.304379"><ele>265.2</ele><time>2026-05-02T08:25:13.001Z</time></trkpt><trkpt lat="45.5831381" lon="8.3044667"><ele>265.0</ele><time>2026-05-02T08:25:14.998Z</time></trkpt><trkpt lat="45.5830857" lon="8.3045722"><ele>265.0</ele><time>2026-05-02T08:25:17.003Z</time></trkpt><trkpt lat="45.5830275" lon="8.3046909"><ele>265.0</ele><time>2026-05-02T08:25:19.005Z</time></trkpt><trkpt lat="45.5829705" lon="8.3048057"><ele>265.0</ele><time>2026-05-02T08:25:21.003Z</time></trkpt><trkpt lat="45.5829141" lon="8.3049182"><ele>265.0</ele><time>2026-05-02T08:25:23Z</time></trkpt><trkpt lat="45.582848" lon="8.3050413"><ele>265.0</ele><time>2026-05-02T08:25:24.998Z</time></trkpt><trkpt lat="45.5827801" lon="8.3051686"><ele>264.0</ele><time>2026-05-02T08:25:27.009Z</time></trkpt><trkpt lat="45.5827081" lon="8.3053044"><ele>263.0</ele><time>2026-05-02T08:25:28.999Z</time></trkpt><trkpt lat="45.5825815" lon="8.305594"><ele>262.0</ele><time>2026-05-02T08:25:32.996Z</time></trkpt><trkpt lat="45.5825468" lon="8.3056735"><ele>261.0</ele><time>2026-05-02T08:25:34Z</time></trkpt><trkpt lat="45.5824787" lon="8.3058172"><ele>260.8</ele><time>2026-05-02T08:25:35.995Z</time></trkpt><trkpt lat="45.582389" lon="8.3059251"><ele>260.6</ele><time>2026-05-02T08:25:37.999Z</time></trkpt><trkpt lat="45.58229" lon="8.3059994"><ele>260.4</ele><time>2026-05-02T08:25:40.008Z</time></trkpt><trkpt lat="45.5822019" lon="8.3060805"><ele>260.2</ele><time>2026-05-02T08:25:41.999Z</time></trkpt><trkpt lat="45.5821189" lon="8.3061478"><ele>260.0</ele><time>2026-05-02T08:25:44.001Z</time></trkpt><trkpt lat="45.5820287" lon="8.3062056"><ele>260.75</ele><time>2026-05-02T08:25:46Z</time></trkpt><trkpt lat="45.5819513" lon="8.3063159"><ele>261.5</ele><time>2026-05-02T08:25:48.001Z</time></trkpt><trkpt lat="45.5819038" lon="8.3064637"><ele>262.25</ele><time>2026-05-02T08:25:50.001Z</time></trkpt><trkpt lat="45.5818103" lon="8.306736"><ele>263.0</ele><time>2026-05-02T08:25:54.004Z</time></trkpt><trkpt lat="45.5817443" lon="8.3068267"><ele>263.2</ele><time>2026-05-02T08:25:56Z</time></trkpt><trkpt lat="45.5816687" lon="8.30691"><ele>263.4</ele><time>2026-05-02T08:25:58.01Z</time></trkpt><trkpt lat="45.581597" lon="8.3069862"><ele>263.59999999999997</ele><time>2026-05-02T08:26:00.004Z</time></trkpt><trkpt lat="45.5815253" lon="8.3070525"><ele>263.8</ele><time>2026-05-02T08:26:02.001Z</time></trkpt><trkpt lat="45.5814359" lon="8.3071083"><ele>264.0</ele><time>2026-05-02T08:26:03.999Z</time></trkpt><trkpt lat="45.5813522" lon="8.3071466"><ele>264.0</ele><time>2026-05-02T08:26:06.005Z</time></trkpt><trkpt lat="45.5812706" lon="8.3071774"><ele>264.0</ele><time>2026-05-02T08:26:07.999Z</time></trkpt><trkpt lat="45.5811767" lon="8.3072182"><ele>264.0</ele><time>2026-05-02T08:26:10Z</time></trkpt><trkpt lat="45.5810737" lon="8.3072613"><ele>264.0</ele><time>2026-05-02T08:26:12.015Z</time></trkpt><trkpt lat="45.5809045" lon="8.3073864"><ele>263.1666666666667</ele><time>2026-05-02T08:26:16.007Z</time></trkpt><trkpt lat="45.5808448" lon="8.3074416"><ele>262.3333333333333</ele><time>2026-05-02T08:26:16.992Z</time></trkpt><trkpt lat="45.5807584" lon="8.3074537"><ele>261.5</ele><time>2026-05-02T08:26:18.001Z</time></trkpt><trkpt lat="45.580663" lon="8.3074192"><ele>260.66666666666663</ele><time>2026-05-02T08:26:19.003Z</time></trkpt><trkpt lat="45.5805726" lon="8.3073677"><ele>259.8333333333333</ele><time>2026-05-02T08:26:19.997Z</time></trkpt><trkpt lat="45.5804954" lon="8.3073172"><ele>259.0</ele><time>2026-05-02T08:26:20.996Z</time></trkpt><trkpt lat="45.5804348" lon="8.3072779"><ele>258.8</ele><time>2026-05-02T08:26:21.995Z</time></trkpt><trkpt lat="45.5803421" lon="8.3072001"><ele>258.59999999999997</ele><time>2026-05-02T08:26:23.99Z</time></trkpt><trkpt lat="45.5802754" lon="8.3071023"><ele>258.4</ele><time>2026-05-02T08:26:25.995Z</time></trkpt><trkpt lat="45.5801994" lon="8.3070399"><ele>258.2</ele><time>2026-05-02T08:26:27.994Z</time></trkpt><trkpt lat="45.5801166" lon="8.3070617"><ele>258.0</ele><time>2026-05-02T08:26:29.991Z</time></trkpt><trkpt lat="45.5799882" lon="8.3071293"><ele>258.0</ele><time>2026-05-02T08:26:32.006Z</time></trkpt><trkpt lat="45.5799006" lon="8.307166"><ele>258.0</ele><time>2026-05-02T08:26:32.998Z</time></trkpt><trkpt lat="45.5796424" lon="8.3072028"><ele>258.0</ele><time>2026-05-02T08:26:35Z</time></trkpt><trkpt lat="45.5794751" lon="8.3072146"><ele>257.3333333333333</ele><time>2026-05-02T08:26:35.999Z</time></trkpt><trkpt lat="45.5792908" lon="8.3072485"><ele>256.66666666666663</ele><time>2026-05-02T08:26:37.006Z</time></trkpt><trkpt lat="45.579093" lon="8.3072898"><ele>256.0</ele><time>2026-05-02T08:26:38.004Z</time></trkpt><trkpt lat="45.5788965" lon="8.3073285"><ele>256.0</ele><time>2026-05-02T08:26:39.004Z</time></trkpt><trkpt lat="45.5787465" lon="8.3073528"><ele>256.0</ele><time>2026-05-02T08:26:40.006Z</time></trkpt><trkpt lat="45.5786373" lon="8.3073759"><ele>256.0</ele><time>2026-05-02T08:26:41.006Z</time></trkpt><trkpt lat="45.5785458" lon="8.3073749"><ele>256.0</ele><time>2026-05-02T08:26:42.008Z</time></trkpt><trkpt lat="45.5784632" lon="8.3073264"><ele>256.0</ele><time>2026-05-02T08:26:43.01Z</time></trkpt><trkpt lat="45.5783956" lon="8.3072299"><ele>255.25</ele><time>2026-05-02T08:26:43.998Z</time></trkpt><trkpt lat="45.578348" lon="8.3070824"><ele>254.5</ele><time>2026-05-02T08:26:45.003Z</time></trkpt><trkpt lat="45.5783115" lon="8.3069071"><ele>253.75</ele><time>2026-05-02T08:26:46.003Z</time></trkpt><trkpt lat="45.578272" lon="8.3067161"><ele>253.0</ele><time>2026-05-02T08:26:47.001Z</time></trkpt><trkpt lat="45.5782285" lon="8.3065103"><ele>253.0</ele><time>2026-05-02T08:26:47.998Z</time></trkpt><trkpt lat="45.5781831" lon="8.3062981"><ele>253.0</ele><time>2026-05-02T08:26:49.001Z</time></trkpt><trkpt lat="45.5781423" lon="8.3061107"><ele>253.0</ele><time>2026-05-02T08:26:50.002Z</time></trkpt><trkpt lat="45.5781121" lon="8.3059696"><ele>253.0</ele><time>2026-05-02T08:26:51.001Z</time></trkpt><trkpt lat="45.5780877" lon="8.305865"><ele>253.0</ele><time>2026-05-02T08:26:52Z</time></trkpt><trkpt lat="45.5780456" lon="8.305746"><ele>253.0</ele><time>2026-05-02T08:26:53.994Z</time></trkpt><trkpt lat="45.5778188" lon="8.3058698"><ele>253.0</ele><time>2026-05-02T08:27:46.002Z</time></trkpt><trkpt lat="45.5777121" lon="8.3059229"><ele>253.0</ele><time>2026-05-02T08:27:48Z</time></trkpt><trkpt lat="45.5775961" lon="8.3059896"><ele>253.2</ele><time>2026-05-02T08:27:50.005Z</time></trkpt><trkpt lat="45.5775383" lon="8.3060277"><ele>253.4</ele><time>2026-05-02T08:27:51Z</time></trkpt><trkpt lat="45.5774802" lon="8.3060634"><ele>253.59999999999997</ele><time>2026-05-02T08:27:52.008Z</time></trkpt><trkpt lat="45.5773652" lon="8.3061333"><ele>253.79999999999998</ele><time>2026-05-02T08:27:53.997Z</time></trkpt><trkpt lat="45.5772551" lon="8.3062"><ele>254.0</ele><time>2026-05-02T08:27:55.997Z</time></trkpt><trkpt lat="45.5771742" lon="8.3062522"><ele>254.0</ele><time>2026-05-02T08:27:57.995Z</time></trkpt><trkpt lat="45.5771135" lon="8.3062872"><ele>253.99999999999997</ele><time>2026-05-02T08:27:59.997Z</time></trkpt><trkpt lat="45.5770391" lon="8.3063265"><ele>253.99999999999997</ele><time>2026-05-02T08:28:01.997Z</time></trkpt><trkpt lat="45.5769569" lon="8.30636"><ele>254.0</ele><time>2026-05-02T08:28:04Z</time></trkpt><trkpt lat="45.5768045" lon="8.3064235"><ele>254.0</ele><time>2026-05-02T08:28:08.005Z</time></trkpt><trkpt lat="45.5767199" lon="8.306465"><ele>253.39999999999998</ele><time>2026-05-02T08:28:10.993Z</time></trkpt><trkpt lat="45.5766444" lon="8.3065055"><ele>252.79999999999998</ele><time>2026-05-02T08:28:13.004Z</time></trkpt><trkpt lat="45.5765171" lon="8.3065739"><ele>252.20000000000002</ele><time>2026-05-02T08:28:14.999Z</time></trkpt><trkpt lat="45.5764355" lon="8.306618"><ele>251.60000000000002</ele><time>2026-05-02T08:28:16Z</time></trkpt><trkpt lat="45.5763435" lon="8.3066647"><ele>251.0</ele><time>2026-05-02T08:28:17.003Z</time></trkpt><trkpt lat="45.5762487" lon="8.3067165"><ele>250.60000000000002</ele><time>2026-05-02T08:28:18.001Z</time></trkpt><trkpt lat="45.5761461" lon="8.3067714"><ele>250.20000000000002</ele><time>2026-05-02T08:28:18.998Z</time></trkpt><trkpt lat="45.5760432" lon="8.3068241"><ele>249.79999999999998</ele><time>2026-05-02T08:28:20.004Z</time></trkpt><trkpt lat="45.5759398" lon="8.3068756"><ele>249.39999999999998</ele><time>2026-05-02T08:28:20.996Z</time></trkpt><trkpt lat="45.5758303" lon="8.3069302"><ele>249.0</ele><time>2026-05-02T08:28:22.005Z</time></trkpt><trkpt lat="45.5757151" lon="8.3069893"><ele>249.0</ele><time>2026-05-02T08:28:22.994Z</time></trkpt><trkpt lat="45.5755907" lon="8.3070497"><ele>249.0</ele><time>2026-05-02T08:28:23.997Z</time></trkpt><trkpt lat="45.5754564" lon="8.3071099"><ele>249.0</ele><time>2026-05-02T08:28:24.999Z</time></trkpt><trkpt lat="45.5751649" lon="8.3072339"><ele>249.33333333333331</ele><time>2026-05-02T08:28:26.992Z</time></trkpt><trkpt lat="45.5750165" lon="8.3072928"><ele>249.66666666666666</ele><time>2026-05-02T08:28:27.999Z</time></trkpt><trkpt lat="45.5748688" lon="8.3073466"><ele>250.0</ele><time>2026-05-02T08:28:28.999Z</time></trkpt><trkpt lat="45.5747156" lon="8.3073974"><ele>250.0</ele><time>2026-05-02T08:28:29.997Z</time></trkpt><trkpt lat="45.5745645" lon="8.3074487"><ele>250.0</ele><time>2026-05-02T08:28:31.006Z</time></trkpt><trkpt lat="45.5744428" lon="8.3074887"><ele>250.0</ele><time>2026-05-02T08:28:31.999Z</time></trkpt><trkpt lat="45.5743601" lon="8.3075149"><ele>250.0</ele><time>2026-05-02T08:28:33.001Z</time></trkpt><trkpt lat="45.5742656" lon="8.3075495"><ele>249.99999999999997</ele><time>2026-05-02T08:28:35.003Z</time></trkpt><trkpt lat="45.5741968" lon="8.3075493"><ele>250.0</ele><time>2026-05-02T08:28:39.001Z</time></trkpt><trkpt lat="45.5741617" lon="8.307433"><ele>250.0</ele><time>2026-05-02T08:28:50.997Z</time></trkpt><trkpt lat="45.5741162" lon="8.3072562"><ele>250.0</ele><time>2026-05-02T08:28:53.004Z</time></trkpt><trkpt lat="45.5740979" lon="8.3071597"><ele>249.99999999999997</ele><time>2026-05-02T08:28:54.004Z</time></trkpt><trkpt lat="45.5740771" lon="8.3070594"><ele>250.0</ele><time>2026-05-02T08:28:54.998Z</time></trkpt><trkpt lat="45.5740472" lon="8.3069454"><ele>249.8</ele><time>2026-05-02T08:28:55.999Z</time></trkpt><trkpt lat="45.5740154" lon="8.3068171"><ele>249.6</ele><time>2026-05-02T08:28:56.998Z</time></trkpt><trkpt lat="45.5739757" lon="8.3066817"><ele>249.39999999999998</ele><time>2026-05-02T08:28:58.004Z</time></trkpt><trkpt lat="45.5739291" lon="8.3065389"><ele>249.2</ele><time>2026-05-02T08:28:58.991Z</time></trkpt><trkpt lat="45.573875" lon="8.3063784"><ele>249.0</ele><time>2026-05-02T08:29:00.004Z</time></trkpt><trkpt lat="45.5738217" lon="8.3062141"><ele>249.0</ele><time>2026-05-02T08:29:00.993Z</time></trkpt><trkpt lat="45.5737729" lon="8.306054"><ele>249.0</ele><time>2026-05-02T08:29:01.994Z</time></trkpt><trkpt lat="45.5737296" lon="8.3059098"><ele>249.0</ele><time>2026-05-02T08:29:02.99Z</time></trkpt><trkpt lat="45.5736837" lon="8.3057666"><ele>249.0</ele><time>2026-05-02T08:29:03.993Z</time></trkpt><trkpt lat="45.5736311" lon="8.3056177"><ele>249.5</ele><time>2026-05-02T08:29:04.993Z</time></trkpt><trkpt lat="45.5735734" lon="8.3054616"><ele>250.0</ele><time>2026-05-02T08:29:05.999Z</time></trkpt><trkpt lat="45.5735081" lon="8.3052889"><ele>250.5</ele><time>2026-05-02T08:29:06.995Z</time></trkpt><trkpt lat="45.573435" lon="8.3051121"><ele>251.0</ele><time>2026-05-02T08:29:08.007Z</time></trkpt><trkpt lat="45.5733727" lon="8.3049433"><ele>251.0</ele><time>2026-05-02T08:29:09.001Z</time></trkpt><trkpt lat="45.5733175" lon="8.3047861"><ele>251.0</ele><time>2026-05-02T08:29:10.007Z</time></trkpt><trkpt lat="45.5732712" lon="8.3046462"><ele>251.0</ele><time>2026-05-02T08:29:10.995Z</time></trkpt><trkpt lat="45.5732252" lon="8.3045069"><ele>251.0</ele><time>2026-05-02T08:29:12.007Z</time></trkpt><trkpt lat="45.5731528" lon="8.3042391"><ele>250.8</ele><time>2026-05-02T08:29:14.002Z</time></trkpt><trkpt lat="45.5731194" lon="8.3041421"><ele>250.60000000000002</ele><time>2026-05-02T08:29:15.007Z</time></trkpt><trkpt lat="45.5730067" lon="8.3040863"><ele>250.4</ele><time>2026-05-02T08:29:17.001Z</time></trkpt><trkpt lat="45.5729316" lon="8.3041103"><ele>250.2</ele><time>2026-05-02T08:29:18.002Z</time></trkpt><trkpt lat="45.5728297" lon="8.3041814"><ele>250.0</ele><time>2026-05-02T08:29:19.004Z</time></trkpt><trkpt lat="45.5726982" lon="8.3042865"><ele>249.66666666666666</ele><time>2026-05-02T08:29:20Z</time></trkpt><trkpt lat="45.5725492" lon="8.3043954"><ele>249.33333333333331</ele><time>2026-05-02T08:29:21.005Z</time></trkpt><trkpt lat="45.5723836" lon="8.3045101"><ele>249.0</ele><time>2026-05-02T08:29:22.001Z</time></trkpt><trkpt lat="45.5722045" lon="8.3046311"><ele>249.0</ele><time>2026-05-02T08:29:22.999Z</time></trkpt><trkpt lat="45.5720296" lon="8.3047406"><ele>249.0</ele><time>2026-05-02T08:29:23.997Z</time></trkpt><trkpt lat="45.5718915" lon="8.3048225"><ele>249.0</ele><time>2026-05-02T08:29:24.998Z</time></trkpt><trkpt lat="45.5717981" lon="8.3048733"><ele>249.0</ele><time>2026-05-02T08:29:26.001Z</time></trkpt><trkpt lat="45.5717206" lon="8.3049071"><ele>248.79999999999998</ele><time>2026-05-02T08:29:27.008Z</time></trkpt><trkpt lat="45.5716387" lon="8.3049281"><ele>248.59999999999997</ele><time>2026-05-02T08:29:27.995Z</time></trkpt><trkpt lat="45.5715653" lon="8.3049383"><ele>248.4</ele><time>2026-05-02T08:29:29Z</time></trkpt><trkpt lat="45.5714693" lon="8.3049476"><ele>248.2</ele><time>2026-05-02T08:29:30.999Z</time></trkpt><trkpt lat="45.5714039" lon="8.3049646"><ele>248.0</ele><time>2026-05-02T08:30:05.995Z</time></trkpt><trkpt lat="45.571215" lon="8.3050077"><ele>247.83333333333334</ele><time>2026-05-02T08:30:10.997Z</time></trkpt><trkpt lat="45.5711012" lon="8.3050325"><ele>247.66666666666669</ele><time>2026-05-02T08:30:13.008Z</time></trkpt><trkpt lat="45.5709776" lon="8.3050593"><ele>247.5</ele><time>2026-05-02T08:30:14.996Z</time></trkpt><trkpt lat="45.5709125" lon="8.3050776"><ele>247.33333333333331</ele><time>2026-05-02T08:30:16Z</time></trkpt><trkpt lat="45.5708459" lon="8.3050898"><ele>247.16666666666666</ele><time>2026-05-02T08:30:16.998Z</time></trkpt><trkpt lat="45.570776" lon="8.3050996"><ele>247.0</ele><time>2026-05-02T08:30:18.003Z</time></trkpt><trkpt lat="45.5707017" lon="8.3051092"><ele>246.99999999999997</ele><time>2026-05-02T08:30:19.001Z</time></trkpt><trkpt lat="45.5706268" lon="8.3051139"><ele>247.0</ele><time>2026-05-02T08:30:20.003Z</time></trkpt><trkpt lat="45.5705573" lon="8.3051198"><ele>247.0</ele><time>2026-05-02T08:30:21.003Z</time></trkpt><trkpt lat="45.5704904" lon="8.3051268"><ele>247.0</ele><time>2026-05-02T08:30:22.002Z</time></trkpt><trkpt lat="45.5704252" lon="8.3051343"><ele>246.99999999999997</ele><time>2026-05-02T08:30:23.001Z</time></trkpt><trkpt lat="45.570303" lon="8.3051511"><ele>247.0</ele><time>2026-05-02T08:30:24.99Z</time></trkpt><trkpt lat="45.5701878" lon="8.3051622"><ele>246.8</ele><time>2026-05-02T08:30:27.008Z</time></trkpt><trkpt lat="45.5700141" lon="8.3051834"><ele>246.6</ele><time>2026-05-02T08:30:29.998Z</time></trkpt><trkpt lat="45.5699396" lon="8.305187"><ele>246.40000000000003</ele><time>2026-05-02T08:30:30.992Z</time></trkpt><trkpt lat="45.569859" lon="8.3051932"><ele>246.20000000000002</ele><time>2026-05-02T08:30:31.998Z</time></trkpt><trkpt lat="45.5697708" lon="8.305203"><ele>246.0</ele><time>2026-05-02T08:30:32.992Z</time></trkpt><trkpt lat="45.5696837" lon="8.3052179"><ele>246.0</ele><time>2026-05-02T08:30:34.005Z</time></trkpt><trkpt lat="45.5696081" lon="8.3052308"><ele>246.0</ele><time>2026-05-02T08:30:34.996Z</time></trkpt><trkpt lat="45.5695372" lon="8.3052464"><ele>246.0</ele><time>2026-05-02T08:30:35.996Z</time></trkpt><trkpt lat="45.5694667" lon="8.3052637"><ele>246.0</ele><time>2026-05-02T08:30:37.002Z</time></trkpt><trkpt lat="45.5693925" lon="8.3052847"><ele>246.0</ele><time>2026-05-02T08:30:37.995Z</time></trkpt><trkpt lat="45.569315" lon="8.3053049"><ele>246.0</ele><time>2026-05-02T08:30:39.008Z</time></trkpt><trkpt lat="45.5692354" lon="8.3053235"><ele>245.66666666666666</ele><time>2026-05-02T08:30:39.998Z</time></trkpt><trkpt lat="45.5691523" lon="8.305343"><ele>245.33333333333331</ele><time>2026-05-02T08:30:41.001Z</time></trkpt><trkpt lat="45.5690685" lon="8.3053634"><ele>245.0</ele><time>2026-05-02T08:30:42.002Z</time></trkpt><trkpt lat="45.5689869" lon="8.3053799"><ele>244.66666666666666</ele><time>2026-05-02T08:30:42.999Z</time></trkpt><trkpt lat="45.5689037" lon="8.3053977"><ele>244.33333333333331</ele><time>2026-05-02T08:30:44.002Z</time></trkpt><trkpt lat="45.5688202" lon="8.3054121"><ele>244.0</ele><time>2026-05-02T08:30:45.007Z</time></trkpt><trkpt lat="45.56874" lon="8.3054269"><ele>244.39999999999998</ele><time>2026-05-02T08:30:46.001Z</time></trkpt><trkpt lat="45.5686606" lon="8.3054373"><ele>244.79999999999998</ele><time>2026-05-02T08:30:47.002Z</time></trkpt><trkpt lat="45.5685864" lon="8.3054465"><ele>245.20000000000002</ele><time>2026-05-02T08:30:48.001Z</time></trkpt><trkpt lat="45.5684464" lon="8.3054543"><ele>245.60000000000002</ele><time>2026-05-02T08:30:50.003Z</time></trkpt><trkpt lat="45.5683827" lon="8.3054624"><ele>246.0</ele><time>2026-05-02T08:30:51.001Z</time></trkpt><trkpt lat="45.5682583" lon="8.3054692"><ele>246.00000000000003</ele><time>2026-05-02T08:30:52.994Z</time></trkpt><trkpt lat="45.5681933" lon="8.3054687"><ele>246.0</ele><time>2026-05-02T08:30:54Z</time></trkpt><trkpt lat="45.5681258" lon="8.3054656"><ele>246.00000000000003</ele><time>2026-05-02T08:30:54.998Z</time></trkpt><trkpt lat="45.5680583" lon="8.3054594"><ele>246.00000000000003</ele><time>2026-05-02T08:30:56.003Z</time></trkpt><trkpt lat="45.5679887" lon="8.3054589"><ele>246.0</ele><time>2026-05-02T08:30:56.999Z</time></trkpt><trkpt lat="45.5679174" lon="8.3054606"><ele>246.00000000000003</ele><time>2026-05-02T08:30:57.993Z</time></trkpt><trkpt lat="45.5678467" lon="8.3054604"><ele>246.00000000000003</ele><time>2026-05-02T08:30:58.997Z</time></trkpt><trkpt lat="45.5677737" lon="8.3054639"><ele>245.83333333333334</ele><time>2026-05-02T08:31:00.004Z</time></trkpt><trkpt lat="45.5676961" lon="8.3054697"><ele>245.66666666666669</ele><time>2026-05-02T08:31:01.005Z</time></trkpt><trkpt lat="45.5676132" lon="8.3054789"><ele>245.5</ele><time>2026-05-02T08:31:02.008Z</time></trkpt><trkpt lat="45.5675256" lon="8.3054899"><ele>245.33333333333334</ele><time>2026-05-02T08:31:02.994Z</time></trkpt><trkpt lat="45.5674363" lon="8.3054998"><ele>245.16666666666669</ele><time>2026-05-02T08:31:04.005Z</time></trkpt><trkpt lat="45.5673477" lon="8.3055087"><ele>245.0</ele><time>2026-05-02T08:31:04.998Z</time></trkpt><trkpt lat="45.5672606" lon="8.3055176"><ele>245.0</ele><time>2026-05-02T08:31:05.999Z</time></trkpt><trkpt lat="45.5671784" lon="8.3055277"><ele>245.0</ele><time>2026-05-02T08:31:06.993Z</time></trkpt><trkpt lat="45.5671016" lon="8.3055357"><ele>245.0</ele><time>2026-05-02T08:31:08.004Z</time></trkpt><trkpt lat="45.5670271" lon="8.3055399"><ele>245.0</ele><time>2026-05-02T08:31:09.004Z</time></trkpt><trkpt lat="45.5668814" lon="8.3055494"><ele>245.0</ele><time>2026-05-02T08:31:11.001Z</time></trkpt><trkpt lat="45.5668095" lon="8.3055646"><ele>245.00000000000003</ele><time>2026-05-02T08:31:12.003Z</time></trkpt><trkpt lat="45.5667395" lon="8.3055958"><ele>245.0</ele><time>2026-05-02T08:31:13.005Z</time></trkpt><trkpt lat="45.5666683" lon="8.305635"><ele>245.0</ele><time>2026-05-02T08:31:14.005Z</time></trkpt><trkpt lat="45.5665909" lon="8.3056886"><ele>245.0</ele><time>2026-05-02T08:31:15.005Z</time></trkpt><trkpt lat="45.5665068" lon="8.3057557"><ele>245.00000000000003</ele><time>2026-05-02T08:31:16.004Z</time></trkpt><trkpt lat="45.5664212" lon="8.3058256"><ele>245.0</ele><time>2026-05-02T08:31:17Z</time></trkpt><trkpt lat="45.5663297" lon="8.3058929"><ele>245.0</ele><time>2026-05-02T08:31:18.007Z</time></trkpt><trkpt lat="45.5662392" lon="8.3059564"><ele>245.0</ele><time>2026-05-02T08:31:18.995Z</time></trkpt><trkpt lat="45.5661485" lon="8.3060133"><ele>245.0</ele><time>2026-05-02T08:31:19.999Z</time></trkpt><trkpt lat="45.5660543" lon="8.3060705"><ele>245.0</ele><time>2026-05-02T08:31:21Z</time></trkpt><trkpt lat="45.5659593" lon="8.3061226"><ele>245.0</ele><time>2026-05-02T08:31:21.999Z</time></trkpt><trkpt lat="45.5658656" lon="8.3061655"><ele>244.8</ele><time>2026-05-02T08:31:22.998Z</time></trkpt><trkpt lat="45.5657709" lon="8.3062063"><ele>244.6</ele><time>2026-05-02T08:31:23.994Z</time></trkpt><trkpt lat="45.5656753" lon="8.3062446"><ele>244.39999999999998</ele><time>2026-05-02T08:31:25.007Z</time></trkpt><trkpt lat="45.5655797" lon="8.3062819"><ele>244.2</ele><time>2026-05-02T08:31:25.988Z</time></trkpt><trkpt lat="45.5654864" lon="8.3063229"><ele>244.0</ele><time>2026-05-02T08:31:27.004Z</time></trkpt><trkpt lat="45.5653968" lon="8.3063621"><ele>243.79999999999998</ele><time>2026-05-02T08:31:27.993Z</time></trkpt><trkpt lat="45.5653097" lon="8.3064001"><ele>243.59999999999997</ele><time>2026-05-02T08:31:29Z</time></trkpt><trkpt lat="45.5652235" lon="8.3064354"><ele>243.4</ele><time>2026-05-02T08:31:29.992Z</time></trkpt><trkpt lat="45.5650497" lon="8.306492"><ele>243.2</ele><time>2026-05-02T08:31:31.994Z</time></trkpt><trkpt lat="45.5649632" lon="8.3065141"><ele>243.0</ele><time>2026-05-02T08:31:32.993Z</time></trkpt><trkpt lat="45.5648755" lon="8.3065343"><ele>243.0</ele><time>2026-05-02T08:31:33.991Z</time></trkpt><trkpt lat="45.5647897" lon="8.3065513"><ele>243.0</ele><time>2026-05-02T08:31:35.001Z</time></trkpt><trkpt lat="45.5647066" lon="8.306563"><ele>243.0</ele><time>2026-05-02T08:31:35.999Z</time></trkpt><trkpt lat="45.564622" lon="8.3065762"><ele>243.0</ele><time>2026-05-02T08:31:37.002Z</time></trkpt><trkpt lat="45.564537" lon="8.306594"><ele>243.0</ele><time>2026-05-02T08:31:37.995Z</time></trkpt><trkpt lat="45.5644548" lon="8.3066129"><ele>243.0</ele><time>2026-05-02T08:31:38.995Z</time></trkpt><trkpt lat="45.5643763" lon="8.3066274"><ele>243.16666666666666</ele><time>2026-05-02T08:31:39.998Z</time></trkpt><trkpt lat="45.5642982" lon="8.3066351"><ele>243.33333333333331</ele><time>2026-05-02T08:31:40.996Z</time></trkpt><trkpt lat="45.5642214" lon="8.3066444"><ele>243.5</ele><time>2026-05-02T08:31:42.003Z</time></trkpt><trkpt lat="45.5641421" lon="8.3066497"><ele>243.66666666666666</ele><time>2026-05-02T08:31:42.991Z</time></trkpt><trkpt lat="45.5640626" lon="8.3066579"><ele>243.83333333333331</ele><time>2026-05-02T08:31:44.01Z</time></trkpt><trkpt lat="45.5639847" lon="8.3066693"><ele>244.0</ele><time>2026-05-02T08:31:45Z</time></trkpt><trkpt lat="45.5639098" lon="8.3066868"><ele>243.99999999999997</ele><time>2026-05-02T08:31:46.008Z</time></trkpt><trkpt lat="45.5638384" lon="8.3067122"><ele>244.0</ele><time>2026-05-02T08:31:46.998Z</time></trkpt><trkpt lat="45.5637684" lon="8.3067452"><ele>244.0</ele><time>2026-05-02T08:31:48.007Z</time></trkpt><trkpt lat="45.5637079" lon="8.306792"><ele>244.0</ele><time>2026-05-02T08:31:48.994Z</time></trkpt><trkpt lat="45.5636531" lon="8.3068564"><ele>243.99999999999997</ele><time>2026-05-02T08:31:50.003Z</time></trkpt><trkpt lat="45.5636003" lon="8.3069496"><ele>244.0</ele><time>2026-05-02T08:31:50.994Z</time></trkpt><trkpt lat="45.5635099" lon="8.307115"><ele>243.83333333333331</ele><time>2026-05-02T08:31:52.995Z</time></trkpt><trkpt lat="45.5634608" lon="8.3072004"><ele>243.66666666666666</ele><time>2026-05-02T08:31:54.007Z</time></trkpt><trkpt lat="45.5634053" lon="8.3072805"><ele>243.5</ele><time>2026-05-02T08:31:55.003Z</time></trkpt><trkpt lat="45.5633456" lon="8.3073578"><ele>243.33333333333331</ele><time>2026-05-02T08:31:56.007Z</time></trkpt><trkpt lat="45.5632825" lon="8.3074232"><ele>243.16666666666666</ele><time>2026-05-02T08:31:56.992Z</time></trkpt><trkpt lat="45.5632172" lon="8.3074785"><ele>243.0</ele><time>2026-05-02T08:31:57.997Z</time></trkpt><trkpt lat="45.5631519" lon="8.3075295"><ele>243.0</ele><time>2026-05-02T08:31:58.994Z</time></trkpt><trkpt lat="45.5630824" lon="8.3075834"><ele>243.0</ele><time>2026-05-02T08:32:00Z</time></trkpt><trkpt lat="45.5630106" lon="8.3076386"><ele>243.0</ele><time>2026-05-02T08:32:01.001Z</time></trkpt><trkpt lat="45.5629327" lon="8.3076906"><ele>243.0</ele><time>2026-05-02T08:32:01.997Z</time></trkpt><trkpt lat="45.562858" lon="8.3077371"><ele>243.0</ele><time>2026-05-02T08:32:03.011Z</time></trkpt><trkpt lat="45.5627817" lon="8.307777"><ele>243.0</ele><time>2026-05-02T08:32:04Z</time></trkpt><trkpt lat="45.5627079" lon="8.3078093"><ele>243.0</ele><time>2026-05-02T08:32:04.998Z</time></trkpt><trkpt lat="45.5626412" lon="8.3078372"><ele>243.0</ele><time>2026-05-02T08:32:05.998Z</time></trkpt><trkpt lat="45.5625731" lon="8.3078623"><ele>243.0</ele><time>2026-05-02T08:32:07.007Z</time></trkpt><trkpt lat="45.5625055" lon="8.3078823"><ele>243.0</ele><time>2026-05-02T08:32:07.997Z</time></trkpt><trkpt lat="45.5624352" lon="8.3078958"><ele>243.0</ele><time>2026-05-02T08:32:09.001Z</time></trkpt><trkpt lat="45.5623684" lon="8.3079089"><ele>243.0</ele><time>2026-05-02T08:32:10Z</time></trkpt><trkpt lat="45.5623016" lon="8.3079092"><ele>243.0</ele><time>2026-05-02T08:32:11Z</time></trkpt><trkpt lat="45.5622324" lon="8.3079101"><ele>243.0</ele><time>2026-05-02T08:32:11.987Z</time></trkpt><trkpt lat="45.5620791" lon="8.3079125"><ele>243.0</ele><time>2026-05-02T08:32:13.999Z</time></trkpt><trkpt lat="45.5619939" lon="8.3079129"><ele>243.0</ele><time>2026-05-02T08:32:15.008Z</time></trkpt><trkpt lat="45.5619115" lon="8.3079213"><ele>243.0</ele><time>2026-05-02T08:32:16.001Z</time></trkpt><trkpt lat="45.5618283" lon="8.3079323"><ele>243.0</ele><time>2026-05-02T08:32:17.008Z</time></trkpt><trkpt lat="45.5617467" lon="8.3079376"><ele>243.16666666666666</ele><time>2026-05-02T08:32:17.996Z</time></trkpt><trkpt lat="45.5616635" lon="8.3079392"><ele>243.33333333333331</ele><time>2026-05-02T08:32:18.996Z</time></trkpt><trkpt lat="45.5615816" lon="8.307936"><ele>243.5</ele><time>2026-05-02T08:32:19.994Z</time></trkpt><trkpt lat="45.5615027" lon="8.3079173"><ele>243.66666666666666</ele><time>2026-05-02T08:32:21.008Z</time></trkpt><trkpt lat="45.5614265" lon="8.3078898"><ele>243.83333333333331</ele><time>2026-05-02T08:32:21.996Z</time></trkpt><trkpt lat="45.5613442" lon="8.3078547"><ele>244.0</ele><time>2026-05-02T08:32:23.006Z</time></trkpt><trkpt lat="45.5612557" lon="8.3078235"><ele>243.49999999999997</ele><time>2026-05-02T08:32:24.002Z</time></trkpt><trkpt lat="45.5611666" lon="8.3077875"><ele>243.0</ele><time>2026-05-02T08:32:24.998Z</time></trkpt><trkpt lat="45.56108" lon="8.3077521"><ele>242.5</ele><time>2026-05-02T08:32:25.994Z</time></trkpt><trkpt lat="45.5609931" lon="8.3077201"><ele>242.0</ele><time>2026-05-02T08:32:27.008Z</time></trkpt><trkpt lat="45.5609129" lon="8.3076901"><ele>241.49999999999997</ele><time>2026-05-02T08:32:28.005Z</time></trkpt><trkpt lat="45.5608347" lon="8.307662"><ele>241.0</ele><time>2026-05-02T08:32:29.007Z</time></trkpt><trkpt lat="45.5607614" lon="8.3076339"><ele>240.99999999999997</ele><time>2026-05-02T08:32:30.007Z</time></trkpt><trkpt lat="45.560693" lon="8.3076093"><ele>241.0</ele><time>2026-05-02T08:32:31.011Z</time></trkpt><trkpt lat="45.560627" lon="8.3075908"><ele>241.0</ele><time>2026-05-02T08:32:31.999Z</time></trkpt><trkpt lat="45.5605586" lon="8.3075785"><ele>241.0</ele><time>2026-05-02T08:32:33.005Z</time></trkpt><trkpt lat="45.5604282" lon="8.3075775"><ele>240.99999999999997</ele><time>2026-05-02T08:32:35.005Z</time></trkpt><trkpt lat="45.5603296" lon="8.3076496"><ele>241.0</ele><time>2026-05-02T08:32:36.997Z</time></trkpt><trkpt lat="45.5602908" lon="8.3078205"><ele>240.99999999999997</ele><time>2026-05-02T08:32:38.994Z</time></trkpt><trkpt lat="45.5602901" lon="8.3079306"><ele>241.0</ele><time>2026-05-02T08:32:40.003Z</time></trkpt><trkpt lat="45.5602869" lon="8.308041"><ele>241.0</ele><time>2026-05-02T08:32:41.001Z</time></trkpt><trkpt lat="45.5602843" lon="8.3081537"><ele>241.0</ele><time>2026-05-02T08:32:42.002Z</time></trkpt><trkpt lat="45.5602782" lon="8.3082662"><ele>240.99999999999997</ele><time>2026-05-02T08:32:42.998Z</time></trkpt><trkpt lat="45.5602683" lon="8.3083813"><ele>241.0</ele><time>2026-05-02T08:32:44.001Z</time></trkpt><trkpt lat="45.5602585" lon="8.308503"><ele>240.99999999999997</ele><time>2026-05-02T08:32:45.004Z</time></trkpt><trkpt lat="45.5602455" lon="8.3086294"><ele>241.0</ele><time>2026-05-02T08:32:46.001Z</time></trkpt><trkpt lat="45.5602321" lon="8.308757"><ele>241.0</ele><time>2026-05-02T08:32:47.002Z</time></trkpt><trkpt lat="45.5602214" lon="8.3088803"><ele>241.0</ele><time>2026-05-02T08:32:47.996Z</time></trkpt><trkpt lat="45.5602104" lon="8.3090004"><ele>240.99999999999997</ele><time>2026-05-02T08:32:49.001Z</time></trkpt><trkpt lat="45.5602005" lon="8.3091155"><ele>241.0</ele><time>2026-05-02T08:32:50Z</time></trkpt><trkpt lat="45.5601885" lon="8.3092253"><ele>240.99999999999997</ele><time>2026-05-02T08:32:50.997Z</time></trkpt><trkpt lat="45.5601778" lon="8.3093304"><ele>241.0</ele><time>2026-05-02T08:32:51.998Z</time></trkpt><trkpt lat="45.5601666" lon="8.3094368"><ele>241.0</ele><time>2026-05-02T08:32:53.004Z</time></trkpt><trkpt lat="45.5601564" lon="8.3095449"><ele>241.0</ele><time>2026-05-02T08:32:54.011Z</time></trkpt><trkpt lat="45.5601284" lon="8.3097539"><ele>240.99999999999997</ele><time>2026-05-02T08:32:55.993Z</time></trkpt><trkpt lat="45.5601162" lon="8.3098461"><ele>241.0</ele><time>2026-05-02T08:32:56.996Z</time></trkpt><trkpt lat="45.5600873" lon="8.310016"><ele>241.20000000000002</ele><time>2026-05-02T08:32:59.001Z</time></trkpt><trkpt lat="45.5600485" lon="8.31016"><ele>241.40000000000003</ele><time>2026-05-02T08:33:01.011Z</time></trkpt><trkpt lat="45.560021" lon="8.3102957"><ele>241.6</ele><time>2026-05-02T08:33:18.998Z</time></trkpt><trkpt lat="45.5599855" lon="8.3104918"><ele>241.8</ele><time>2026-05-02T08:33:21.01Z</time></trkpt><trkpt lat="45.5599601" lon="8.3106095"><ele>242.0</ele><time>2026-05-02T08:33:21.993Z</time></trkpt><trkpt lat="45.5599348" lon="8.3107282"><ele>242.2</ele><time>2026-05-02T08:33:22.999Z</time></trkpt><trkpt lat="45.5599068" lon="8.3108505"><ele>242.39999999999998</ele><time>2026-05-02T08:33:23.998Z</time></trkpt><trkpt lat="45.5598752" lon="8.3109877"><ele>242.60000000000002</ele><time>2026-05-02T08:33:25.002Z</time></trkpt><trkpt lat="45.5598446" lon="8.3111374"><ele>242.8</ele><time>2026-05-02T08:33:26.006Z</time></trkpt><trkpt lat="45.5598103" lon="8.3112824"><ele>243.0</ele><time>2026-05-02T08:33:26.997Z</time></trkpt><trkpt lat="45.5597647" lon="8.3114071"><ele>243.0</ele><time>2026-05-02T08:33:27.999Z</time></trkpt><trkpt lat="45.5596931" lon="8.3115019"><ele>243.0</ele><time>2026-05-02T08:33:29.001Z</time></trkpt><trkpt lat="45.5595933" lon="8.3115559"><ele>243.0</ele><time>2026-05-02T08:33:30.004Z</time></trkpt><trkpt lat="45.5594755" lon="8.3115709"><ele>243.0</ele><time>2026-05-02T08:33:31.006Z</time></trkpt><trkpt lat="45.5593435" lon="8.3115646"><ele>244.0</ele><time>2026-05-02T08:33:32.006Z</time></trkpt><trkpt lat="45.5591901" lon="8.3115649"><ele>245.0</ele><time>2026-05-02T08:33:33.005Z</time></trkpt><trkpt lat="45.5590209" lon="8.31157"><ele>246.0</ele><time>2026-05-02T08:33:33.999Z</time></trkpt><trkpt lat="45.5588378" lon="8.3115735"><ele>244.66666666666669</ele><time>2026-05-02T08:33:35.009Z</time></trkpt><trkpt lat="45.5586486" lon="8.311572"><ele>243.33333333333334</ele><time>2026-05-02T08:33:35.993Z</time></trkpt><trkpt lat="45.5584482" lon="8.311576"><ele>242.0</ele><time>2026-05-02T08:33:37.001Z</time></trkpt><trkpt lat="45.5582335" lon="8.3115858"><ele>242.0</ele><time>2026-05-02T08:33:38.009Z</time></trkpt><trkpt lat="45.5580058" lon="8.3115989"><ele>242.0</ele><time>2026-05-02T08:33:38.994Z</time></trkpt><trkpt lat="45.5577718" lon="8.3116044"><ele>240.5</ele><time>2026-05-02T08:33:40.01Z</time></trkpt><trkpt lat="45.557384" lon="8.3116068"><ele>239.0</ele><time>2026-05-02T08:33:42.002Z</time></trkpt><trkpt lat="45.5572319" lon="8.3116045"><ele>239.0</ele><time>2026-05-02T08:33:42.992Z</time></trkpt><trkpt lat="45.5570944" lon="8.3115917"><ele>239.0</ele><time>2026-05-02T08:33:44.008Z</time></trkpt><trkpt lat="45.5569786" lon="8.3115911"><ele>239.0</ele><time>2026-05-02T08:33:44.999Z</time></trkpt><trkpt lat="45.5568777" lon="8.3116342"><ele>239.0</ele><time>2026-05-02T08:33:45.999Z</time></trkpt><trkpt lat="45.5567727" lon="8.3117126"><ele>239.0</ele><time>2026-05-02T08:33:47.004Z</time></trkpt><trkpt lat="45.5566541" lon="8.3117828"><ele>239.0</ele><time>2026-05-02T08:33:48.001Z</time></trkpt><trkpt lat="45.5565032" lon="8.3118165"><ele>239.0</ele><time>2026-05-02T08:33:49.006Z</time></trkpt><trkpt lat="45.5563296" lon="8.3118282"><ele>239.0</ele><time>2026-05-02T08:33:50.005Z</time></trkpt><trkpt lat="45.5561411" lon="8.3118389"><ele>239.0</ele><time>2026-05-02T08:33:50.996Z</time></trkpt><trkpt lat="45.5559736" lon="8.3118483"><ele>239.0</ele><time>2026-05-02T08:33:52Z</time></trkpt><trkpt lat="45.5558464" lon="8.3118529"><ele>239.00000000000003</ele><time>2026-05-02T08:33:53.004Z</time></trkpt><trkpt lat="45.5557386" lon="8.3118547"><ele>239.0</ele><time>2026-05-02T08:33:54.008Z</time></trkpt><trkpt lat="45.5556433" lon="8.3118576"><ele>239.0</ele><time>2026-05-02T08:33:55.007Z</time></trkpt><trkpt lat="45.5555605" lon="8.3118473"><ele>239.0</ele><time>2026-05-02T08:33:56.003Z</time></trkpt><trkpt lat="45.5554968" lon="8.3118025"><ele>239.00000000000003</ele><time>2026-05-02T08:33:57.005Z</time></trkpt><trkpt lat="45.5554685" lon="8.3117038"><ele>239.0</ele><time>2026-05-02T08:33:58.004Z</time></trkpt><trkpt lat="45.5554675" lon="8.3115843"><ele>239.0</ele><time>2026-05-02T08:33:59Z</time></trkpt><trkpt lat="45.5554816" lon="8.3114733"><ele>238.99999999999997</ele><time>2026-05-02T08:33:59.988Z</time></trkpt><trkpt lat="45.5554942" lon="8.3113824"><ele>238.99999999999997</ele><time>2026-05-02T08:34:00.997Z</time></trkpt><trkpt lat="45.5554431" lon="8.3112129"><ele>239.0</ele><time>2026-05-02T08:34:39.003Z</time></trkpt><trkpt lat="45.5552733" lon="8.3112578"><ele>239.0</ele><time>2026-05-02T08:34:41.999Z</time></trkpt><trkpt lat="45.5551979" lon="8.311273"><ele>239.0</ele><time>2026-05-02T08:34:43.008Z</time></trkpt><trkpt lat="45.5551149" lon="8.3112832"><ele>238.99999999999997</ele><time>2026-05-02T08:34:43.992Z</time></trkpt><trkpt lat="45.5550248" lon="8.3112927"><ele>238.99999999999997</ele><time>2026-05-02T08:34:45.007Z</time></trkpt><trkpt lat="45.5549221" lon="8.3113023"><ele>239.0</ele><time>2026-05-02T08:34:46.001Z</time></trkpt><trkpt lat="45.5548101" lon="8.311311"><ele>239.0</ele><time>2026-05-02T08:34:47.001Z</time></trkpt><trkpt lat="45.5546977" lon="8.311323"><ele>239.0</ele><time>2026-05-02T08:34:48.002Z</time></trkpt><trkpt lat="45.5545811" lon="8.3113372"><ele>239.0</ele><time>2026-05-02T08:34:49.003Z</time></trkpt><trkpt lat="45.5544579" lon="8.3113517"><ele>239.0</ele><time>2026-05-02T08:34:49.999Z</time></trkpt><trkpt lat="45.5543323" lon="8.3113634"><ele>239.0</ele><time>2026-05-02T08:34:51.001Z</time></trkpt><trkpt lat="45.5542041" lon="8.3113813"><ele>239.0</ele><time>2026-05-02T08:34:51.994Z</time></trkpt><trkpt lat="45.5540777" lon="8.3114016"><ele>238.99999999999997</ele><time>2026-05-02T08:34:53.008Z</time></trkpt><trkpt lat="45.5539766" lon="8.3114174"><ele>238.99999999999997</ele><time>2026-05-02T08:34:54.002Z</time></trkpt><trkpt lat="45.5538887" lon="8.3114279"><ele>239.0</ele><time>2026-05-02T08:34:55.01Z</time></trkpt><trkpt lat="45.5538189" lon="8.3114363"><ele>239.0</ele><time>2026-05-02T08:34:55.989Z</time></trkpt><trkpt lat="45.553703" lon="8.3114672"><ele>238.75</ele><time>2026-05-02T08:34:57.992Z</time></trkpt><trkpt lat="45.5536287" lon="8.3115557"><ele>238.5</ele><time>2026-05-02T08:34:59.996Z</time></trkpt><trkpt lat="45.553623" lon="8.3117892"><ele>238.25</ele><time>2026-05-02T08:35:03.006Z</time></trkpt><trkpt lat="45.5536428" lon="8.3119626"><ele>238.0</ele><time>2026-05-02T08:35:04.998Z</time></trkpt><trkpt lat="45.5536551" lon="8.3121173"><ele>238.0</ele><time>2026-05-02T08:35:07.001Z</time></trkpt><trkpt lat="45.5536374" lon="8.3122318"><ele>238.0</ele><time>2026-05-02T08:35:09.007Z</time></trkpt><trkpt lat="45.5535717" lon="8.3122233"><ele>238.0</ele><time>2026-05-02T08:42:10.993Z</time></trkpt><trkpt lat="45.5532648" lon="8.3123079"><ele>237.66666666666666</ele><time>2026-05-02T08:52:23.996Z</time></trkpt><trkpt lat="45.5531415" lon="8.3123354"><ele>237.33333333333331</ele><time>2026-05-02T08:52:25.998Z</time></trkpt><trkpt lat="45.5530794" lon="8.3123586"><ele>237.0</ele><time>2026-05-02T08:52:26.998Z</time></trkpt><trkpt lat="45.5530128" lon="8.3123812"><ele>236.66666666666669</ele><time>2026-05-02T08:52:28.002Z</time></trkpt><trkpt lat="45.5529426" lon="8.3124088"><ele>236.33333333333334</ele><time>2026-05-02T08:52:29.001Z</time></trkpt><trkpt lat="45.5528693" lon="8.3124356"><ele>236.0</ele><time>2026-05-02T08:52:29.999Z</time></trkpt><trkpt lat="45.552796" lon="8.3124609"><ele>235.83333333333334</ele><time>2026-05-02T08:52:30.996Z</time></trkpt><trkpt lat="45.5527163" lon="8.3124907"><ele>235.66666666666669</ele><time>2026-05-02T08:52:32.001Z</time></trkpt><trkpt lat="45.5526279" lon="8.312524"><ele>235.5</ele><time>2026-05-02T08:52:32.993Z</time></trkpt><trkpt lat="45.552537" lon="8.3125541"><ele>235.33333333333331</ele><time>2026-05-02T08:52:33.995Z</time></trkpt><trkpt lat="45.5524501" lon="8.3125776"><ele>235.16666666666666</ele><time>2026-05-02T08:52:35.01Z</time></trkpt><trkpt lat="45.5523684" lon="8.3126025"><ele>235.0</ele><time>2026-05-02T08:52:35.992Z</time></trkpt><trkpt lat="45.5522895" lon="8.3126306"><ele>234.99999999999997</ele><time>2026-05-02T08:52:37Z</time></trkpt><trkpt lat="45.5522161" lon="8.3126575"><ele>235.0</ele><time>2026-05-02T08:52:37.993Z</time></trkpt><trkpt lat="45.5521469" lon="8.3126816"><ele>235.0</ele><time>2026-05-02T08:52:39.008Z</time></trkpt><trkpt lat="45.5520821" lon="8.3127049"><ele>235.0</ele><time>2026-05-02T08:52:39.999Z</time></trkpt><trkpt lat="45.5520163" lon="8.3127244"><ele>234.99999999999997</ele><time>2026-05-02T08:52:41.006Z</time></trkpt><trkpt lat="45.5518854" lon="8.3127623"><ele>235.0</ele><time>2026-05-02T08:52:43Z</time></trkpt><trkpt lat="45.5518206" lon="8.3127849"><ele>234.83333333333331</ele><time>2026-05-02T08:52:44.002Z</time></trkpt><trkpt lat="45.5517556" lon="8.3128069"><ele>234.66666666666666</ele><time>2026-05-02T08:52:44.997Z</time></trkpt><trkpt lat="45.5516917" lon="8.3128229"><ele>234.5</ele><time>2026-05-02T08:52:46.004Z</time></trkpt><trkpt lat="45.5515793" lon="8.3128423"><ele>234.33333333333331</ele><time>2026-05-02T08:52:47.993Z</time></trkpt><trkpt lat="45.5515072" lon="8.3128756"><ele>234.16666666666666</ele><time>2026-05-02T08:52:49.989Z</time></trkpt><trkpt lat="45.5514313" lon="8.3129141"><ele>234.0</ele><time>2026-05-02T08:53:09.994Z</time></trkpt><trkpt lat="45.5512126" lon="8.3129733"><ele>233.85714285714286</ele><time>2026-05-02T08:53:14.002Z</time></trkpt><trkpt lat="45.5511457" lon="8.3129923"><ele>233.71428571428572</ele><time>2026-05-02T08:53:14.999Z</time></trkpt><trkpt lat="45.5510728" lon="8.3130087"><ele>233.57142857142858</ele><time>2026-05-02T08:53:16.001Z</time></trkpt><trkpt lat="45.5509991" lon="8.3130264"><ele>233.42857142857144</ele><time>2026-05-02T08:53:16.998Z</time></trkpt><trkpt lat="45.5509244" lon="8.3130535"><ele>233.28571428571428</ele><time>2026-05-02T08:53:17.995Z</time></trkpt><trkpt lat="45.5508521" lon="8.3130812"><ele>233.14285714285717</ele><time>2026-05-02T08:53:19Z</time></trkpt><trkpt lat="45.550788" lon="8.3131035"><ele>233.0</ele><time>2026-05-02T08:53:20.005Z</time></trkpt><trkpt lat="45.5506913" lon="8.3131383"><ele>233.0</ele><time>2026-05-02T08:53:21.994Z</time></trkpt><trkpt lat="45.5506244" lon="8.3131576"><ele>233.0</ele><time>2026-05-02T08:53:25Z</time></trkpt><trkpt lat="45.5506028" lon="8.3130491"><ele>233.0</ele><time>2026-05-02T08:53:27.989Z</time></trkpt><trkpt lat="45.5505908" lon="8.312903"><ele>233.0</ele><time>2026-05-02T08:53:29.991Z</time></trkpt><trkpt lat="45.5505678" lon="8.3127436"><ele>233.0</ele><time>2026-05-02T08:53:32.003Z</time></trkpt><trkpt lat="45.5504572" lon="8.3126391"><ele>233.00000000000003</ele><time>2026-05-02T08:53:35.999Z</time></trkpt><trkpt lat="45.550364" lon="8.3127051"><ele>233.0</ele><time>2026-05-02T08:53:37.996Z</time></trkpt><trkpt lat="45.5502473" lon="8.3127628"><ele>233.0</ele><time>2026-05-02T08:53:39.979Z</time></trkpt><trkpt lat="45.550182" lon="8.3127822"><ele>233.0</ele><time>2026-05-02T08:53:41.001Z</time></trkpt><trkpt lat="45.5501154" lon="8.3127894"><ele>233.00000000000003</ele><time>2026-05-02T08:53:41.995Z</time></trkpt><trkpt lat="45.5500508" lon="8.3127791"><ele>233.0</ele><time>2026-05-02T08:53:42.998Z</time></trkpt><trkpt lat="45.5499912" lon="8.312747"><ele>233.00000000000003</ele><time>2026-05-02T08:53:43.989Z</time></trkpt><trkpt lat="45.54993" lon="8.3127058"><ele>233.0</ele><time>2026-05-02T08:53:45.003Z</time></trkpt><trkpt lat="45.5498657" lon="8.3126624"><ele>233.0</ele><time>2026-05-02T08:53:46.004Z</time></trkpt><trkpt lat="45.5497992" lon="8.3126155"><ele>233.0</ele><time>2026-05-02T08:53:46.992Z</time></trkpt><trkpt lat="45.5497268" lon="8.3125647"><ele>233.00000000000003</ele><time>2026-05-02T08:53:47.998Z</time></trkpt><trkpt lat="45.5496544" lon="8.3125105"><ele>233.0</ele><time>2026-05-02T08:53:49.003Z</time></trkpt><trkpt lat="45.5495867" lon="8.3124553"><ele>233.0</ele><time>2026-05-02T08:53:50.007Z</time></trkpt><trkpt lat="45.5495263" lon="8.3124019"><ele>233.0</ele><time>2026-05-02T08:53:50.995Z</time></trkpt><trkpt lat="45.5494695" lon="8.3123555"><ele>233.0</ele><time>2026-05-02T08:53:52.001Z</time></trkpt><trkpt lat="45.5493599" lon="8.3122783"><ele>233.0</ele><time>2026-05-02T08:53:53.996Z</time></trkpt><trkpt lat="45.5491837" lon="8.3121485"><ele>233.00000000000003</ele><time>2026-05-02T08:53:58.001Z</time></trkpt><trkpt lat="45.5491527" lon="8.3120576"><ele>233.0</ele><time>2026-05-02T08:54:00.007Z</time></trkpt><trkpt lat="45.5491392" lon="8.3119655"><ele>233.0</ele><time>2026-05-02T08:54:02.004Z</time></trkpt><trkpt lat="45.5491427" lon="8.3118221"><ele>233.0</ele><time>2026-05-02T08:54:04.992Z</time></trkpt><trkpt lat="45.5491444" lon="8.3116872"><ele>233.00000000000003</ele><time>2026-05-02T08:54:06.999Z</time></trkpt><trkpt lat="45.5491497" lon="8.3115547"><ele>233.0</ele><time>2026-05-02T08:54:08.995Z</time></trkpt><trkpt lat="45.5491504" lon="8.3114238"><ele>233.5</ele><time>2026-05-02T08:54:10.993Z</time></trkpt><trkpt lat="45.5491495" lon="8.311289"><ele>234.0</ele><time>2026-05-02T08:54:12.997Z</time></trkpt><trkpt lat="45.5491493" lon="8.3111503"><ele>234.5</ele><time>2026-05-02T08:54:14.998Z</time></trkpt><trkpt lat="45.5491414" lon="8.3108583"><ele>235.0</ele><time>2026-05-02T08:54:18.997Z</time></trkpt><trkpt lat="45.5491381" lon="8.310715"><ele>235.2</ele><time>2026-05-02T08:54:21.005Z</time></trkpt><trkpt lat="45.5491464" lon="8.3105535"><ele>235.4</ele><time>2026-05-02T08:54:23.009Z</time></trkpt><trkpt lat="45.549149" lon="8.3104631"><ele>235.60000000000002</ele><time>2026-05-02T08:54:23.998Z</time></trkpt><trkpt lat="45.549131" lon="8.3102903"><ele>235.8</ele><time>2026-05-02T08:54:25.996Z</time></trkpt><trkpt lat="45.5491586" lon="8.3101442"><ele>236.0</ele><time>2026-05-02T08:54:27.999Z</time></trkpt><trkpt lat="45.5492236" lon="8.3100196"><ele>236.0</ele><time>2026-05-02T08:54:30.001Z</time></trkpt><trkpt lat="45.5492708" lon="8.3098652"><ele>236.0</ele><time>2026-05-02T08:54:31.998Z</time></trkpt><trkpt lat="45.5492849" lon="8.3097157"><ele>236.0</ele><time>2026-05-02T08:54:33.996Z</time></trkpt><trkpt lat="45.5493095" lon="8.3095863"><ele>236.0</ele><time>2026-05-02T08:54:35.991Z</time></trkpt><trkpt lat="45.5494615" lon="8.3093649"><ele>236.00000000000003</ele><time>2026-05-02T08:54:39.996Z</time></trkpt><trkpt lat="45.549522" lon="8.309308"><ele>236.0</ele><time>2026-05-02T08:54:40.994Z</time></trkpt><trkpt lat="45.5495318" lon="8.3091969"><ele>236.0</ele><time>2026-05-02T08:54:41.998Z</time></trkpt><trkpt lat="45.5495175" lon="8.309078"><ele>236.0</ele><time>2026-05-02T08:54:43.003Z</time></trkpt><trkpt lat="45.5495063" lon="8.3089768"><ele>236.00000000000003</ele><time>2026-05-02T08:54:43.991Z</time></trkpt><trkpt lat="45.5494931" lon="8.3088875"><ele>236.0</ele><time>2026-05-02T08:54:44.999Z</time></trkpt><trkpt lat="45.5494678" lon="8.3087254"><ele>234.8</ele><time>2026-05-02T08:54:47Z</time></trkpt><trkpt lat="45.5494268" lon="8.3085841"><ele>233.60000000000002</ele><time>2026-05-02T08:54:48.992Z</time></trkpt><trkpt lat="45.5493756" lon="8.3084314"><ele>232.4</ele><time>2026-05-02T08:54:50.997Z</time></trkpt><trkpt lat="45.5493517" lon="8.3083424"><ele>231.2</ele><time>2026-05-02T08:54:52.003Z</time></trkpt><trkpt lat="45.5493284" lon="8.3081695"><ele>230.0</ele><time>2026-05-02T08:54:54.004Z</time></trkpt><trkpt lat="45.5493063" lon="8.3080141"><ele>229.25</ele><time>2026-05-02T08:54:56Z</time></trkpt><trkpt lat="45.5492929" lon="8.307872"><ele>228.5</ele><time>2026-05-02T08:54:58.001Z</time></trkpt><trkpt lat="45.5492462" lon="8.3075876"><ele>227.75</ele><time>2026-05-02T08:55:02.003Z</time></trkpt><trkpt lat="45.5492179" lon="8.3074356"><ele>227.0</ele><time>2026-05-02T08:55:03.999Z</time></trkpt><trkpt lat="45.5491905" lon="8.3073011"><ele>227.16666666666669</ele><time>2026-05-02T08:55:06.014Z</time></trkpt><trkpt lat="45.5491623" lon="8.3072074"><ele>227.33333333333334</ele><time>2026-05-02T08:55:07.992Z</time></trkpt><trkpt lat="45.5491117" lon="8.3071479"><ele>227.5</ele><time>2026-05-02T08:55:11.011Z</time></trkpt><trkpt lat="45.5490499" lon="8.3070775"><ele>227.66666666666669</ele><time>2026-05-02T08:55:13.993Z</time></trkpt><trkpt lat="45.5490425" lon="8.3069822"><ele>227.83333333333334</ele><time>2026-05-02T08:55:18.001Z</time></trkpt><trkpt lat="45.549071" lon="8.3068925"><ele>228.0</ele><time>2026-05-02T08:55:21.994Z</time></trkpt><trkpt lat="45.5490908" lon="8.3067445"><ele>228.0</ele><time>2026-05-02T08:55:29.997Z</time></trkpt><trkpt lat="45.5490336" lon="8.3066807"><ele>228.0</ele><time>2026-05-02T08:55:34.003Z</time></trkpt><trkpt lat="45.5490315" lon="8.3065844"><ele>228.0</ele><time>2026-05-02T08:55:38.998Z</time></trkpt><trkpt lat="45.5490297" lon="8.3064843"><ele>228.0</ele><time>2026-05-02T08:55:44.005Z</time></trkpt><trkpt lat="45.5490594" lon="8.3066646"><ele>228.0</ele><time>2026-05-02T08:55:50.993Z</time></trkpt><trkpt lat="45.5490889" lon="8.306747"><ele>228.0</ele><time>2026-05-02T08:55:53.997Z</time></trkpt><trkpt lat="45.5490617" lon="8.3068467"><ele>228.0</ele><time>2026-05-02T08:56:05.02Z</time></trkpt><trkpt lat="45.5490289" lon="8.3070711"><ele>228.0</ele><time>2026-05-02T08:56:35.003Z</time></trkpt><trkpt lat="45.5491512" lon="8.3072183"><ele>228.0</ele><time>2026-05-02T08:57:50.991Z</time></trkpt><trkpt lat="45.5491961" lon="8.3074137"><ele>227.83333333333334</ele><time>2026-05-02T08:57:54.998Z</time></trkpt><trkpt lat="45.549232" lon="8.307514"><ele>227.66666666666669</ele><time>2026-05-02T08:57:57.001Z</time></trkpt><trkpt lat="45.5492536" lon="8.3076236"><ele>227.5</ele><time>2026-05-02T08:57:58.995Z</time></trkpt><trkpt lat="45.5492665" lon="8.3077234"><ele>227.33333333333334</ele><time>2026-05-02T08:58:00.984Z</time></trkpt><trkpt lat="45.5492898" lon="8.3078218"><ele>227.16666666666669</ele><time>2026-05-02T08:58:02.999Z</time></trkpt><trkpt lat="45.549307" lon="8.3079238"><ele>227.0</ele><time>2026-05-02T08:58:05.001Z</time></trkpt><trkpt lat="45.5493182" lon="8.3080405"><ele>227.75</ele><time>2026-05-02T08:58:06.991Z</time></trkpt><trkpt lat="45.5493283" lon="8.3081927"><ele>228.5</ele><time>2026-05-02T08:58:09.002Z</time></trkpt><trkpt lat="45.5493685" lon="8.3083734"><ele>229.25</ele><time>2026-05-02T08:58:11.002Z</time></trkpt><trkpt lat="45.5493998" lon="8.308473"><ele>230.0</ele><time>2026-05-02T08:58:12.003Z</time></trkpt><trkpt lat="45.5494587" lon="8.3086645"><ele>230.00000000000003</ele><time>2026-05-02T08:58:13.99Z</time></trkpt><trkpt lat="45.5494805" lon="8.3087507"><ele>230.0</ele><time>2026-05-02T08:58:14.995Z</time></trkpt><trkpt lat="45.5495175" lon="8.3088915"><ele>230.0</ele><time>2026-05-02T08:58:16.996Z</time></trkpt><trkpt lat="45.5495688" lon="8.3090342"><ele>230.0</ele><time>2026-05-02T08:58:18.993Z</time></trkpt><trkpt lat="45.5495701" lon="8.3091991"><ele>230.00000000000003</ele><time>2026-05-02T08:58:52.994Z</time></trkpt><trkpt lat="45.5495697" lon="8.3091887"><ele>230.0</ele><time>2026-05-02T08:59:04.99Z</time></trkpt><trkpt lat="45.5495469" lon="8.3091018"><ele>230.0</ele><time>2026-05-02T08:59:06.999Z</time></trkpt><trkpt lat="45.5495294" lon="8.309"><ele>230.0</ele><time>2026-05-02T08:59:09Z</time></trkpt><trkpt lat="45.5495225" lon="8.3088929"><ele>230.0</ele><time>2026-05-02T08:59:10.999Z</time></trkpt><trkpt lat="45.5495084" lon="8.3087753"><ele>230.0</ele><time>2026-05-02T08:59:13.001Z</time></trkpt><trkpt lat="45.5494779" lon="8.3086474"><ele>230.0</ele><time>2026-05-02T08:59:14.995Z</time></trkpt><trkpt lat="45.5493882" lon="8.3084092"><ele>230.0</ele><time>2026-05-02T08:59:18.997Z</time></trkpt><trkpt lat="45.5493578" lon="8.3082583"><ele>230.0</ele><time>2026-05-02T08:59:20.994Z</time></trkpt><trkpt lat="45.5493441" lon="8.3080987"><ele>230.0</ele><time>2026-05-02T08:59:22.991Z</time></trkpt><trkpt lat="45.5493311" lon="8.307944"><ele>230.0</ele><time>2026-05-02T08:59:24.996Z</time></trkpt><trkpt lat="45.5492862" lon="8.3077828"><ele>229.6</ele><time>2026-05-02T08:59:27.003Z</time></trkpt><trkpt lat="45.549265" lon="8.3076405"><ele>229.2</ele><time>2026-05-02T08:59:28.993Z</time></trkpt><trkpt lat="45.5492372" lon="8.307484"><ele>228.8</ele><time>2026-05-02T08:59:30.995Z</time></trkpt><trkpt lat="45.5492125" lon="8.3073223"><ele>228.4</ele><time>2026-05-02T08:59:33.003Z</time></trkpt><trkpt lat="45.5491868" lon="8.3072148"><ele>228.0</ele><time>2026-05-02T08:59:34.993Z</time></trkpt><trkpt lat="45.5491212" lon="8.3071897"><ele>227.8</ele><time>2026-05-02T08:59:39.003Z</time></trkpt><trkpt lat="45.5489856" lon="8.3072969"><ele>227.60000000000002</ele><time>2026-05-02T08:59:45Z</time></trkpt><trkpt lat="45.5489187" lon="8.3073445"><ele>227.39999999999998</ele><time>2026-05-02T08:59:47.001Z</time></trkpt><trkpt lat="45.5488357" lon="8.3073632"><ele>227.2</ele><time>2026-05-02T08:59:49.999Z</time></trkpt><trkpt lat="45.5487544" lon="8.3073946"><ele>227.0</ele><time>2026-05-02T08:59:52.994Z</time></trkpt><trkpt lat="45.5486733" lon="8.3073738"><ele>227.0</ele><time>2026-05-02T08:59:55.996Z</time></trkpt><trkpt lat="45.5485904" lon="8.3073878"><ele>227.0</ele><time>2026-05-02T08:59:58.996Z</time></trkpt><trkpt lat="45.5485036" lon="8.307433"><ele>227.0</ele><time>2026-05-02T09:00:01.993Z</time></trkpt><trkpt lat="45.5483604" lon="8.3074689"><ele>227.0</ele><time>2026-05-02T09:00:05.998Z</time></trkpt><trkpt lat="45.5482655" lon="8.3074414"><ele>227.0</ele><time>2026-05-02T09:00:07.999Z</time></trkpt><trkpt lat="45.5481683" lon="8.3074016"><ele>227.00000000000003</ele><time>2026-05-02T09:00:10.004Z</time></trkpt><trkpt lat="45.5480911" lon="8.3073557"><ele>227.0</ele><time>2026-05-02T09:00:11.995Z</time></trkpt><trkpt lat="45.5480306" lon="8.3073154"><ele>227.0</ele><time>2026-05-02T09:00:14.002Z</time></trkpt><trkpt lat="45.5479672" lon="8.3072975"><ele>227.0</ele><time>2026-05-02T09:00:15.988Z</time></trkpt><trkpt lat="45.5478881" lon="8.3072967"><ele>227.00000000000003</ele><time>2026-05-02T09:00:18.997Z</time></trkpt><trkpt lat="45.547817" lon="8.3072828"><ele>227.0</ele><time>2026-05-02T09:00:22.99Z</time></trkpt><trkpt lat="45.5476863" lon="8.3071666"><ele>227.6</ele><time>2026-05-02T09:00:40.002Z</time></trkpt><trkpt lat="45.5476299" lon="8.3070759"><ele>228.2</ele><time>2026-05-02T09:00:41.996Z</time></trkpt><trkpt lat="45.5475658" lon="8.3070033"><ele>228.8</ele><time>2026-05-02T09:00:44.005Z</time></trkpt><trkpt lat="45.5474336" lon="8.3069734"><ele>229.4</ele><time>2026-05-02T09:00:47.997Z</time></trkpt><trkpt lat="45.5473641" lon="8.3070214"><ele>230.0</ele><time>2026-05-02T09:00:49.999Z</time></trkpt><trkpt lat="45.5473033" lon="8.3070995"><ele>230.0</ele><time>2026-05-02T09:00:51.996Z</time></trkpt><trkpt lat="45.5472673" lon="8.3071796"><ele>230.0</ele><time>2026-05-02T09:01:02.995Z</time></trkpt><trkpt lat="45.5472104" lon="8.3071362"><ele>230.0</ele><time>2026-05-02T09:01:51.987Z</time></trkpt><trkpt lat="45.547374" lon="8.3068691"><ele>230.0</ele><time>2026-05-02T09:03:20.993Z</time></trkpt><trkpt lat="45.5474412" lon="8.3068755"><ele>230.0</ele><time>2026-05-02T09:03:22.996Z</time></trkpt><trkpt lat="45.5475246" lon="8.3069243"><ele>229.99999999999997</ele><time>2026-05-02T09:03:25.995Z</time></trkpt><trkpt lat="45.5475863" lon="8.3069804"><ele>230.0</ele><time>2026-05-02T09:03:27.997Z</time></trkpt><trkpt lat="45.5476434" lon="8.3070514"><ele>229.99999999999997</ele><time>2026-05-02T09:03:30Z</time></trkpt><trkpt lat="45.5477005" lon="8.3071302"><ele>229.99999999999997</ele><time>2026-05-02T09:03:31.986Z</time></trkpt><trkpt lat="45.5477404" lon="8.3072116"><ele>230.0</ele><time>2026-05-02T09:03:33.999Z</time></trkpt><trkpt lat="45.5477629" lon="8.3072982"><ele>229.99999999999997</ele><time>2026-05-02T09:03:35.998Z</time></trkpt><trkpt lat="45.5477712" lon="8.3074024"><ele>229.99999999999997</ele><time>2026-05-02T09:03:43.003Z</time></trkpt><trkpt lat="45.5478275" lon="8.3076769"><ele>229.75</ele><time>2026-05-02T09:04:24.997Z</time></trkpt><trkpt lat="45.5478128" lon="8.3079529"><ele>229.5</ele><time>2026-05-02T09:04:28.991Z</time></trkpt><trkpt lat="45.5477915" lon="8.3081438"><ele>229.25</ele><time>2026-05-02T09:04:30.999Z</time></trkpt><trkpt lat="45.5477828" lon="8.3082329"><ele>229.0</ele><time>2026-05-02T09:04:31.994Z</time></trkpt><trkpt lat="45.5477656" lon="8.3084048"><ele>228.6</ele><time>2026-05-02T09:04:34.002Z</time></trkpt><trkpt lat="45.5477238" lon="8.3085626"><ele>228.2</ele><time>2026-05-02T09:04:35.999Z</time></trkpt><trkpt lat="45.5476915" lon="8.3086973"><ele>227.79999999999998</ele><time>2026-05-02T09:04:37.995Z</time></trkpt><trkpt lat="45.5476486" lon="8.3088115"><ele>227.39999999999998</ele><time>2026-05-02T09:04:40.003Z</time></trkpt><trkpt lat="45.547584" lon="8.308899"><ele>227.0</ele><time>2026-05-02T09:04:41.994Z</time></trkpt><trkpt lat="45.5474938" lon="8.3089667"><ele>227.0</ele><time>2026-05-02T09:04:43.996Z</time></trkpt><trkpt lat="45.547402" lon="8.3090123"><ele>227.0</ele><time>2026-05-02T09:04:46.001Z</time></trkpt><trkpt lat="45.5472201" lon="8.3090997"><ele>227.0</ele><time>2026-05-02T09:04:49.996Z</time></trkpt><trkpt lat="45.5471557" lon="8.3091386"><ele>227.0</ele><time>2026-05-02T09:04:51.994Z</time></trkpt><trkpt lat="45.5470837" lon="8.3091794"><ele>227.0</ele><time>2026-05-02T09:04:55.997Z</time></trkpt><trkpt lat="45.5470177" lon="8.3091664"><ele>227.0</ele><time>2026-05-02T09:05:01.997Z</time></trkpt><trkpt lat="45.5469927" lon="8.309081"><ele>227.0</ele><time>2026-05-02T09:05:05.99Z</time></trkpt><trkpt lat="45.5469795" lon="8.3089875"><ele>227.0</ele><time>2026-05-02T09:05:59.992Z</time></trkpt><trkpt lat="45.5469977" lon="8.3085547"><ele>227.0</ele><time>2026-05-02T09:11:07.993Z</time></trkpt><trkpt lat="45.5469648" lon="8.3084295"><ele>227.00000000000003</ele><time>2026-05-02T09:11:10.995Z</time></trkpt><trkpt lat="45.5469319" lon="8.3083273"><ele>227.0</ele><time>2026-05-02T09:11:12.996Z</time></trkpt><trkpt lat="45.5469118" lon="8.3082183"><ele>227.0</ele><time>2026-05-02T09:11:14.997Z</time></trkpt><trkpt lat="45.5468863" lon="8.308107"><ele>227.0</ele><time>2026-05-02T09:11:16.994Z</time></trkpt><trkpt lat="45.5468602" lon="8.3080007"><ele>227.00000000000003</ele><time>2026-05-02T09:11:18.991Z</time></trkpt><trkpt lat="45.5468221" lon="8.3079017"><ele>227.0</ele><time>2026-05-02T09:11:20.987Z</time></trkpt><trkpt lat="45.5467742" lon="8.3078012"><ele>228.0</ele><time>2026-05-02T09:11:22.995Z</time></trkpt><trkpt lat="45.5467175" lon="8.3076974"><ele>229.0</ele><time>2026-05-02T09:11:24.991Z</time></trkpt><trkpt lat="45.5466213" lon="8.3075294"><ele>230.0</ele><time>2026-05-02T09:11:29.993Z</time></trkpt><trkpt lat="45.5465455" lon="8.3075557"><ele>231.0</ele><time>2026-05-02T09:11:44.989Z</time></trkpt><trkpt lat="45.5464641" lon="8.3075974"><ele>232.0</ele><time>2026-05-02T09:11:47.994Z</time></trkpt><trkpt lat="45.5463247" lon="8.3076996"><ele>231.99999999999997</ele><time>2026-05-02T09:11:52.988Z</time></trkpt><trkpt lat="45.5462652" lon="8.3077557"><ele>232.0</ele><time>2026-05-02T09:11:55.002Z</time></trkpt><trkpt lat="45.5462048" lon="8.3078178"><ele>232.0</ele><time>2026-05-02T09:11:57Z</time></trkpt><trkpt lat="45.546136" lon="8.307854"><ele>232.0</ele><time>2026-05-02T09:11:59.003Z</time></trkpt><trkpt lat="45.5460492" lon="8.3078878"><ele>231.99999999999997</ele><time>2026-05-02T09:12:02Z</time></trkpt><trkpt lat="45.5459728" lon="8.3079236"><ele>232.0</ele><time>2026-05-02T09:12:04.991Z</time></trkpt><trkpt lat="45.5459019" lon="8.3079707"><ele>231.5</ele><time>2026-05-02T09:12:06.994Z</time></trkpt><trkpt lat="45.5457889" lon="8.3080317"><ele>231.0</ele><time>2026-05-02T09:12:08.996Z</time></trkpt><trkpt lat="45.5456132" lon="8.3081106"><ele>230.5</ele><time>2026-05-02T09:12:10.994Z</time></trkpt><trkpt lat="45.5455225" lon="8.3081571"><ele>230.0</ele><time>2026-05-02T09:12:12.001Z</time></trkpt><trkpt lat="45.5454352" lon="8.3081985"><ele>229.33333333333334</ele><time>2026-05-02T09:12:12.994Z</time></trkpt><trkpt lat="45.5453558" lon="8.3082323"><ele>228.66666666666669</ele><time>2026-05-02T09:12:13.992Z</time></trkpt><trkpt lat="45.5452828" lon="8.3082619"><ele>228.0</ele><time>2026-05-02T09:12:14.999Z</time></trkpt><trkpt lat="45.5452161" lon="8.3082811"><ele>227.33333333333331</ele><time>2026-05-02T09:12:15.999Z</time></trkpt><trkpt lat="45.545106" lon="8.3083214"><ele>226.66666666666666</ele><time>2026-05-02T09:12:18.001Z</time></trkpt><trkpt lat="45.5450085" lon="8.3083575"><ele>226.0</ele><time>2026-05-02T09:12:19.995Z</time></trkpt><trkpt lat="45.5449133" lon="8.3083926"><ele>226.0</ele><time>2026-05-02T09:12:21.998Z</time></trkpt><trkpt lat="45.5448231" lon="8.3084209"><ele>226.00000000000003</ele><time>2026-05-02T09:12:23.996Z</time></trkpt><trkpt lat="45.5447333" lon="8.3084366"><ele>226.00000000000003</ele><time>2026-05-02T09:12:25.999Z</time></trkpt><trkpt lat="45.5446515" lon="8.3084432"><ele>226.0</ele><time>2026-05-02T09:12:28.002Z</time></trkpt><trkpt lat="45.5445817" lon="8.3084634"><ele>226.0</ele><time>2026-05-02T09:12:29.993Z</time></trkpt><trkpt lat="45.5444636" lon="8.308582"><ele>225.99999999999997</ele><time>2026-05-02T09:12:33.998Z</time></trkpt><trkpt lat="45.5443961" lon="8.3086508"><ele>226.0</ele><time>2026-05-02T09:12:35.991Z</time></trkpt><trkpt lat="45.544323" lon="8.308724"><ele>226.0</ele><time>2026-05-02T09:12:38Z</time></trkpt><trkpt lat="45.5442412" lon="8.3087959"><ele>226.0</ele><time>2026-05-02T09:12:39.996Z</time></trkpt><trkpt lat="45.5441536" lon="8.3088421"><ele>225.99999999999997</ele><time>2026-05-02T09:12:41.993Z</time></trkpt><trkpt lat="45.5440796" lon="8.3088686"><ele>226.0</ele><time>2026-05-02T09:12:43.991Z</time></trkpt><trkpt lat="45.5440091" lon="8.3088856"><ele>225.66666666666666</ele><time>2026-05-02T09:12:45.997Z</time></trkpt><trkpt lat="45.5439287" lon="8.3089248"><ele>225.33333333333331</ele><time>2026-05-02T09:12:47.992Z</time></trkpt><trkpt lat="45.5438538" lon="8.308958"><ele>225.0</ele><time>2026-05-02T09:12:49.997Z</time></trkpt><trkpt lat="45.5437834" lon="8.3089803"><ele>224.66666666666669</ele><time>2026-05-02T09:12:51.995Z</time></trkpt><trkpt lat="45.5436387" lon="8.3090203"><ele>224.33333333333334</ele><time>2026-05-02T09:12:55.998Z</time></trkpt><trkpt lat="45.5435735" lon="8.3090329"><ele>224.0</ele><time>2026-05-02T09:12:57.997Z</time></trkpt><trkpt lat="45.543485" lon="8.3090292"><ele>224.0</ele><time>2026-05-02T09:13:00.997Z</time></trkpt><trkpt lat="45.5434073" lon="8.3090129"><ele>223.99999999999997</ele><time>2026-05-02T09:13:02.995Z</time></trkpt><trkpt lat="45.5433133" lon="8.3089685"><ele>223.99999999999997</ele><time>2026-05-02T09:13:04.988Z</time></trkpt><trkpt lat="45.5432314" lon="8.3089044"><ele>224.0</ele><time>2026-05-02T09:13:06.996Z</time></trkpt><trkpt lat="45.5431517" lon="8.3088223"><ele>224.0</ele><time>2026-05-02T09:13:08.99Z</time></trkpt><trkpt lat="45.5430898" lon="8.308743"><ele>224.0</ele><time>2026-05-02T09:13:10.982Z</time></trkpt><trkpt lat="45.5430223" lon="8.3086718"><ele>224.0</ele><time>2026-05-02T09:13:12.992Z</time></trkpt><trkpt lat="45.5428489" lon="8.308526"><ele>224.0</ele><time>2026-05-02T09:13:16.983Z</time></trkpt><trkpt lat="45.5427599" lon="8.3084391"><ele>224.0</ele><time>2026-05-02T09:13:18.991Z</time></trkpt><trkpt lat="45.5426768" lon="8.3083506"><ele>224.0</ele><time>2026-05-02T09:13:20.997Z</time></trkpt><trkpt lat="45.5425886" lon="8.3082414"><ele>224.0</ele><time>2026-05-02T09:13:22.994Z</time></trkpt><trkpt lat="45.542497" lon="8.3081263"><ele>224.0</ele><time>2026-05-02T09:13:25.001Z</time></trkpt><trkpt lat="45.5424022" lon="8.3080309"><ele>224.0</ele><time>2026-05-02T09:13:26.995Z</time></trkpt><trkpt lat="45.5423008" lon="8.3079699"><ele>223.75</ele><time>2026-05-02T09:13:28.991Z</time></trkpt><trkpt lat="45.5421953" lon="8.3079396"><ele>223.5</ele><time>2026-05-02T09:13:30.992Z</time></trkpt><trkpt lat="45.542087" lon="8.3079309"><ele>223.25</ele><time>2026-05-02T09:13:32.984Z</time></trkpt><trkpt lat="45.5419748" lon="8.3079202"><ele>223.0</ele><time>2026-05-02T09:13:34.998Z</time></trkpt><trkpt lat="45.5418048" lon="8.3077736"><ele>223.0</ele><time>2026-05-02T09:13:38.98Z</time></trkpt><trkpt lat="45.5417204" lon="8.3076907"><ele>223.0</ele><time>2026-05-02T09:13:40.998Z</time></trkpt><trkpt lat="45.5416098" lon="8.3076461"><ele>223.0</ele><time>2026-05-02T09:13:42.994Z</time></trkpt><trkpt lat="45.5414821" lon="8.3076452"><ele>223.0</ele><time>2026-05-02T09:13:45Z</time></trkpt><trkpt lat="45.5413553" lon="8.3076775"><ele>223.0</ele><time>2026-05-02T09:13:46.997Z</time></trkpt><trkpt lat="45.5412362" lon="8.3077288"><ele>223.0</ele><time>2026-05-02T09:13:48.993Z</time></trkpt><trkpt lat="45.5411768" lon="8.3077661"><ele>223.0</ele><time>2026-05-02T09:13:49.996Z</time></trkpt><trkpt lat="45.5411184" lon="8.3078069"><ele>223.0</ele><time>2026-05-02T09:13:50.997Z</time></trkpt><trkpt lat="45.5410117" lon="8.3078848"><ele>223.0</ele><time>2026-05-02T09:13:52.999Z</time></trkpt><trkpt lat="45.5409133" lon="8.307968"><ele>223.2</ele><time>2026-05-02T09:13:55.002Z</time></trkpt><trkpt lat="45.5408137" lon="8.3080472"><ele>223.4</ele><time>2026-05-02T09:13:56.996Z</time></trkpt><trkpt lat="45.5407001" lon="8.3081375"><ele>223.59999999999997</ele><time>2026-05-02T09:13:58.998Z</time></trkpt><trkpt lat="45.5406418" lon="8.3081811"><ele>223.79999999999998</ele><time>2026-05-02T09:13:59.994Z</time></trkpt><trkpt lat="45.5405287" lon="8.3082487"><ele>224.0</ele><time>2026-05-02T09:14:01.996Z</time></trkpt><trkpt lat="45.5404133" lon="8.3082885"><ele>224.0</ele><time>2026-05-02T09:14:03.997Z</time></trkpt><trkpt lat="45.540305" lon="8.3083274"><ele>223.99999999999997</ele><time>2026-05-02T09:14:05.98Z</time></trkpt><trkpt lat="45.5402036" lon="8.3083902"><ele>223.99999999999997</ele><time>2026-05-02T09:14:07.991Z</time></trkpt><trkpt lat="45.5401098" lon="8.308469"><ele>224.0</ele><time>2026-05-02T09:14:09.995Z</time></trkpt><trkpt lat="45.540033" lon="8.3085696"><ele>224.0</ele><time>2026-05-02T09:14:11.995Z</time></trkpt><trkpt lat="45.5399649" lon="8.3086933"><ele>224.0</ele><time>2026-05-02T09:14:13.995Z</time></trkpt><trkpt lat="45.5398934" lon="8.3088007"><ele>223.99999999999997</ele><time>2026-05-02T09:14:15.979Z</time></trkpt><trkpt lat="45.5398151" lon="8.3088653"><ele>223.99999999999997</ele><time>2026-05-02T09:14:17.985Z</time></trkpt><trkpt lat="45.5396601" lon="8.3088136"><ele>224.0</ele><time>2026-05-02T09:14:22Z</time></trkpt><trkpt lat="45.5395832" lon="8.3087653"><ele>224.0</ele><time>2026-05-02T09:14:23.992Z</time></trkpt><trkpt lat="45.5394838" lon="8.3087541"><ele>224.0</ele><time>2026-05-02T09:14:25.99Z</time></trkpt><trkpt lat="45.5393683" lon="8.3087993"><ele>223.99999999999997</ele><time>2026-05-02T09:14:27.986Z</time></trkpt><trkpt lat="45.5392752" lon="8.3088741"><ele>223.99999999999997</ele><time>2026-05-02T09:14:29.994Z</time></trkpt><trkpt lat="45.5391875" lon="8.3089529"><ele>224.0</ele><time>2026-05-02T09:14:31.996Z</time></trkpt><trkpt lat="45.5390969" lon="8.3090398"><ele>224.0</ele><time>2026-05-02T09:14:33.993Z</time></trkpt><trkpt lat="45.539006" lon="8.3091171"><ele>224.0</ele><time>2026-05-02T09:14:35.992Z</time></trkpt><trkpt lat="45.5389157" lon="8.3091688"><ele>223.99999999999997</ele><time>2026-05-02T09:14:37.99Z</time></trkpt><trkpt lat="45.538849" lon="8.3091397"><ele>223.99999999999997</ele><time>2026-05-02T09:14:39.986Z</time></trkpt><trkpt lat="45.5387967" lon="8.3089183"><ele>224.0</ele><time>2026-05-02T09:14:44.992Z</time></trkpt><trkpt lat="45.5388686" lon="8.3090086"><ele>224.0</ele><time>2026-05-02T09:16:47.986Z</time></trkpt><trkpt lat="45.5388166" lon="8.3091952"><ele>224.00000000000003</ele><time>2026-05-02T09:16:54.99Z</time></trkpt><trkpt lat="45.5387581" lon="8.3092492"><ele>224.0</ele><time>2026-05-02T09:16:56.991Z</time></trkpt><trkpt lat="45.5386978" lon="8.3093157"><ele>224.0</ele><time>2026-05-02T09:16:58.996Z</time></trkpt><trkpt lat="45.538646" lon="8.3094011"><ele>224.0</ele><time>2026-05-02T09:17:01.002Z</time></trkpt><trkpt lat="45.5386026" lon="8.3094949"><ele>224.00000000000003</ele><time>2026-05-02T09:17:02.997Z</time></trkpt><trkpt lat="45.5385645" lon="8.3096003"><ele>224.0</ele><time>2026-05-02T09:17:04.993Z</time></trkpt><trkpt lat="45.5385379" lon="8.3097121"><ele>223.79999999999998</ele><time>2026-05-02T09:17:06.994Z</time></trkpt><trkpt lat="45.5385283" lon="8.3098355"><ele>223.59999999999997</ele><time>2026-05-02T09:17:08.991Z</time></trkpt><trkpt lat="45.5385287" lon="8.310083"><ele>223.4</ele><time>2026-05-02T09:17:12.991Z</time></trkpt><trkpt lat="45.53853" lon="8.3102067"><ele>223.2</ele><time>2026-05-02T09:17:15.001Z</time></trkpt><trkpt lat="45.5385244" lon="8.3103367"><ele>223.0</ele><time>2026-05-02T09:17:16.989Z</time></trkpt><trkpt lat="45.5385282" lon="8.3104893"><ele>222.66666666666666</ele><time>2026-05-02T09:17:18.993Z</time></trkpt><trkpt lat="45.5385289" lon="8.3105948"><ele>222.33333333333331</ele><time>2026-05-02T09:17:19.99Z</time></trkpt><trkpt lat="45.5385317" lon="8.3107182"><ele>222.0</ele><time>2026-05-02T09:17:21.002Z</time></trkpt><trkpt lat="45.5385352" lon="8.3108365"><ele>221.66666666666669</ele><time>2026-05-02T09:17:21.991Z</time></trkpt><trkpt lat="45.5385392" lon="8.3109377"><ele>221.33333333333334</ele><time>2026-05-02T09:17:22.995Z</time></trkpt><trkpt lat="45.5385368" lon="8.3110797"><ele>221.0</ele><time>2026-05-02T09:17:24.993Z</time></trkpt><trkpt lat="45.5385407" lon="8.3111888"><ele>221.0</ele><time>2026-05-02T09:17:26.988Z</time></trkpt><trkpt lat="45.5385332" lon="8.3112881"><ele>221.0</ele><time>2026-05-02T09:17:28.991Z</time></trkpt><trkpt lat="45.5385159" lon="8.3114213"><ele>221.0</ele><time>2026-05-02T09:17:31.988Z</time></trkpt><trkpt lat="45.5383738" lon="8.3116062"><ele>221.0</ele><time>2026-05-02T09:17:35.992Z</time></trkpt><trkpt lat="45.5383015" lon="8.3116991"><ele>220.8</ele><time>2026-05-02T09:17:37.999Z</time></trkpt><trkpt lat="45.538253" lon="8.3117931"><ele>220.60000000000002</ele><time>2026-05-02T09:17:39.983Z</time></trkpt><trkpt lat="45.5381846" lon="8.3118691"><ele>220.4</ele><time>2026-05-02T09:17:42.99Z</time></trkpt><trkpt lat="45.5381108" lon="8.3118983"><ele>220.2</ele><time>2026-05-02T09:18:05.986Z</time></trkpt><trkpt lat="45.5379447" lon="8.3119551"><ele>220.0</ele><time>2026-05-02T09:18:11.996Z</time></trkpt><trkpt lat="45.5378389" lon="8.3119798"><ele>219.6</ele><time>2026-05-02T09:18:13.993Z</time></trkpt><trkpt lat="45.5377275" lon="8.312022"><ele>219.2</ele><time>2026-05-02T09:18:16Z</time></trkpt><trkpt lat="45.5376075" lon="8.3120639"><ele>218.8</ele><time>2026-05-02T09:18:17.992Z</time></trkpt><trkpt lat="45.5374996" lon="8.3120871"><ele>218.4</ele><time>2026-05-02T09:18:20.001Z</time></trkpt><trkpt lat="45.5374044" lon="8.3121218"><ele>218.0</ele><time>2026-05-02T09:18:22.003Z</time></trkpt><trkpt lat="45.537341" lon="8.3121754"><ele>218.4</ele><time>2026-05-02T09:18:24.993Z</time></trkpt><trkpt lat="45.5374125" lon="8.3122525"><ele>218.8</ele><time>2026-05-02T09:18:51.002Z</time></trkpt><trkpt lat="45.5375958" lon="8.3122933"><ele>219.2</ele><time>2026-05-02T09:18:53.997Z</time></trkpt><trkpt lat="45.5376644" lon="8.3123083"><ele>219.6</ele><time>2026-05-02T09:18:54.997Z</time></trkpt><trkpt lat="45.5377376" lon="8.3123215"><ele>220.0</ele><time>2026-05-02T09:18:55.999Z</time></trkpt><trkpt lat="45.5378129" lon="8.312338"><ele>220.33333333333331</ele><time>2026-05-02T09:18:56.997Z</time></trkpt><trkpt lat="45.5378897" lon="8.3123519"><ele>220.66666666666666</ele><time>2026-05-02T09:18:57.989Z</time></trkpt><trkpt lat="45.5379681" lon="8.3123679"><ele>221.0</ele><time>2026-05-02T09:18:58.996Z</time></trkpt><trkpt lat="45.5380497" lon="8.3123866"><ele>221.33333333333331</ele><time>2026-05-02T09:18:59.998Z</time></trkpt><trkpt lat="45.5381302" lon="8.3124095"><ele>221.66666666666666</ele><time>2026-05-02T09:19:00.991Z</time></trkpt><trkpt lat="45.5382043" lon="8.3124345"><ele>222.0</ele><time>2026-05-02T09:19:01.99Z</time></trkpt><trkpt lat="45.5382876" lon="8.312484"><ele>222.0</ele><time>2026-05-02T09:19:03.995Z</time></trkpt><trkpt lat="45.5382893" lon="8.3126268"><ele>222.0</ele><time>2026-05-02T09:19:06.986Z</time></trkpt><trkpt lat="45.5382738" lon="8.3127641"><ele>222.0</ele><time>2026-05-02T09:19:08.999Z</time></trkpt><trkpt lat="45.5382904" lon="8.312948"><ele>222.0</ele><time>2026-05-02T09:19:10.996Z</time></trkpt><trkpt lat="45.5382933" lon="8.3130405"><ele>222.0</ele><time>2026-05-02T09:19:11.984Z</time></trkpt><trkpt lat="45.5382967" lon="8.313226"><ele>222.28571428571428</ele><time>2026-05-02T09:19:13.991Z</time></trkpt><trkpt lat="45.5383026" lon="8.3133198"><ele>222.57142857142858</ele><time>2026-05-02T09:19:14.998Z</time></trkpt><trkpt lat="45.5383156" lon="8.3134117"><ele>222.85714285714286</ele><time>2026-05-02T09:19:15.997Z</time></trkpt><trkpt lat="45.5383385" lon="8.3134977"><ele>223.14285714285714</ele><time>2026-05-02T09:19:16.994Z</time></trkpt><trkpt lat="45.5383659" lon="8.3135833"><ele>223.42857142857144</ele><time>2026-05-02T09:19:17.988Z</time></trkpt><trkpt lat="45.5383948" lon="8.3136698"><ele>223.71428571428572</ele><time>2026-05-02T09:19:18.991Z</time></trkpt><trkpt lat="45.5384234" lon="8.3137529"><ele>224.0</ele><time>2026-05-02T09:19:19.992Z</time></trkpt><trkpt lat="45.5384527" lon="8.3138382"><ele>224.42857142857144</ele><time>2026-05-02T09:19:20.993Z</time></trkpt><trkpt lat="45.53848" lon="8.3139264"><ele>224.85714285714286</ele><time>2026-05-02T09:19:21.996Z</time></trkpt><trkpt lat="45.5385037" lon="8.3140121"><ele>225.28571428571428</ele><time>2026-05-02T09:19:23.001Z</time></trkpt><trkpt lat="45.538524" lon="8.3140981"><ele>225.71428571428572</ele><time>2026-05-02T09:19:23.991Z</time></trkpt><trkpt lat="45.5385389" lon="8.3141898"><ele>226.14285714285717</ele><time>2026-05-02T09:19:25.001Z</time></trkpt><trkpt lat="45.5385484" lon="8.3142828"><ele>226.57142857142858</ele><time>2026-05-02T09:19:25.998Z</time></trkpt><trkpt lat="45.5385482" lon="8.3144218"><ele>227.0</ele><time>2026-05-02T09:19:27.994Z</time></trkpt><trkpt lat="45.5385482" lon="8.3145217"><ele>227.0</ele><time>2026-05-02T09:19:32Z</time></trkpt><trkpt lat="45.5386306" lon="8.3145707"><ele>227.0</ele><time>2026-05-02T09:19:35.988Z</time></trkpt><trkpt lat="45.5388147" lon="8.3146197"><ele>227.0</ele><time>2026-05-02T09:19:39.989Z</time></trkpt><trkpt lat="45.5388777" lon="8.3146766"><ele>227.0</ele><time>2026-05-02T09:19:42.987Z</time></trkpt><trkpt lat="45.5389054" lon="8.314758"><ele>227.0</ele><time>2026-05-02T09:19:44.996Z</time></trkpt><trkpt lat="45.5389338" lon="8.3148979"><ele>227.0</ele><time>2026-05-02T09:19:46.983Z</time></trkpt><trkpt lat="45.5389402" lon="8.3149875"><ele>227.00000000000003</ele><time>2026-05-02T09:19:47.985Z</time></trkpt><trkpt lat="45.5389441" lon="8.3150811"><ele>227.0</ele><time>2026-05-02T09:19:48.996Z</time></trkpt><trkpt lat="45.5389444" lon="8.3151762"><ele>227.0</ele><time>2026-05-02T09:19:49.99Z</time></trkpt><trkpt lat="45.5389374" lon="8.3152785"><ele>227.00000000000003</ele><time>2026-05-02T09:19:50.991Z</time></trkpt><trkpt lat="45.5389283" lon="8.3153853"><ele>227.0</ele><time>2026-05-02T09:19:51.999Z</time></trkpt><trkpt lat="45.5389169" lon="8.3154922"><ele>227.0</ele><time>2026-05-02T09:19:52.987Z</time></trkpt><trkpt lat="45.5389064" lon="8.3156026"><ele>226.8</ele><time>2026-05-02T09:19:53.995Z</time></trkpt><trkpt lat="45.5388951" lon="8.3157159"><ele>226.6</ele><time>2026-05-02T09:19:54.998Z</time></trkpt><trkpt lat="45.5388843" lon="8.3158309"><ele>226.40000000000003</ele><time>2026-05-02T09:19:55.995Z</time></trkpt><trkpt lat="45.5388724" lon="8.315942"><ele>226.20000000000002</ele><time>2026-05-02T09:19:56.989Z</time></trkpt><trkpt lat="45.5388514" lon="8.3161639"><ele>226.0</ele><time>2026-05-02T09:19:58.999Z</time></trkpt><trkpt lat="45.538845" lon="8.3162741"><ele>225.99999999999997</ele><time>2026-05-02T09:19:59.996Z</time></trkpt><trkpt lat="45.538839" lon="8.3163855"><ele>226.0</ele><time>2026-05-02T09:20:00.99Z</time></trkpt><trkpt lat="45.5388327" lon="8.316499"><ele>226.0</ele><time>2026-05-02T09:20:01.99Z</time></trkpt><trkpt lat="45.5388288" lon="8.3166157"><ele>226.0</ele><time>2026-05-02T09:20:03.002Z</time></trkpt><trkpt lat="45.5388326" lon="8.3167324"><ele>225.99999999999997</ele><time>2026-05-02T09:20:03.997Z</time></trkpt><trkpt lat="45.5388467" lon="8.3168539"><ele>226.0</ele><time>2026-05-02T09:20:04.992Z</time></trkpt><trkpt lat="45.5388683" lon="8.3169832"><ele>226.0</ele><time>2026-05-02T09:20:05.995Z</time></trkpt><trkpt lat="45.538894" lon="8.3171226"><ele>226.0</ele><time>2026-05-02T09:20:06.993Z</time></trkpt><trkpt lat="45.5389217" lon="8.3172741"><ele>226.0</ele><time>2026-05-02T09:20:07.999Z</time></trkpt><trkpt lat="45.5389518" lon="8.3174377"><ele>226.0</ele><time>2026-05-02T09:20:08.994Z</time></trkpt><trkpt lat="45.5389801" lon="8.3176074"><ele>226.25</ele><time>2026-05-02T09:20:09.996Z</time></trkpt><trkpt lat="45.539006" lon="8.3177755"><ele>226.5</ele><time>2026-05-02T09:20:10.991Z</time></trkpt><trkpt lat="45.5390296" lon="8.3179404"><ele>226.75</ele><time>2026-05-02T09:20:11.993Z</time></trkpt><trkpt lat="45.5390488" lon="8.3181009"><ele>227.0</ele><time>2026-05-02T09:20:12.986Z</time></trkpt><trkpt lat="45.5390693" lon="8.3182614"><ele>226.6</ele><time>2026-05-02T09:20:13.991Z</time></trkpt><trkpt lat="45.5390904" lon="8.3184236"><ele>226.2</ele><time>2026-05-02T09:20:14.991Z</time></trkpt><trkpt lat="45.5391103" lon="8.3185811"><ele>225.8</ele><time>2026-05-02T09:20:15.988Z</time></trkpt><trkpt lat="45.5391311" lon="8.3187318"><ele>225.4</ele><time>2026-05-02T09:20:16.981Z</time></trkpt><trkpt lat="45.5391489" lon="8.3188793"><ele>225.0</ele><time>2026-05-02T09:20:17.997Z</time></trkpt><trkpt lat="45.5391817" lon="8.3191667"><ele>225.0</ele><time>2026-05-02T09:20:19.988Z</time></trkpt><trkpt lat="45.5392018" lon="8.3193182"><ele>225.0</ele><time>2026-05-02T09:20:21.002Z</time></trkpt><trkpt lat="45.5392189" lon="8.3194739"><ele>225.0</ele><time>2026-05-02T09:20:21.995Z</time></trkpt><trkpt lat="45.5392386" lon="8.3196298"><ele>225.0</ele><time>2026-05-02T09:20:23.003Z</time></trkpt><trkpt lat="45.5392582" lon="8.3197864"><ele>225.0</ele><time>2026-05-02T09:20:23.996Z</time></trkpt><trkpt lat="45.5392838" lon="8.3199417"><ele>225.0</ele><time>2026-05-02T09:20:24.997Z</time></trkpt><trkpt lat="45.5393076" lon="8.3200914"><ele>225.0</ele><time>2026-05-02T09:20:26Z</time></trkpt><trkpt lat="45.5393284" lon="8.3202367"><ele>225.0</ele><time>2026-05-02T09:20:26.986Z</time></trkpt><trkpt lat="45.539348" lon="8.320382"><ele>225.0</ele><time>2026-05-02T09:20:27.995Z</time></trkpt><trkpt lat="45.5393714" lon="8.3205254"><ele>225.0</ele><time>2026-05-02T09:20:28.999Z</time></trkpt><trkpt lat="45.5393919" lon="8.3206698"><ele>225.0</ele><time>2026-05-02T09:20:29.996Z</time></trkpt><trkpt lat="45.5394114" lon="8.3208149"><ele>225.0</ele><time>2026-05-02T09:20:30.997Z</time></trkpt><trkpt lat="45.5394291" lon="8.3209662"><ele>225.0</ele><time>2026-05-02T09:20:31.99Z</time></trkpt><trkpt lat="45.5394466" lon="8.3211187"><ele>225.0</ele><time>2026-05-02T09:20:32.997Z</time></trkpt><trkpt lat="45.5394636" lon="8.3212658"><ele>225.0</ele><time>2026-05-02T09:20:34Z</time></trkpt><trkpt lat="45.5394698" lon="8.3214116"><ele>225.0</ele><time>2026-05-02T09:20:35.002Z</time></trkpt><trkpt lat="45.5394697" lon="8.3215661"><ele>225.0</ele><time>2026-05-02T09:20:35.992Z</time></trkpt><trkpt lat="45.5394545" lon="8.3217335"><ele>225.0</ele><time>2026-05-02T09:20:36.999Z</time></trkpt><trkpt lat="45.5394224" lon="8.3219138"><ele>225.0</ele><time>2026-05-02T09:20:37.995Z</time></trkpt><trkpt lat="45.5393769" lon="8.3220915"><ele>225.0</ele><time>2026-05-02T09:20:38.988Z</time></trkpt><trkpt lat="45.5392834" lon="8.3224195"><ele>225.0</ele><time>2026-05-02T09:20:40.994Z</time></trkpt><trkpt lat="45.539245" lon="8.3225631"><ele>225.0</ele><time>2026-05-02T09:20:41.991Z</time></trkpt><trkpt lat="45.5392084" lon="8.3226992"><ele>225.0</ele><time>2026-05-02T09:20:42.992Z</time></trkpt><trkpt lat="45.5391751" lon="8.3228321"><ele>225.0</ele><time>2026-05-02T09:20:43.995Z</time></trkpt><trkpt lat="45.5391432" lon="8.3229639"><ele>225.0</ele><time>2026-05-02T09:20:44.992Z</time></trkpt><trkpt lat="45.5391145" lon="8.3230923"><ele>225.0</ele><time>2026-05-02T09:20:45.985Z</time></trkpt><trkpt lat="45.5390928" lon="8.323222"><ele>225.0</ele><time>2026-05-02T09:20:46.99Z</time></trkpt><trkpt lat="45.5390946" lon="8.323349"><ele>225.0</ele><time>2026-05-02T09:20:47.99Z</time></trkpt><trkpt lat="45.539113" lon="8.3234693"><ele>225.0</ele><time>2026-05-02T09:20:48.998Z</time></trkpt><trkpt lat="45.5391389" lon="8.3235806"><ele>225.0</ele><time>2026-05-02T09:20:50.006Z</time></trkpt><trkpt lat="45.5391709" lon="8.3236835"><ele>225.0</ele><time>2026-05-02T09:20:50.998Z</time></trkpt><trkpt lat="45.5392095" lon="8.3237834"><ele>225.0</ele><time>2026-05-02T09:20:51.99Z</time></trkpt><trkpt lat="45.5392527" lon="8.3238789"><ele>225.0</ele><time>2026-05-02T09:20:52.995Z</time></trkpt><trkpt lat="45.5392964" lon="8.3239736"><ele>224.83333333333334</ele><time>2026-05-02T09:20:53.996Z</time></trkpt><trkpt lat="45.5393432" lon="8.3240751"><ele>224.66666666666669</ele><time>2026-05-02T09:20:54.999Z</time></trkpt><trkpt lat="45.5393901" lon="8.3241751"><ele>224.5</ele><time>2026-05-02T09:20:55.996Z</time></trkpt><trkpt lat="45.5394369" lon="8.3242794"><ele>224.33333333333334</ele><time>2026-05-02T09:20:56.99Z</time></trkpt><trkpt lat="45.5394852" lon="8.3243848"><ele>224.16666666666669</ele><time>2026-05-02T09:20:57.997Z</time></trkpt><trkpt lat="45.539532" lon="8.3244929"><ele>224.0</ele><time>2026-05-02T09:20:58.994Z</time></trkpt><trkpt lat="45.53958" lon="8.3246012"><ele>223.5</ele><time>2026-05-02T09:20:59.987Z</time></trkpt><trkpt lat="45.5396767" lon="8.3248133"><ele>223.0</ele><time>2026-05-02T09:21:01.993Z</time></trkpt><trkpt lat="45.5397253" lon="8.3249173"><ele>222.5</ele><time>2026-05-02T09:21:02.997Z</time></trkpt><trkpt lat="45.5397738" lon="8.3250279"><ele>222.0</ele><time>2026-05-02T09:21:03.996Z</time></trkpt><trkpt lat="45.5398222" lon="8.325145"><ele>222.0</ele><time>2026-05-02T09:21:04.986Z</time></trkpt><trkpt lat="45.5398722" lon="8.3252615"><ele>222.0</ele><time>2026-05-02T09:21:05.997Z</time></trkpt><trkpt lat="45.5399233" lon="8.3253812"><ele>222.0</ele><time>2026-05-02T09:21:06.992Z</time></trkpt><trkpt lat="45.539978" lon="8.325506"><ele>222.0</ele><time>2026-05-02T09:21:08Z</time></trkpt><trkpt lat="45.5400334" lon="8.325634"><ele>222.0</ele><time>2026-05-02T09:21:08.992Z</time></trkpt><trkpt lat="45.5400902" lon="8.3257616"><ele>221.8</ele><time>2026-05-02T09:21:09.995Z</time></trkpt><trkpt lat="45.5401483" lon="8.32589"><ele>221.6</ele><time>2026-05-02T09:21:10.998Z</time></trkpt><trkpt lat="45.5402069" lon="8.3260195"><ele>221.40000000000003</ele><time>2026-05-02T09:21:11.987Z</time></trkpt><trkpt lat="45.5402665" lon="8.3261546"><ele>221.20000000000002</ele><time>2026-05-02T09:21:12.995Z</time></trkpt><trkpt lat="45.5403299" lon="8.3262962"><ele>221.0</ele><time>2026-05-02T09:21:14.005Z</time></trkpt><trkpt lat="45.5403952" lon="8.3264422"><ele>221.75</ele><time>2026-05-02T09:21:14.986Z</time></trkpt><trkpt lat="45.5404634" lon="8.3265963"><ele>222.5</ele><time>2026-05-02T09:21:15.997Z</time></trkpt><trkpt lat="45.5405349" lon="8.3267545"><ele>223.25</ele><time>2026-05-02T09:21:16.992Z</time></trkpt><trkpt lat="45.5406101" lon="8.3269193"><ele>224.0</ele><time>2026-05-02T09:21:18.003Z</time></trkpt><trkpt lat="45.5406865" lon="8.3270893"><ele>224.0</ele><time>2026-05-02T09:21:18.992Z</time></trkpt><trkpt lat="45.5407664" lon="8.3272658"><ele>224.0</ele><time>2026-05-02T09:21:19.989Z</time></trkpt><trkpt lat="45.5408485" lon="8.3274499"><ele>224.0</ele><time>2026-05-02T09:21:21.003Z</time></trkpt><trkpt lat="45.541015" lon="8.3278241"><ele>224.0</ele><time>2026-05-02T09:21:22.994Z</time></trkpt><trkpt lat="45.5410986" lon="8.3280116"><ele>224.0</ele><time>2026-05-02T09:21:23.995Z</time></trkpt><trkpt lat="45.5411821" lon="8.3281971"><ele>224.0</ele><time>2026-05-02T09:21:24.995Z</time></trkpt><trkpt lat="45.5412622" lon="8.3283784"><ele>224.0</ele><time>2026-05-02T09:21:25.995Z</time></trkpt><trkpt lat="45.5413435" lon="8.3285613"><ele>224.0</ele><time>2026-05-02T09:21:26.99Z</time></trkpt><trkpt lat="45.5414252" lon="8.3287434"><ele>224.0</ele><time>2026-05-02T09:21:27.994Z</time></trkpt><trkpt lat="45.5415038" lon="8.3289217"><ele>224.0</ele><time>2026-05-02T09:21:28.99Z</time></trkpt><trkpt lat="45.5415804" lon="8.3290988"><ele>224.0</ele><time>2026-05-02T09:21:30.006Z</time></trkpt><trkpt lat="45.5416567" lon="8.3292734"><ele>224.0</ele><time>2026-05-02T09:21:30.999Z</time></trkpt><trkpt lat="45.5417332" lon="8.3294437"><ele>224.0</ele><time>2026-05-02T09:21:31.993Z</time></trkpt><trkpt lat="45.5418087" lon="8.3296136"><ele>224.0</ele><time>2026-05-02T09:21:33.002Z</time></trkpt><trkpt lat="45.5418832" lon="8.3297818"><ele>224.0</ele><time>2026-05-02T09:21:33.997Z</time></trkpt><trkpt lat="45.5419565" lon="8.3299469"><ele>224.0</ele><time>2026-05-02T09:21:34.992Z</time></trkpt><trkpt lat="45.5420208" lon="8.3301138"><ele>224.0</ele><time>2026-05-02T09:21:35.996Z</time></trkpt><trkpt lat="45.5420747" lon="8.3302813"><ele>224.0</ele><time>2026-05-02T09:21:36.99Z</time></trkpt><trkpt lat="45.5421177" lon="8.3304531"><ele>224.0</ele><time>2026-05-02T09:21:37.998Z</time></trkpt><trkpt lat="45.5421543" lon="8.3306266"><ele>224.0</ele><time>2026-05-02T09:21:39Z</time></trkpt><trkpt lat="45.5421903" lon="8.330803"><ele>224.0</ele><time>2026-05-02T09:21:39.998Z</time></trkpt><trkpt lat="45.5422282" lon="8.3309826"><ele>223.33333333333334</ele><time>2026-05-02T09:21:40.983Z</time></trkpt><trkpt lat="45.542264" lon="8.3311637"><ele>222.66666666666669</ele><time>2026-05-02T09:21:41.996Z</time></trkpt><trkpt lat="45.5423382" lon="8.3315215"><ele>222.0</ele><time>2026-05-02T09:21:43.994Z</time></trkpt><trkpt lat="45.5423781" lon="8.3317048"><ele>221.75</ele><time>2026-05-02T09:21:44.997Z</time></trkpt><trkpt lat="45.5424201" lon="8.3318929"><ele>221.5</ele><time>2026-05-02T09:21:45.996Z</time></trkpt><trkpt lat="45.5424631" lon="8.332081"><ele>221.25</ele><time>2026-05-02T09:21:46.988Z</time></trkpt><trkpt lat="45.5425034" lon="8.3322673"><ele>221.0</ele><time>2026-05-02T09:21:48.001Z</time></trkpt><trkpt lat="45.5425432" lon="8.33245"><ele>221.0</ele><time>2026-05-02T09:21:48.996Z</time></trkpt><trkpt lat="45.5425863" lon="8.3326316"><ele>221.0</ele><time>2026-05-02T09:21:49.992Z</time></trkpt><trkpt lat="45.5426255" lon="8.3328135"><ele>221.0</ele><time>2026-05-02T09:21:50.995Z</time></trkpt><trkpt lat="45.5426621" lon="8.3329948"><ele>221.0</ele><time>2026-05-02T09:21:51.991Z</time></trkpt><trkpt lat="45.5427003" lon="8.3331801"><ele>221.0</ele><time>2026-05-02T09:21:52.992Z</time></trkpt><trkpt lat="45.5427404" lon="8.3333667"><ele>221.0</ele><time>2026-05-02T09:21:53.987Z</time></trkpt><trkpt lat="45.542779" lon="8.3335462"><ele>221.0</ele><time>2026-05-02T09:21:54.992Z</time></trkpt><trkpt lat="45.5428122" lon="8.333712"><ele>221.0</ele><time>2026-05-02T09:21:55.989Z</time></trkpt><trkpt lat="45.5428465" lon="8.3338784"><ele>220.75</ele><time>2026-05-02T09:21:56.995Z</time></trkpt><trkpt lat="45.5428804" lon="8.3340452"><ele>220.5</ele><time>2026-05-02T09:21:57.989Z</time></trkpt><trkpt lat="45.5429171" lon="8.334215"><ele>220.25</ele><time>2026-05-02T09:21:58.992Z</time></trkpt><trkpt lat="45.5429523" lon="8.3343848"><ele>220.0</ele><time>2026-05-02T09:21:59.987Z</time></trkpt><trkpt lat="45.5429888" lon="8.3345552"><ele>220.0</ele><time>2026-05-02T09:22:00.996Z</time></trkpt><trkpt lat="45.5430281" lon="8.3347291"><ele>220.0</ele><time>2026-05-02T09:22:01.99Z</time></trkpt><trkpt lat="45.5430682" lon="8.3349059"><ele>220.0</ele><time>2026-05-02T09:22:02.994Z</time></trkpt><trkpt lat="45.5431485" lon="8.3352667"><ele>220.0</ele><time>2026-05-02T09:22:04.994Z</time></trkpt><trkpt lat="45.5431869" lon="8.3354415"><ele>220.0</ele><time>2026-05-02T09:22:05.99Z</time></trkpt><trkpt lat="45.5432264" lon="8.335617"><ele>220.0</ele><time>2026-05-02T09:22:07Z</time></trkpt><trkpt lat="45.5432652" lon="8.3357917"><ele>220.0</ele><time>2026-05-02T09:22:07.999Z</time></trkpt><trkpt lat="45.5433035" lon="8.3359649"><ele>220.0</ele><time>2026-05-02T09:22:08.992Z</time></trkpt><trkpt lat="45.5433418" lon="8.3361395"><ele>220.0</ele><time>2026-05-02T09:22:09.99Z</time></trkpt><trkpt lat="45.5433771" lon="8.3363136"><ele>220.0</ele><time>2026-05-02T09:22:10.999Z</time></trkpt><trkpt lat="45.5434089" lon="8.3364898"><ele>220.0</ele><time>2026-05-02T09:22:11.994Z</time></trkpt><trkpt lat="45.54344" lon="8.3366696"><ele>220.25</ele><time>2026-05-02T09:22:12.994Z</time></trkpt><trkpt lat="45.543467" lon="8.3368482"><ele>220.5</ele><time>2026-05-02T09:22:13.999Z</time></trkpt><trkpt lat="45.5434923" lon="8.3370278"><ele>220.75</ele><time>2026-05-02T09:22:14.996Z</time></trkpt><trkpt lat="45.5435202" lon="8.3372093"><ele>221.0</ele><time>2026-05-02T09:22:15.991Z</time></trkpt><trkpt lat="45.5435469" lon="8.3373993"><ele>221.0</ele><time>2026-05-02T09:22:16.999Z</time></trkpt><trkpt lat="45.5435761" lon="8.3375974"><ele>221.0</ele><time>2026-05-02T09:22:17.994Z</time></trkpt><trkpt lat="45.5436048" lon="8.3378044"><ele>221.0</ele><time>2026-05-02T09:22:18.992Z</time></trkpt><trkpt lat="45.5436333" lon="8.338019"><ele>221.0</ele><time>2026-05-02T09:22:19.99Z</time></trkpt><trkpt lat="45.5436634" lon="8.3382445"><ele>220.66666666666669</ele><time>2026-05-02T09:22:20.994Z</time></trkpt><trkpt lat="45.5436931" lon="8.3384765"><ele>220.33333333333331</ele><time>2026-05-02T09:22:21.993Z</time></trkpt><trkpt lat="45.5437222" lon="8.3387129"><ele>220.0</ele><time>2026-05-02T09:22:22.994Z</time></trkpt><trkpt lat="45.5437549" lon="8.3389483"><ele>220.0</ele><time>2026-05-02T09:22:23.989Z</time></trkpt><trkpt lat="45.5438133" lon="8.3393991"><ele>220.0</ele><time>2026-05-02T09:22:25.995Z</time></trkpt><trkpt lat="45.5438448" lon="8.3396218"><ele>220.0</ele><time>2026-05-02T09:22:26.997Z</time></trkpt><trkpt lat="45.5438769" lon="8.3398464"><ele>220.0</ele><time>2026-05-02T09:22:27.988Z</time></trkpt><trkpt lat="45.5439083" lon="8.3400693"><ele>220.0</ele><time>2026-05-02T09:22:28.996Z</time></trkpt><trkpt lat="45.5439443" lon="8.3402812"><ele>220.0</ele><time>2026-05-02T09:22:30Z</time></trkpt><trkpt lat="45.5439946" lon="8.3404883"><ele>220.0</ele><time>2026-05-02T09:22:30.988Z</time></trkpt><trkpt lat="45.5440697" lon="8.3406893"><ele>220.0</ele><time>2026-05-02T09:22:32.005Z</time></trkpt><trkpt lat="45.5441588" lon="8.3408742"><ele>220.75</ele><time>2026-05-02T09:22:32.993Z</time></trkpt><trkpt lat="45.5442534" lon="8.3410464"><ele>221.5</ele><time>2026-05-02T09:22:33.998Z</time></trkpt><trkpt lat="45.5443501" lon="8.3412047"><ele>222.25</ele><time>2026-05-02T09:22:35.002Z</time></trkpt><trkpt lat="45.5444449" lon="8.3413558"><ele>223.0</ele><time>2026-05-02T09:22:35.99Z</time></trkpt><trkpt lat="45.5445369" lon="8.3415027"><ele>223.25</ele><time>2026-05-02T09:22:36.996Z</time></trkpt><trkpt lat="45.5446285" lon="8.3416408"><ele>223.5</ele><time>2026-05-02T09:22:37.995Z</time></trkpt><trkpt lat="45.5447138" lon="8.3417758"><ele>223.75</ele><time>2026-05-02T09:22:39.003Z</time></trkpt><trkpt lat="45.5448001" lon="8.3419105"><ele>224.0</ele><time>2026-05-02T09:22:40.009Z</time></trkpt><trkpt lat="45.5448789" lon="8.3420493"><ele>224.0</ele><time>2026-05-02T09:22:40.995Z</time></trkpt><trkpt lat="45.5449625" lon="8.342189"><ele>224.0</ele><time>2026-05-02T09:22:42.001Z</time></trkpt><trkpt lat="45.5450543" lon="8.3423284"><ele>224.0</ele><time>2026-05-02T09:22:42.993Z</time></trkpt><trkpt lat="45.545145" lon="8.3424704"><ele>224.0</ele><time>2026-05-02T09:22:44.004Z</time></trkpt><trkpt lat="45.5452347" lon="8.3426192"><ele>223.66666666666669</ele><time>2026-05-02T09:22:44.987Z</time></trkpt><trkpt lat="45.5454168" lon="8.3429113"><ele>223.33333333333331</ele><time>2026-05-02T09:22:47.001Z</time></trkpt><trkpt lat="45.5455056" lon="8.3430624"><ele>223.0</ele><time>2026-05-02T09:22:47.987Z</time></trkpt><trkpt lat="45.5455948" lon="8.3432132"><ele>222.75</ele><time>2026-05-02T09:22:48.994Z</time></trkpt><trkpt lat="45.545679" lon="8.3433568"><ele>222.5</ele><time>2026-05-02T09:22:49.997Z</time></trkpt><trkpt lat="45.545765" lon="8.3434969"><ele>222.25</ele><time>2026-05-02T09:22:50.998Z</time></trkpt><trkpt lat="45.5458518" lon="8.3436324"><ele>222.0</ele><time>2026-05-02T09:22:52Z</time></trkpt><trkpt lat="45.5459322" lon="8.3437607"><ele>221.75</ele><time>2026-05-02T09:22:52.987Z</time></trkpt><trkpt lat="45.5460089" lon="8.3438868"><ele>221.5</ele><time>2026-05-02T09:22:54.004Z</time></trkpt><trkpt lat="45.546088" lon="8.3440162"><ele>221.25</ele><time>2026-05-02T09:22:54.998Z</time></trkpt><trkpt lat="45.5461716" lon="8.3441511"><ele>221.0</ele><time>2026-05-02T09:22:55.995Z</time></trkpt><trkpt lat="45.5462554" lon="8.3442931"><ele>221.0</ele><time>2026-05-02T09:22:57.003Z</time></trkpt><trkpt lat="45.5463385" lon="8.3444379"><ele>221.0</ele><time>2026-05-02T09:22:57.996Z</time></trkpt><trkpt lat="45.5464235" lon="8.3445828"><ele>221.0</ele><time>2026-05-02T09:22:58.994Z</time></trkpt><trkpt lat="45.5465102" lon="8.3447309"><ele>221.0</ele><time>2026-05-02T09:22:59.986Z</time></trkpt><trkpt lat="45.5465986" lon="8.3448812"><ele>221.25</ele><time>2026-05-02T09:23:00.994Z</time></trkpt><trkpt lat="45.546689" lon="8.3450371"><ele>221.5</ele><time>2026-05-02T09:23:01.994Z</time></trkpt><trkpt lat="45.5467812" lon="8.3451942"><ele>221.75</ele><time>2026-05-02T09:23:02.977Z</time></trkpt><trkpt lat="45.546875" lon="8.3453491"><ele>222.0</ele><time>2026-05-02T09:23:03.999Z</time></trkpt><trkpt lat="45.546964" lon="8.3454966"><ele>222.0</ele><time>2026-05-02T09:23:04.989Z</time></trkpt><trkpt lat="45.5470509" lon="8.3456403"><ele>222.0</ele><time>2026-05-02T09:23:05.995Z</time></trkpt><trkpt lat="45.5472221" lon="8.345923"><ele>222.0</ele><time>2026-05-02T09:23:07.987Z</time></trkpt><trkpt lat="45.5473076" lon="8.346068"><ele>222.0</ele><time>2026-05-02T09:23:09.004Z</time></trkpt><trkpt lat="45.5473906" lon="8.3462155"><ele>222.0</ele><time>2026-05-02T09:23:09.995Z</time></trkpt><trkpt lat="45.5474781" lon="8.3463666"><ele>222.0</ele><time>2026-05-02T09:23:11Z</time></trkpt><trkpt lat="45.5475685" lon="8.3465194"><ele>222.0</ele><time>2026-05-02T09:23:11.997Z</time></trkpt><trkpt lat="45.54766" lon="8.3466699"><ele>222.0</ele><time>2026-05-02T09:23:12.99Z</time></trkpt><trkpt lat="45.547752" lon="8.3468206"><ele>222.0</ele><time>2026-05-02T09:23:13.998Z</time></trkpt><trkpt lat="45.5478462" lon="8.3469673"><ele>222.0</ele><time>2026-05-02T09:23:14.995Z</time></trkpt><trkpt lat="45.5479371" lon="8.3471136"><ele>222.0</ele><time>2026-05-02T09:23:15.998Z</time></trkpt><trkpt lat="45.5480257" lon="8.3472607"><ele>222.0</ele><time>2026-05-02T09:23:16.99Z</time></trkpt><trkpt lat="45.5481154" lon="8.347408"><ele>222.0</ele><time>2026-05-02T09:23:17.994Z</time></trkpt><trkpt lat="45.5482053" lon="8.3475597"><ele>222.0</ele><time>2026-05-02T09:23:18.994Z</time></trkpt><trkpt lat="45.5482986" lon="8.3477101"><ele>222.0</ele><time>2026-05-02T09:23:19.994Z</time></trkpt><trkpt lat="45.5483923" lon="8.3478597"><ele>222.0</ele><time>2026-05-02T09:23:20.991Z</time></trkpt><trkpt lat="45.5484854" lon="8.3480115"><ele>222.0</ele><time>2026-05-02T09:23:21.991Z</time></trkpt><trkpt lat="45.5485798" lon="8.3481677"><ele>222.0</ele><time>2026-05-02T09:23:22.991Z</time></trkpt><trkpt lat="45.5486765" lon="8.3483264"><ele>222.0</ele><time>2026-05-02T09:23:23.997Z</time></trkpt><trkpt lat="45.5487765" lon="8.3484862"><ele>222.66666666666669</ele><time>2026-05-02T09:23:24.993Z</time></trkpt><trkpt lat="45.5488769" lon="8.3486481"><ele>223.33333333333334</ele><time>2026-05-02T09:23:25.995Z</time></trkpt><trkpt lat="45.5489751" lon="8.3488124"><ele>224.0</ele><time>2026-05-02T09:23:27.009Z</time></trkpt><trkpt lat="45.5491739" lon="8.3491422"><ele>224.25</ele><time>2026-05-02T09:23:28.999Z</time></trkpt><trkpt lat="45.549272" lon="8.3493037"><ele>224.5</ele><time>2026-05-02T09:23:30.001Z</time></trkpt><trkpt lat="45.5493703" lon="8.3494645"><ele>224.75</ele><time>2026-05-02T09:23:30.993Z</time></trkpt><trkpt lat="45.5494668" lon="8.3496257"><ele>225.0</ele><time>2026-05-02T09:23:31.997Z</time></trkpt><trkpt lat="45.5495623" lon="8.3497785"><ele>226.0</ele><time>2026-05-02T09:23:32.999Z</time></trkpt><trkpt lat="45.5496537" lon="8.349928"><ele>227.0</ele><time>2026-05-02T09:23:33.993Z</time></trkpt><trkpt lat="45.5497453" lon="8.3500793"><ele>228.0</ele><time>2026-05-02T09:23:34.996Z</time></trkpt><trkpt lat="45.5498382" lon="8.3502287"><ele>229.0</ele><time>2026-05-02T09:23:35.996Z</time></trkpt><trkpt lat="45.5499344" lon="8.3503738"><ele>229.0</ele><time>2026-05-02T09:23:36.997Z</time></trkpt><trkpt lat="45.5500297" lon="8.3505217"><ele>229.0</ele><time>2026-05-02T09:23:37.997Z</time></trkpt><trkpt lat="45.5501204" lon="8.3506671"><ele>229.0</ele><time>2026-05-02T09:23:38.996Z</time></trkpt><trkpt lat="45.5502115" lon="8.3508136"><ele>229.0</ele><time>2026-05-02T09:23:39.999Z</time></trkpt><trkpt lat="45.5503015" lon="8.35096"><ele>228.75</ele><time>2026-05-02T09:23:40.997Z</time></trkpt><trkpt lat="45.55039" lon="8.3511023"><ele>228.5</ele><time>2026-05-02T09:23:42.001Z</time></trkpt><trkpt lat="45.5504769" lon="8.351243"><ele>228.25</ele><time>2026-05-02T09:23:42.996Z</time></trkpt><trkpt lat="45.5505633" lon="8.3513835"><ele>228.0</ele><time>2026-05-02T09:23:43.997Z</time></trkpt><trkpt lat="45.5506441" lon="8.3515232"><ele>228.0</ele><time>2026-05-02T09:23:45.001Z</time></trkpt><trkpt lat="45.5507285" lon="8.3516662"><ele>228.0</ele><time>2026-05-02T09:23:45.992Z</time></trkpt><trkpt lat="45.5508171" lon="8.3518115"><ele>228.0</ele><time>2026-05-02T09:23:46.992Z</time></trkpt><trkpt lat="45.5509139" lon="8.3519602"><ele>228.0</ele><time>2026-05-02T09:23:47.991Z</time></trkpt><trkpt lat="45.5511102" lon="8.3522763"><ele>229.66666666666669</ele><time>2026-05-02T09:23:49.998Z</time></trkpt><trkpt lat="45.5512126" lon="8.3524412"><ele>231.33333333333334</ele><time>2026-05-02T09:23:50.987Z</time></trkpt><trkpt lat="45.551317" lon="8.352615"><ele>233.0</ele><time>2026-05-02T09:23:51.995Z</time></trkpt><trkpt lat="45.5514218" lon="8.3527869"><ele>233.0</ele><time>2026-05-02T09:23:52.991Z</time></trkpt><trkpt lat="45.5515256" lon="8.352951"><ele>233.0</ele><time>2026-05-02T09:23:53.998Z</time></trkpt><trkpt lat="45.5516274" lon="8.3531119"><ele>233.0</ele><time>2026-05-02T09:23:54.996Z</time></trkpt><trkpt lat="45.5517267" lon="8.3532735"><ele>231.33333333333334</ele><time>2026-05-02T09:23:55.989Z</time></trkpt><trkpt lat="45.5518285" lon="8.3534381"><ele>229.66666666666669</ele><time>2026-05-02T09:23:57Z</time></trkpt><trkpt lat="45.5519293" lon="8.3536067"><ele>228.0</ele><time>2026-05-02T09:23:58.008Z</time></trkpt><trkpt lat="45.5520285" lon="8.3537716"><ele>228.25</ele><time>2026-05-02T09:23:59.001Z</time></trkpt><trkpt lat="45.5521254" lon="8.3539364"><ele>228.5</ele><time>2026-05-02T09:23:59.993Z</time></trkpt><trkpt lat="45.5522208" lon="8.3540959"><ele>228.75</ele><time>2026-05-02T09:24:00.999Z</time></trkpt><trkpt lat="45.5523169" lon="8.3542523"><ele>229.0</ele><time>2026-05-02T09:24:01.994Z</time></trkpt><trkpt lat="45.5524149" lon="8.3544104"><ele>229.0</ele><time>2026-05-02T09:24:02.989Z</time></trkpt><trkpt lat="45.552512" lon="8.3545653"><ele>229.0</ele><time>2026-05-02T09:24:03.99Z</time></trkpt><trkpt lat="45.552607" lon="8.3547234"><ele>229.0</ele><time>2026-05-02T09:24:04.996Z</time></trkpt><trkpt lat="45.5527046" lon="8.3548773"><ele>229.0</ele><time>2026-05-02T09:24:05.997Z</time></trkpt><trkpt lat="45.5528075" lon="8.355027"><ele>229.33333333333331</ele><time>2026-05-02T09:24:06.993Z</time></trkpt><trkpt lat="45.5529101" lon="8.3551707"><ele>229.66666666666669</ele><time>2026-05-02T09:24:07.99Z</time></trkpt><trkpt lat="45.5530121" lon="8.3553107"><ele>230.0</ele><time>2026-05-02T09:24:09.001Z</time></trkpt><trkpt lat="45.5532133" lon="8.3555883"><ele>230.0</ele><time>2026-05-02T09:24:10.999Z</time></trkpt><trkpt lat="45.5533101" lon="8.3557281"><ele>230.0</ele><time>2026-05-02T09:24:11.997Z</time></trkpt><trkpt lat="45.5534082" lon="8.3558655"><ele>230.0</ele><time>2026-05-02T09:24:12.997Z</time></trkpt><trkpt lat="45.5535061" lon="8.3560001"><ele>230.0</ele><time>2026-05-02T09:24:13.988Z</time></trkpt><trkpt lat="45.5536018" lon="8.3561369"><ele>230.0</ele><time>2026-05-02T09:24:15.001Z</time></trkpt><trkpt lat="45.5536968" lon="8.3562733"><ele>230.0</ele><time>2026-05-02T09:24:16.004Z</time></trkpt><trkpt lat="45.5537919" lon="8.3564079"><ele>230.0</ele><time>2026-05-02T09:24:16.993Z</time></trkpt><trkpt lat="45.5538853" lon="8.3565434"><ele>230.0</ele><time>2026-05-02T09:24:17.989Z</time></trkpt><trkpt lat="45.5539785" lon="8.3566769"><ele>230.0</ele><time>2026-05-02T09:24:18.998Z</time></trkpt><trkpt lat="45.5540686" lon="8.3568111"><ele>230.0</ele><time>2026-05-02T09:24:19.991Z</time></trkpt><trkpt lat="45.554154" lon="8.356944"><ele>230.0</ele><time>2026-05-02T09:24:21.002Z</time></trkpt><trkpt lat="45.5542374" lon="8.3570811"><ele>230.0</ele><time>2026-05-02T09:24:21.999Z</time></trkpt><trkpt lat="45.55432" lon="8.3572181"><ele>229.5</ele><time>2026-05-02T09:24:22.991Z</time></trkpt><trkpt lat="45.5544023" lon="8.3573583"><ele>229.0</ele><time>2026-05-02T09:24:24.002Z</time></trkpt><trkpt lat="45.5544869" lon="8.3574976"><ele>228.5</ele><time>2026-05-02T09:24:24.989Z</time></trkpt><trkpt lat="45.554569" lon="8.3576413"><ele>228.0</ele><time>2026-05-02T09:24:25.994Z</time></trkpt><trkpt lat="45.5546505" lon="8.357785"><ele>228.0</ele><time>2026-05-02T09:24:27.001Z</time></trkpt><trkpt lat="45.5547305" lon="8.3579265"><ele>228.0</ele><time>2026-05-02T09:24:27.991Z</time></trkpt><trkpt lat="45.5548087" lon="8.3580698"><ele>228.0</ele><time>2026-05-02T09:24:28.994Z</time></trkpt><trkpt lat="45.5548841" lon="8.3582151"><ele>228.0</ele><time>2026-05-02T09:24:30.006Z</time></trkpt><trkpt lat="45.5550127" lon="8.3585304"><ele>228.0</ele><time>2026-05-02T09:24:31.994Z</time></trkpt><trkpt lat="45.5550691" lon="8.358699"><ele>228.0</ele><time>2026-05-02T09:24:32.997Z</time></trkpt><trkpt lat="45.5551213" lon="8.3588708"><ele>228.0</ele><time>2026-05-02T09:24:33.999Z</time></trkpt><trkpt lat="45.5551675" lon="8.3590414"><ele>228.0</ele><time>2026-05-02T09:24:34.989Z</time></trkpt><trkpt lat="45.5552092" lon="8.3592164"><ele>228.0</ele><time>2026-05-02T09:24:35.996Z</time></trkpt><trkpt lat="45.5552519" lon="8.3593898"><ele>228.0</ele><time>2026-05-02T09:24:36.992Z</time></trkpt><trkpt lat="45.5552936" lon="8.3595643"><ele>228.0</ele><time>2026-05-02T09:24:37.994Z</time></trkpt><trkpt lat="45.5553235" lon="8.3597384"><ele>228.0</ele><time>2026-05-02T09:24:38.998Z</time></trkpt><trkpt lat="45.5553373" lon="8.3599133"><ele>228.0</ele><time>2026-05-02T09:24:39.997Z</time></trkpt><trkpt lat="45.5553276" lon="8.3600931"><ele>228.0</ele><time>2026-05-02T09:24:40.998Z</time></trkpt><trkpt lat="45.5553033" lon="8.3602768"><ele>228.0</ele><time>2026-05-02T09:24:42.002Z</time></trkpt><trkpt lat="45.5552608" lon="8.3604466"><ele>228.0</ele><time>2026-05-02T09:24:42.993Z</time></trkpt><trkpt lat="45.5551944" lon="8.3605939"><ele>228.0</ele><time>2026-05-02T09:24:43.993Z</time></trkpt><trkpt lat="45.5551109" lon="8.3607348"><ele>228.0</ele><time>2026-05-02T09:24:44.993Z</time></trkpt><trkpt lat="45.5550391" lon="8.3608909"><ele>228.0</ele><time>2026-05-02T09:24:46.001Z</time></trkpt><trkpt lat="45.5549846" lon="8.3610609"><ele>228.0</ele><time>2026-05-02T09:24:46.995Z</time></trkpt><trkpt lat="45.5549425" lon="8.3612305"><ele>227.75</ele><time>2026-05-02T09:24:48.008Z</time></trkpt><trkpt lat="45.5549068" lon="8.3613936"><ele>227.5</ele><time>2026-05-02T09:24:48.999Z</time></trkpt><trkpt lat="45.5548778" lon="8.3615502"><ele>227.25</ele><time>2026-05-02T09:24:49.988Z</time></trkpt><trkpt lat="45.5548533" lon="8.3617019"><ele>227.0</ele><time>2026-05-02T09:24:50.996Z</time></trkpt><trkpt lat="45.554809" lon="8.3620081"><ele>227.0</ele><time>2026-05-02T09:24:52.984Z</time></trkpt><trkpt lat="45.5547851" lon="8.3621667"><ele>227.0</ele><time>2026-05-02T09:24:53.983Z</time></trkpt><trkpt lat="45.5547622" lon="8.3623301"><ele>227.0</ele><time>2026-05-02T09:24:54.986Z</time></trkpt><trkpt lat="45.5547351" lon="8.3624935"><ele>227.0</ele><time>2026-05-02T09:24:55.995Z</time></trkpt><trkpt lat="45.5547122" lon="8.3626555"><ele>227.0</ele><time>2026-05-02T09:24:56.994Z</time></trkpt><trkpt lat="45.5546883" lon="8.3628139"><ele>227.0</ele><time>2026-05-02T09:24:57.996Z</time></trkpt><trkpt lat="45.5546743" lon="8.3629676"><ele>227.0</ele><time>2026-05-02T09:24:58.997Z</time></trkpt><trkpt lat="45.554665" lon="8.3631174"><ele>227.0</ele><time>2026-05-02T09:24:59.992Z</time></trkpt><trkpt lat="45.554656" lon="8.3632651"><ele>227.0</ele><time>2026-05-02T09:25:00.993Z</time></trkpt><trkpt lat="45.5546555" lon="8.363412"><ele>227.0</ele><time>2026-05-02T09:25:01.994Z</time></trkpt><trkpt lat="45.5546596" lon="8.36356"><ele>227.0</ele><time>2026-05-02T09:25:03Z</time></trkpt><trkpt lat="45.5546647" lon="8.3637171"><ele>227.0</ele><time>2026-05-02T09:25:03.991Z</time></trkpt><trkpt lat="45.5546701" lon="8.3638814"><ele>227.0</ele><time>2026-05-02T09:25:05.001Z</time></trkpt><trkpt lat="45.554677" lon="8.3640557"><ele>227.0</ele><time>2026-05-02T09:25:05.999Z</time></trkpt><trkpt lat="45.5546851" lon="8.3642391"><ele>227.0</ele><time>2026-05-02T09:25:06.992Z</time></trkpt><trkpt lat="45.5546924" lon="8.3644217"><ele>227.0</ele><time>2026-05-02T09:25:07.99Z</time></trkpt><trkpt lat="45.5546985" lon="8.3646055"><ele>227.0</ele><time>2026-05-02T09:25:08.998Z</time></trkpt><trkpt lat="45.5547068" lon="8.3647885"><ele>227.0</ele><time>2026-05-02T09:25:09.999Z</time></trkpt><trkpt lat="45.55472" lon="8.3649713"><ele>227.0</ele><time>2026-05-02T09:25:10.994Z</time></trkpt><trkpt lat="45.5547347" lon="8.365153"><ele>227.0</ele><time>2026-05-02T09:25:11.986Z</time></trkpt><trkpt lat="45.5547778" lon="8.3655215"><ele>227.5</ele><time>2026-05-02T09:25:13.997Z</time></trkpt><trkpt lat="45.5548019" lon="8.365705"><ele>228.0</ele><time>2026-05-02T09:25:14.996Z</time></trkpt><trkpt lat="45.5548264" lon="8.365887"><ele>228.5</ele><time>2026-05-02T09:25:15.999Z</time></trkpt><trkpt lat="45.5548529" lon="8.3660667"><ele>229.0</ele><time>2026-05-02T09:25:16.99Z</time></trkpt><trkpt lat="45.5548779" lon="8.3662472"><ele>228.5</ele><time>2026-05-02T09:25:17.996Z</time></trkpt><trkpt lat="45.5549032" lon="8.3664283"><ele>228.0</ele><time>2026-05-02T09:25:18.996Z</time></trkpt><trkpt lat="45.5549282" lon="8.3666073"><ele>227.5</ele><time>2026-05-02T09:25:19.998Z</time></trkpt><trkpt lat="45.5549532" lon="8.3667837"><ele>227.0</ele><time>2026-05-02T09:25:20.997Z</time></trkpt><trkpt lat="45.5549751" lon="8.3669591"><ele>227.0</ele><time>2026-05-02T09:25:21.992Z</time></trkpt><trkpt lat="45.5549984" lon="8.3671337"><ele>227.0</ele><time>2026-05-02T09:25:22.996Z</time></trkpt><trkpt lat="45.5550203" lon="8.3673069"><ele>227.0</ele><time>2026-05-02T09:25:23.993Z</time></trkpt><trkpt lat="45.5550358" lon="8.3674847"><ele>227.0</ele><time>2026-05-02T09:25:24.993Z</time></trkpt><trkpt lat="45.5550459" lon="8.3676633"><ele>226.5</ele><time>2026-05-02T09:25:25.997Z</time></trkpt><trkpt lat="45.5550493" lon="8.3678432"><ele>226.0</ele><time>2026-05-02T09:25:26.99Z</time></trkpt><trkpt lat="45.5550524" lon="8.368025"><ele>225.5</ele><time>2026-05-02T09:25:27.999Z</time></trkpt><trkpt lat="45.5550525" lon="8.3682051"><ele>225.0</ele><time>2026-05-02T09:25:28.994Z</time></trkpt><trkpt lat="45.5550568" lon="8.3683867"><ele>224.25</ele><time>2026-05-02T09:25:29.998Z</time></trkpt><trkpt lat="45.5550668" lon="8.3685663"><ele>223.5</ele><time>2026-05-02T09:25:30.992Z</time></trkpt><trkpt lat="45.5550815" lon="8.3687496"><ele>222.75</ele><time>2026-05-02T09:25:31.994Z</time></trkpt><trkpt lat="45.5550968" lon="8.3689394"><ele>222.0</ele><time>2026-05-02T09:25:33Z</time></trkpt><trkpt lat="45.5551268" lon="8.3693504"><ele>222.0</ele><time>2026-05-02T09:25:34.997Z</time></trkpt><trkpt lat="45.5551436" lon="8.369575"><ele>222.0</ele><time>2026-05-02T09:25:35.989Z</time></trkpt><trkpt lat="45.5551615" lon="8.3698095"><ele>222.0</ele><time>2026-05-02T09:25:36.995Z</time></trkpt><trkpt lat="45.5551803" lon="8.3700465"><ele>221.33333333333331</ele><time>2026-05-02T09:25:37.997Z</time></trkpt><trkpt lat="45.5552034" lon="8.370291"><ele>220.66666666666666</ele><time>2026-05-02T09:25:38.991Z</time></trkpt><trkpt lat="45.5552297" lon="8.3705413"><ele>220.0</ele><time>2026-05-02T09:25:39.99Z</time></trkpt><trkpt lat="45.555263" lon="8.3707995"><ele>220.0</ele><time>2026-05-02T09:25:40.995Z</time></trkpt><trkpt lat="45.5552979" lon="8.3710674"><ele>220.0</ele><time>2026-05-02T09:25:42Z</time></trkpt><trkpt lat="45.5553397" lon="8.3713452"><ele>220.0</ele><time>2026-05-02T09:25:42.997Z</time></trkpt><trkpt lat="45.555383" lon="8.3716366"><ele>220.0</ele><time>2026-05-02T09:25:43.994Z</time></trkpt><trkpt lat="45.555424" lon="8.3719481"><ele>220.0</ele><time>2026-05-02T09:25:45.001Z</time></trkpt><trkpt lat="45.5554569" lon="8.3722708"><ele>219.66666666666666</ele><time>2026-05-02T09:25:45.994Z</time></trkpt><trkpt lat="45.5554804" lon="8.3725792"><ele>219.33333333333331</ele><time>2026-05-02T09:25:46.991Z</time></trkpt><trkpt lat="45.5554967" lon="8.3728682"><ele>219.0</ele><time>2026-05-02T09:25:47.994Z</time></trkpt><trkpt lat="45.5555078" lon="8.3731415"><ele>219.0</ele><time>2026-05-02T09:25:48.998Z</time></trkpt><trkpt lat="45.555514" lon="8.3733984"><ele>219.0</ele><time>2026-05-02T09:25:49.999Z</time></trkpt><trkpt lat="45.5555219" lon="8.3736401"><ele>219.0</ele><time>2026-05-02T09:25:51.001Z</time></trkpt><trkpt lat="45.5555273" lon="8.3738684"><ele>219.0</ele><time>2026-05-02T09:25:51.997Z</time></trkpt><trkpt lat="45.5555351" lon="8.3740833"><ele>219.0</ele><time>2026-05-02T09:25:53Z</time></trkpt><trkpt lat="45.5555436" lon="8.3742875"><ele>219.0</ele><time>2026-05-02T09:25:53.994Z</time></trkpt><trkpt lat="45.5555603" lon="8.3746929"><ele>219.0</ele><time>2026-05-02T09:25:55.993Z</time></trkpt><trkpt lat="45.5555715" lon="8.3749013"><ele>219.0</ele><time>2026-05-02T09:25:57.003Z</time></trkpt><trkpt lat="45.5555817" lon="8.3751148"><ele>219.0</ele><time>2026-05-02T09:25:57.998Z</time></trkpt><trkpt lat="45.5555918" lon="8.3753284"><ele>219.0</ele><time>2026-05-02T09:25:58.982Z</time></trkpt><trkpt lat="45.5556004" lon="8.3755366"><ele>219.25</ele><time>2026-05-02T09:26:00.002Z</time></trkpt><trkpt lat="45.5556115" lon="8.3757358"><ele>219.5</ele><time>2026-05-02T09:26:00.997Z</time></trkpt><trkpt lat="45.555622" lon="8.375932"><ele>219.75</ele><time>2026-05-02T09:26:01.995Z</time></trkpt><trkpt lat="45.5556334" lon="8.376122"><ele>220.0</ele><time>2026-05-02T09:26:03.002Z</time></trkpt><trkpt lat="45.555645" lon="8.3763083"><ele>220.0</ele><time>2026-05-02T09:26:03.99Z</time></trkpt><trkpt lat="45.5556524" lon="8.3764917"><ele>220.0</ele><time>2026-05-02T09:26:04.988Z</time></trkpt><trkpt lat="45.555656" lon="8.3766783"><ele>220.0</ele><time>2026-05-02T09:26:06.001Z</time></trkpt><trkpt lat="45.5556608" lon="8.3768631"><ele>220.0</ele><time>2026-05-02T09:26:06.997Z</time></trkpt><trkpt lat="45.5556685" lon="8.3770483"><ele>220.5</ele><time>2026-05-02T09:26:07.988Z</time></trkpt><trkpt lat="45.5556754" lon="8.3772261"><ele>221.0</ele><time>2026-05-02T09:26:08.996Z</time></trkpt><trkpt lat="45.5556834" lon="8.3773916"><ele>221.5</ele><time>2026-05-02T09:26:10.005Z</time></trkpt><trkpt lat="45.5556902" lon="8.3775474"><ele>222.0</ele><time>2026-05-02T09:26:10.988Z</time></trkpt><trkpt lat="45.5556999" lon="8.377693"><ele>222.0</ele><time>2026-05-02T09:26:11.994Z</time></trkpt><trkpt lat="45.5557086" lon="8.3778261"><ele>222.0</ele><time>2026-05-02T09:26:12.997Z</time></trkpt><trkpt lat="45.5557172" lon="8.3779496"><ele>222.0</ele><time>2026-05-02T09:26:13.998Z</time></trkpt><trkpt lat="45.5557264" lon="8.3780648"><ele>222.0</ele><time>2026-05-02T09:26:14.996Z</time></trkpt><trkpt lat="45.5557324" lon="8.3782671"><ele>222.0</ele><time>2026-05-02T09:26:16.995Z</time></trkpt><trkpt lat="45.5557268" lon="8.3783673"><ele>221.5</ele><time>2026-05-02T09:26:18.001Z</time></trkpt><trkpt lat="45.5557233" lon="8.3785097"><ele>221.0</ele><time>2026-05-02T09:26:19.987Z</time></trkpt><trkpt lat="45.5557316" lon="8.3786594"><ele>220.5</ele><time>2026-05-02T09:27:23.998Z</time></trkpt><trkpt lat="45.5557673" lon="8.3788758"><ele>220.0</ele><time>2026-05-02T09:27:25.995Z</time></trkpt><trkpt lat="45.5557907" lon="8.379005"><ele>220.0</ele><time>2026-05-02T09:27:27Z</time></trkpt><trkpt lat="45.5558059" lon="8.3791481"><ele>220.0</ele><time>2026-05-02T09:27:27.992Z</time></trkpt><trkpt lat="45.5558155" lon="8.3792961"><ele>220.0</ele><time>2026-05-02T09:27:29.001Z</time></trkpt><trkpt lat="45.5558218" lon="8.3794426"><ele>220.0</ele><time>2026-05-02T09:27:29.989Z</time></trkpt><trkpt lat="45.5558268" lon="8.3795926"><ele>220.0</ele><time>2026-05-02T09:27:30.994Z</time></trkpt><trkpt lat="45.5558318" lon="8.3797446"><ele>220.2</ele><time>2026-05-02T09:27:31.999Z</time></trkpt><trkpt lat="45.5558384" lon="8.3798961"><ele>220.4</ele><time>2026-05-02T09:27:32.991Z</time></trkpt><trkpt lat="45.5558463" lon="8.3800464"><ele>220.60000000000002</ele><time>2026-05-02T09:27:33.987Z</time></trkpt><trkpt lat="45.5558533" lon="8.3801951"><ele>220.8</ele><time>2026-05-02T09:27:34.998Z</time></trkpt><trkpt lat="45.5558601" lon="8.3803444"><ele>221.0</ele><time>2026-05-02T09:27:35.994Z</time></trkpt><trkpt lat="45.5558665" lon="8.3804944"><ele>220.8</ele><time>2026-05-02T09:27:36.985Z</time></trkpt><trkpt lat="45.5558734" lon="8.3806469"><ele>220.60000000000002</ele><time>2026-05-02T09:27:37.995Z</time></trkpt><trkpt lat="45.5558756" lon="8.3807951"><ele>220.4</ele><time>2026-05-02T09:27:38.991Z</time></trkpt><trkpt lat="45.5558782" lon="8.3809466"><ele>220.2</ele><time>2026-05-02T09:27:39.995Z</time></trkpt><trkpt lat="45.55588" lon="8.3811"><ele>220.0</ele><time>2026-05-02T09:27:40.999Z</time></trkpt><trkpt lat="45.5558851" lon="8.3812534"><ele>220.0</ele><time>2026-05-02T09:27:41.994Z</time></trkpt><trkpt lat="45.5558904" lon="8.3814143"><ele>220.0</ele><time>2026-05-02T09:27:42.994Z</time></trkpt><trkpt lat="45.5558952" lon="8.3815812"><ele>220.0</ele><time>2026-05-02T09:27:43.997Z</time></trkpt><trkpt lat="45.5559016" lon="8.381745"><ele>220.0</ele><time>2026-05-02T09:27:44.994Z</time></trkpt><trkpt lat="45.5559085" lon="8.382067"><ele>220.4</ele><time>2026-05-02T09:27:46.989Z</time></trkpt><trkpt lat="45.5559163" lon="8.382225"><ele>220.8</ele><time>2026-05-02T09:27:47.994Z</time></trkpt><trkpt lat="45.5559237" lon="8.3823832"><ele>221.2</ele><time>2026-05-02T09:27:48.99Z</time></trkpt><trkpt lat="45.5559305" lon="8.382543"><ele>221.6</ele><time>2026-05-02T09:27:49.992Z</time></trkpt><trkpt lat="45.5559386" lon="8.3827016"><ele>222.0</ele><time>2026-05-02T09:27:50.994Z</time></trkpt><trkpt lat="45.5559455" lon="8.3828567"><ele>222.0</ele><time>2026-05-02T09:27:51.988Z</time></trkpt><trkpt lat="45.5559535" lon="8.3830057"><ele>222.0</ele><time>2026-05-02T09:27:52.995Z</time></trkpt><trkpt lat="45.5559646" lon="8.3831519"><ele>222.0</ele><time>2026-05-02T09:27:53.996Z</time></trkpt><trkpt lat="45.5559711" lon="8.383291"><ele>222.0</ele><time>2026-05-02T09:27:54.996Z</time></trkpt><trkpt lat="45.5559769" lon="8.3834164"><ele>222.0</ele><time>2026-05-02T09:27:55.991Z</time></trkpt><trkpt lat="45.5559804" lon="8.3835358"><ele>222.0</ele><time>2026-05-02T09:27:56.992Z</time></trkpt><trkpt lat="45.5559893" lon="8.3836585"><ele>222.0</ele><time>2026-05-02T09:27:57.995Z</time></trkpt><trkpt lat="45.5560023" lon="8.3837847"><ele>222.0</ele><time>2026-05-02T09:27:59Z</time></trkpt><trkpt lat="45.556013" lon="8.3839087"><ele>222.0</ele><time>2026-05-02T09:27:59.986Z</time></trkpt><trkpt lat="45.5560246" lon="8.3840219"><ele>222.0</ele><time>2026-05-02T09:28:00.998Z</time></trkpt><trkpt lat="45.5560393" lon="8.3841201"><ele>222.0</ele><time>2026-05-02T09:28:02.001Z</time></trkpt><trkpt lat="45.5560536" lon="8.3842402"><ele>222.5</ele><time>2026-05-02T09:28:03.989Z</time></trkpt><trkpt lat="45.5561193" lon="8.3843102"><ele>223.0</ele><time>2026-05-02T09:28:11.996Z</time></trkpt><trkpt lat="45.5563334" lon="8.3842463"><ele>223.5</ele><time>2026-05-02T09:28:15.996Z</time></trkpt><trkpt lat="45.5564303" lon="8.3842483"><ele>224.0</ele><time>2026-05-02T09:28:17.986Z</time></trkpt><trkpt lat="45.5565047" lon="8.3842581"><ele>224.0</ele><time>2026-05-02T09:28:19.991Z</time></trkpt><trkpt lat="45.5565955" lon="8.3842698"><ele>223.99999999999997</ele><time>2026-05-02T09:28:34.994Z</time></trkpt><trkpt lat="45.5567789" lon="8.3842874"><ele>223.99999999999997</ele><time>2026-05-02T09:28:38Z</time></trkpt><trkpt lat="45.556855" lon="8.3842913"><ele>224.0</ele><time>2026-05-02T09:28:38.995Z</time></trkpt><trkpt lat="45.5569308" lon="8.3842983"><ele>224.0</ele><time>2026-05-02T09:28:39.986Z</time></trkpt><trkpt lat="45.5570107" lon="8.3843076"><ele>223.83333333333334</ele><time>2026-05-02T09:28:40.993Z</time></trkpt><trkpt lat="45.5570908" lon="8.3843165"><ele>223.66666666666669</ele><time>2026-05-02T09:28:41.988Z</time></trkpt><trkpt lat="45.5571726" lon="8.3843294"><ele>223.5</ele><time>2026-05-02T09:28:42.995Z</time></trkpt><trkpt lat="45.5572499" lon="8.3843291"><ele>223.33333333333331</ele><time>2026-05-02T09:28:44Z</time></trkpt><trkpt lat="45.5573277" lon="8.384338"><ele>223.16666666666666</ele><time>2026-05-02T09:28:45.002Z</time></trkpt><trkpt lat="45.557409" lon="8.3843453"><ele>223.0</ele><time>2026-05-02T09:28:46.003Z</time></trkpt><trkpt lat="45.5574921" lon="8.3843402"><ele>222.99999999999997</ele><time>2026-05-02T09:28:46.992Z</time></trkpt><trkpt lat="45.5575791" lon="8.38433"><ele>223.0</ele><time>2026-05-02T09:28:47.999Z</time></trkpt><trkpt lat="45.5576661" lon="8.3843196"><ele>223.0</ele><time>2026-05-02T09:28:48.982Z</time></trkpt><trkpt lat="45.5577522" lon="8.3843143"><ele>223.0</ele><time>2026-05-02T09:28:49.995Z</time></trkpt><trkpt lat="45.5578279" lon="8.384318"><ele>222.99999999999997</ele><time>2026-05-02T09:28:50.995Z</time></trkpt><trkpt lat="45.5579085" lon="8.3843238"><ele>223.0</ele><time>2026-05-02T09:28:52.992Z</time></trkpt><trkpt lat="45.5579812" lon="8.3843044"><ele>223.0</ele><time>2026-05-02T09:29:44.991Z</time></trkpt><trkpt lat="45.5581678" lon="8.3842648"><ele>223.0</ele><time>2026-05-02T09:29:48.985Z</time></trkpt><trkpt lat="45.5582348" lon="8.3842583"><ele>223.0</ele><time>2026-05-02T09:29:49.987Z</time></trkpt><trkpt lat="45.5583153" lon="8.3842528"><ele>223.0</ele><time>2026-05-02T09:29:50.992Z</time></trkpt><trkpt lat="45.558404" lon="8.3842406"><ele>223.0</ele><time>2026-05-02T09:29:51.992Z</time></trkpt><trkpt lat="45.5584981" lon="8.3842315"><ele>223.0</ele><time>2026-05-02T09:29:52.991Z</time></trkpt><trkpt lat="45.5585966" lon="8.3842263"><ele>223.0</ele><time>2026-05-02T09:29:53.995Z</time></trkpt><trkpt lat="45.5586955" lon="8.3842214"><ele>223.0</ele><time>2026-05-02T09:29:54.996Z</time></trkpt><trkpt lat="45.5587962" lon="8.3842123"><ele>223.0</ele><time>2026-05-02T09:29:55.99Z</time></trkpt><trkpt lat="45.558904" lon="8.384202"><ele>223.0</ele><time>2026-05-02T09:29:56.987Z</time></trkpt><trkpt lat="45.5590175" lon="8.3841928"><ele>223.0</ele><time>2026-05-02T09:29:57.997Z</time></trkpt><trkpt lat="45.5591324" lon="8.3841841"><ele>223.0</ele><time>2026-05-02T09:29:58.994Z</time></trkpt><trkpt lat="45.5592437" lon="8.384177"><ele>223.0</ele><time>2026-05-02T09:29:59.991Z</time></trkpt><trkpt lat="45.5593542" lon="8.3841708"><ele>223.0</ele><time>2026-05-02T09:30:01.002Z</time></trkpt><trkpt lat="45.5594642" lon="8.3841654"><ele>223.0</ele><time>2026-05-02T09:30:02Z</time></trkpt><trkpt lat="45.5595761" lon="8.3841564"><ele>223.0</ele><time>2026-05-02T09:30:02.991Z</time></trkpt><trkpt lat="45.5596984" lon="8.3841479"><ele>223.0</ele><time>2026-05-02T09:30:03.994Z</time></trkpt><trkpt lat="45.5598319" lon="8.3841388"><ele>223.0</ele><time>2026-05-02T09:30:04.984Z</time></trkpt><trkpt lat="45.5599786" lon="8.3841276"><ele>223.0</ele><time>2026-05-02T09:30:05.996Z</time></trkpt><trkpt lat="45.5603032" lon="8.3840972"><ele>223.33333333333331</ele><time>2026-05-02T09:30:08.001Z</time></trkpt><trkpt lat="45.5604847" lon="8.3840755"><ele>223.66666666666669</ele><time>2026-05-02T09:30:08.989Z</time></trkpt><trkpt lat="45.5606716" lon="8.3840496"><ele>224.0</ele><time>2026-05-02T09:30:10Z</time></trkpt><trkpt lat="45.5608472" lon="8.384024"><ele>224.0</ele><time>2026-05-02T09:30:10.999Z</time></trkpt><trkpt lat="45.5610095" lon="8.3839967"><ele>224.0</ele><time>2026-05-02T09:30:11.994Z</time></trkpt><trkpt lat="45.5611566" lon="8.3839696"><ele>224.0</ele><time>2026-05-02T09:30:12.999Z</time></trkpt><trkpt lat="45.5612857" lon="8.3839384"><ele>224.0</ele><time>2026-05-02T09:30:13.996Z</time></trkpt><trkpt lat="45.561398" lon="8.3839046"><ele>224.39999999999998</ele><time>2026-05-02T09:30:14.996Z</time></trkpt><trkpt lat="45.5615018" lon="8.3838708"><ele>224.79999999999998</ele><time>2026-05-02T09:30:15.997Z</time></trkpt><trkpt lat="45.5616021" lon="8.3838375"><ele>225.20000000000002</ele><time>2026-05-02T09:30:16.995Z</time></trkpt><trkpt lat="45.5617054" lon="8.3837996"><ele>225.60000000000002</ele><time>2026-05-02T09:30:17.998Z</time></trkpt><trkpt lat="45.5618099" lon="8.3837568"><ele>226.0</ele><time>2026-05-02T09:30:19Z</time></trkpt><trkpt lat="45.5619171" lon="8.3837144"><ele>226.0</ele><time>2026-05-02T09:30:19.988Z</time></trkpt><trkpt lat="45.562026" lon="8.3836701"><ele>226.0</ele><time>2026-05-02T09:30:20.991Z</time></trkpt><trkpt lat="45.5621364" lon="8.383625"><ele>226.0</ele><time>2026-05-02T09:30:21.999Z</time></trkpt><trkpt lat="45.5622466" lon="8.3835812"><ele>226.0</ele><time>2026-05-02T09:30:22.997Z</time></trkpt><trkpt lat="45.562355" lon="8.383538"><ele>225.5</ele><time>2026-05-02T09:30:23.98Z</time></trkpt><trkpt lat="45.5624579" lon="8.3834952"><ele>225.0</ele><time>2026-05-02T09:30:24.997Z</time></trkpt><trkpt lat="45.5625539" lon="8.3834549"><ele>224.5</ele><time>2026-05-02T09:30:25.998Z</time></trkpt><trkpt lat="45.5626484" lon="8.3834166"><ele>224.0</ele><time>2026-05-02T09:30:26.989Z</time></trkpt><trkpt lat="45.5628208" lon="8.3833321"><ele>224.39999999999998</ele><time>2026-05-02T09:30:28.996Z</time></trkpt><trkpt lat="45.5629007" lon="8.383294"><ele>224.79999999999998</ele><time>2026-05-02T09:30:29.995Z</time></trkpt><trkpt lat="45.5629681" lon="8.3832683"><ele>225.20000000000002</ele><time>2026-05-02T09:30:30.993Z</time></trkpt><trkpt lat="45.5630741" lon="8.3832267"><ele>225.60000000000002</ele><time>2026-05-02T09:30:32.996Z</time></trkpt><trkpt lat="45.5631728" lon="8.3831711"><ele>226.0</ele><time>2026-05-02T09:30:34.996Z</time></trkpt><trkpt lat="45.5632791" lon="8.3830876"><ele>225.4</ele><time>2026-05-02T09:30:36.983Z</time></trkpt><trkpt lat="45.5633375" lon="8.3829517"><ele>224.8</ele><time>2026-05-02T09:30:38.999Z</time></trkpt><trkpt lat="45.5633378" lon="8.3828405"><ele>224.20000000000002</ele><time>2026-05-02T09:30:40.992Z</time></trkpt><trkpt lat="45.5632667" lon="8.3827652"><ele>223.60000000000002</ele><time>2026-05-02T09:30:53.982Z</time></trkpt><trkpt lat="45.563128" lon="8.3826833"><ele>223.0</ele><time>2026-05-02T09:30:55.993Z</time></trkpt><trkpt lat="45.5630262" lon="8.382655"><ele>223.0</ele><time>2026-05-02T09:30:56.996Z</time></trkpt><trkpt lat="45.5629125" lon="8.3826293"><ele>223.0</ele><time>2026-05-02T09:30:57.993Z</time></trkpt><trkpt lat="45.5627898" lon="8.3825935"><ele>223.0</ele><time>2026-05-02T09:30:59.001Z</time></trkpt><trkpt lat="45.5626589" lon="8.3825517"><ele>223.0</ele><time>2026-05-02T09:30:59.986Z</time></trkpt><trkpt lat="45.5625251" lon="8.3825045"><ele>223.25</ele><time>2026-05-02T09:31:00.997Z</time></trkpt><trkpt lat="45.5623936" lon="8.3824513"><ele>223.5</ele><time>2026-05-02T09:31:01.996Z</time></trkpt><trkpt lat="45.5622607" lon="8.3823913"><ele>223.75</ele><time>2026-05-02T09:31:02.993Z</time></trkpt><trkpt lat="45.562127" lon="8.382323"><ele>224.0</ele><time>2026-05-02T09:31:03.992Z</time></trkpt><trkpt lat="45.5619981" lon="8.3822498"><ele>223.75</ele><time>2026-05-02T09:31:04.991Z</time></trkpt><trkpt lat="45.5618726" lon="8.3821717"><ele>223.5</ele><time>2026-05-02T09:31:05.994Z</time></trkpt><trkpt lat="45.5617507" lon="8.3820887"><ele>223.25</ele><time>2026-05-02T09:31:06.994Z</time></trkpt><trkpt lat="45.5616307" lon="8.3820031"><ele>223.0</ele><time>2026-05-02T09:31:07.993Z</time></trkpt><trkpt lat="45.5615112" lon="8.3819144"><ele>223.0</ele><time>2026-05-02T09:31:08.991Z</time></trkpt><trkpt lat="45.5613966" lon="8.3818218"><ele>223.0</ele><time>2026-05-02T09:31:09.991Z</time></trkpt><trkpt lat="45.5612861" lon="8.3817287"><ele>223.0</ele><time>2026-05-02T09:31:10.999Z</time></trkpt><trkpt lat="45.5611814" lon="8.3816371"><ele>223.0</ele><time>2026-05-02T09:31:11.997Z</time></trkpt><trkpt lat="45.5610814" lon="8.3815449"><ele>223.33333333333331</ele><time>2026-05-02T09:31:12.997Z</time></trkpt><trkpt lat="45.5609821" lon="8.3814489"><ele>223.66666666666669</ele><time>2026-05-02T09:31:13.998Z</time></trkpt><trkpt lat="45.56088" lon="8.3813522"><ele>224.0</ele><time>2026-05-02T09:31:14.989Z</time></trkpt><trkpt lat="45.5606669" lon="8.381152"><ele>224.0</ele><time>2026-05-02T09:31:16.996Z</time></trkpt><trkpt lat="45.5605598" lon="8.3810518"><ele>224.0</ele><time>2026-05-02T09:31:17.996Z</time></trkpt><trkpt lat="45.560452" lon="8.3809519"><ele>224.0</ele><time>2026-05-02T09:31:18.991Z</time></trkpt><trkpt lat="45.5603474" lon="8.3808528"><ele>224.0</ele><time>2026-05-02T09:31:19.997Z</time></trkpt><trkpt lat="45.560243" lon="8.3807531"><ele>223.5</ele><time>2026-05-02T09:31:20.991Z</time></trkpt><trkpt lat="45.5601349" lon="8.3806474"><ele>223.0</ele><time>2026-05-02T09:31:21.997Z</time></trkpt><trkpt lat="45.5600255" lon="8.3805409"><ele>222.5</ele><time>2026-05-02T09:31:22.991Z</time></trkpt><trkpt lat="45.5599139" lon="8.3804352"><ele>222.0</ele><time>2026-05-02T09:31:23.991Z</time></trkpt><trkpt lat="45.5598032" lon="8.3803313"><ele>222.0</ele><time>2026-05-02T09:31:24.994Z</time></trkpt><trkpt lat="45.5596943" lon="8.380229"><ele>222.0</ele><time>2026-05-02T09:31:25.997Z</time></trkpt><trkpt lat="45.5595862" lon="8.3801277"><ele>222.0</ele><time>2026-05-02T09:31:26.991Z</time></trkpt><trkpt lat="45.559475" lon="8.3800219"><ele>222.0</ele><time>2026-05-02T09:31:27.99Z</time></trkpt><trkpt lat="45.5593586" lon="8.3799095"><ele>222.0</ele><time>2026-05-02T09:31:28.995Z</time></trkpt><trkpt lat="45.5592388" lon="8.3797956"><ele>222.0</ele><time>2026-05-02T09:31:29.996Z</time></trkpt><trkpt lat="45.5591198" lon="8.3796822"><ele>222.0</ele><time>2026-05-02T09:31:30.996Z</time></trkpt><trkpt lat="45.5590032" lon="8.3795695"><ele>222.0</ele><time>2026-05-02T09:31:31.986Z</time></trkpt><trkpt lat="45.5588824" lon="8.3794595"><ele>221.75</ele><time>2026-05-02T09:31:32.993Z</time></trkpt><trkpt lat="45.5587577" lon="8.3793487"><ele>221.5</ele><time>2026-05-02T09:31:34Z</time></trkpt><trkpt lat="45.5586323" lon="8.3792407"><ele>221.25</ele><time>2026-05-02T09:31:34.997Z</time></trkpt><trkpt lat="45.5585054" lon="8.3791383"><ele>221.0</ele><time>2026-05-02T09:31:35.995Z</time></trkpt><trkpt lat="45.5582562" lon="8.3789674"><ele>221.66666666666669</ele><time>2026-05-02T09:31:37.997Z</time></trkpt><trkpt lat="45.5581484" lon="8.3789004"><ele>222.33333333333334</ele><time>2026-05-02T09:31:38.995Z</time></trkpt><trkpt lat="45.5580673" lon="8.3788473"><ele>223.0</ele><time>2026-05-02T09:31:39.999Z</time></trkpt><trkpt lat="45.5580122" lon="8.3787998"><ele>223.66666666666669</ele><time>2026-05-02T09:31:40.993Z</time></trkpt><trkpt lat="45.5579727" lon="8.3786931"><ele>224.33333333333334</ele><time>2026-05-02T09:31:43.004Z</time></trkpt><trkpt lat="45.5579855" lon="8.378588"><ele>225.0</ele><time>2026-05-02T09:31:44.99Z</time></trkpt><trkpt lat="45.5580007" lon="8.378497"><ele>225.0</ele><time>2026-05-02T09:31:46.992Z</time></trkpt><trkpt lat="45.5579684" lon="8.3783592"><ele>225.0</ele><time>2026-05-02T09:31:49.988Z</time></trkpt><trkpt lat="45.5579447" lon="8.3782308"><ele>225.0</ele><time>2026-05-02T09:31:51.99Z</time></trkpt><trkpt lat="45.5579268" lon="8.3780986"><ele>225.0</ele><time>2026-05-02T09:31:53.988Z</time></trkpt><trkpt lat="45.557905" lon="8.377972"><ele>225.0</ele><time>2026-05-02T09:31:55.998Z</time></trkpt><trkpt lat="45.5578899" lon="8.377849"><ele>224.8</ele><time>2026-05-02T09:31:57.995Z</time></trkpt><trkpt lat="45.5578701" lon="8.3776515"><ele>224.6</ele><time>2026-05-02T09:32:02.998Z</time></trkpt><trkpt lat="45.5578534" lon="8.3775554"><ele>224.39999999999998</ele><time>2026-05-02T09:32:06.988Z</time></trkpt><trkpt lat="45.5578253" lon="8.3774416"><ele>224.2</ele><time>2026-05-02T09:32:10.989Z</time></trkpt><trkpt lat="45.557776" lon="8.3773273"><ele>224.0</ele><time>2026-05-02T09:32:12.991Z</time></trkpt><trkpt lat="45.5577267" lon="8.3771794"><ele>223.25</ele><time>2026-05-02T09:32:14.992Z</time></trkpt><trkpt lat="45.5576946" lon="8.3770249"><ele>222.5</ele><time>2026-05-02T09:32:16.989Z</time></trkpt><trkpt lat="45.5576663" lon="8.3768524"><ele>221.75</ele><time>2026-05-02T09:32:18.99Z</time></trkpt><trkpt lat="45.5576317" lon="8.3766326"><ele>221.0</ele><time>2026-05-02T09:32:20.99Z</time></trkpt><trkpt lat="45.5576102" lon="8.3764927"><ele>221.16666666666669</ele><time>2026-05-02T09:32:21.999Z</time></trkpt><trkpt lat="45.5575839" lon="8.3763457"><ele>221.33333333333334</ele><time>2026-05-02T09:32:22.991Z</time></trkpt><trkpt lat="45.5575546" lon="8.3762276"><ele>221.5</ele><time>2026-05-02T09:32:23.999Z</time></trkpt><trkpt lat="45.5575083" lon="8.3760959"><ele>221.66666666666669</ele><time>2026-05-02T09:32:25.999Z</time></trkpt><trkpt lat="45.5574665" lon="8.376027"><ele>221.83333333333334</ele><time>2026-05-02T09:32:27.989Z</time></trkpt><trkpt lat="45.5574132" lon="8.3759449"><ele>222.0</ele><time>2026-05-02T09:32:30.997Z</time></trkpt><trkpt lat="45.5573534" lon="8.3758508"><ele>222.0</ele><time>2026-05-02T09:32:33.995Z</time></trkpt><trkpt lat="45.5572921" lon="8.3757699"><ele>222.0</ele><time>2026-05-02T09:32:36.991Z</time></trkpt></trkseg><trkseg><trkpt lat="45.5581256" lon="8.3789551"><ele>226.0</ele><time>2026-05-02T10:03:13.987Z</time></trkpt><trkpt lat="45.5582717" lon="8.3790177"><ele>226.0</ele><time>2026-05-02T10:03:15.975Z</time></trkpt><trkpt lat="45.5584418" lon="8.3791113"><ele>226.0</ele><time>2026-05-02T10:03:17.989Z</time></trkpt><trkpt lat="45.5586474" lon="8.3792593"><ele>224.75</ele><time>2026-05-02T10:03:19.991Z</time></trkpt><trkpt lat="45.5587575" lon="8.3793512"><ele>223.5</ele><time>2026-05-02T10:03:20.982Z</time></trkpt><trkpt lat="45.5588714" lon="8.379456"><ele>222.25</ele><time>2026-05-02T10:03:21.988Z</time></trkpt><trkpt lat="45.5589819" lon="8.3795599"><ele>221.0</ele><time>2026-05-02T10:03:22.993Z</time></trkpt><trkpt lat="45.5590902" lon="8.3796673"><ele>221.25</ele><time>2026-05-02T10:03:23.987Z</time></trkpt><trkpt lat="45.5591939" lon="8.3797686"><ele>221.5</ele><time>2026-05-02T10:03:24.986Z</time></trkpt><trkpt lat="45.5592956" lon="8.3798651"><ele>221.75</ele><time>2026-05-02T10:03:25.994Z</time></trkpt><trkpt lat="45.559397" lon="8.3799699"><ele>222.0</ele><time>2026-05-02T10:03:26.994Z</time></trkpt><trkpt lat="45.5594998" lon="8.3800814"><ele>221.75</ele><time>2026-05-02T10:03:27.982Z</time></trkpt><trkpt lat="45.5596095" lon="8.380185"><ele>221.5</ele><time>2026-05-02T10:03:28.987Z</time></trkpt><trkpt lat="45.5597201" lon="8.3802953"><ele>221.25</ele><time>2026-05-02T10:03:29.995Z</time></trkpt><trkpt lat="45.5598312" lon="8.3804014"><ele>221.0</ele><time>2026-05-02T10:03:30.988Z</time></trkpt><trkpt lat="45.5599463" lon="8.3805122"><ele>221.25</ele><time>2026-05-02T10:03:31.984Z</time></trkpt><trkpt lat="45.5600636" lon="8.3806226"><ele>221.5</ele><time>2026-05-02T10:03:32.989Z</time></trkpt><trkpt lat="45.5601827" lon="8.38073"><ele>221.75</ele><time>2026-05-02T10:03:33.988Z</time></trkpt><trkpt lat="45.5603068" lon="8.3808417"><ele>222.0</ele><time>2026-05-02T10:03:34.986Z</time></trkpt><trkpt lat="45.560428" lon="8.3809546"><ele>222.5</ele><time>2026-05-02T10:03:35.984Z</time></trkpt><trkpt lat="45.5605441" lon="8.3810709"><ele>223.0</ele><time>2026-05-02T10:03:36.992Z</time></trkpt><trkpt lat="45.5606586" lon="8.3811831"><ele>223.5</ele><time>2026-05-02T10:03:37.986Z</time></trkpt><trkpt lat="45.5607737" lon="8.3812917"><ele>224.0</ele><time>2026-05-02T10:03:38.989Z</time></trkpt><trkpt lat="45.5610037" lon="8.3815124"><ele>224.0</ele><time>2026-05-02T10:03:40.988Z</time></trkpt><trkpt lat="45.5611201" lon="8.3816264"><ele>224.0</ele><time>2026-05-02T10:03:41.988Z</time></trkpt><trkpt lat="45.5612312" lon="8.3817294"><ele>224.0</ele><time>2026-05-02T10:03:42.985Z</time></trkpt><trkpt lat="45.561349" lon="8.3818306"><ele>224.0</ele><time>2026-05-02T10:03:43.992Z</time></trkpt><trkpt lat="45.5614735" lon="8.3819335"><ele>224.0</ele><time>2026-05-02T10:03:44.995Z</time></trkpt><trkpt lat="45.5616028" lon="8.3820348"><ele>224.0</ele><time>2026-05-02T10:03:45.993Z</time></trkpt><trkpt lat="45.5617343" lon="8.3821254"><ele>224.0</ele><time>2026-05-02T10:03:46.989Z</time></trkpt><trkpt lat="45.5618693" lon="8.3822056"><ele>224.0</ele><time>2026-05-02T10:03:47.989Z</time></trkpt><trkpt lat="45.5620045" lon="8.3822818"><ele>224.0</ele><time>2026-05-02T10:03:48.99Z</time></trkpt><trkpt lat="45.5621414" lon="8.3823566"><ele>224.0</ele><time>2026-05-02T10:03:49.991Z</time></trkpt><trkpt lat="45.5622769" lon="8.3824254"><ele>224.0</ele><time>2026-05-02T10:03:50.995Z</time></trkpt><trkpt lat="45.5624052" lon="8.3824836"><ele>224.0</ele><time>2026-05-02T10:03:51.995Z</time></trkpt><trkpt lat="45.5625255" lon="8.3825313"><ele>224.0</ele><time>2026-05-02T10:03:52.985Z</time></trkpt><trkpt lat="45.5626375" lon="8.3825694"><ele>223.99999999999997</ele><time>2026-05-02T10:03:53.991Z</time></trkpt><trkpt lat="45.5627437" lon="8.3825989"><ele>223.99999999999997</ele><time>2026-05-02T10:03:54.988Z</time></trkpt><trkpt lat="45.5628425" lon="8.3826208"><ele>224.0</ele><time>2026-05-02T10:03:55.993Z</time></trkpt><trkpt lat="45.5629355" lon="8.382646"><ele>224.0</ele><time>2026-05-02T10:03:56.987Z</time></trkpt><trkpt lat="45.5630162" lon="8.3826848"><ele>223.79999999999998</ele><time>2026-05-02T10:03:57.985Z</time></trkpt><trkpt lat="45.563086" lon="8.3827455"><ele>223.59999999999997</ele><time>2026-05-02T10:03:58.991Z</time></trkpt><trkpt lat="45.5631402" lon="8.3828209"><ele>223.4</ele><time>2026-05-02T10:03:59.994Z</time></trkpt><trkpt lat="45.5631592" lon="8.3830376"><ele>223.2</ele><time>2026-05-02T10:04:02.005Z</time></trkpt><trkpt lat="45.5631257" lon="8.3831455"><ele>223.0</ele><time>2026-05-02T10:04:02.996Z</time></trkpt><trkpt lat="45.5630496" lon="8.3832277"><ele>223.16666666666666</ele><time>2026-05-02T10:04:03.989Z</time></trkpt><trkpt lat="45.5629654" lon="8.3832792"><ele>223.33333333333331</ele><time>2026-05-02T10:04:04.988Z</time></trkpt><trkpt lat="45.5628861" lon="8.3833188"><ele>223.5</ele><time>2026-05-02T10:04:05.993Z</time></trkpt><trkpt lat="45.5628044" lon="8.3833521"><ele>223.66666666666669</ele><time>2026-05-02T10:04:06.983Z</time></trkpt><trkpt lat="45.5627236" lon="8.3833887"><ele>223.83333333333334</ele><time>2026-05-02T10:04:07.994Z</time></trkpt><trkpt lat="45.562647" lon="8.3834194"><ele>224.0</ele><time>2026-05-02T10:04:08.99Z</time></trkpt><trkpt lat="45.5625789" lon="8.3834401"><ele>224.0</ele><time>2026-05-02T10:04:09.988Z</time></trkpt><trkpt lat="45.5624816" lon="8.3834556"><ele>224.0</ele><time>2026-05-02T10:04:11.989Z</time></trkpt><trkpt lat="45.5624178" lon="8.3834884"><ele>224.0</ele><time>2026-05-02T10:04:14.992Z</time></trkpt><trkpt lat="45.5623149" lon="8.3835431"><ele>224.0</ele><time>2026-05-02T10:04:29.981Z</time></trkpt><trkpt lat="45.5621458" lon="8.383648"><ele>224.00000000000003</ele><time>2026-05-02T10:04:32.978Z</time></trkpt><trkpt lat="45.5620735" lon="8.3836768"><ele>224.0</ele><time>2026-05-02T10:04:33.973Z</time></trkpt><trkpt lat="45.561995" lon="8.383707"><ele>224.0</ele><time>2026-05-02T10:04:34.983Z</time></trkpt><trkpt lat="45.5619174" lon="8.3837339"><ele>224.0</ele><time>2026-05-02T10:04:35.986Z</time></trkpt><trkpt lat="45.5618405" lon="8.3837592"><ele>224.00000000000003</ele><time>2026-05-02T10:04:36.99Z</time></trkpt><trkpt lat="45.5617623" lon="8.3837885"><ele>224.0</ele><time>2026-05-02T10:04:37.985Z</time></trkpt><trkpt lat="45.5616823" lon="8.3838172"><ele>224.33333333333334</ele><time>2026-05-02T10:04:38.993Z</time></trkpt><trkpt lat="45.5616023" lon="8.3838435"><ele>224.66666666666669</ele><time>2026-05-02T10:04:39.992Z</time></trkpt><trkpt lat="45.5615239" lon="8.3838683"><ele>225.0</ele><time>2026-05-02T10:04:40.986Z</time></trkpt><trkpt lat="45.5614469" lon="8.3838936"><ele>225.33333333333331</ele><time>2026-05-02T10:04:41.989Z</time></trkpt><trkpt lat="45.5613703" lon="8.3839152"><ele>225.66666666666666</ele><time>2026-05-02T10:04:42.984Z</time></trkpt><trkpt lat="45.5612923" lon="8.3839352"><ele>226.0</ele><time>2026-05-02T10:04:43.982Z</time></trkpt><trkpt lat="45.561212" lon="8.3839578"><ele>225.60000000000002</ele><time>2026-05-02T10:04:44.981Z</time></trkpt><trkpt lat="45.561127" lon="8.3839774"><ele>225.20000000000002</ele><time>2026-05-02T10:04:45.989Z</time></trkpt><trkpt lat="45.5610386" lon="8.3839953"><ele>224.79999999999998</ele><time>2026-05-02T10:04:46.991Z</time></trkpt><trkpt lat="45.56095" lon="8.3840147"><ele>224.39999999999998</ele><time>2026-05-02T10:04:47.993Z</time></trkpt><trkpt lat="45.5608574" lon="8.3840311"><ele>224.0</ele><time>2026-05-02T10:04:48.995Z</time></trkpt><trkpt lat="45.5607624" lon="8.3840453"><ele>224.0</ele><time>2026-05-02T10:04:49.995Z</time></trkpt><trkpt lat="45.560664" lon="8.3840627"><ele>224.0</ele><time>2026-05-02T10:04:50.991Z</time></trkpt><trkpt lat="45.5604667" lon="8.3840877"><ele>224.0</ele><time>2026-05-02T10:04:52.99Z</time></trkpt><trkpt lat="45.56037" lon="8.3840922"><ele>224.0</ele><time>2026-05-02T10:04:53.986Z</time></trkpt><trkpt lat="45.5602718" lon="8.3841045"><ele>223.79999999999998</ele><time>2026-05-02T10:04:54.991Z</time></trkpt><trkpt lat="45.5601706" lon="8.3841153"><ele>223.59999999999997</ele><time>2026-05-02T10:04:55.99Z</time></trkpt><trkpt lat="45.5600715" lon="8.3841265"><ele>223.4</ele><time>2026-05-02T10:04:56.993Z</time></trkpt><trkpt lat="45.5599674" lon="8.3841395"><ele>223.2</ele><time>2026-05-02T10:04:57.999Z</time></trkpt><trkpt lat="45.5598653" lon="8.3841485"><ele>223.0</ele><time>2026-05-02T10:04:58.98Z</time></trkpt><trkpt lat="45.5597604" lon="8.3841584"><ele>223.0</ele><time>2026-05-02T10:04:59.989Z</time></trkpt><trkpt lat="45.5596555" lon="8.384167"><ele>223.0</ele><time>2026-05-02T10:05:00.978Z</time></trkpt><trkpt lat="45.5595515" lon="8.3841735"><ele>223.0</ele><time>2026-05-02T10:05:01.994Z</time></trkpt><trkpt lat="45.5594498" lon="8.3841802"><ele>223.0</ele><time>2026-05-02T10:05:02.989Z</time></trkpt><trkpt lat="45.55935" lon="8.3841896"><ele>223.0</ele><time>2026-05-02T10:05:03.982Z</time></trkpt><trkpt lat="45.5592483" lon="8.3841957"><ele>223.0</ele><time>2026-05-02T10:05:04.993Z</time></trkpt><trkpt lat="45.5591483" lon="8.3841991"><ele>223.0</ele><time>2026-05-02T10:05:05.98Z</time></trkpt><trkpt lat="45.5590468" lon="8.3842063"><ele>223.0</ele><time>2026-05-02T10:05:06.988Z</time></trkpt><trkpt lat="45.5589463" lon="8.3842184"><ele>223.0</ele><time>2026-05-02T10:05:07.993Z</time></trkpt><trkpt lat="45.558848" lon="8.384227"><ele>223.0</ele><time>2026-05-02T10:05:08.985Z</time></trkpt><trkpt lat="45.558751" lon="8.3842395"><ele>223.0</ele><time>2026-05-02T10:05:09.993Z</time></trkpt><trkpt lat="45.5586548" lon="8.3842527"><ele>223.0</ele><time>2026-05-02T10:05:10.992Z</time></trkpt><trkpt lat="45.5585595" lon="8.3842618"><ele>223.0</ele><time>2026-05-02T10:05:11.998Z</time></trkpt><trkpt lat="45.5583798" lon="8.3842747"><ele>223.0</ele><time>2026-05-02T10:05:13.984Z</time></trkpt><trkpt lat="45.5582883" lon="8.3842813"><ele>223.0</ele><time>2026-05-02T10:05:14.99Z</time></trkpt><trkpt lat="45.558195" lon="8.3842862"><ele>223.0</ele><time>2026-05-02T10:05:15.987Z</time></trkpt><trkpt lat="45.5581017" lon="8.3842905"><ele>223.0</ele><time>2026-05-02T10:05:16.987Z</time></trkpt><trkpt lat="45.5580069" lon="8.3842985"><ele>223.0</ele><time>2026-05-02T10:05:17.994Z</time></trkpt><trkpt lat="45.5579133" lon="8.3843124"><ele>223.0</ele><time>2026-05-02T10:05:18.984Z</time></trkpt><trkpt lat="45.5578174" lon="8.3843248"><ele>222.99999999999997</ele><time>2026-05-02T10:05:19.996Z</time></trkpt><trkpt lat="45.5577222" lon="8.3843367"><ele>223.0</ele><time>2026-05-02T10:05:20.983Z</time></trkpt><trkpt lat="45.5576299" lon="8.3843451"><ele>223.0</ele><time>2026-05-02T10:05:21.995Z</time></trkpt><trkpt lat="45.5575412" lon="8.3843468"><ele>223.0</ele><time>2026-05-02T10:05:22.993Z</time></trkpt><trkpt lat="45.5574593" lon="8.3843562"><ele>222.99999999999997</ele><time>2026-05-02T10:05:23.991Z</time></trkpt><trkpt lat="45.5573812" lon="8.3843669"><ele>223.0</ele><time>2026-05-02T10:05:25.003Z</time></trkpt><trkpt lat="45.5573066" lon="8.3843696"><ele>223.0</ele><time>2026-05-02T10:05:25.995Z</time></trkpt><trkpt lat="45.5572364" lon="8.3843657"><ele>223.0</ele><time>2026-05-02T10:05:26.996Z</time></trkpt><trkpt lat="45.5571637" lon="8.3843618"><ele>223.0</ele><time>2026-05-02T10:05:27.997Z</time></trkpt><trkpt lat="45.5570946" lon="8.3843558"><ele>223.0</ele><time>2026-05-02T10:05:28.984Z</time></trkpt><trkpt lat="45.5570294" lon="8.3843539"><ele>223.0</ele><time>2026-05-02T10:05:29.989Z</time></trkpt><trkpt lat="45.5569617" lon="8.3843555"><ele>223.0</ele><time>2026-05-02T10:05:30.987Z</time></trkpt><trkpt lat="45.5568889" lon="8.3843621"><ele>223.0</ele><time>2026-05-02T10:05:31.988Z</time></trkpt><trkpt lat="45.5568169" lon="8.3843679"><ele>223.2</ele><time>2026-05-02T10:05:32.989Z</time></trkpt><trkpt lat="45.5566718" lon="8.3843581"><ele>223.4</ele><time>2026-05-02T10:05:34.989Z</time></trkpt><trkpt lat="45.5566017" lon="8.38435"><ele>223.59999999999997</ele><time>2026-05-02T10:05:35.987Z</time></trkpt><trkpt lat="45.5565363" lon="8.3843424"><ele>223.79999999999998</ele><time>2026-05-02T10:05:36.986Z</time></trkpt><trkpt lat="45.5564731" lon="8.3843401"><ele>224.0</ele><time>2026-05-02T10:05:37.981Z</time></trkpt><trkpt lat="45.5563661" lon="8.3843283"><ele>224.00000000000003</ele><time>2026-05-02T10:05:39.993Z</time></trkpt><trkpt lat="45.5562588" lon="8.3843125"><ele>224.0</ele><time>2026-05-02T10:05:41.992Z</time></trkpt><trkpt lat="45.5561639" lon="8.3843062"><ele>224.0</ele><time>2026-05-02T10:05:43.992Z</time></trkpt><trkpt lat="45.556081" lon="8.3843114"><ele>224.0</ele><time>2026-05-02T10:05:46.994Z</time></trkpt><trkpt lat="45.556022" lon="8.3843452"><ele>224.00000000000003</ele><time>2026-05-02T10:05:48.985Z</time></trkpt><trkpt lat="45.5559323" lon="8.3843455"><ele>224.0</ele><time>2026-05-02T10:05:50.98Z</time></trkpt><trkpt lat="45.5558355" lon="8.3843526"><ele>224.25</ele><time>2026-05-02T10:05:52.988Z</time></trkpt><trkpt lat="45.5557411" lon="8.384362"><ele>224.5</ele><time>2026-05-02T10:05:54.995Z</time></trkpt><trkpt lat="45.5555271" lon="8.3844077"><ele>224.75</ele><time>2026-05-02T10:05:58.99Z</time></trkpt><trkpt lat="45.5554089" lon="8.3844153"><ele>225.0</ele><time>2026-05-02T10:06:00.981Z</time></trkpt><trkpt lat="45.5552949" lon="8.3843983"><ele>225.0</ele><time>2026-05-02T10:06:02.984Z</time></trkpt><trkpt lat="45.5551815" lon="8.3843925"><ele>225.0</ele><time>2026-05-02T10:06:04.993Z</time></trkpt><trkpt lat="45.5550529" lon="8.3843937"><ele>225.0</ele><time>2026-05-02T10:06:06.992Z</time></trkpt><trkpt lat="45.5549329" lon="8.3843917"><ele>225.0</ele><time>2026-05-02T10:06:08.994Z</time></trkpt><trkpt lat="45.5548197" lon="8.3843817"><ele>225.0</ele><time>2026-05-02T10:06:10.983Z</time></trkpt><trkpt lat="45.5547166" lon="8.3843781"><ele>225.0</ele><time>2026-05-02T10:06:12.988Z</time></trkpt><trkpt lat="45.5546152" lon="8.3843902"><ele>225.0</ele><time>2026-05-02T10:06:14.985Z</time></trkpt><trkpt lat="45.5545435" lon="8.3844885"><ele>225.0</ele><time>2026-05-02T10:06:16.993Z</time></trkpt></trkseg><trkseg><trkpt lat="45.556104" lon="8.3836812"><ele>222.0</ele><time>2026-05-02T11:46:35.998Z</time></trkpt><trkpt lat="45.5560411" lon="8.3837353"><ele>222.0</ele><time>2026-05-02T11:47:19.984Z</time></trkpt><trkpt lat="45.556056" lon="8.3838297"><ele>222.0</ele><time>2026-05-02T11:47:33.994Z</time></trkpt><trkpt lat="45.5560508" lon="8.3839397"><ele>222.0</ele><time>2026-05-02T11:48:52.984Z</time></trkpt><trkpt lat="45.5560643" lon="8.3840802"><ele>222.0</ele><time>2026-05-02T11:48:55.996Z</time></trkpt><trkpt lat="45.5560813" lon="8.3841925"><ele>222.0</ele><time>2026-05-02T11:48:58.996Z</time></trkpt><trkpt lat="45.5561582" lon="8.3842384"><ele>222.33333333333334</ele><time>2026-05-02T11:49:07.987Z</time></trkpt><trkpt lat="45.5562402" lon="8.3842287"><ele>222.66666666666669</ele><time>2026-05-02T11:49:09.986Z</time></trkpt><trkpt lat="45.5563383" lon="8.3842455"><ele>223.0</ele><time>2026-05-02T11:49:11.998Z</time></trkpt><trkpt lat="45.5564534" lon="8.3842523"><ele>223.33333333333334</ele><time>2026-05-02T11:49:13.998Z</time></trkpt><trkpt lat="45.5565164" lon="8.3842551"><ele>223.66666666666669</ele><time>2026-05-02T11:49:14.998Z</time></trkpt><trkpt lat="45.556587" lon="8.3842581"><ele>224.0</ele><time>2026-05-02T11:49:15.994Z</time></trkpt><trkpt lat="45.5566542" lon="8.3842616"><ele>224.00000000000003</ele><time>2026-05-02T11:49:16.982Z</time></trkpt><trkpt lat="45.5567195" lon="8.3842741"><ele>224.0</ele><time>2026-05-02T11:49:18Z</time></trkpt><trkpt lat="45.5567818" lon="8.384293"><ele>224.0</ele><time>2026-05-02T11:49:18.988Z</time></trkpt><trkpt lat="45.5568481" lon="8.3843044"><ele>224.0</ele><time>2026-05-02T11:49:19.991Z</time></trkpt><trkpt lat="45.5569133" lon="8.3843174"><ele>224.00000000000003</ele><time>2026-05-02T11:49:20.99Z</time></trkpt><trkpt lat="45.5570572" lon="8.3843301"><ele>224.0</ele><time>2026-05-02T11:49:22.997Z</time></trkpt><trkpt lat="45.5571304" lon="8.3843286"><ele>223.83333333333334</ele><time>2026-05-02T11:49:24.001Z</time></trkpt><trkpt lat="45.5572005" lon="8.3843274"><ele>223.66666666666669</ele><time>2026-05-02T11:49:24.99Z</time></trkpt><trkpt lat="45.5572672" lon="8.3843319"><ele>223.5</ele><time>2026-05-02T11:49:25.994Z</time></trkpt><trkpt lat="45.5573391" lon="8.3843366"><ele>223.33333333333331</ele><time>2026-05-02T11:49:26.991Z</time></trkpt><trkpt lat="45.5574148" lon="8.3843368"><ele>223.16666666666666</ele><time>2026-05-02T11:49:27.996Z</time></trkpt><trkpt lat="45.5574977" lon="8.3843285"><ele>223.0</ele><time>2026-05-02T11:49:28.989Z</time></trkpt><trkpt lat="45.5575831" lon="8.3843184"><ele>222.99999999999997</ele><time>2026-05-02T11:49:29.986Z</time></trkpt><trkpt lat="45.557669" lon="8.3843063"><ele>223.0</ele><time>2026-05-02T11:49:30.992Z</time></trkpt><trkpt lat="45.5577574" lon="8.3842976"><ele>223.0</ele><time>2026-05-02T11:49:31.997Z</time></trkpt><trkpt lat="45.557846" lon="8.3842926"><ele>223.0</ele><time>2026-05-02T11:49:32.999Z</time></trkpt><trkpt lat="45.5579334" lon="8.3842859"><ele>222.99999999999997</ele><time>2026-05-02T11:49:33.996Z</time></trkpt><trkpt lat="45.5580197" lon="8.3842841"><ele>223.0</ele><time>2026-05-02T11:49:34.987Z</time></trkpt><trkpt lat="45.5581095" lon="8.38428"><ele>223.0</ele><time>2026-05-02T11:49:35.998Z</time></trkpt><trkpt lat="45.5582005" lon="8.384272"><ele>223.0</ele><time>2026-05-02T11:49:36.984Z</time></trkpt><trkpt lat="45.5582955" lon="8.3842601"><ele>223.0</ele><time>2026-05-02T11:49:37.985Z</time></trkpt><trkpt lat="45.5583925" lon="8.3842452"><ele>223.0</ele><time>2026-05-02T11:49:38.985Z</time></trkpt><trkpt lat="45.5584928" lon="8.3842329"><ele>223.0</ele><time>2026-05-02T11:49:39.994Z</time></trkpt><trkpt lat="45.5585884" lon="8.3842243"><ele>223.0</ele><time>2026-05-02T11:49:40.991Z</time></trkpt><trkpt lat="45.558685" lon="8.3842195"><ele>223.0</ele><time>2026-05-02T11:49:41.992Z</time></trkpt><trkpt lat="45.5587818" lon="8.3842114"><ele>223.0</ele><time>2026-05-02T11:49:42.995Z</time></trkpt><trkpt lat="45.5588768" lon="8.3842049"><ele>223.0</ele><time>2026-05-02T11:49:44Z</time></trkpt><trkpt lat="45.5589761" lon="8.3841954"><ele>223.0</ele><time>2026-05-02T11:49:44.996Z</time></trkpt><trkpt lat="45.5590788" lon="8.3841851"><ele>223.0</ele><time>2026-05-02T11:49:45.997Z</time></trkpt><trkpt lat="45.5591797" lon="8.3841761"><ele>223.0</ele><time>2026-05-02T11:49:47.002Z</time></trkpt><trkpt lat="45.5592856" lon="8.3841694"><ele>223.0</ele><time>2026-05-02T11:49:47.993Z</time></trkpt><trkpt lat="45.5594023" lon="8.3841654"><ele>223.0</ele><time>2026-05-02T11:49:48.994Z</time></trkpt><trkpt lat="45.5595253" lon="8.3841595"><ele>223.0</ele><time>2026-05-02T11:49:49.99Z</time></trkpt><trkpt lat="45.5596542" lon="8.3841486"><ele>223.0</ele><time>2026-05-02T11:49:50.994Z</time></trkpt><trkpt lat="45.559788" lon="8.3841346"><ele>223.0</ele><time>2026-05-02T11:49:52.003Z</time></trkpt><trkpt lat="45.5599199" lon="8.3841244"><ele>223.0</ele><time>2026-05-02T11:49:52.992Z</time></trkpt><trkpt lat="45.5600441" lon="8.3841103"><ele>223.0</ele><time>2026-05-02T11:49:54Z</time></trkpt><trkpt lat="45.5601606" lon="8.3840983"><ele>223.0</ele><time>2026-05-02T11:49:54.99Z</time></trkpt><trkpt lat="45.5602754" lon="8.3840909"><ele>223.0</ele><time>2026-05-02T11:49:55.999Z</time></trkpt><trkpt lat="45.560381" lon="8.3840795"><ele>223.0</ele><time>2026-05-02T11:49:56.991Z</time></trkpt><trkpt lat="45.5604864" lon="8.384068"><ele>223.0</ele><time>2026-05-02T11:49:57.987Z</time></trkpt><trkpt lat="45.5605982" lon="8.3840536"><ele>223.0</ele><time>2026-05-02T11:49:58.993Z</time></trkpt><trkpt lat="45.560716" lon="8.3840376"><ele>223.25</ele><time>2026-05-02T11:50:00.007Z</time></trkpt><trkpt lat="45.5608375" lon="8.3840223"><ele>223.5</ele><time>2026-05-02T11:50:00.99Z</time></trkpt><trkpt lat="45.5609596" lon="8.3840013"><ele>223.75</ele><time>2026-05-02T11:50:01.98Z</time></trkpt><trkpt lat="45.5610798" lon="8.3839773"><ele>224.0</ele><time>2026-05-02T11:50:02.996Z</time></trkpt><trkpt lat="45.5612008" lon="8.3839452"><ele>224.5</ele><time>2026-05-02T11:50:03.992Z</time></trkpt><trkpt lat="45.5613226" lon="8.3839078"><ele>225.0</ele><time>2026-05-02T11:50:04.996Z</time></trkpt><trkpt lat="45.5614439" lon="8.3838671"><ele>225.5</ele><time>2026-05-02T11:50:05.984Z</time></trkpt><trkpt lat="45.5615713" lon="8.3838195"><ele>226.0</ele><time>2026-05-02T11:50:06.99Z</time></trkpt><trkpt lat="45.5617012" lon="8.3837701"><ele>226.0</ele><time>2026-05-02T11:50:07.995Z</time></trkpt><trkpt lat="45.5618297" lon="8.3837182"><ele>226.0</ele><time>2026-05-02T11:50:08.99Z</time></trkpt><trkpt lat="45.5619569" lon="8.3836588"><ele>226.0</ele><time>2026-05-02T11:50:09.993Z</time></trkpt><trkpt lat="45.5620806" lon="8.3836092"><ele>226.0</ele><time>2026-05-02T11:50:10.992Z</time></trkpt><trkpt lat="45.5621994" lon="8.3835632"><ele>225.5</ele><time>2026-05-02T11:50:11.991Z</time></trkpt><trkpt lat="45.5623134" lon="8.3835147"><ele>225.0</ele><time>2026-05-02T11:50:12.99Z</time></trkpt><trkpt lat="45.5624224" lon="8.3834694"><ele>224.5</ele><time>2026-05-02T11:50:13.987Z</time></trkpt><trkpt lat="45.5625304" lon="8.3834285"><ele>224.0</ele><time>2026-05-02T11:50:14.998Z</time></trkpt><trkpt lat="45.5626389" lon="8.3833858"><ele>224.0</ele><time>2026-05-02T11:50:15.984Z</time></trkpt><trkpt lat="45.5627496" lon="8.383342"><ele>224.0</ele><time>2026-05-02T11:50:16.994Z</time></trkpt><trkpt lat="45.5628624" lon="8.3832959"><ele>224.0</ele><time>2026-05-02T11:50:17.99Z</time></trkpt><trkpt lat="45.5629839" lon="8.3832438"><ele>224.0</ele><time>2026-05-02T11:50:18.988Z</time></trkpt><trkpt lat="45.5631061" lon="8.3831913"><ele>223.75</ele><time>2026-05-02T11:50:19.991Z</time></trkpt><trkpt lat="45.5632264" lon="8.3831418"><ele>223.5</ele><time>2026-05-02T11:50:20.99Z</time></trkpt><trkpt lat="45.5633423" lon="8.3830961"><ele>223.25</ele><time>2026-05-02T11:50:21.994Z</time></trkpt><trkpt lat="45.5634502" lon="8.383053"><ele>223.0</ele><time>2026-05-02T11:50:22.988Z</time></trkpt><trkpt lat="45.5635522" lon="8.3830125"><ele>222.99999999999997</ele><time>2026-05-02T11:50:23.991Z</time></trkpt><trkpt lat="45.5636451" lon="8.3829717"><ele>223.0</ele><time>2026-05-02T11:50:24.986Z</time></trkpt><trkpt lat="45.5637336" lon="8.3829307"><ele>223.0</ele><time>2026-05-02T11:50:25.994Z</time></trkpt><trkpt lat="45.5638168" lon="8.3828925"><ele>223.0</ele><time>2026-05-02T11:50:27.003Z</time></trkpt><trkpt lat="45.5638936" lon="8.3828585"><ele>222.99999999999997</ele><time>2026-05-02T11:50:27.994Z</time></trkpt><trkpt lat="45.5639711" lon="8.3828213"><ele>223.0</ele><time>2026-05-02T11:50:28.984Z</time></trkpt><trkpt lat="45.5640538" lon="8.3827825"><ele>223.0</ele><time>2026-05-02T11:50:30Z</time></trkpt><trkpt lat="45.5641383" lon="8.382744"><ele>223.0</ele><time>2026-05-02T11:50:30.994Z</time></trkpt><trkpt lat="45.5642352" lon="8.3827027"><ele>223.0</ele><time>2026-05-02T11:50:31.981Z</time></trkpt><trkpt lat="45.5643432" lon="8.382653"><ele>223.0</ele><time>2026-05-02T11:50:32.989Z</time></trkpt><trkpt lat="45.5644628" lon="8.3826011"><ele>223.0</ele><time>2026-05-02T11:50:33.993Z</time></trkpt><trkpt lat="45.5645936" lon="8.3825533"><ele>223.25</ele><time>2026-05-02T11:50:34.995Z</time></trkpt><trkpt lat="45.5647326" lon="8.3825055"><ele>223.5</ele><time>2026-05-02T11:50:36.004Z</time></trkpt><trkpt lat="45.564876" lon="8.3824502"><ele>223.75</ele><time>2026-05-02T11:50:36.991Z</time></trkpt><trkpt lat="45.5650241" lon="8.3823924"><ele>224.0</ele><time>2026-05-02T11:50:37.997Z</time></trkpt><trkpt lat="45.5651684" lon="8.382334"><ele>224.0</ele><time>2026-05-02T11:50:38.986Z</time></trkpt><trkpt lat="45.5653131" lon="8.3822751"><ele>224.0</ele><time>2026-05-02T11:50:39.995Z</time></trkpt><trkpt lat="45.5654576" lon="8.3822182"><ele>224.0</ele><time>2026-05-02T11:50:40.993Z</time></trkpt><trkpt lat="45.5655973" lon="8.3821621"><ele>224.0</ele><time>2026-05-02T11:50:41.992Z</time></trkpt><trkpt lat="45.5657331" lon="8.3821062"><ele>224.25</ele><time>2026-05-02T11:50:42.988Z</time></trkpt><trkpt lat="45.5658629" lon="8.3820496"><ele>224.5</ele><time>2026-05-02T11:50:43.994Z</time></trkpt><trkpt lat="45.5659949" lon="8.381993"><ele>224.75</ele><time>2026-05-02T11:50:45.003Z</time></trkpt><trkpt lat="45.5661257" lon="8.3819356"><ele>225.0</ele><time>2026-05-02T11:50:45.99Z</time></trkpt><trkpt lat="45.5662616" lon="8.3818828"><ele>225.0</ele><time>2026-05-02T11:50:47Z</time></trkpt><trkpt lat="45.5663953" lon="8.3818299"><ele>225.0</ele><time>2026-05-02T11:50:48.001Z</time></trkpt><trkpt lat="45.5665272" lon="8.3817773"><ele>225.0</ele><time>2026-05-02T11:50:48.988Z</time></trkpt><trkpt lat="45.5666631" lon="8.3817214"><ele>225.0</ele><time>2026-05-02T11:50:49.989Z</time></trkpt><trkpt lat="45.5667987" lon="8.3816643"><ele>225.0</ele><time>2026-05-02T11:50:51Z</time></trkpt><trkpt lat="45.5669307" lon="8.3816077"><ele>225.0</ele><time>2026-05-02T11:50:51.989Z</time></trkpt><trkpt lat="45.5670598" lon="8.3815509"><ele>225.0</ele><time>2026-05-02T11:50:52.994Z</time></trkpt><trkpt lat="45.5671855" lon="8.3814975"><ele>225.0</ele><time>2026-05-02T11:50:53.996Z</time></trkpt><trkpt lat="45.5672935" lon="8.3814518"><ele>225.33333333333334</ele><time>2026-05-02T11:50:55.003Z</time></trkpt><trkpt lat="45.5673798" lon="8.3814207"><ele>225.66666666666669</ele><time>2026-05-02T11:50:55.99Z</time></trkpt><trkpt lat="45.5674511" lon="8.3814118"><ele>226.0</ele><time>2026-05-02T11:50:56.993Z</time></trkpt><trkpt lat="45.5675347" lon="8.3814514"><ele>226.33333333333334</ele><time>2026-05-02T11:50:58.986Z</time></trkpt><trkpt lat="45.5675978" lon="8.3815532"><ele>226.66666666666669</ele><time>2026-05-02T11:51:01.99Z</time></trkpt><trkpt lat="45.5676438" lon="8.3816169"><ele>227.0</ele><time>2026-05-02T11:51:03.99Z</time></trkpt><trkpt lat="45.5677028" lon="8.3816727"><ele>227.00000000000003</ele><time>2026-05-02T11:51:06.979Z</time></trkpt><trkpt lat="45.5677992" lon="8.3816183"><ele>227.0</ele><time>2026-05-02T11:51:25.99Z</time></trkpt><trkpt lat="45.5678806" lon="8.381577"><ele>227.0</ele><time>2026-05-02T11:51:27.985Z</time></trkpt><trkpt lat="45.5679469" lon="8.3815449"><ele>227.0</ele><time>2026-05-02T11:51:29.989Z</time></trkpt><trkpt lat="45.5680167" lon="8.3815353"><ele>227.00000000000003</ele><time>2026-05-02T11:51:31.991Z</time></trkpt><trkpt lat="45.5680828" lon="8.3815449"><ele>227.0</ele><time>2026-05-02T11:51:33.981Z</time></trkpt><trkpt lat="45.5681631" lon="8.3815485"><ele>227.16666666666669</ele><time>2026-05-02T11:51:35.987Z</time></trkpt><trkpt lat="45.5682434" lon="8.3815396"><ele>227.33333333333334</ele><time>2026-05-02T11:51:37.992Z</time></trkpt><trkpt lat="45.5683276" lon="8.3815181"><ele>227.5</ele><time>2026-05-02T11:51:39.997Z</time></trkpt><trkpt lat="45.5684079" lon="8.3815103"><ele>227.66666666666669</ele><time>2026-05-02T11:51:41.99Z</time></trkpt><trkpt lat="45.568488" lon="8.3815107"><ele>227.83333333333334</ele><time>2026-05-02T11:51:43.987Z</time></trkpt><trkpt lat="45.5685811" lon="8.3815208"><ele>228.0</ele><time>2026-05-02T11:51:45.985Z</time></trkpt><trkpt lat="45.5686773" lon="8.381519"><ele>228.0</ele><time>2026-05-02T11:51:47.981Z</time></trkpt><trkpt lat="45.568791" lon="8.3815381"><ele>228.0</ele><time>2026-05-02T11:51:49.991Z</time></trkpt><trkpt lat="45.5688833" lon="8.3815575"><ele>228.0</ele><time>2026-05-02T11:51:51.987Z</time></trkpt><trkpt lat="45.5687822" lon="8.38151"><ele>228.0</ele><time>2026-05-02T11:51:56.988Z</time></trkpt><trkpt lat="45.5686561" lon="8.3815243"><ele>228.0</ele><time>2026-05-02T11:51:58.986Z</time></trkpt><trkpt lat="45.568589" lon="8.3815326"><ele>228.0</ele><time>2026-05-02T11:51:59.992Z</time></trkpt><trkpt lat="45.568522" lon="8.3815332"><ele>228.0</ele><time>2026-05-02T11:52:00.99Z</time></trkpt><trkpt lat="45.5684552" lon="8.3815364"><ele>228.0</ele><time>2026-05-02T11:52:01.994Z</time></trkpt><trkpt lat="45.5683857" lon="8.3815422"><ele>228.0</ele><time>2026-05-02T11:52:02.994Z</time></trkpt><trkpt lat="45.5683227" lon="8.3815484"><ele>228.0</ele><time>2026-05-02T11:52:03.991Z</time></trkpt><trkpt lat="45.5682165" lon="8.3815563"><ele>228.0</ele><time>2026-05-02T11:52:05.988Z</time></trkpt><trkpt lat="45.5681128" lon="8.3815506"><ele>228.0</ele><time>2026-05-02T11:52:08Z</time></trkpt><trkpt lat="45.5680199" lon="8.3815268"><ele>228.0</ele><time>2026-05-02T11:52:09.983Z</time></trkpt><trkpt lat="45.5679475" lon="8.381501"><ele>228.0</ele><time>2026-05-02T11:52:11.979Z</time></trkpt><trkpt lat="45.5678841" lon="8.3815115"><ele>228.0</ele><time>2026-05-02T11:52:15.991Z</time></trkpt><trkpt lat="45.5679671" lon="8.3815758"><ele>228.0</ele><time>2026-05-02T11:52:19.99Z</time></trkpt><trkpt lat="45.5680354" lon="8.3815659"><ele>228.0</ele><time>2026-05-02T11:52:20.99Z</time></trkpt><trkpt lat="45.5681143" lon="8.3815542"><ele>228.0</ele><time>2026-05-02T11:52:21.988Z</time></trkpt><trkpt lat="45.5681814" lon="8.3815541"><ele>228.0</ele><time>2026-05-02T11:52:22.989Z</time></trkpt><trkpt lat="45.5682995" lon="8.3815431"><ele>228.0</ele><time>2026-05-02T11:52:24.998Z</time></trkpt><trkpt lat="45.5684223" lon="8.3815305"><ele>228.0</ele><time>2026-05-02T11:52:26.99Z</time></trkpt><trkpt lat="45.5684905" lon="8.3815204"><ele>228.0</ele><time>2026-05-02T11:52:27.985Z</time></trkpt><trkpt lat="45.5685599" lon="8.3815115"><ele>228.0</ele><time>2026-05-02T11:52:28.992Z</time></trkpt><trkpt lat="45.5686252" lon="8.3815094"><ele>228.0</ele><time>2026-05-02T11:52:29.984Z</time></trkpt><trkpt lat="45.5686929" lon="8.381508"><ele>228.0</ele><time>2026-05-02T11:52:30.982Z</time></trkpt><trkpt lat="45.5687598" lon="8.3815022"><ele>228.0</ele><time>2026-05-02T11:52:31.981Z</time></trkpt><trkpt lat="45.568831" lon="8.3814948"><ele>228.0</ele><time>2026-05-02T11:52:32.993Z</time></trkpt><trkpt lat="45.5689089" lon="8.3814896"><ele>228.0</ele><time>2026-05-02T11:52:33.989Z</time></trkpt><trkpt lat="45.5689956" lon="8.3814862"><ele>228.0</ele><time>2026-05-02T11:52:34.984Z</time></trkpt><trkpt lat="45.5690884" lon="8.381482"><ele>228.0</ele><time>2026-05-02T11:52:35.987Z</time></trkpt><trkpt lat="45.5691771" lon="8.381475"><ele>228.0</ele><time>2026-05-02T11:52:36.989Z</time></trkpt><trkpt lat="45.5692619" lon="8.3814712"><ele>228.0</ele><time>2026-05-02T11:52:37.993Z</time></trkpt><trkpt lat="45.5693373" lon="8.3814684"><ele>228.0</ele><time>2026-05-02T11:52:38.984Z</time></trkpt><trkpt lat="45.5694117" lon="8.381467"><ele>228.0</ele><time>2026-05-02T11:52:39.999Z</time></trkpt><trkpt lat="45.5694868" lon="8.3814684"><ele>228.0</ele><time>2026-05-02T11:52:40.992Z</time></trkpt><trkpt lat="45.569574" lon="8.3814707"><ele>228.0</ele><time>2026-05-02T11:52:41.995Z</time></trkpt><trkpt lat="45.5696678" lon="8.3814723"><ele>228.0</ele><time>2026-05-02T11:52:42.985Z</time></trkpt><trkpt lat="45.5697654" lon="8.3814683"><ele>228.0</ele><time>2026-05-02T11:52:43.993Z</time></trkpt><trkpt lat="45.569865" lon="8.3814627"><ele>228.0</ele><time>2026-05-02T11:52:44.999Z</time></trkpt><trkpt lat="45.5699612" lon="8.3814573"><ele>228.0</ele><time>2026-05-02T11:52:45.987Z</time></trkpt><trkpt lat="45.5700503" lon="8.3814501"><ele>228.0</ele><time>2026-05-02T11:52:46.992Z</time></trkpt><trkpt lat="45.5701319" lon="8.3814536"><ele>228.0</ele><time>2026-05-02T11:52:48.002Z</time></trkpt><trkpt lat="45.5702123" lon="8.3814481"><ele>228.0</ele><time>2026-05-02T11:52:48.99Z</time></trkpt><trkpt lat="45.5702865" lon="8.3814334"><ele>228.0</ele><time>2026-05-02T11:52:49.994Z</time></trkpt><trkpt lat="45.5703601" lon="8.3814221"><ele>228.0</ele><time>2026-05-02T11:52:50.99Z</time></trkpt><trkpt lat="45.5704278" lon="8.3814127"><ele>228.0</ele><time>2026-05-02T11:52:51.986Z</time></trkpt><trkpt lat="45.5705503" lon="8.3813928"><ele>228.2</ele><time>2026-05-02T11:52:53.989Z</time></trkpt><trkpt lat="45.5706195" lon="8.3813844"><ele>228.4</ele><time>2026-05-02T11:52:54.982Z</time></trkpt><trkpt lat="45.5707077" lon="8.3813767"><ele>228.59999999999997</ele><time>2026-05-02T11:52:55.989Z</time></trkpt><trkpt lat="45.570822" lon="8.3813707"><ele>228.79999999999998</ele><time>2026-05-02T11:52:56.994Z</time></trkpt><trkpt lat="45.5709642" lon="8.3813647"><ele>229.0</ele><time>2026-05-02T11:52:57.99Z</time></trkpt><trkpt lat="45.5711173" lon="8.3813649"><ele>229.2</ele><time>2026-05-02T11:52:58.983Z</time></trkpt><trkpt lat="45.5712612" lon="8.381372"><ele>229.39999999999998</ele><time>2026-05-02T11:52:59.989Z</time></trkpt><trkpt lat="45.5713693" lon="8.381382"><ele>229.6</ele><time>2026-05-02T11:53:00.991Z</time></trkpt><trkpt lat="45.5714489" lon="8.3814018"><ele>229.8</ele><time>2026-05-02T11:53:01.984Z</time></trkpt><trkpt lat="45.5715117" lon="8.3814223"><ele>230.0</ele><time>2026-05-02T11:53:02.989Z</time></trkpt><trkpt lat="45.5715883" lon="8.3814176"><ele>230.00000000000003</ele><time>2026-05-02T11:53:04.987Z</time></trkpt><trkpt lat="45.5716085" lon="8.3813269"><ele>230.0</ele><time>2026-05-02T11:53:07.998Z</time></trkpt><trkpt lat="45.5716683" lon="8.3812638"><ele>230.0</ele><time>2026-05-02T11:53:09.988Z</time></trkpt><trkpt lat="45.5717486" lon="8.3812145"><ele>230.0</ele><time>2026-05-02T11:53:11.986Z</time></trkpt><trkpt lat="45.5718624" lon="8.381155"><ele>230.00000000000003</ele><time>2026-05-02T11:53:13.986Z</time></trkpt><trkpt lat="45.5719476" lon="8.3811172"><ele>230.0</ele><time>2026-05-02T11:53:14.976Z</time></trkpt><trkpt lat="45.5720498" lon="8.3810711"><ele>230.6</ele><time>2026-05-02T11:53:15.995Z</time></trkpt><trkpt lat="45.5721604" lon="8.381019"><ele>231.2</ele><time>2026-05-02T11:53:16.982Z</time></trkpt><trkpt lat="45.572266" lon="8.3809743"><ele>231.8</ele><time>2026-05-02T11:53:17.992Z</time></trkpt><trkpt lat="45.5723512" lon="8.3809325"><ele>232.4</ele><time>2026-05-02T11:53:18.978Z</time></trkpt><trkpt lat="45.5724291" lon="8.3808911"><ele>233.0</ele><time>2026-05-02T11:53:20.001Z</time></trkpt><trkpt lat="45.5724964" lon="8.3808552"><ele>233.00000000000003</ele><time>2026-05-02T11:53:20.987Z</time></trkpt><trkpt lat="45.5725597" lon="8.3808203"><ele>233.0</ele><time>2026-05-02T11:53:22Z</time></trkpt><trkpt lat="45.5726253" lon="8.3807913"><ele>233.0</ele><time>2026-05-02T11:53:22.975Z</time></trkpt><trkpt lat="45.5727339" lon="8.3807482"><ele>233.0</ele><time>2026-05-02T11:53:24.987Z</time></trkpt><trkpt lat="45.5728244" lon="8.3807092"><ele>233.00000000000003</ele><time>2026-05-02T11:53:26.991Z</time></trkpt><trkpt lat="45.5729071" lon="8.3806802"><ele>233.0</ele><time>2026-05-02T11:53:28.982Z</time></trkpt><trkpt lat="45.5729932" lon="8.3806769"><ele>233.4</ele><time>2026-05-02T11:53:30.977Z</time></trkpt><trkpt lat="45.5730828" lon="8.3807209"><ele>233.8</ele><time>2026-05-02T11:53:32.986Z</time></trkpt><trkpt lat="45.5731758" lon="8.380754"><ele>234.2</ele><time>2026-05-02T11:53:34.982Z</time></trkpt><trkpt lat="45.5732729" lon="8.3807562"><ele>234.6</ele><time>2026-05-02T11:53:36.986Z</time></trkpt><trkpt lat="45.5733652" lon="8.3807337"><ele>235.0</ele><time>2026-05-02T11:53:38.994Z</time></trkpt><trkpt lat="45.5734467" lon="8.3807016"><ele>234.99999999999997</ele><time>2026-05-02T11:53:40.982Z</time></trkpt><trkpt lat="45.573525" lon="8.3806733"><ele>235.0</ele><time>2026-05-02T11:53:42.986Z</time></trkpt><trkpt lat="45.5736049" lon="8.3806462"><ele>235.0</ele><time>2026-05-02T11:53:44.977Z</time></trkpt><trkpt lat="45.5736848" lon="8.3806312"><ele>235.0</ele><time>2026-05-02T11:53:46.982Z</time></trkpt><trkpt lat="45.5737584" lon="8.3806131"><ele>234.99999999999997</ele><time>2026-05-02T11:53:48.975Z</time></trkpt><trkpt lat="45.5738282" lon="8.3806014"><ele>235.0</ele><time>2026-05-02T11:53:50.982Z</time></trkpt><trkpt lat="45.5738966" lon="8.3805896"><ele>234.83333333333331</ele><time>2026-05-02T11:53:52.983Z</time></trkpt><trkpt lat="45.5739666" lon="8.3805886"><ele>234.66666666666666</ele><time>2026-05-02T11:53:54.983Z</time></trkpt><trkpt lat="45.5740601" lon="8.3805637"><ele>234.5</ele><time>2026-05-02T11:53:57.99Z</time></trkpt><trkpt lat="45.5741507" lon="8.3805376"><ele>234.33333333333331</ele><time>2026-05-02T11:53:59.985Z</time></trkpt><trkpt lat="45.5742675" lon="8.3805053"><ele>234.16666666666666</ele><time>2026-05-02T11:54:01.993Z</time></trkpt><trkpt lat="45.5743329" lon="8.3804899"><ele>234.0</ele><time>2026-05-02T11:54:02.986Z</time></trkpt><trkpt lat="45.574397" lon="8.3804802"><ele>233.66666666666666</ele><time>2026-05-02T11:54:03.991Z</time></trkpt><trkpt lat="45.5744614" lon="8.3804701"><ele>233.33333333333331</ele><time>2026-05-02T11:54:04.985Z</time></trkpt><trkpt lat="45.5745267" lon="8.3804636"><ele>233.0</ele><time>2026-05-02T11:54:05.997Z</time></trkpt><trkpt lat="45.5745899" lon="8.3804531"><ele>232.66666666666666</ele><time>2026-05-02T11:54:06.976Z</time></trkpt><trkpt lat="45.5746546" lon="8.3804436"><ele>232.33333333333331</ele><time>2026-05-02T11:54:07.986Z</time></trkpt><trkpt lat="45.5747793" lon="8.3804334"><ele>232.0</ele><time>2026-05-02T11:54:09.99Z</time></trkpt><trkpt lat="45.574898" lon="8.380395"><ele>232.66666666666666</ele><time>2026-05-02T11:54:11.991Z</time></trkpt><trkpt lat="45.5749537" lon="8.3803496"><ele>233.33333333333331</ele><time>2026-05-02T11:54:12.977Z</time></trkpt><trkpt lat="45.5750056" lon="8.3802957"><ele>234.0</ele><time>2026-05-02T11:54:13.993Z</time></trkpt><trkpt lat="45.5750567" lon="8.3802396"><ele>234.66666666666669</ele><time>2026-05-02T11:54:14.991Z</time></trkpt><trkpt lat="45.575159" lon="8.3801494"><ele>235.33333333333334</ele><time>2026-05-02T11:54:16.987Z</time></trkpt><trkpt lat="45.5752682" lon="8.3801155"><ele>236.0</ele><time>2026-05-02T11:54:18.987Z</time></trkpt><trkpt lat="45.5753759" lon="8.3800978"><ele>236.33333333333334</ele><time>2026-05-02T11:54:20.983Z</time></trkpt><trkpt lat="45.5754948" lon="8.3800851"><ele>236.66666666666669</ele><time>2026-05-02T11:54:22.994Z</time></trkpt><trkpt lat="45.5755854" lon="8.3800642"><ele>237.0</ele><time>2026-05-02T11:54:24.99Z</time></trkpt><trkpt lat="45.5756651" lon="8.380045"><ele>237.33333333333331</ele><time>2026-05-02T11:54:26.985Z</time></trkpt><trkpt lat="45.5757317" lon="8.3800274"><ele>237.66666666666666</ele><time>2026-05-02T11:54:28.979Z</time></trkpt><trkpt lat="45.5758027" lon="8.3799926"><ele>238.0</ele><time>2026-05-02T11:54:30.983Z</time></trkpt><trkpt lat="45.575874" lon="8.3799553"><ele>238.0</ele><time>2026-05-02T11:54:32.979Z</time></trkpt><trkpt lat="45.5759702" lon="8.3799003"><ele>238.0</ele><time>2026-05-02T11:54:34.989Z</time></trkpt><trkpt lat="45.5760642" lon="8.379856"><ele>238.0</ele><time>2026-05-02T11:54:36.998Z</time></trkpt><trkpt lat="45.5761588" lon="8.3798184"><ele>238.0</ele><time>2026-05-02T11:54:38.982Z</time></trkpt><trkpt lat="45.5762621" lon="8.3797829"><ele>238.0</ele><time>2026-05-02T11:54:40.989Z</time></trkpt><trkpt lat="45.5763784" lon="8.3797509"><ele>238.2</ele><time>2026-05-02T11:54:42.985Z</time></trkpt><trkpt lat="45.5764811" lon="8.3797362"><ele>238.4</ele><time>2026-05-02T11:54:44.982Z</time></trkpt><trkpt lat="45.5765871" lon="8.379705"><ele>238.59999999999997</ele><time>2026-05-02T11:54:46.989Z</time></trkpt><trkpt lat="45.5766909" lon="8.3796623"><ele>238.79999999999998</ele><time>2026-05-02T11:54:48.99Z</time></trkpt><trkpt lat="45.576781" lon="8.3796216"><ele>239.0</ele><time>2026-05-02T11:54:50.987Z</time></trkpt><trkpt lat="45.5768905" lon="8.3795828"><ele>239.2</ele><time>2026-05-02T11:54:52.981Z</time></trkpt><trkpt lat="45.5770046" lon="8.3795699"><ele>239.39999999999998</ele><time>2026-05-02T11:54:54.992Z</time></trkpt><trkpt lat="45.5771155" lon="8.3795668"><ele>239.6</ele><time>2026-05-02T11:54:56.992Z</time></trkpt><trkpt lat="45.577218" lon="8.3795686"><ele>239.8</ele><time>2026-05-02T11:54:58.988Z</time></trkpt><trkpt lat="45.5772984" lon="8.3795573"><ele>240.0</ele><time>2026-05-02T11:55:00.991Z</time></trkpt><trkpt lat="45.5773605" lon="8.3795278"><ele>240.0</ele><time>2026-05-02T11:55:02.994Z</time></trkpt><trkpt lat="45.5774283" lon="8.3794932"><ele>240.0</ele><time>2026-05-02T11:55:05.988Z</time></trkpt><trkpt lat="45.5775185" lon="8.379492"><ele>240.0</ele><time>2026-05-02T11:55:08.986Z</time></trkpt><trkpt lat="45.5776004" lon="8.3795033"><ele>240.0</ele><time>2026-05-02T11:55:10.984Z</time></trkpt><trkpt lat="45.5776754" lon="8.3794921"><ele>240.0</ele><time>2026-05-02T11:55:12.976Z</time></trkpt><trkpt lat="45.5777558" lon="8.3794698"><ele>240.0</ele><time>2026-05-02T11:55:14.984Z</time></trkpt><trkpt lat="45.5778478" lon="8.3794489"><ele>240.2</ele><time>2026-05-02T11:55:16.991Z</time></trkpt><trkpt lat="45.5779478" lon="8.379427"><ele>240.4</ele><time>2026-05-02T11:55:18.987Z</time></trkpt><trkpt lat="45.5780399" lon="8.379402"><ele>240.60000000000002</ele><time>2026-05-02T11:55:20.987Z</time></trkpt><trkpt lat="45.5781259" lon="8.3793781"><ele>240.8</ele><time>2026-05-02T11:55:22.985Z</time></trkpt><trkpt lat="45.5782172" lon="8.3793438"><ele>241.0</ele><time>2026-05-02T11:55:24.992Z</time></trkpt><trkpt lat="45.5783232" lon="8.3793024"><ele>241.0</ele><time>2026-05-02T11:55:26.993Z</time></trkpt><trkpt lat="45.5784237" lon="8.3792805"><ele>241.00000000000003</ele><time>2026-05-02T11:55:28.989Z</time></trkpt><trkpt lat="45.5785007" lon="8.3792701"><ele>241.00000000000003</ele><time>2026-05-02T11:55:30.99Z</time></trkpt><trkpt lat="45.5785795" lon="8.3792514"><ele>241.0</ele><time>2026-05-02T11:55:32.994Z</time></trkpt><trkpt lat="45.578675" lon="8.3792105"><ele>241.0</ele><time>2026-05-02T11:55:34.981Z</time></trkpt><trkpt lat="45.5787737" lon="8.3791481"><ele>241.33333333333331</ele><time>2026-05-02T11:55:36.98Z</time></trkpt><trkpt lat="45.5788709" lon="8.379092"><ele>241.66666666666666</ele><time>2026-05-02T11:55:38.978Z</time></trkpt><trkpt lat="45.5789777" lon="8.37904"><ele>242.0</ele><time>2026-05-02T11:55:40.988Z</time></trkpt><trkpt lat="45.5790376" lon="8.3790089"><ele>242.33333333333331</ele><time>2026-05-02T11:55:41.995Z</time></trkpt><trkpt lat="45.5790993" lon="8.3789766"><ele>242.66666666666666</ele><time>2026-05-02T11:55:42.984Z</time></trkpt><trkpt lat="45.5791644" lon="8.3789367"><ele>243.0</ele><time>2026-05-02T11:55:43.989Z</time></trkpt><trkpt lat="45.5792302" lon="8.3788988"><ele>243.0</ele><time>2026-05-02T11:55:44.987Z</time></trkpt><trkpt lat="45.5793094" lon="8.3788538"><ele>243.0</ele><time>2026-05-02T11:55:45.998Z</time></trkpt><trkpt lat="45.5793903" lon="8.3788108"><ele>243.0</ele><time>2026-05-02T11:55:46.989Z</time></trkpt><trkpt lat="45.579501" lon="8.3787556"><ele>243.0</ele><time>2026-05-02T11:55:47.994Z</time></trkpt><trkpt lat="45.5796437" lon="8.3786939"><ele>243.0</ele><time>2026-05-02T11:55:48.985Z</time></trkpt><trkpt lat="45.5798097" lon="8.3786167"><ele>243.0</ele><time>2026-05-02T11:55:49.994Z</time></trkpt><trkpt lat="45.5799905" lon="8.3785341"><ele>243.0</ele><time>2026-05-02T11:55:50.992Z</time></trkpt><trkpt lat="45.5801779" lon="8.3784419"><ele>243.0</ele><time>2026-05-02T11:55:51.995Z</time></trkpt><trkpt lat="45.580371" lon="8.3783315"><ele>243.0</ele><time>2026-05-02T11:55:52.983Z</time></trkpt><trkpt lat="45.5805653" lon="8.3782302"><ele>243.0</ele><time>2026-05-02T11:55:53.987Z</time></trkpt><trkpt lat="45.580724" lon="8.3781529"><ele>243.0</ele><time>2026-05-02T11:55:54.991Z</time></trkpt><trkpt lat="45.5808419" lon="8.3780933"><ele>243.0</ele><time>2026-05-02T11:55:55.996Z</time></trkpt><trkpt lat="45.5809175" lon="8.3780489"><ele>243.0</ele><time>2026-05-02T11:55:56.992Z</time></trkpt><trkpt lat="45.5810036" lon="8.3779883"><ele>243.0</ele><time>2026-05-02T11:55:58.979Z</time></trkpt><trkpt lat="45.5810423" lon="8.3778983"><ele>243.0</ele><time>2026-05-02T11:59:54.986Z</time></trkpt><trkpt lat="45.5810979" lon="8.3778164"><ele>243.0</ele><time>2026-05-02T11:59:58.982Z</time></trkpt><trkpt lat="45.5811456" lon="8.377741"><ele>243.0</ele><time>2026-05-02T12:00:02.978Z</time></trkpt><trkpt lat="45.5812165" lon="8.3776532"><ele>243.5</ele><time>2026-05-02T12:00:04.969Z</time></trkpt><trkpt lat="45.5813005" lon="8.3775507"><ele>244.0</ele><time>2026-05-02T12:00:06.977Z</time></trkpt><trkpt lat="45.5813477" lon="8.3774755"><ele>244.5</ele><time>2026-05-02T12:00:07.972Z</time></trkpt><trkpt lat="45.5814026" lon="8.377411"><ele>245.0</ele><time>2026-05-02T12:00:08.977Z</time></trkpt><trkpt lat="45.5814626" lon="8.3773425"><ele>245.5</ele><time>2026-05-02T12:00:09.972Z</time></trkpt><trkpt lat="45.5815264" lon="8.3772732"><ele>246.0</ele><time>2026-05-02T12:00:10.979Z</time></trkpt><trkpt lat="45.5815867" lon="8.377214"><ele>246.16666666666666</ele><time>2026-05-02T12:00:11.981Z</time></trkpt><trkpt lat="45.5816512" lon="8.377161"><ele>246.33333333333331</ele><time>2026-05-02T12:00:12.976Z</time></trkpt><trkpt lat="45.5817651" lon="8.377073"><ele>246.5</ele><time>2026-05-02T12:00:14.971Z</time></trkpt><trkpt lat="45.581824" lon="8.3770284"><ele>246.66666666666666</ele><time>2026-05-02T12:00:15.978Z</time></trkpt><trkpt lat="45.5818808" lon="8.3769826"><ele>246.83333333333331</ele><time>2026-05-02T12:00:16.968Z</time></trkpt><trkpt lat="45.5819376" lon="8.376939"><ele>247.0</ele><time>2026-05-02T12:00:17.976Z</time></trkpt><trkpt lat="45.5820538" lon="8.3768714"><ele>247.14285714285717</ele><time>2026-05-02T12:00:19.971Z</time></trkpt><trkpt lat="45.5821161" lon="8.3768382"><ele>247.28571428571428</ele><time>2026-05-02T12:00:20.976Z</time></trkpt><trkpt lat="45.5821781" lon="8.3768038"><ele>247.42857142857144</ele><time>2026-05-02T12:00:21.974Z</time></trkpt><trkpt lat="45.5822411" lon="8.37677"><ele>247.57142857142858</ele><time>2026-05-02T12:00:22.973Z</time></trkpt><trkpt lat="45.5823073" lon="8.3767367"><ele>247.71428571428572</ele><time>2026-05-02T12:00:23.979Z</time></trkpt><trkpt lat="45.5823726" lon="8.3767065"><ele>247.85714285714286</ele><time>2026-05-02T12:00:24.967Z</time></trkpt><trkpt lat="45.5824423" lon="8.3766764"><ele>248.0</ele><time>2026-05-02T12:00:25.977Z</time></trkpt><trkpt lat="45.5825099" lon="8.3766478"><ele>248.00000000000003</ele><time>2026-05-02T12:00:26.976Z</time></trkpt><trkpt lat="45.5825753" lon="8.3766207"><ele>248.0</ele><time>2026-05-02T12:00:27.974Z</time></trkpt><trkpt lat="45.5826891" lon="8.3765518"><ele>248.0</ele><time>2026-05-02T12:00:29.983Z</time></trkpt><trkpt lat="45.5827446" lon="8.3765087"><ele>248.0</ele><time>2026-05-02T12:00:30.978Z</time></trkpt><trkpt lat="45.5828042" lon="8.3764652"><ele>248.00000000000003</ele><time>2026-05-02T12:00:31.969Z</time></trkpt><trkpt lat="45.5829151" lon="8.3764049"><ele>248.0</ele><time>2026-05-02T12:00:33.979Z</time></trkpt><trkpt lat="45.5830358" lon="8.3763706"><ele>248.16666666666669</ele><time>2026-05-02T12:00:35.983Z</time></trkpt><trkpt lat="45.5831007" lon="8.3763591"><ele>248.33333333333334</ele><time>2026-05-02T12:00:36.97Z</time></trkpt><trkpt lat="45.583177" lon="8.3763328"><ele>248.5</ele><time>2026-05-02T12:00:37.977Z</time></trkpt><trkpt lat="45.5832572" lon="8.3763024"><ele>248.66666666666669</ele><time>2026-05-02T12:00:38.978Z</time></trkpt><trkpt lat="45.5833368" lon="8.3762734"><ele>248.83333333333334</ele><time>2026-05-02T12:00:39.972Z</time></trkpt><trkpt lat="45.5834204" lon="8.3762402"><ele>249.0</ele><time>2026-05-02T12:00:40.983Z</time></trkpt><trkpt lat="45.5835068" lon="8.3761998"><ele>249.0</ele><time>2026-05-02T12:00:41.977Z</time></trkpt><trkpt lat="45.583594" lon="8.3761601"><ele>249.0</ele><time>2026-05-02T12:00:42.981Z</time></trkpt><trkpt lat="45.5836741" lon="8.3761254"><ele>249.0</ele><time>2026-05-02T12:00:43.977Z</time></trkpt><trkpt lat="45.5837511" lon="8.3760955"><ele>249.0</ele><time>2026-05-02T12:00:44.992Z</time></trkpt><trkpt lat="45.5838327" lon="8.3760663"><ele>249.0</ele><time>2026-05-02T12:00:45.992Z</time></trkpt><trkpt lat="45.5839225" lon="8.3760325"><ele>249.0</ele><time>2026-05-02T12:00:46.99Z</time></trkpt><trkpt lat="45.5840149" lon="8.375998"><ele>249.0</ele><time>2026-05-02T12:00:47.991Z</time></trkpt><trkpt lat="45.5840974" lon="8.3759648"><ele>249.0</ele><time>2026-05-02T12:00:48.99Z</time></trkpt><trkpt lat="45.5841756" lon="8.375939"><ele>249.0</ele><time>2026-05-02T12:00:49.992Z</time></trkpt><trkpt lat="45.5842495" lon="8.3759159"><ele>249.0</ele><time>2026-05-02T12:00:50.998Z</time></trkpt><trkpt lat="45.5843168" lon="8.3758992"><ele>249.0</ele><time>2026-05-02T12:00:51.986Z</time></trkpt><trkpt lat="45.5843844" lon="8.3758817"><ele>249.0</ele><time>2026-05-02T12:00:52.999Z</time></trkpt><trkpt lat="45.5844583" lon="8.3758601"><ele>248.85714285714283</ele><time>2026-05-02T12:00:53.984Z</time></trkpt><trkpt lat="45.5845231" lon="8.375836"><ele>248.7142857142857</ele><time>2026-05-02T12:00:54.997Z</time></trkpt><trkpt lat="45.5845899" lon="8.3758107"><ele>248.57142857142856</ele><time>2026-05-02T12:00:56Z</time></trkpt><trkpt lat="45.5846517" lon="8.3757848"><ele>248.42857142857144</ele><time>2026-05-02T12:00:56.994Z</time></trkpt><trkpt lat="45.5847334" lon="8.3757412"><ele>248.2857142857143</ele><time>2026-05-02T12:00:58.995Z</time></trkpt><trkpt lat="45.5847881" lon="8.3756953"><ele>248.14285714285717</ele><time>2026-05-02T12:01:00.983Z</time></trkpt><trkpt lat="45.5848659" lon="8.3756281"><ele>248.0</ele><time>2026-05-02T12:01:03.991Z</time></trkpt><trkpt lat="45.5849295" lon="8.3755927"><ele>248.0</ele><time>2026-05-02T12:01:06.979Z</time></trkpt><trkpt lat="45.585006" lon="8.3755534"><ele>248.0</ele><time>2026-05-02T12:01:09.986Z</time></trkpt><trkpt lat="45.585073" lon="8.3755114"><ele>248.0</ele><time>2026-05-02T12:01:12.003Z</time></trkpt><trkpt lat="45.5851466" lon="8.3754505"><ele>248.0</ele><time>2026-05-02T12:01:13.984Z</time></trkpt><trkpt lat="45.5852325" lon="8.3753725"><ele>248.0</ele><time>2026-05-02T12:01:15.992Z</time></trkpt><trkpt lat="45.5853325" lon="8.3752837"><ele>248.33333333333334</ele><time>2026-05-02T12:01:17.978Z</time></trkpt><trkpt lat="45.5853957" lon="8.3752356"><ele>248.66666666666669</ele><time>2026-05-02T12:01:18.984Z</time></trkpt><trkpt lat="45.5854633" lon="8.3751825"><ele>249.0</ele><time>2026-05-02T12:01:19.998Z</time></trkpt><trkpt lat="45.5855266" lon="8.3751299"><ele>249.33333333333331</ele><time>2026-05-02T12:01:20.984Z</time></trkpt><trkpt lat="45.5855927" lon="8.3750734"><ele>249.66666666666666</ele><time>2026-05-02T12:01:21.996Z</time></trkpt><trkpt lat="45.585654" lon="8.3750152"><ele>250.0</ele><time>2026-05-02T12:01:22.978Z</time></trkpt><trkpt lat="45.5857248" lon="8.3749614"><ele>249.99999999999997</ele><time>2026-05-02T12:01:23.987Z</time></trkpt><trkpt lat="45.5857932" lon="8.3749134"><ele>250.0</ele><time>2026-05-02T12:01:24.984Z</time></trkpt><trkpt lat="45.5858599" lon="8.3748625"><ele>250.0</ele><time>2026-05-02T12:01:25.992Z</time></trkpt><trkpt lat="45.5859213" lon="8.3748152"><ele>250.0</ele><time>2026-05-02T12:01:26.984Z</time></trkpt><trkpt lat="45.5859913" lon="8.3747678"><ele>249.99999999999997</ele><time>2026-05-02T12:01:27.986Z</time></trkpt><trkpt lat="45.586067" lon="8.3747206"><ele>250.0</ele><time>2026-05-02T12:01:28.983Z</time></trkpt><trkpt lat="45.5861386" lon="8.374678"><ele>249.99999999999997</ele><time>2026-05-02T12:01:29.989Z</time></trkpt><trkpt lat="45.5862112" lon="8.3746385"><ele>250.0</ele><time>2026-05-02T12:01:30.991Z</time></trkpt><trkpt lat="45.5862818" lon="8.3746062"><ele>250.0</ele><time>2026-05-02T12:01:31.988Z</time></trkpt><trkpt lat="45.586347" lon="8.3745784"><ele>250.0</ele><time>2026-05-02T12:01:32.986Z</time></trkpt><trkpt lat="45.5864125" lon="8.3745545"><ele>249.99999999999997</ele><time>2026-05-02T12:01:33.993Z</time></trkpt><trkpt lat="45.5864855" lon="8.3745308"><ele>250.0</ele><time>2026-05-02T12:01:35.995Z</time></trkpt><trkpt lat="45.5865202" lon="8.3744137"><ele>250.0</ele><time>2026-05-02T12:01:49.99Z</time></trkpt><trkpt lat="45.5865014" lon="8.3742537"><ele>250.0</ele><time>2026-05-02T12:01:52.001Z</time></trkpt><trkpt lat="45.5864881" lon="8.3741581"><ele>250.0</ele><time>2026-05-02T12:01:52.989Z</time></trkpt><trkpt lat="45.5864733" lon="8.3740649"><ele>250.0</ele><time>2026-05-02T12:01:53.994Z</time></trkpt><trkpt lat="45.5864475" lon="8.3738996"><ele>250.0</ele><time>2026-05-02T12:01:55.995Z</time></trkpt><trkpt lat="45.586426" lon="8.3737515"><ele>249.33333333333331</ele><time>2026-05-02T12:01:57.988Z</time></trkpt><trkpt lat="45.5864094" lon="8.3736444"><ele>248.66666666666666</ele><time>2026-05-02T12:01:59.985Z</time></trkpt><trkpt lat="45.586383" lon="8.3735196"><ele>248.0</ele><time>2026-05-02T12:02:02.981Z</time></trkpt><trkpt lat="45.5863594" lon="8.3734318"><ele>247.33333333333331</ele><time>2026-05-02T12:02:06.983Z</time></trkpt><trkpt lat="45.586406" lon="8.37336"><ele>246.66666666666666</ele><time>2026-05-02T12:02:13.986Z</time></trkpt><trkpt lat="45.5864516" lon="8.3732495"><ele>246.0</ele><time>2026-05-02T12:02:15.984Z</time></trkpt><trkpt lat="45.5864334" lon="8.3731368"><ele>246.0</ele><time>2026-05-02T12:02:19.987Z</time></trkpt><trkpt lat="45.5864126" lon="8.3730222"><ele>246.00000000000003</ele><time>2026-05-02T12:02:22.989Z</time></trkpt><trkpt lat="45.5863834" lon="8.3728868"><ele>246.00000000000003</ele><time>2026-05-02T12:02:25.986Z</time></trkpt><trkpt lat="45.5863338" lon="8.3727439"><ele>246.0</ele><time>2026-05-02T12:02:27.988Z</time></trkpt><trkpt lat="45.5863087" lon="8.3726434"><ele>246.0</ele><time>2026-05-02T12:02:28.983Z</time></trkpt><trkpt lat="45.5862821" lon="8.3725277"><ele>246.0</ele><time>2026-05-02T12:02:29.988Z</time></trkpt><trkpt lat="45.586255" lon="8.3724049"><ele>246.00000000000003</ele><time>2026-05-02T12:02:30.988Z</time></trkpt><trkpt lat="45.5862241" lon="8.3722788"><ele>246.00000000000003</ele><time>2026-05-02T12:02:31.986Z</time></trkpt><trkpt lat="45.5861921" lon="8.3721547"><ele>246.0</ele><time>2026-05-02T12:02:32.994Z</time></trkpt><trkpt lat="45.5861618" lon="8.3720352"><ele>246.0</ele><time>2026-05-02T12:02:33.995Z</time></trkpt><trkpt lat="45.5861321" lon="8.3719211"><ele>246.0</ele><time>2026-05-02T12:02:34.983Z</time></trkpt><trkpt lat="45.5861006" lon="8.3718018"><ele>246.00000000000003</ele><time>2026-05-02T12:02:35.997Z</time></trkpt><trkpt lat="45.5860638" lon="8.3716686"><ele>246.00000000000003</ele><time>2026-05-02T12:02:36.993Z</time></trkpt><trkpt lat="45.5860209" lon="8.3715133"><ele>246.0</ele><time>2026-05-02T12:02:37.998Z</time></trkpt><trkpt lat="45.585973" lon="8.3713322"><ele>246.0</ele><time>2026-05-02T12:02:38.984Z</time></trkpt><trkpt lat="45.5859236" lon="8.3711292"><ele>246.0</ele><time>2026-05-02T12:02:39.986Z</time></trkpt><trkpt lat="45.5858738" lon="8.3709075"><ele>246.0</ele><time>2026-05-02T12:02:41Z</time></trkpt><trkpt lat="45.5858275" lon="8.3706881"><ele>246.0</ele><time>2026-05-02T12:02:41.988Z</time></trkpt><trkpt lat="45.5857881" lon="8.3704936"><ele>246.0</ele><time>2026-05-02T12:02:42.996Z</time></trkpt><trkpt lat="45.5857604" lon="8.3703436"><ele>246.0</ele><time>2026-05-02T12:02:43.982Z</time></trkpt><trkpt lat="45.5857373" lon="8.3702278"><ele>246.0</ele><time>2026-05-02T12:02:44.989Z</time></trkpt><trkpt lat="45.5857177" lon="8.3701401"><ele>246.0</ele><time>2026-05-02T12:02:45.998Z</time></trkpt><trkpt lat="45.5856903" lon="8.3700408"><ele>246.0</ele><time>2026-05-02T12:02:47.995Z</time></trkpt><trkpt lat="45.5856622" lon="8.369918"><ele>246.0</ele><time>2026-05-02T12:02:50.99Z</time></trkpt><trkpt lat="45.5856228" lon="8.3698112"><ele>246.00000000000003</ele><time>2026-05-02T12:02:53.99Z</time></trkpt><trkpt lat="45.5855944" lon="8.3697257"><ele>246.0</ele><time>2026-05-02T12:02:56.981Z</time></trkpt><trkpt lat="45.5855635" lon="8.369597"><ele>246.00000000000003</ele><time>2026-05-02T12:02:58.98Z</time></trkpt><trkpt lat="45.5855444" lon="8.3695111"><ele>246.00000000000003</ele><time>2026-05-02T12:02:59.99Z</time></trkpt><trkpt lat="45.5855241" lon="8.3694159"><ele>246.0</ele><time>2026-05-02T12:03:00.994Z</time></trkpt><trkpt lat="45.5854997" lon="8.3693187"><ele>246.00000000000003</ele><time>2026-05-02T12:03:01.994Z</time></trkpt><trkpt lat="45.5854746" lon="8.3692166"><ele>246.00000000000003</ele><time>2026-05-02T12:03:03.002Z</time></trkpt><trkpt lat="45.5854523" lon="8.3691112"><ele>246.0</ele><time>2026-05-02T12:03:03.993Z</time></trkpt><trkpt lat="45.5854279" lon="8.3690021"><ele>246.0</ele><time>2026-05-02T12:03:04.998Z</time></trkpt><trkpt lat="45.5854027" lon="8.3688902"><ele>246.0</ele><time>2026-05-02T12:03:05.999Z</time></trkpt><trkpt lat="45.5853761" lon="8.3687776"><ele>246.0</ele><time>2026-05-02T12:03:06.988Z</time></trkpt><trkpt lat="45.585345" lon="8.3686537"><ele>246.0</ele><time>2026-05-02T12:03:08.005Z</time></trkpt><trkpt lat="45.5853159" lon="8.3685305"><ele>246.0</ele><time>2026-05-02T12:03:08.993Z</time></trkpt><trkpt lat="45.5852887" lon="8.3684079"><ele>246.20000000000002</ele><time>2026-05-02T12:03:09.996Z</time></trkpt><trkpt lat="45.5852646" lon="8.3682871"><ele>246.40000000000003</ele><time>2026-05-02T12:03:10.989Z</time></trkpt><trkpt lat="45.5852331" lon="8.3681481"><ele>246.6</ele><time>2026-05-02T12:03:11.997Z</time></trkpt><trkpt lat="45.5851964" lon="8.3679876"><ele>246.8</ele><time>2026-05-02T12:03:12.997Z</time></trkpt><trkpt lat="45.5851587" lon="8.3678189"><ele>247.0</ele><time>2026-05-02T12:03:13.992Z</time></trkpt><trkpt lat="45.5851284" lon="8.3676701"><ele>247.6</ele><time>2026-05-02T12:03:14.994Z</time></trkpt><trkpt lat="45.5851034" lon="8.3675342"><ele>248.2</ele><time>2026-05-02T12:03:15.987Z</time></trkpt><trkpt lat="45.5850717" lon="8.3674012"><ele>248.8</ele><time>2026-05-02T12:03:16.991Z</time></trkpt><trkpt lat="45.5850332" lon="8.3672637"><ele>249.4</ele><time>2026-05-02T12:03:17.995Z</time></trkpt><trkpt lat="45.5850005" lon="8.3671286"><ele>250.0</ele><time>2026-05-02T12:03:18.988Z</time></trkpt><trkpt lat="45.5849687" lon="8.3669943"><ele>250.16666666666666</ele><time>2026-05-02T12:03:19.997Z</time></trkpt><trkpt lat="45.5849359" lon="8.3668633"><ele>250.33333333333331</ele><time>2026-05-02T12:03:20.998Z</time></trkpt><trkpt lat="45.5849043" lon="8.3667374"><ele>250.5</ele><time>2026-05-02T12:03:21.993Z</time></trkpt><trkpt lat="45.5848737" lon="8.3666172"><ele>250.66666666666669</ele><time>2026-05-02T12:03:22.998Z</time></trkpt><trkpt lat="45.584847" lon="8.3665079"><ele>250.83333333333334</ele><time>2026-05-02T12:03:23.987Z</time></trkpt><trkpt lat="45.5848234" lon="8.3664111"><ele>251.0</ele><time>2026-05-02T12:03:24.99Z</time></trkpt><trkpt lat="45.5848008" lon="8.3663241"><ele>250.60000000000002</ele><time>2026-05-02T12:03:25.991Z</time></trkpt><trkpt lat="45.5847649" lon="8.3661824"><ele>250.20000000000002</ele><time>2026-05-02T12:03:27.991Z</time></trkpt><trkpt lat="45.5847271" lon="8.366052"><ele>249.79999999999998</ele><time>2026-05-02T12:03:29.997Z</time></trkpt><trkpt lat="45.5846912" lon="8.3658997"><ele>249.39999999999998</ele><time>2026-05-02T12:03:31.989Z</time></trkpt><trkpt lat="45.5846617" lon="8.3657216"><ele>249.0</ele><time>2026-05-02T12:03:33.994Z</time></trkpt><trkpt lat="45.5846437" lon="8.3656137"><ele>248.5</ele><time>2026-05-02T12:03:34.997Z</time></trkpt><trkpt lat="45.5846346" lon="8.3655002"><ele>248.0</ele><time>2026-05-02T12:03:35.985Z</time></trkpt><trkpt lat="45.5846234" lon="8.3653873"><ele>247.5</ele><time>2026-05-02T12:03:36.987Z</time></trkpt><trkpt lat="45.5846134" lon="8.3652756"><ele>247.0</ele><time>2026-05-02T12:03:37.997Z</time></trkpt><trkpt lat="45.5846035" lon="8.3651659"><ele>246.5</ele><time>2026-05-02T12:03:38.985Z</time></trkpt><trkpt lat="45.5845976" lon="8.3650577"><ele>246.0</ele><time>2026-05-02T12:03:39.989Z</time></trkpt><trkpt lat="45.5845904" lon="8.3649441"><ele>246.00000000000003</ele><time>2026-05-02T12:03:40.991Z</time></trkpt><trkpt lat="45.584582" lon="8.3648286"><ele>246.0</ele><time>2026-05-02T12:03:41.989Z</time></trkpt><trkpt lat="45.5845678" lon="8.364722"><ele>246.00000000000003</ele><time>2026-05-02T12:03:42.983Z</time></trkpt><trkpt lat="45.5845552" lon="8.3646208"><ele>246.00000000000003</ele><time>2026-05-02T12:03:43.977Z</time></trkpt><trkpt lat="45.5845427" lon="8.3645223"><ele>246.0</ele><time>2026-05-02T12:03:44.985Z</time></trkpt><trkpt lat="45.5845219" lon="8.3644262"><ele>246.00000000000003</ele><time>2026-05-02T12:03:45.992Z</time></trkpt><trkpt lat="45.5845028" lon="8.3643319"><ele>246.00000000000003</ele><time>2026-05-02T12:03:46.99Z</time></trkpt><trkpt lat="45.5844843" lon="8.3642386"><ele>245.83333333333334</ele><time>2026-05-02T12:03:47.987Z</time></trkpt><trkpt lat="45.5844645" lon="8.364092"><ele>245.66666666666669</ele><time>2026-05-02T12:03:49.985Z</time></trkpt><trkpt lat="45.584456" lon="8.3639721"><ele>245.5</ele><time>2026-05-02T12:03:52.987Z</time></trkpt><trkpt lat="45.5844302" lon="8.3638703"><ele>245.33333333333334</ele><time>2026-05-02T12:03:56.984Z</time></trkpt><trkpt lat="45.5843973" lon="8.3637769"><ele>245.16666666666669</ele><time>2026-05-02T12:04:01.984Z</time></trkpt><trkpt lat="45.5844046" lon="8.3638693"><ele>245.0</ele><time>2026-05-02T12:04:06.988Z</time></trkpt><trkpt lat="45.584435" lon="8.3639629"><ele>245.00000000000003</ele><time>2026-05-02T12:04:09.995Z</time></trkpt><trkpt lat="45.5844773" lon="8.3640696"><ele>245.0</ele><time>2026-05-02T12:04:13.987Z</time></trkpt><trkpt lat="45.5844952" lon="8.3641669"><ele>245.0</ele><time>2026-05-02T12:04:16.99Z</time></trkpt><trkpt lat="45.5845303" lon="8.3642538"><ele>245.0</ele><time>2026-05-02T12:04:56.974Z</time></trkpt><trkpt lat="45.5845401" lon="8.3643649"><ele>245.00000000000003</ele><time>2026-05-02T12:04:58.979Z</time></trkpt><trkpt lat="45.5845509" lon="8.3645018"><ele>245.0</ele><time>2026-05-02T12:05:00.99Z</time></trkpt><trkpt lat="45.5845726" lon="8.3646428"><ele>245.2</ele><time>2026-05-02T12:05:02.991Z</time></trkpt><trkpt lat="45.5845929" lon="8.364792"><ele>245.4</ele><time>2026-05-02T12:05:04.987Z</time></trkpt><trkpt lat="45.5846128" lon="8.3649321"><ele>245.60000000000002</ele><time>2026-05-02T12:05:06.98Z</time></trkpt><trkpt lat="45.5846171" lon="8.3650864"><ele>245.8</ele><time>2026-05-02T12:05:08.987Z</time></trkpt><trkpt lat="45.5846232" lon="8.3652437"><ele>246.0</ele><time>2026-05-02T12:05:10.986Z</time></trkpt><trkpt lat="45.5846235" lon="8.3653929"><ele>246.60000000000002</ele><time>2026-05-02T12:05:12.99Z</time></trkpt><trkpt lat="45.5846302" lon="8.3655477"><ele>247.20000000000002</ele><time>2026-05-02T12:05:14.992Z</time></trkpt><trkpt lat="45.5846596" lon="8.365688"><ele>247.79999999999998</ele><time>2026-05-02T12:05:16.985Z</time></trkpt><trkpt lat="45.5846961" lon="8.3658328"><ele>248.39999999999998</ele><time>2026-05-02T12:05:18.99Z</time></trkpt><trkpt lat="45.5847358" lon="8.365986"><ele>249.0</ele><time>2026-05-02T12:05:20.984Z</time></trkpt><trkpt lat="45.5847737" lon="8.366132"><ele>249.0</ele><time>2026-05-02T12:05:22.985Z</time></trkpt><trkpt lat="45.5848105" lon="8.3662833"><ele>249.0</ele><time>2026-05-02T12:05:24.983Z</time></trkpt><trkpt lat="45.5848309" lon="8.3663777"><ele>249.0</ele><time>2026-05-02T12:05:26.007Z</time></trkpt><trkpt lat="45.5848527" lon="8.3664811"><ele>249.0</ele><time>2026-05-02T12:05:26.989Z</time></trkpt><trkpt lat="45.5848746" lon="8.3665834"><ele>249.0</ele><time>2026-05-02T12:05:27.981Z</time></trkpt><trkpt lat="45.5848975" lon="8.3666805"><ele>249.0</ele><time>2026-05-02T12:05:28.986Z</time></trkpt><trkpt lat="45.5849196" lon="8.3667784"><ele>249.16666666666666</ele><time>2026-05-02T12:05:29.993Z</time></trkpt><trkpt lat="45.5849395" lon="8.366872"><ele>249.33333333333331</ele><time>2026-05-02T12:05:30.997Z</time></trkpt><trkpt lat="45.5849576" lon="8.3669589"><ele>249.5</ele><time>2026-05-02T12:05:31.989Z</time></trkpt><trkpt lat="45.5849802" lon="8.367048"><ele>249.66666666666666</ele><time>2026-05-02T12:05:32.987Z</time></trkpt><trkpt lat="45.5850072" lon="8.3671321"><ele>249.83333333333331</ele><time>2026-05-02T12:05:33.984Z</time></trkpt><trkpt lat="45.5850482" lon="8.3672985"><ele>250.0</ele><time>2026-05-02T12:05:35.996Z</time></trkpt><trkpt lat="45.5850835" lon="8.3674583"><ele>250.0</ele><time>2026-05-02T12:05:37.99Z</time></trkpt><trkpt lat="45.5851098" lon="8.3676145"><ele>250.0</ele><time>2026-05-02T12:05:39.987Z</time></trkpt><trkpt lat="45.5851347" lon="8.3677662"><ele>250.0</ele><time>2026-05-02T12:05:41.984Z</time></trkpt><trkpt lat="45.5851684" lon="8.3679162"><ele>250.0</ele><time>2026-05-02T12:05:43.986Z</time></trkpt><trkpt lat="45.5852142" lon="8.3680838"><ele>249.49999999999997</ele><time>2026-05-02T12:05:45.991Z</time></trkpt><trkpt lat="45.5852346" lon="8.3681728"><ele>249.0</ele><time>2026-05-02T12:05:46.988Z</time></trkpt><trkpt lat="45.5852547" lon="8.3682647"><ele>248.5</ele><time>2026-05-02T12:05:47.996Z</time></trkpt><trkpt lat="45.585276" lon="8.368351"><ele>248.0</ele><time>2026-05-02T12:05:48.981Z</time></trkpt><trkpt lat="45.5852968" lon="8.3684422"><ele>247.49999999999997</ele><time>2026-05-02T12:05:49.991Z</time></trkpt><trkpt lat="45.585318" lon="8.3685286"><ele>247.0</ele><time>2026-05-02T12:05:50.992Z</time></trkpt><trkpt lat="45.5853579" lon="8.3687025"><ele>246.8</ele><time>2026-05-02T12:05:52.994Z</time></trkpt><trkpt lat="45.5853777" lon="8.3687882"><ele>246.6</ele><time>2026-05-02T12:05:53.996Z</time></trkpt><trkpt lat="45.5854178" lon="8.3689568"><ele>246.40000000000003</ele><time>2026-05-02T12:05:55.998Z</time></trkpt><trkpt lat="45.5854444" lon="8.3690572"><ele>246.20000000000002</ele><time>2026-05-02T12:05:56.986Z</time></trkpt><trkpt lat="45.5854766" lon="8.3691789"><ele>246.0</ele><time>2026-05-02T12:05:57.993Z</time></trkpt><trkpt lat="45.585509" lon="8.3693111"><ele>246.0</ele><time>2026-05-02T12:05:58.992Z</time></trkpt><trkpt lat="45.5855356" lon="8.3694398"><ele>246.0</ele><time>2026-05-02T12:05:59.982Z</time></trkpt><trkpt lat="45.5855597" lon="8.3695503"><ele>246.0</ele><time>2026-05-02T12:06:00.989Z</time></trkpt><trkpt lat="45.5855842" lon="8.3696391"><ele>246.0</ele><time>2026-05-02T12:06:01.99Z</time></trkpt><trkpt lat="45.5856144" lon="8.3697628"><ele>246.0</ele><time>2026-05-02T12:06:03.994Z</time></trkpt><trkpt lat="45.5856351" lon="8.3698656"><ele>246.0</ele><time>2026-05-02T12:06:05.987Z</time></trkpt><trkpt lat="45.5856532" lon="8.3699634"><ele>246.0</ele><time>2026-05-02T12:06:07.997Z</time></trkpt><trkpt lat="45.585678" lon="8.3700625"><ele>246.00000000000003</ele><time>2026-05-02T12:06:09.986Z</time></trkpt><trkpt lat="45.5856984" lon="8.3701675"><ele>246.00000000000003</ele><time>2026-05-02T12:06:11.987Z</time></trkpt><trkpt lat="45.5857252" lon="8.3702856"><ele>246.0</ele><time>2026-05-02T12:06:13.988Z</time></trkpt><trkpt lat="45.5857616" lon="8.3704129"><ele>246.0</ele><time>2026-05-02T12:06:15.99Z</time></trkpt><trkpt lat="45.58581" lon="8.370571"><ele>246.33333333333334</ele><time>2026-05-02T12:06:17.993Z</time></trkpt><trkpt lat="45.5858369" lon="8.3706529"><ele>246.66666666666669</ele><time>2026-05-02T12:06:18.99Z</time></trkpt><trkpt lat="45.5858615" lon="8.3707438"><ele>247.0</ele><time>2026-05-02T12:06:19.997Z</time></trkpt><trkpt lat="45.5858901" lon="8.3708452"><ele>247.33333333333334</ele><time>2026-05-02T12:06:20.992Z</time></trkpt><trkpt lat="45.5859137" lon="8.370941"><ele>247.66666666666669</ele><time>2026-05-02T12:06:21.996Z</time></trkpt><trkpt lat="45.5860176" lon="8.3709723"><ele>248.0</ele><time>2026-05-02T12:06:23.984Z</time></trkpt><trkpt lat="45.5861252" lon="8.3709201"><ele>247.57142857142858</ele><time>2026-05-02T12:06:25.99Z</time></trkpt><trkpt lat="45.5861916" lon="8.3708878"><ele>247.14285714285717</ele><time>2026-05-02T12:06:28.002Z</time></trkpt><trkpt lat="45.5862648" lon="8.3708282"><ele>246.71428571428572</ele><time>2026-05-02T12:06:30.98Z</time></trkpt><trkpt lat="45.5863438" lon="8.3707958"><ele>246.28571428571428</ele><time>2026-05-02T12:06:33.982Z</time></trkpt><trkpt lat="45.5864046" lon="8.3707619"><ele>245.85714285714286</ele><time>2026-05-02T12:06:36.985Z</time></trkpt><trkpt lat="45.586473" lon="8.3707214"><ele>245.42857142857144</ele><time>2026-05-02T12:06:40.974Z</time></trkpt><trkpt lat="45.5865283" lon="8.3706674"><ele>245.0</ele><time>2026-05-02T12:06:42.978Z</time></trkpt><trkpt lat="45.5866242" lon="8.3705774"><ele>244.6</ele><time>2026-05-02T12:06:44.982Z</time></trkpt><trkpt lat="45.5867329" lon="8.3705026"><ele>244.2</ele><time>2026-05-02T12:06:46.982Z</time></trkpt><trkpt lat="45.5868513" lon="8.3704385"><ele>243.8</ele><time>2026-05-02T12:06:48.977Z</time></trkpt><trkpt lat="45.5869117" lon="8.3704049"><ele>243.4</ele><time>2026-05-02T12:06:49.993Z</time></trkpt><trkpt lat="45.5870308" lon="8.3703299"><ele>243.0</ele><time>2026-05-02T12:06:51.983Z</time></trkpt><trkpt lat="45.5870889" lon="8.3702881"><ele>244.2</ele><time>2026-05-02T12:06:52.98Z</time></trkpt><trkpt lat="45.5871497" lon="8.3702423"><ele>245.4</ele><time>2026-05-02T12:06:53.992Z</time></trkpt><trkpt lat="45.5872631" lon="8.3701654"><ele>246.59999999999997</ele><time>2026-05-02T12:06:55.987Z</time></trkpt><trkpt lat="45.5873834" lon="8.3701047"><ele>247.79999999999998</ele><time>2026-05-02T12:06:57.995Z</time></trkpt><trkpt lat="45.5874444" lon="8.3700723"><ele>249.0</ele><time>2026-05-02T12:06:58.984Z</time></trkpt><trkpt lat="45.5875154" lon="8.3700338"><ele>249.0</ele><time>2026-05-02T12:06:59.981Z</time></trkpt><trkpt lat="45.5875895" lon="8.3699927"><ele>249.0</ele><time>2026-05-02T12:07:00.976Z</time></trkpt><trkpt lat="45.5876611" lon="8.3699494"><ele>249.0</ele><time>2026-05-02T12:07:01.994Z</time></trkpt><trkpt lat="45.5877234" lon="8.369915"><ele>249.0</ele><time>2026-05-02T12:07:02.992Z</time></trkpt><trkpt lat="45.5877869" lon="8.3698894"><ele>249.0</ele><time>2026-05-02T12:07:03.986Z</time></trkpt><trkpt lat="45.587896" lon="8.3698358"><ele>249.0</ele><time>2026-05-02T12:07:05.986Z</time></trkpt><trkpt lat="45.5880106" lon="8.3697609"><ele>248.83333333333334</ele><time>2026-05-02T12:07:07.994Z</time></trkpt><trkpt lat="45.5880703" lon="8.369713"><ele>248.66666666666669</ele><time>2026-05-02T12:07:08.988Z</time></trkpt><trkpt lat="45.5881293" lon="8.3696609"><ele>248.5</ele><time>2026-05-02T12:07:09.992Z</time></trkpt><trkpt lat="45.5882443" lon="8.3695648"><ele>248.33333333333334</ele><time>2026-05-02T12:07:11.984Z</time></trkpt><trkpt lat="45.5883065" lon="8.3695191"><ele>248.16666666666669</ele><time>2026-05-02T12:07:12.992Z</time></trkpt><trkpt lat="45.5883685" lon="8.3694772"><ele>248.0</ele><time>2026-05-02T12:07:13.992Z</time></trkpt><trkpt lat="45.5884286" lon="8.3694404"><ele>248.5</ele><time>2026-05-02T12:07:14.985Z</time></trkpt><trkpt lat="45.5885346" lon="8.3693767"><ele>249.0</ele><time>2026-05-02T12:07:16.995Z</time></trkpt><trkpt lat="45.5886405" lon="8.3693274"><ele>249.5</ele><time>2026-05-02T12:07:18.985Z</time></trkpt><trkpt lat="45.5887566" lon="8.3692863"><ele>250.0</ele><time>2026-05-02T12:07:20.99Z</time></trkpt><trkpt lat="45.5888756" lon="8.3692684"><ele>249.2</ele><time>2026-05-02T12:07:22.989Z</time></trkpt><trkpt lat="45.5889946" lon="8.3692425"><ele>248.4</ele><time>2026-05-02T12:07:24.997Z</time></trkpt><trkpt lat="45.5891012" lon="8.3692117"><ele>247.60000000000002</ele><time>2026-05-02T12:07:26.985Z</time></trkpt><trkpt lat="45.5892152" lon="8.3691802"><ele>246.8</ele><time>2026-05-02T12:07:28.993Z</time></trkpt><trkpt lat="45.5892788" lon="8.369163"><ele>246.0</ele><time>2026-05-02T12:07:29.984Z</time></trkpt><trkpt lat="45.589347" lon="8.3691449"><ele>246.0</ele><time>2026-05-02T12:07:30.987Z</time></trkpt><trkpt lat="45.5894141" lon="8.3691308"><ele>246.0</ele><time>2026-05-02T12:07:31.985Z</time></trkpt><trkpt lat="45.5894813" lon="8.3691152"><ele>246.0</ele><time>2026-05-02T12:07:33Z</time></trkpt><trkpt lat="45.5896014" lon="8.3690829"><ele>246.0</ele><time>2026-05-02T12:07:34.993Z</time></trkpt><trkpt lat="45.589719" lon="8.369076"><ele>246.0</ele><time>2026-05-02T12:07:36.995Z</time></trkpt><trkpt lat="45.5897838" lon="8.369081"><ele>246.0</ele><time>2026-05-02T12:07:37.988Z</time></trkpt><trkpt lat="45.5898468" lon="8.3690865"><ele>246.20000000000002</ele><time>2026-05-02T12:07:38.996Z</time></trkpt><trkpt lat="45.5899728" lon="8.3690927"><ele>246.40000000000003</ele><time>2026-05-02T12:07:40.988Z</time></trkpt><trkpt lat="45.5900363" lon="8.3690977"><ele>246.6</ele><time>2026-05-02T12:07:41.99Z</time></trkpt><trkpt lat="45.5901535" lon="8.369116"><ele>246.8</ele><time>2026-05-02T12:07:43.997Z</time></trkpt><trkpt lat="45.590264" lon="8.3691332"><ele>247.0</ele><time>2026-05-02T12:07:45.995Z</time></trkpt><trkpt lat="45.5903285" lon="8.369141"><ele>246.83333333333331</ele><time>2026-05-02T12:07:46.987Z</time></trkpt><trkpt lat="45.5903985" lon="8.3691468"><ele>246.66666666666666</ele><time>2026-05-02T12:07:47.984Z</time></trkpt><trkpt lat="45.5904632" lon="8.3691486"><ele>246.5</ele><time>2026-05-02T12:07:48.987Z</time></trkpt><trkpt lat="45.5905542" lon="8.3691475"><ele>246.33333333333331</ele><time>2026-05-02T12:07:50.997Z</time></trkpt><trkpt lat="45.5906184" lon="8.3691426"><ele>246.16666666666666</ele><time>2026-05-02T12:08:05.998Z</time></trkpt><trkpt lat="45.5907386" lon="8.3691102"><ele>246.0</ele><time>2026-05-02T12:08:07.983Z</time></trkpt><trkpt lat="45.5908072" lon="8.3690882"><ele>246.0</ele><time>2026-05-02T12:08:08.981Z</time></trkpt><trkpt lat="45.5908777" lon="8.3690649"><ele>246.0</ele><time>2026-05-02T12:08:09.986Z</time></trkpt><trkpt lat="45.5909449" lon="8.3690399"><ele>246.0</ele><time>2026-05-02T12:08:10.982Z</time></trkpt><trkpt lat="45.5910087" lon="8.369018"><ele>246.0</ele><time>2026-05-02T12:08:11.999Z</time></trkpt><trkpt lat="45.5911081" lon="8.3689867"><ele>246.0</ele><time>2026-05-02T12:08:13.991Z</time></trkpt><trkpt lat="45.5911768" lon="8.3689549"><ele>246.0</ele><time>2026-05-02T12:08:15.989Z</time></trkpt><trkpt lat="45.5912551" lon="8.3689098"><ele>245.83333333333334</ele><time>2026-05-02T12:08:18.989Z</time></trkpt><trkpt lat="45.5913231" lon="8.368862"><ele>245.66666666666669</ele><time>2026-05-02T12:08:21.982Z</time></trkpt><trkpt lat="45.5913772" lon="8.3688159"><ele>245.5</ele><time>2026-05-02T12:08:23.986Z</time></trkpt><trkpt lat="45.5914678" lon="8.3687805"><ele>245.33333333333334</ele><time>2026-05-02T12:08:26.99Z</time></trkpt><trkpt lat="45.5915532" lon="8.3687674"><ele>245.16666666666669</ele><time>2026-05-02T12:08:28.987Z</time></trkpt><trkpt lat="45.5916533" lon="8.3687617"><ele>245.0</ele><time>2026-05-02T12:08:30.995Z</time></trkpt><trkpt lat="45.5917568" lon="8.3687549"><ele>245.2</ele><time>2026-05-02T12:08:32.991Z</time></trkpt><trkpt lat="45.5918506" lon="8.3687546"><ele>245.4</ele><time>2026-05-02T12:08:34.997Z</time></trkpt><trkpt lat="45.5919466" lon="8.3687487"><ele>245.60000000000002</ele><time>2026-05-02T12:08:36.992Z</time></trkpt><trkpt lat="45.5920544" lon="8.368743"><ele>245.8</ele><time>2026-05-02T12:08:38.99Z</time></trkpt><trkpt lat="45.5921197" lon="8.3687465"><ele>246.0</ele><time>2026-05-02T12:08:39.992Z</time></trkpt><trkpt lat="45.5922453" lon="8.3687623"><ele>246.0</ele><time>2026-05-02T12:08:41.987Z</time></trkpt><trkpt lat="45.5923084" lon="8.3687789"><ele>246.0</ele><time>2026-05-02T12:08:42.993Z</time></trkpt><trkpt lat="45.592375" lon="8.3687975"><ele>246.0</ele><time>2026-05-02T12:08:43.991Z</time></trkpt><trkpt lat="45.592439" lon="8.3688195"><ele>246.0</ele><time>2026-05-02T12:08:44.981Z</time></trkpt><trkpt lat="45.5925025" lon="8.3688403"><ele>246.0</ele><time>2026-05-02T12:08:45.991Z</time></trkpt><trkpt lat="45.5926167" lon="8.3688847"><ele>246.0</ele><time>2026-05-02T12:08:47.989Z</time></trkpt><trkpt lat="45.5927377" lon="8.3689393"><ele>245.83333333333334</ele><time>2026-05-02T12:08:49.991Z</time></trkpt><trkpt lat="45.5927992" lon="8.3689715"><ele>245.66666666666669</ele><time>2026-05-02T12:08:50.995Z</time></trkpt><trkpt lat="45.592861" lon="8.3690075"><ele>245.5</ele><time>2026-05-02T12:08:51.989Z</time></trkpt><trkpt lat="45.5929212" lon="8.3690421"><ele>245.33333333333334</ele><time>2026-05-02T12:08:52.987Z</time></trkpt><trkpt lat="45.5930351" lon="8.369092"><ele>245.16666666666669</ele><time>2026-05-02T12:08:54.991Z</time></trkpt><trkpt lat="45.5931366" lon="8.3691285"><ele>245.0</ele><time>2026-05-02T12:08:56.988Z</time></trkpt><trkpt lat="45.5932099" lon="8.3691364"><ele>245.33333333333334</ele><time>2026-05-02T12:08:58.986Z</time></trkpt><trkpt lat="45.593198" lon="8.3690318"><ele>245.66666666666669</ele><time>2026-05-02T12:09:03.979Z</time></trkpt><trkpt lat="45.5931575" lon="8.3689315"><ele>246.0</ele><time>2026-05-02T12:09:08.993Z</time></trkpt><trkpt lat="45.5931294" lon="8.368841"><ele>246.33333333333331</ele><time>2026-05-02T12:09:12.981Z</time></trkpt><trkpt lat="45.5931238" lon="8.368732"><ele>246.66666666666666</ele><time>2026-05-02T12:09:15.992Z</time></trkpt><trkpt lat="45.5931164" lon="8.3686256"><ele>247.0</ele><time>2026-05-02T12:09:17.992Z</time></trkpt><trkpt lat="45.593094" lon="8.3684737"><ele>247.33333333333331</ele><time>2026-05-02T12:09:19.992Z</time></trkpt><trkpt lat="45.593082" lon="8.3683674"><ele>247.66666666666666</ele><time>2026-05-02T12:09:20.988Z</time></trkpt><trkpt lat="45.5930741" lon="8.3682474"><ele>248.0</ele><time>2026-05-02T12:09:21.986Z</time></trkpt><trkpt lat="45.5930707" lon="8.3681227"><ele>248.33333333333331</ele><time>2026-05-02T12:09:22.984Z</time></trkpt><trkpt lat="45.5930682" lon="8.3679951"><ele>248.66666666666666</ele><time>2026-05-02T12:09:23.993Z</time></trkpt><trkpt lat="45.5930648" lon="8.3678672"><ele>249.0</ele><time>2026-05-02T12:09:24.983Z</time></trkpt><trkpt lat="45.5930631" lon="8.3677299"><ele>249.2</ele><time>2026-05-02T12:09:25.995Z</time></trkpt><trkpt lat="45.5930617" lon="8.3675994"><ele>249.39999999999998</ele><time>2026-05-02T12:09:26.981Z</time></trkpt><trkpt lat="45.5930617" lon="8.3674665"><ele>249.6</ele><time>2026-05-02T12:09:27.986Z</time></trkpt><trkpt lat="45.5930586" lon="8.3673357"><ele>249.8</ele><time>2026-05-02T12:09:28.982Z</time></trkpt><trkpt lat="45.5930541" lon="8.3672114"><ele>250.0</ele><time>2026-05-02T12:09:29.983Z</time></trkpt><trkpt lat="45.5930561" lon="8.3670844"><ele>250.33333333333331</ele><time>2026-05-02T12:09:30.989Z</time></trkpt><trkpt lat="45.593054" lon="8.3669574"><ele>250.66666666666666</ele><time>2026-05-02T12:09:31.99Z</time></trkpt><trkpt lat="45.5930487" lon="8.3668366"><ele>251.0</ele><time>2026-05-02T12:09:32.99Z</time></trkpt><trkpt lat="45.5930392" lon="8.3667212"><ele>251.33333333333331</ele><time>2026-05-02T12:09:33.993Z</time></trkpt><trkpt lat="45.5930304" lon="8.3666132"><ele>251.66666666666666</ele><time>2026-05-02T12:09:34.975Z</time></trkpt><trkpt lat="45.5930206" lon="8.3665096"><ele>252.0</ele><time>2026-05-02T12:09:35.995Z</time></trkpt><trkpt lat="45.5930105" lon="8.3664087"><ele>252.0</ele><time>2026-05-02T12:09:36.985Z</time></trkpt><trkpt lat="45.5929962" lon="8.366301"><ele>252.0</ele><time>2026-05-02T12:09:37.985Z</time></trkpt><trkpt lat="45.5929807" lon="8.3661908"><ele>252.0</ele><time>2026-05-02T12:09:38.991Z</time></trkpt><trkpt lat="45.5929622" lon="8.3660878"><ele>252.0</ele><time>2026-05-02T12:09:39.994Z</time></trkpt><trkpt lat="45.592942" lon="8.3659956"><ele>252.0</ele><time>2026-05-02T12:09:40.988Z</time></trkpt><trkpt lat="45.5929186" lon="8.365895"><ele>252.0</ele><time>2026-05-02T12:09:41.987Z</time></trkpt><trkpt lat="45.5928969" lon="8.3657889"><ele>252.0</ele><time>2026-05-02T12:09:42.997Z</time></trkpt><trkpt lat="45.5928785" lon="8.3656931"><ele>252.0</ele><time>2026-05-02T12:09:43.995Z</time></trkpt><trkpt lat="45.5928574" lon="8.3656058"><ele>252.0</ele><time>2026-05-02T12:09:44.986Z</time></trkpt><trkpt lat="45.5928386" lon="8.3655156"><ele>252.0</ele><time>2026-05-02T12:09:45.981Z</time></trkpt><trkpt lat="45.5928229" lon="8.3654161"><ele>252.0</ele><time>2026-05-02T12:09:46.983Z</time></trkpt><trkpt lat="45.5928079" lon="8.3653178"><ele>252.0</ele><time>2026-05-02T12:09:47.99Z</time></trkpt><trkpt lat="45.5927928" lon="8.3652164"><ele>252.0</ele><time>2026-05-02T12:09:48.991Z</time></trkpt><trkpt lat="45.5927764" lon="8.3651104"><ele>252.0</ele><time>2026-05-02T12:09:49.978Z</time></trkpt><trkpt lat="45.5927596" lon="8.3649954"><ele>252.0</ele><time>2026-05-02T12:09:50.994Z</time></trkpt><trkpt lat="45.5927446" lon="8.3648818"><ele>252.0</ele><time>2026-05-02T12:09:51.984Z</time></trkpt><trkpt lat="45.5927314" lon="8.3647764"><ele>252.0</ele><time>2026-05-02T12:09:53.001Z</time></trkpt><trkpt lat="45.5927152" lon="8.3646627"><ele>252.0</ele><time>2026-05-02T12:09:53.989Z</time></trkpt><trkpt lat="45.5926985" lon="8.3645444"><ele>252.0</ele><time>2026-05-02T12:09:54.992Z</time></trkpt><trkpt lat="45.5926832" lon="8.3644348"><ele>252.0</ele><time>2026-05-02T12:09:55.988Z</time></trkpt><trkpt lat="45.5926725" lon="8.3643031"><ele>252.0</ele><time>2026-05-02T12:09:57.986Z</time></trkpt><trkpt lat="45.5927129" lon="8.3642239"><ele>252.0</ele><time>2026-05-02T12:10:01.988Z</time></trkpt><trkpt lat="45.592772" lon="8.3641709"><ele>252.0</ele><time>2026-05-02T12:10:04.985Z</time></trkpt><trkpt lat="45.5928487" lon="8.364115"><ele>252.0</ele><time>2026-05-02T12:10:06.99Z</time></trkpt><trkpt lat="45.5929395" lon="8.3640584"><ele>252.0</ele><time>2026-05-02T12:10:08.996Z</time></trkpt><trkpt lat="45.5930489" lon="8.3639965"><ele>252.0</ele><time>2026-05-02T12:10:10.978Z</time></trkpt><trkpt lat="45.5931091" lon="8.3639656"><ele>252.0</ele><time>2026-05-02T12:10:11.989Z</time></trkpt><trkpt lat="45.5931694" lon="8.3639338"><ele>252.0</ele><time>2026-05-02T12:10:12.981Z</time></trkpt><trkpt lat="45.5932303" lon="8.3639048"><ele>252.0</ele><time>2026-05-02T12:10:13.989Z</time></trkpt><trkpt lat="45.5932906" lon="8.363878"><ele>252.0</ele><time>2026-05-02T12:10:14.984Z</time></trkpt><trkpt lat="45.5933932" lon="8.3638392"><ele>252.0</ele><time>2026-05-02T12:10:16.974Z</time></trkpt><trkpt lat="45.5934834" lon="8.3638135"><ele>252.0</ele><time>2026-05-02T12:10:18.978Z</time></trkpt><trkpt lat="45.5935799" lon="8.3637583"><ele>252.0</ele><time>2026-05-02T12:10:20.981Z</time></trkpt><trkpt lat="45.5936658" lon="8.3636906"><ele>252.0</ele><time>2026-05-02T12:10:22.975Z</time></trkpt><trkpt lat="45.5937573" lon="8.3636338"><ele>252.0</ele><time>2026-05-02T12:10:24.977Z</time></trkpt><trkpt lat="45.5938533" lon="8.3635802"><ele>252.0</ele><time>2026-05-02T12:10:26.972Z</time></trkpt><trkpt lat="45.5939437" lon="8.3635749"><ele>252.0</ele><time>2026-05-02T12:10:28.983Z</time></trkpt><trkpt lat="45.5940447" lon="8.3636465"><ele>252.0</ele><time>2026-05-02T12:10:30.984Z</time></trkpt><trkpt lat="45.5941033" lon="8.3636875"><ele>252.0</ele><time>2026-05-02T12:10:31.995Z</time></trkpt><trkpt lat="45.5942158" lon="8.3637172"><ele>252.0</ele><time>2026-05-02T12:10:33.993Z</time></trkpt><trkpt lat="45.5943376" lon="8.3636878"><ele>252.0</ele><time>2026-05-02T12:10:35.989Z</time></trkpt><trkpt lat="45.594403" lon="8.3636643"><ele>252.0</ele><time>2026-05-02T12:10:36.98Z</time></trkpt><trkpt lat="45.5944674" lon="8.3636419"><ele>252.0</ele><time>2026-05-02T12:10:37.994Z</time></trkpt><trkpt lat="45.5945303" lon="8.3636236"><ele>252.2</ele><time>2026-05-02T12:10:38.979Z</time></trkpt><trkpt lat="45.5946353" lon="8.3635947"><ele>252.39999999999998</ele><time>2026-05-02T12:10:40.981Z</time></trkpt><trkpt lat="45.594707" lon="8.3635895"><ele>252.60000000000002</ele><time>2026-05-02T12:10:42.975Z</time></trkpt><trkpt lat="45.5948031" lon="8.363579"><ele>252.8</ele><time>2026-05-02T12:10:45.988Z</time></trkpt><trkpt lat="45.5948906" lon="8.3635622"><ele>253.0</ele><time>2026-05-02T12:10:47.981Z</time></trkpt><trkpt lat="45.5950015" lon="8.3635519"><ele>253.0</ele><time>2026-05-02T12:10:49.989Z</time></trkpt><trkpt lat="45.5951133" lon="8.3635341"><ele>253.0</ele><time>2026-05-02T12:10:51.982Z</time></trkpt><trkpt lat="45.5952211" lon="8.3634932"><ele>253.0</ele><time>2026-05-02T12:10:53.994Z</time></trkpt><trkpt lat="45.5953304" lon="8.3634465"><ele>253.0</ele><time>2026-05-02T12:10:55.996Z</time></trkpt><trkpt lat="45.5954465" lon="8.363414"><ele>253.14285714285717</ele><time>2026-05-02T12:10:57.988Z</time></trkpt><trkpt lat="45.5955091" lon="8.3634016"><ele>253.28571428571428</ele><time>2026-05-02T12:10:58.985Z</time></trkpt><trkpt lat="45.5955809" lon="8.3633946"><ele>253.42857142857144</ele><time>2026-05-02T12:10:59.99Z</time></trkpt><trkpt lat="45.5956603" lon="8.3633836"><ele>253.57142857142858</ele><time>2026-05-02T12:11:00.983Z</time></trkpt><trkpt lat="45.5957351" lon="8.3633673"><ele>253.71428571428572</ele><time>2026-05-02T12:11:01.997Z</time></trkpt><trkpt lat="45.5958019" lon="8.3633473"><ele>253.85714285714286</ele><time>2026-05-02T12:11:02.981Z</time></trkpt><trkpt lat="45.5958697" lon="8.3633239"><ele>254.0</ele><time>2026-05-02T12:11:03.993Z</time></trkpt><trkpt lat="45.5959318" lon="8.3633019"><ele>254.0</ele><time>2026-05-02T12:11:04.987Z</time></trkpt><trkpt lat="45.5959938" lon="8.3632806"><ele>253.99999999999997</ele><time>2026-05-02T12:11:05.991Z</time></trkpt><trkpt lat="45.5960953" lon="8.3632552"><ele>253.99999999999997</ele><time>2026-05-02T12:11:07.994Z</time></trkpt><trkpt lat="45.5961924" lon="8.3632483"><ele>254.0</ele><time>2026-05-02T12:11:09.999Z</time></trkpt><trkpt lat="45.5962952" lon="8.3632415"><ele>254.0</ele><time>2026-05-02T12:11:11.982Z</time></trkpt><trkpt lat="45.5964141" lon="8.3632348"><ele>254.0</ele><time>2026-05-02T12:11:13.992Z</time></trkpt><trkpt lat="45.5964771" lon="8.3632305"><ele>253.99999999999997</ele><time>2026-05-02T12:11:14.987Z</time></trkpt><trkpt lat="45.5965913" lon="8.3632255"><ele>253.99999999999997</ele><time>2026-05-02T12:11:16.983Z</time></trkpt><trkpt lat="45.5967125" lon="8.3632147"><ele>254.0</ele><time>2026-05-02T12:11:18.988Z</time></trkpt><trkpt lat="45.5968341" lon="8.363215"><ele>254.0</ele><time>2026-05-02T12:11:20.988Z</time></trkpt><trkpt lat="45.5968975" lon="8.3632169"><ele>254.0</ele><time>2026-05-02T12:11:21.99Z</time></trkpt><trkpt lat="45.5969658" lon="8.3632202"><ele>254.0</ele><time>2026-05-02T12:11:22.986Z</time></trkpt><trkpt lat="45.5970395" lon="8.3632285"><ele>254.0</ele><time>2026-05-02T12:11:23.992Z</time></trkpt><trkpt lat="45.5971133" lon="8.36324"><ele>254.0</ele><time>2026-05-02T12:11:24.982Z</time></trkpt><trkpt lat="45.5971825" lon="8.36325"><ele>254.0</ele><time>2026-05-02T12:11:25.987Z</time></trkpt><trkpt lat="45.5972466" lon="8.3632549"><ele>254.0</ele><time>2026-05-02T12:11:26.982Z</time></trkpt><trkpt lat="45.5973116" lon="8.3632501"><ele>254.0</ele><time>2026-05-02T12:11:27.981Z</time></trkpt><trkpt lat="45.5973848" lon="8.3632473"><ele>254.39999999999998</ele><time>2026-05-02T12:11:28.982Z</time></trkpt><trkpt lat="45.5974611" lon="8.363245"><ele>254.79999999999998</ele><time>2026-05-02T12:11:29.987Z</time></trkpt><trkpt lat="45.5975307" lon="8.363238"><ele>255.20000000000002</ele><time>2026-05-02T12:11:30.977Z</time></trkpt><trkpt lat="45.5976499" lon="8.3632247"><ele>255.60000000000002</ele><time>2026-05-02T12:11:32.981Z</time></trkpt><trkpt lat="45.5977626" lon="8.3632056"><ele>256.0</ele><time>2026-05-02T12:11:34.993Z</time></trkpt><trkpt lat="45.5978873" lon="8.3631855"><ele>256.1428571428571</ele><time>2026-05-02T12:11:36.985Z</time></trkpt><trkpt lat="45.5979557" lon="8.3631757"><ele>256.2857142857143</ele><time>2026-05-02T12:11:37.99Z</time></trkpt><trkpt lat="45.5980259" lon="8.363166"><ele>256.42857142857144</ele><time>2026-05-02T12:11:38.989Z</time></trkpt><trkpt lat="45.5980929" lon="8.3631585"><ele>256.57142857142856</ele><time>2026-05-02T12:11:39.996Z</time></trkpt><trkpt lat="45.5981593" lon="8.3631518"><ele>256.7142857142857</ele><time>2026-05-02T12:11:40.98Z</time></trkpt><trkpt lat="45.5982317" lon="8.3631411"><ele>256.85714285714283</ele><time>2026-05-02T12:11:41.985Z</time></trkpt><trkpt lat="45.5983119" lon="8.3631276"><ele>257.0</ele><time>2026-05-02T12:11:42.987Z</time></trkpt><trkpt lat="45.5983956" lon="8.3631175"><ele>257.0</ele><time>2026-05-02T12:11:43.982Z</time></trkpt><trkpt lat="45.5984878" lon="8.3631109"><ele>257.0</ele><time>2026-05-02T12:11:44.988Z</time></trkpt><trkpt lat="45.5985854" lon="8.3631058"><ele>257.0</ele><time>2026-05-02T12:11:45.988Z</time></trkpt><trkpt lat="45.5986846" lon="8.3631038"><ele>257.0</ele><time>2026-05-02T12:11:46.997Z</time></trkpt><trkpt lat="45.5987709" lon="8.3631164"><ele>257.0</ele><time>2026-05-02T12:11:47.997Z</time></trkpt><trkpt lat="45.5988457" lon="8.3631492"><ele>257.33333333333337</ele><time>2026-05-02T12:11:48.992Z</time></trkpt><trkpt lat="45.5989133" lon="8.363193"><ele>257.6666666666667</ele><time>2026-05-02T12:11:49.99Z</time></trkpt><trkpt lat="45.5989834" lon="8.3632369"><ele>258.0</ele><time>2026-05-02T12:11:50.995Z</time></trkpt><trkpt lat="45.5990537" lon="8.3632781"><ele>258.3333333333333</ele><time>2026-05-02T12:11:51.986Z</time></trkpt><trkpt lat="45.5991198" lon="8.3633088"><ele>258.66666666666663</ele><time>2026-05-02T12:11:52.998Z</time></trkpt><trkpt lat="45.5992242" lon="8.3633251"><ele>259.0</ele><time>2026-05-02T12:11:54.999Z</time></trkpt><trkpt lat="45.5992656" lon="8.363246"><ele>259.0</ele><time>2026-05-02T12:11:57.002Z</time></trkpt><trkpt lat="45.5992779" lon="8.363061"><ele>259.0</ele><time>2026-05-02T12:11:58.992Z</time></trkpt><trkpt lat="45.599304" lon="8.3629017"><ele>259.0</ele><time>2026-05-02T12:12:00.982Z</time></trkpt><trkpt lat="45.5993382" lon="8.362778"><ele>259.0</ele><time>2026-05-02T12:12:02.98Z</time></trkpt><trkpt lat="45.5993713" lon="8.3626772"><ele>259.0</ele><time>2026-05-02T12:12:04.98Z</time></trkpt><trkpt lat="45.5994063" lon="8.3625809"><ele>258.8333333333333</ele><time>2026-05-02T12:12:06.983Z</time></trkpt><trkpt lat="45.5994383" lon="8.3624955"><ele>258.66666666666663</ele><time>2026-05-02T12:12:08.976Z</time></trkpt><trkpt lat="45.5994801" lon="8.3624129"><ele>258.5</ele><time>2026-05-02T12:12:10.986Z</time></trkpt><trkpt lat="45.5995179" lon="8.3623237"><ele>258.3333333333333</ele><time>2026-05-02T12:12:12.986Z</time></trkpt><trkpt lat="45.5995644" lon="8.3622248"><ele>258.1666666666667</ele><time>2026-05-02T12:12:14.986Z</time></trkpt><trkpt lat="45.5996162" lon="8.3621202"><ele>258.0</ele><time>2026-05-02T12:12:16.983Z</time></trkpt><trkpt lat="45.5996731" lon="8.3619907"><ele>257.57142857142856</ele><time>2026-05-02T12:12:18.982Z</time></trkpt><trkpt lat="45.5997074" lon="8.3619071"><ele>257.1428571428571</ele><time>2026-05-02T12:12:19.991Z</time></trkpt><trkpt lat="45.5997476" lon="8.3618215"><ele>256.7142857142857</ele><time>2026-05-02T12:12:20.986Z</time></trkpt><trkpt lat="45.5997893" lon="8.361736"><ele>256.2857142857143</ele><time>2026-05-02T12:12:21.99Z</time></trkpt><trkpt lat="45.5998297" lon="8.3616526"><ele>255.8571428571429</ele><time>2026-05-02T12:12:22.987Z</time></trkpt><trkpt lat="45.5998696" lon="8.3615661"><ele>255.42857142857144</ele><time>2026-05-02T12:12:23.991Z</time></trkpt><trkpt lat="45.599911" lon="8.361481"><ele>255.0</ele><time>2026-05-02T12:12:24.984Z</time></trkpt><trkpt lat="45.5999544" lon="8.3613913"><ele>254.66666666666666</ele><time>2026-05-02T12:12:25.978Z</time></trkpt><trkpt lat="45.599998" lon="8.3612957"><ele>254.33333333333331</ele><time>2026-05-02T12:12:26.986Z</time></trkpt><trkpt lat="45.6000399" lon="8.3612049"><ele>254.0</ele><time>2026-05-02T12:12:27.988Z</time></trkpt><trkpt lat="45.6000775" lon="8.3611226"><ele>253.66666666666666</ele><time>2026-05-02T12:12:28.988Z</time></trkpt><trkpt lat="45.60015" lon="8.3609989"><ele>253.33333333333331</ele><time>2026-05-02T12:12:30.985Z</time></trkpt><trkpt lat="45.6002215" lon="8.3609323"><ele>253.0</ele><time>2026-05-02T12:12:32.982Z</time></trkpt><trkpt lat="45.6002989" lon="8.3608948"><ele>253.16666666666666</ele><time>2026-05-02T12:12:34.973Z</time></trkpt><trkpt lat="45.6003562" lon="8.3608168"><ele>253.33333333333331</ele><time>2026-05-02T12:12:37.984Z</time></trkpt><trkpt lat="45.6003753" lon="8.3606961"><ele>253.5</ele><time>2026-05-02T12:12:40.981Z</time></trkpt><trkpt lat="45.6004145" lon="8.3605833"><ele>253.66666666666669</ele><time>2026-05-02T12:12:43.98Z</time></trkpt><trkpt lat="45.6004815" lon="8.3605272"><ele>253.83333333333334</ele><time>2026-05-02T12:12:46.984Z</time></trkpt><trkpt lat="45.6005512" lon="8.3604944"><ele>254.0</ele><time>2026-05-02T12:12:48.976Z</time></trkpt><trkpt lat="45.600637" lon="8.360478"><ele>254.00000000000003</ele><time>2026-05-02T12:12:50.982Z</time></trkpt><trkpt lat="45.6007521" lon="8.3605064"><ele>254.0</ele><time>2026-05-02T12:12:52.972Z</time></trkpt><trkpt lat="45.6008184" lon="8.360533"><ele>254.0</ele><time>2026-05-02T12:12:53.993Z</time></trkpt><trkpt lat="45.6008824" lon="8.3605626"><ele>254.0</ele><time>2026-05-02T12:12:54.981Z</time></trkpt><trkpt lat="45.6009473" lon="8.3605942"><ele>254.00000000000003</ele><time>2026-05-02T12:12:55.983Z</time></trkpt><trkpt lat="45.6010136" lon="8.3606199"><ele>254.0</ele><time>2026-05-02T12:12:56.98Z</time></trkpt><trkpt lat="45.6010858" lon="8.3606417"><ele>254.00000000000003</ele><time>2026-05-02T12:12:57.986Z</time></trkpt><trkpt lat="45.6011605" lon="8.3606632"><ele>254.0</ele><time>2026-05-02T12:12:58.977Z</time></trkpt><trkpt lat="45.6012406" lon="8.3606864"><ele>254.0</ele><time>2026-05-02T12:12:59.994Z</time></trkpt><trkpt lat="45.6013165" lon="8.3607107"><ele>254.0</ele><time>2026-05-02T12:13:00.975Z</time></trkpt><trkpt lat="45.6013904" lon="8.3607313"><ele>254.00000000000003</ele><time>2026-05-02T12:13:01.975Z</time></trkpt><trkpt lat="45.6014628" lon="8.3607481"><ele>254.0</ele><time>2026-05-02T12:13:02.975Z</time></trkpt><trkpt lat="45.6015377" lon="8.3607618"><ele>254.50000000000003</ele><time>2026-05-02T12:13:03.977Z</time></trkpt><trkpt lat="45.6016091" lon="8.3607776"><ele>255.0</ele><time>2026-05-02T12:13:04.973Z</time></trkpt><trkpt lat="45.6016798" lon="8.3607927"><ele>255.5</ele><time>2026-05-02T12:13:05.998Z</time></trkpt><trkpt lat="45.6017478" lon="8.3608086"><ele>256.0</ele><time>2026-05-02T12:13:06.986Z</time></trkpt><trkpt lat="45.6018145" lon="8.3608295"><ele>256.5</ele><time>2026-05-02T12:13:07.99Z</time></trkpt><trkpt lat="45.6019377" lon="8.3608705"><ele>257.0</ele><time>2026-05-02T12:13:09.982Z</time></trkpt><trkpt lat="45.6019991" lon="8.3608908"><ele>257.1666666666667</ele><time>2026-05-02T12:13:10.978Z</time></trkpt><trkpt lat="45.6020628" lon="8.3609124"><ele>257.33333333333337</ele><time>2026-05-02T12:13:11.993Z</time></trkpt><trkpt lat="45.6021255" lon="8.3609325"><ele>257.5</ele><time>2026-05-02T12:13:12.976Z</time></trkpt><trkpt lat="45.6021892" lon="8.3609496"><ele>257.6666666666667</ele><time>2026-05-02T12:13:13.992Z</time></trkpt><trkpt lat="45.6023165" lon="8.3609868"><ele>257.8333333333333</ele><time>2026-05-02T12:13:15.988Z</time></trkpt><trkpt lat="45.6023781" lon="8.3610064"><ele>258.0</ele><time>2026-05-02T12:13:16.976Z</time></trkpt><trkpt lat="45.6024467" lon="8.3610306"><ele>258.0</ele><time>2026-05-02T12:13:17.993Z</time></trkpt><trkpt lat="45.6025203" lon="8.3610553"><ele>258.0</ele><time>2026-05-02T12:13:18.985Z</time></trkpt><trkpt lat="45.6025947" lon="8.3610775"><ele>258.0</ele><time>2026-05-02T12:13:19.987Z</time></trkpt><trkpt lat="45.6026686" lon="8.3610977"><ele>258.0</ele><time>2026-05-02T12:13:20.982Z</time></trkpt><trkpt lat="45.6027518" lon="8.3611152"><ele>258.0</ele><time>2026-05-02T12:13:21.992Z</time></trkpt><trkpt lat="45.6028372" lon="8.3611374"><ele>258.0</ele><time>2026-05-02T12:13:22.983Z</time></trkpt><trkpt lat="45.6029222" lon="8.3611641"><ele>258.0</ele><time>2026-05-02T12:13:23.993Z</time></trkpt><trkpt lat="45.6030095" lon="8.3611937"><ele>258.0</ele><time>2026-05-02T12:13:24.976Z</time></trkpt><trkpt lat="45.6030991" lon="8.3612287"><ele>258.0</ele><time>2026-05-02T12:13:25.994Z</time></trkpt><trkpt lat="45.6031703" lon="8.3612577"><ele>258.0</ele><time>2026-05-02T12:13:26.985Z</time></trkpt><trkpt lat="45.6032333" lon="8.3612817"><ele>258.0</ele><time>2026-05-02T12:13:27.99Z</time></trkpt><trkpt lat="45.6033282" lon="8.3613168"><ele>258.0</ele><time>2026-05-02T12:13:29.984Z</time></trkpt><trkpt lat="45.603429" lon="8.3613486"><ele>258.0</ele><time>2026-05-02T12:13:31.994Z</time></trkpt><trkpt lat="45.6035166" lon="8.3613716"><ele>258.0</ele><time>2026-05-02T12:13:33.994Z</time></trkpt><trkpt lat="45.6036071" lon="8.361401"><ele>258.0</ele><time>2026-05-02T12:13:35.992Z</time></trkpt><trkpt lat="45.6037176" lon="8.3614425"><ele>258.0</ele><time>2026-05-02T12:13:37.988Z</time></trkpt><trkpt lat="45.6038229" lon="8.3614703"><ele>258.0</ele><time>2026-05-02T12:13:39.987Z</time></trkpt><trkpt lat="45.6039112" lon="8.3614879"><ele>258.0</ele><time>2026-05-02T12:13:41.986Z</time></trkpt><trkpt lat="45.6039932" lon="8.3615028"><ele>258.0</ele><time>2026-05-02T12:13:43.99Z</time></trkpt><trkpt lat="45.6040643" lon="8.3615061"><ele>258.0</ele><time>2026-05-02T12:13:45.985Z</time></trkpt><trkpt lat="45.6041141" lon="8.3614489"><ele>258.0</ele><time>2026-05-02T12:13:48.982Z</time></trkpt><trkpt lat="45.6041156" lon="8.3613366"><ele>258.0</ele><time>2026-05-02T12:13:50.98Z</time></trkpt><trkpt lat="45.604119" lon="8.3612256"><ele>258.0</ele><time>2026-05-02T12:13:52.984Z</time></trkpt><trkpt lat="45.6041221" lon="8.361117"><ele>258.3333333333333</ele><time>2026-05-02T12:13:54.989Z</time></trkpt><trkpt lat="45.6041243" lon="8.3610057"><ele>258.6666666666667</ele><time>2026-05-02T12:13:56.991Z</time></trkpt><trkpt lat="45.6041366" lon="8.3608908"><ele>259.0</ele><time>2026-05-02T12:13:58.986Z</time></trkpt><trkpt lat="45.6041414" lon="8.360774"><ele>259.33333333333337</ele><time>2026-05-02T12:14:00.986Z</time></trkpt><trkpt lat="45.6041466" lon="8.3606547"><ele>259.6666666666667</ele><time>2026-05-02T12:14:02.992Z</time></trkpt><trkpt lat="45.6041372" lon="8.3605388"><ele>260.0</ele><time>2026-05-02T12:14:04.986Z</time></trkpt><trkpt lat="45.604094" lon="8.3604473"><ele>260.0</ele><time>2026-05-02T12:14:06.98Z</time></trkpt><trkpt lat="45.6040103" lon="8.3603961"><ele>260.0</ele><time>2026-05-02T12:14:08.981Z</time></trkpt><trkpt lat="45.6039121" lon="8.360362"><ele>260.0</ele><time>2026-05-02T12:14:10.986Z</time></trkpt><trkpt lat="45.6038212" lon="8.3602886"><ele>260.0</ele><time>2026-05-02T12:14:12.99Z</time></trkpt><trkpt lat="45.6037763" lon="8.3601686"><ele>260.0</ele><time>2026-05-02T12:14:14.986Z</time></trkpt><trkpt lat="45.6037531" lon="8.3600341"><ele>260.0</ele><time>2026-05-02T12:14:16.991Z</time></trkpt><trkpt lat="45.603735" lon="8.3598778"><ele>260.0</ele><time>2026-05-02T12:14:18.992Z</time></trkpt><trkpt lat="45.6037182" lon="8.3597103"><ele>260.0</ele><time>2026-05-02T12:14:20.989Z</time></trkpt><trkpt lat="45.6037133" lon="8.3595423"><ele>260.0</ele><time>2026-05-02T12:14:22.996Z</time></trkpt><trkpt lat="45.6037058" lon="8.3593798"><ele>260.0</ele><time>2026-05-02T12:14:24.992Z</time></trkpt><trkpt lat="45.6036853" lon="8.359246"><ele>260.0</ele><time>2026-05-02T12:14:26.991Z</time></trkpt><trkpt lat="45.6036685" lon="8.3591523"><ele>260.0</ele><time>2026-05-02T12:14:28.987Z</time></trkpt><trkpt lat="45.6036435" lon="8.3590546"><ele>260.0</ele><time>2026-05-02T12:14:31.984Z</time></trkpt><trkpt lat="45.6036184" lon="8.3589665"><ele>260.0</ele><time>2026-05-02T12:14:34.984Z</time></trkpt><trkpt lat="45.6035883" lon="8.3588409"><ele>260.0</ele><time>2026-05-02T12:14:37.997Z</time></trkpt><trkpt lat="45.603567" lon="8.3587389"><ele>259.6666666666667</ele><time>2026-05-02T12:14:39.997Z</time></trkpt><trkpt lat="45.6035351" lon="8.358653"><ele>259.33333333333337</ele><time>2026-05-02T12:14:41.992Z</time></trkpt><trkpt lat="45.6034534" lon="8.3586347"><ele>259.0</ele><time>2026-05-02T12:14:49.993Z</time></trkpt><trkpt lat="45.603409" lon="8.3587481"><ele>258.6666666666667</ele><time>2026-05-02T12:14:52.985Z</time></trkpt><trkpt lat="45.6033288" lon="8.3587632"><ele>258.3333333333333</ele><time>2026-05-02T12:14:55.983Z</time></trkpt><trkpt lat="45.6032925" lon="8.3586871"><ele>258.0</ele><time>2026-05-02T12:14:57.988Z</time></trkpt><trkpt lat="45.6032925" lon="8.3585709"><ele>258.0</ele><time>2026-05-02T12:15:00.993Z</time></trkpt><trkpt lat="45.6032919" lon="8.3584684"><ele>258.0</ele><time>2026-05-02T12:15:03.995Z</time></trkpt><trkpt lat="45.6032798" lon="8.3583539"><ele>258.0</ele><time>2026-05-02T12:15:06.985Z</time></trkpt><trkpt lat="45.6032748" lon="8.3582623"><ele>258.0</ele><time>2026-05-02T12:15:08.991Z</time></trkpt><trkpt lat="45.603267" lon="8.3581539"><ele>258.0</ele><time>2026-05-02T12:15:11.986Z</time></trkpt><trkpt lat="45.6032699" lon="8.3580625"><ele>258.0</ele><time>2026-05-02T12:15:13.982Z</time></trkpt><trkpt lat="45.6032668" lon="8.3579149"><ele>258.57142857142856</ele><time>2026-05-02T12:15:15.987Z</time></trkpt><trkpt lat="45.6032667" lon="8.3577725"><ele>259.1428571428571</ele><time>2026-05-02T12:15:17.994Z</time></trkpt><trkpt lat="45.6032489" lon="8.357685"><ele>259.7142857142857</ele><time>2026-05-02T12:15:20.988Z</time></trkpt><trkpt lat="45.6031892" lon="8.3576184"><ele>260.2857142857143</ele><time>2026-05-02T12:15:25.988Z</time></trkpt><trkpt lat="45.6031296" lon="8.3575853"><ele>260.8571428571429</ele><time>2026-05-02T12:15:28.982Z</time></trkpt><trkpt lat="45.603121" lon="8.3574836"><ele>261.42857142857144</ele><time>2026-05-02T12:15:41.986Z</time></trkpt><trkpt lat="45.6031368" lon="8.3573964"><ele>262.0</ele><time>2026-05-02T12:15:44.977Z</time></trkpt><trkpt lat="45.6031244" lon="8.3572777"><ele>264.16666666666663</ele><time>2026-05-02T12:15:48.982Z</time></trkpt><trkpt lat="45.6030957" lon="8.3571647"><ele>266.3333333333333</ele><time>2026-05-02T12:15:51.987Z</time></trkpt><trkpt lat="45.6030937" lon="8.3570571"><ele>268.5</ele><time>2026-05-02T12:15:54.986Z</time></trkpt><trkpt lat="45.603126" lon="8.3569687"><ele>270.6666666666667</ele><time>2026-05-02T12:15:57.991Z</time></trkpt><trkpt lat="45.6031846" lon="8.3568938"><ele>272.83333333333337</ele><time>2026-05-02T12:16:22.98Z</time></trkpt><trkpt lat="45.6032714" lon="8.3568478"><ele>275.0</ele><time>2026-05-02T12:16:25.984Z</time></trkpt><trkpt lat="45.6033385" lon="8.3568127"><ele>275.0</ele><time>2026-05-02T12:16:27.989Z</time></trkpt><trkpt lat="45.6034312" lon="8.3568087"><ele>275.0</ele><time>2026-05-02T12:16:29.996Z</time></trkpt><trkpt lat="45.6035353" lon="8.3568241"><ele>275.0</ele><time>2026-05-02T12:16:31.994Z</time></trkpt><trkpt lat="45.6036305" lon="8.3568436"><ele>275.0</ele><time>2026-05-02T12:16:33.998Z</time></trkpt><trkpt lat="45.6037293" lon="8.3568611"><ele>275.0</ele><time>2026-05-02T12:16:35.986Z</time></trkpt><trkpt lat="45.6038062" lon="8.3568759"><ele>276.0</ele><time>2026-05-02T12:16:37.992Z</time></trkpt><trkpt lat="45.6038809" lon="8.3568886"><ele>277.0</ele><time>2026-05-02T12:16:40.987Z</time></trkpt><trkpt lat="45.603954" lon="8.3569278"><ele>278.0</ele><time>2026-05-02T12:16:48.985Z</time></trkpt><trkpt lat="45.6040185" lon="8.3569578"><ele>279.0</ele><time>2026-05-02T12:16:50.985Z</time></trkpt><trkpt lat="45.6041104" lon="8.3569974"><ele>280.0</ele><time>2026-05-02T12:16:52.986Z</time></trkpt><trkpt lat="45.6042151" lon="8.3570513"><ele>281.0</ele><time>2026-05-02T12:16:54.998Z</time></trkpt><trkpt lat="45.604337" lon="8.3570979"><ele>281.0</ele><time>2026-05-02T12:16:56.979Z</time></trkpt><trkpt lat="45.6044442" lon="8.3571526"><ele>281.0</ele><time>2026-05-02T12:16:58.988Z</time></trkpt><trkpt lat="45.6045535" lon="8.3572068"><ele>281.0</ele><time>2026-05-02T12:17:00.984Z</time></trkpt><trkpt lat="45.6046517" lon="8.3572646"><ele>281.0</ele><time>2026-05-02T12:17:02.994Z</time></trkpt><trkpt lat="45.6047434" lon="8.3573198"><ele>281.0</ele><time>2026-05-02T12:17:04.982Z</time></trkpt><trkpt lat="45.6048312" lon="8.357355"><ele>280.1666666666667</ele><time>2026-05-02T12:17:06.983Z</time></trkpt><trkpt lat="45.6049243" lon="8.3573967"><ele>279.33333333333337</ele><time>2026-05-02T12:17:08.979Z</time></trkpt><trkpt lat="45.6050139" lon="8.3574453"><ele>278.5</ele><time>2026-05-02T12:17:10.99Z</time></trkpt><trkpt lat="45.6050884" lon="8.3574787"><ele>277.6666666666667</ele><time>2026-05-02T12:17:12.985Z</time></trkpt><trkpt lat="45.6051527" lon="8.3574903"><ele>276.8333333333333</ele><time>2026-05-02T12:17:14.994Z</time></trkpt><trkpt lat="45.6052161" lon="8.3575027"><ele>276.0</ele><time>2026-05-02T12:17:16.987Z</time></trkpt><trkpt lat="45.6053113" lon="8.3575161"><ele>275.8333333333333</ele><time>2026-05-02T12:17:19.988Z</time></trkpt><trkpt lat="45.6053971" lon="8.3575188"><ele>275.6666666666667</ele><time>2026-05-02T12:17:22.981Z</time></trkpt><trkpt lat="45.60547" lon="8.3575173"><ele>275.5</ele><time>2026-05-02T12:17:39.987Z</time></trkpt><trkpt lat="45.6055448" lon="8.3575106"><ele>275.33333333333337</ele><time>2026-05-02T12:17:42.985Z</time></trkpt><trkpt lat="45.6056288" lon="8.3575329"><ele>275.1666666666667</ele><time>2026-05-02T12:17:45.984Z</time></trkpt><trkpt lat="45.6056916" lon="8.3575621"><ele>275.0</ele><time>2026-05-02T12:18:05.978Z</time></trkpt><trkpt lat="45.6058239" lon="8.3575839"><ele>275.0</ele><time>2026-05-02T12:18:07.99Z</time></trkpt><trkpt lat="45.6059163" lon="8.3576021"><ele>275.0</ele><time>2026-05-02T12:18:08.989Z</time></trkpt><trkpt lat="45.6060078" lon="8.3576153"><ele>275.0</ele><time>2026-05-02T12:18:09.986Z</time></trkpt><trkpt lat="45.6060955" lon="8.3576206"><ele>275.0</ele><time>2026-05-02T12:18:10.986Z</time></trkpt><trkpt lat="45.6061736" lon="8.3576197"><ele>275.0</ele><time>2026-05-02T12:18:11.984Z</time></trkpt><trkpt lat="45.6062794" lon="8.3576044"><ele>275.0</ele><time>2026-05-02T12:18:13.989Z</time></trkpt><trkpt lat="45.6063586" lon="8.3575723"><ele>275.0</ele><time>2026-05-02T12:18:15.98Z</time></trkpt><trkpt lat="45.606432" lon="8.3575424"><ele>275.0</ele><time>2026-05-02T12:18:17.982Z</time></trkpt><trkpt lat="45.6064962" lon="8.3575226"><ele>275.0</ele><time>2026-05-02T12:18:19.983Z</time></trkpt><trkpt lat="45.6065636" lon="8.3574933"><ele>275.0</ele><time>2026-05-02T12:18:21.979Z</time></trkpt><trkpt lat="45.6066406" lon="8.3574627"><ele>275.0</ele><time>2026-05-02T12:18:23.99Z</time></trkpt><trkpt lat="45.6067335" lon="8.3574171"><ele>275.0</ele><time>2026-05-02T12:18:25.994Z</time></trkpt><trkpt lat="45.6068211" lon="8.357367"><ele>275.0</ele><time>2026-05-02T12:18:27.991Z</time></trkpt><trkpt lat="45.6069218" lon="8.3573091"><ele>275.0</ele><time>2026-05-02T12:18:29.993Z</time></trkpt><trkpt lat="45.6070219" lon="8.3572464"><ele>275.0</ele><time>2026-05-02T12:18:31.982Z</time></trkpt><trkpt lat="45.6071164" lon="8.357188"><ele>275.0</ele><time>2026-05-02T12:18:33.985Z</time></trkpt><trkpt lat="45.6071975" lon="8.3571384"><ele>276.4</ele><time>2026-05-02T12:18:35.987Z</time></trkpt><trkpt lat="45.6072496" lon="8.3570832"><ele>277.8</ele><time>2026-05-02T12:18:37.991Z</time></trkpt><trkpt lat="45.6073298" lon="8.3570217"><ele>279.2</ele><time>2026-05-02T12:18:39.983Z</time></trkpt><trkpt lat="45.6074197" lon="8.3569723"><ele>280.6</ele><time>2026-05-02T12:18:41.986Z</time></trkpt><trkpt lat="45.6075279" lon="8.3569497"><ele>282.0</ele><time>2026-05-02T12:18:43.992Z</time></trkpt><trkpt lat="45.6076242" lon="8.3569381"><ele>282.0</ele><time>2026-05-02T12:18:45.991Z</time></trkpt><trkpt lat="45.6077135" lon="8.3569067"><ele>282.0</ele><time>2026-05-02T12:18:47.985Z</time></trkpt><trkpt lat="45.6078005" lon="8.3568941"><ele>282.0</ele><time>2026-05-02T12:18:49.989Z</time></trkpt><trkpt lat="45.6078943" lon="8.3568832"><ele>282.0</ele><time>2026-05-02T12:18:51.997Z</time></trkpt><trkpt lat="45.6080002" lon="8.3568916"><ele>282.0</ele><time>2026-05-02T12:18:53.983Z</time></trkpt><trkpt lat="45.6080657" lon="8.3568901"><ele>282.0</ele><time>2026-05-02T12:18:54.987Z</time></trkpt><trkpt lat="45.6081317" lon="8.3568923"><ele>281.8</ele><time>2026-05-02T12:18:55.988Z</time></trkpt><trkpt lat="45.6082" lon="8.3568931"><ele>281.6</ele><time>2026-05-02T12:18:56.983Z</time></trkpt><trkpt lat="45.6083162" lon="8.3568927"><ele>281.40000000000003</ele><time>2026-05-02T12:18:58.978Z</time></trkpt><trkpt lat="45.6084118" lon="8.3568928"><ele>281.2</ele><time>2026-05-02T12:19:00.974Z</time></trkpt><trkpt lat="45.6085008" lon="8.3568922"><ele>281.0</ele><time>2026-05-02T12:19:02.98Z</time></trkpt><trkpt lat="45.608587" lon="8.3568941"><ele>280.40000000000003</ele><time>2026-05-02T12:19:04.991Z</time></trkpt><trkpt lat="45.6086715" lon="8.3568934"><ele>279.8</ele><time>2026-05-02T12:19:06.986Z</time></trkpt><trkpt lat="45.6087683" lon="8.3569025"><ele>279.20000000000005</ele><time>2026-05-02T12:19:08.982Z</time></trkpt><trkpt lat="45.6088706" lon="8.3569055"><ele>278.6</ele><time>2026-05-02T12:19:10.992Z</time></trkpt><trkpt lat="45.6089819" lon="8.356908"><ele>278.0</ele><time>2026-05-02T12:19:12.982Z</time></trkpt><trkpt lat="45.6090824" lon="8.3569237"><ele>278.0</ele><time>2026-05-02T12:19:14.993Z</time></trkpt><trkpt lat="45.6091509" lon="8.3569301"><ele>278.0</ele><time>2026-05-02T12:19:16.989Z</time></trkpt><trkpt lat="45.6092276" lon="8.3569562"><ele>278.0</ele><time>2026-05-02T12:19:19.99Z</time></trkpt><trkpt lat="45.6093074" lon="8.3569615"><ele>278.0</ele><time>2026-05-02T12:19:22.989Z</time></trkpt><trkpt lat="45.6093745" lon="8.3569692"><ele>278.0</ele><time>2026-05-02T12:19:24.977Z</time></trkpt><trkpt lat="45.6094574" lon="8.3569897"><ele>278.0</ele><time>2026-05-02T12:19:28.001Z</time></trkpt><trkpt lat="45.6095271" lon="8.357002"><ele>278.0</ele><time>2026-05-02T12:19:29.992Z</time></trkpt><trkpt lat="45.6096165" lon="8.3570175"><ele>278.6</ele><time>2026-05-02T12:19:31.997Z</time></trkpt><trkpt lat="45.6097096" lon="8.3570431"><ele>279.20000000000005</ele><time>2026-05-02T12:19:33.986Z</time></trkpt><trkpt lat="45.6098183" lon="8.3570614"><ele>279.8</ele><time>2026-05-02T12:19:35.993Z</time></trkpt><trkpt lat="45.609904" lon="8.3570747"><ele>280.40000000000003</ele><time>2026-05-02T12:19:37.991Z</time></trkpt><trkpt lat="45.6099849" lon="8.3570936"><ele>281.0</ele><time>2026-05-02T12:19:39.995Z</time></trkpt><trkpt lat="45.610063" lon="8.3571152"><ele>281.0</ele><time>2026-05-02T12:19:41.988Z</time></trkpt><trkpt lat="45.6101293" lon="8.357136"><ele>281.0</ele><time>2026-05-02T12:19:43.991Z</time></trkpt><trkpt lat="45.6102036" lon="8.3571665"><ele>281.0</ele><time>2026-05-02T12:19:45.994Z</time></trkpt><trkpt lat="45.6102918" lon="8.3572049"><ele>281.0</ele><time>2026-05-02T12:19:47.997Z</time></trkpt><trkpt lat="45.6103925" lon="8.357258"><ele>281.0</ele><time>2026-05-02T12:19:49.986Z</time></trkpt><trkpt lat="45.610495" lon="8.3573301"><ele>279.8</ele><time>2026-05-02T12:19:51.993Z</time></trkpt><trkpt lat="45.6105977" lon="8.3574143"><ele>278.6</ele><time>2026-05-02T12:19:53.985Z</time></trkpt><trkpt lat="45.6106562" lon="8.357519"><ele>277.4</ele><time>2026-05-02T12:19:55.987Z</time></trkpt><trkpt lat="45.6106464" lon="8.3576512"><ele>276.2</ele><time>2026-05-02T12:19:57.987Z</time></trkpt><trkpt lat="45.6106147" lon="8.3577725"><ele>275.0</ele><time>2026-05-02T12:19:59.992Z</time></trkpt><trkpt lat="45.6105894" lon="8.3578822"><ele>275.0</ele><time>2026-05-02T12:20:01.989Z</time></trkpt><trkpt lat="45.6105938" lon="8.3579973"><ele>275.0</ele><time>2026-05-02T12:20:03.982Z</time></trkpt><trkpt lat="45.6106045" lon="8.3581038"><ele>275.0</ele><time>2026-05-02T12:20:05.991Z</time></trkpt><trkpt lat="45.6105988" lon="8.3582077"><ele>275.0</ele><time>2026-05-02T12:20:07.995Z</time></trkpt><trkpt lat="45.6105885" lon="8.3582976"><ele>275.0</ele><time>2026-05-02T12:20:10.97Z</time></trkpt><trkpt lat="45.6106476" lon="8.3583406"><ele>275.0</ele><time>2026-05-02T12:20:16.981Z</time></trkpt><trkpt lat="45.6107648" lon="8.3583559"><ele>274.6</ele><time>2026-05-02T12:20:18.986Z</time></trkpt><trkpt lat="45.6108827" lon="8.3583597"><ele>274.2</ele><time>2026-05-02T12:20:20.987Z</time></trkpt><trkpt lat="45.6109873" lon="8.3583655"><ele>273.8</ele><time>2026-05-02T12:20:22.98Z</time></trkpt><trkpt lat="45.611088" lon="8.3583785"><ele>273.4</ele><time>2026-05-02T12:20:24.988Z</time></trkpt><trkpt lat="45.6111812" lon="8.3584057"><ele>273.0</ele><time>2026-05-02T12:20:26.981Z</time></trkpt><trkpt lat="45.6112942" lon="8.3584556"><ele>273.0</ele><time>2026-05-02T12:20:28.979Z</time></trkpt><trkpt lat="45.6113609" lon="8.3584836"><ele>273.0</ele><time>2026-05-02T12:20:29.984Z</time></trkpt><trkpt lat="45.6114387" lon="8.3585137"><ele>273.0</ele><time>2026-05-02T12:20:30.975Z</time></trkpt><trkpt lat="45.6115352" lon="8.3585438"><ele>273.0</ele><time>2026-05-02T12:20:31.986Z</time></trkpt><trkpt lat="45.6116356" lon="8.3585707"><ele>273.0</ele><time>2026-05-02T12:20:32.982Z</time></trkpt><trkpt lat="45.6117396" lon="8.3586009"><ele>273.0</ele><time>2026-05-02T12:20:33.985Z</time></trkpt><trkpt lat="45.6118394" lon="8.3586328"><ele>273.0</ele><time>2026-05-02T12:20:34.975Z</time></trkpt><trkpt lat="45.6119261" lon="8.3586764"><ele>273.0</ele><time>2026-05-02T12:20:35.998Z</time></trkpt><trkpt lat="45.611997" lon="8.3587174"><ele>273.0</ele><time>2026-05-02T12:20:36.984Z</time></trkpt><trkpt lat="45.6120641" lon="8.3587578"><ele>273.0</ele><time>2026-05-02T12:20:37.993Z</time></trkpt><trkpt lat="45.6121257" lon="8.358793"><ele>273.0</ele><time>2026-05-02T12:20:38.971Z</time></trkpt><trkpt lat="45.6122318" lon="8.35885"><ele>272.6666666666667</ele><time>2026-05-02T12:20:40.98Z</time></trkpt><trkpt lat="45.6123212" lon="8.358897"><ele>272.3333333333333</ele><time>2026-05-02T12:20:42.977Z</time></trkpt><trkpt lat="45.6124023" lon="8.3589276"><ele>272.0</ele><time>2026-05-02T12:20:44.979Z</time></trkpt><trkpt lat="45.6124808" lon="8.3589461"><ele>271.66666666666663</ele><time>2026-05-02T12:20:46.987Z</time></trkpt><trkpt lat="45.6125729" lon="8.3589661"><ele>271.3333333333333</ele><time>2026-05-02T12:20:48.982Z</time></trkpt><trkpt lat="45.6126623" lon="8.3589997"><ele>271.0</ele><time>2026-05-02T12:20:50.989Z</time></trkpt><trkpt lat="45.6127553" lon="8.3590242"><ele>271.16666666666663</ele><time>2026-05-02T12:20:52.984Z</time></trkpt><trkpt lat="45.6128438" lon="8.3590577"><ele>271.3333333333333</ele><time>2026-05-02T12:20:54.987Z</time></trkpt><trkpt lat="45.6129268" lon="8.3590916"><ele>271.5</ele><time>2026-05-02T12:20:56.983Z</time></trkpt><trkpt lat="45.6130095" lon="8.3591374"><ele>271.6666666666667</ele><time>2026-05-02T12:20:58.985Z</time></trkpt><trkpt lat="45.6130981" lon="8.3591515"><ele>271.83333333333337</ele><time>2026-05-02T12:21:00.977Z</time></trkpt><trkpt lat="45.6131593" lon="8.3591265"><ele>272.0</ele><time>2026-05-02T12:21:02.987Z</time></trkpt><trkpt lat="45.6132215" lon="8.3590863"><ele>272.0</ele><time>2026-05-02T12:21:04.972Z</time></trkpt><trkpt lat="45.6132969" lon="8.3590255"><ele>272.0</ele><time>2026-05-02T12:21:06.976Z</time></trkpt><trkpt lat="45.6134086" lon="8.3589455"><ele>272.0</ele><time>2026-05-02T12:21:08.981Z</time></trkpt><trkpt lat="45.6135252" lon="8.3589193"><ele>272.0</ele><time>2026-05-02T12:21:10.973Z</time></trkpt><trkpt lat="45.6136207" lon="8.3589381"><ele>272.0</ele><time>2026-05-02T12:21:12.977Z</time></trkpt><trkpt lat="45.6136928" lon="8.3589484"><ele>272.0</ele><time>2026-05-02T12:21:38.98Z</time></trkpt><trkpt lat="45.6136875" lon="8.3591167"><ele>272.0</ele><time>2026-05-02T12:21:40.983Z</time></trkpt><trkpt lat="45.6136774" lon="8.3592487"><ele>272.0</ele><time>2026-05-02T12:21:41.986Z</time></trkpt><trkpt lat="45.6136671" lon="8.3594017"><ele>272.0</ele><time>2026-05-02T12:21:42.979Z</time></trkpt><trkpt lat="45.6136539" lon="8.3595727"><ele>272.0</ele><time>2026-05-02T12:21:43.994Z</time></trkpt><trkpt lat="45.6136406" lon="8.3597573"><ele>271.25</ele><time>2026-05-02T12:21:44.991Z</time></trkpt><trkpt lat="45.6136288" lon="8.3599543"><ele>270.5</ele><time>2026-05-02T12:21:45.989Z</time></trkpt><trkpt lat="45.6136172" lon="8.3601469"><ele>269.75</ele><time>2026-05-02T12:21:46.992Z</time></trkpt><trkpt lat="45.613602" lon="8.3603327"><ele>269.0</ele><time>2026-05-02T12:21:47.984Z</time></trkpt><trkpt lat="45.613586" lon="8.3605142"><ele>269.25</ele><time>2026-05-02T12:21:48.989Z</time></trkpt><trkpt lat="45.6135722" lon="8.3606989"><ele>269.5</ele><time>2026-05-02T12:21:49.99Z</time></trkpt><trkpt lat="45.6135602" lon="8.3608782"><ele>269.75</ele><time>2026-05-02T12:21:50.981Z</time></trkpt><trkpt lat="45.6135486" lon="8.3610394"><ele>270.0</ele><time>2026-05-02T12:21:51.987Z</time></trkpt><trkpt lat="45.6135385" lon="8.3611832"><ele>270.0</ele><time>2026-05-02T12:21:52.985Z</time></trkpt><trkpt lat="45.6135298" lon="8.3613124"><ele>270.0</ele><time>2026-05-02T12:21:53.985Z</time></trkpt><trkpt lat="45.6135218" lon="8.3614311"><ele>270.0</ele><time>2026-05-02T12:21:54.986Z</time></trkpt><trkpt lat="45.6135162" lon="8.3615336"><ele>270.0</ele><time>2026-05-02T12:21:55.988Z</time></trkpt><trkpt lat="45.6135031" lon="8.3616976"><ele>270.0</ele><time>2026-05-02T12:21:57.984Z</time></trkpt><trkpt lat="45.6134764" lon="8.3618703"><ele>269.5</ele><time>2026-05-02T12:21:59.994Z</time></trkpt><trkpt lat="45.6134689" lon="8.3619737"><ele>269.0</ele><time>2026-05-02T12:22:00.981Z</time></trkpt><trkpt lat="45.6134692" lon="8.3620811"><ele>268.5</ele><time>2026-05-02T12:22:01.99Z</time></trkpt><trkpt lat="45.6134719" lon="8.3621865"><ele>268.0</ele><time>2026-05-02T12:22:02.985Z</time></trkpt><trkpt lat="45.6134715" lon="8.362296"><ele>267.5</ele><time>2026-05-02T12:22:03.988Z</time></trkpt><trkpt lat="45.6134656" lon="8.3624082"><ele>267.0</ele><time>2026-05-02T12:22:04.981Z</time></trkpt><trkpt lat="45.6134564" lon="8.3625259"><ele>266.25</ele><time>2026-05-02T12:22:05.989Z</time></trkpt><trkpt lat="45.613451" lon="8.3626598"><ele>265.5</ele><time>2026-05-02T12:22:06.979Z</time></trkpt><trkpt lat="45.6134601" lon="8.3628148"><ele>264.75</ele><time>2026-05-02T12:22:07.995Z</time></trkpt><trkpt lat="45.6134697" lon="8.3629917"><ele>264.0</ele><time>2026-05-02T12:22:08.991Z</time></trkpt><trkpt lat="45.613478" lon="8.363179"><ele>263.75</ele><time>2026-05-02T12:22:09.987Z</time></trkpt><trkpt lat="45.6134914" lon="8.3633719"><ele>263.5</ele><time>2026-05-02T12:22:10.985Z</time></trkpt><trkpt lat="45.6135036" lon="8.363553"><ele>263.25</ele><time>2026-05-02T12:22:11.985Z</time></trkpt><trkpt lat="45.6135183" lon="8.3637194"><ele>263.0</ele><time>2026-05-02T12:22:12.985Z</time></trkpt><trkpt lat="45.6135331" lon="8.3638775"><ele>263.4</ele><time>2026-05-02T12:22:13.978Z</time></trkpt><trkpt lat="45.6135467" lon="8.3640311"><ele>263.8</ele><time>2026-05-02T12:22:14.989Z</time></trkpt><trkpt lat="45.6135628" lon="8.3641793"><ele>264.2</ele><time>2026-05-02T12:22:15.99Z</time></trkpt><trkpt lat="45.6135753" lon="8.3643223"><ele>264.6</ele><time>2026-05-02T12:22:16.982Z</time></trkpt><trkpt lat="45.6135854" lon="8.3644561"><ele>265.0</ele><time>2026-05-02T12:22:17.988Z</time></trkpt><trkpt lat="45.6135955" lon="8.364588"><ele>264.8333333333333</ele><time>2026-05-02T12:22:18.985Z</time></trkpt><trkpt lat="45.6136011" lon="8.3647231"><ele>264.66666666666663</ele><time>2026-05-02T12:22:19.993Z</time></trkpt><trkpt lat="45.6136076" lon="8.3648551"><ele>264.5</ele><time>2026-05-02T12:22:20.984Z</time></trkpt><trkpt lat="45.6136153" lon="8.3649731"><ele>264.3333333333333</ele><time>2026-05-02T12:22:21.995Z</time></trkpt><trkpt lat="45.6136209" lon="8.3650704"><ele>264.1666666666667</ele><time>2026-05-02T12:22:23Z</time></trkpt><trkpt lat="45.6136203" lon="8.3651856"><ele>264.0</ele><time>2026-05-02T12:22:24.982Z</time></trkpt><trkpt lat="45.6135967" lon="8.3652789"><ele>264.0</ele><time>2026-05-02T12:22:27.982Z</time></trkpt><trkpt lat="45.6135168" lon="8.3653303"><ele>264.0</ele><time>2026-05-02T12:22:29.993Z</time></trkpt><trkpt lat="45.6134521" lon="8.365334"><ele>264.0</ele><time>2026-05-02T12:22:30.979Z</time></trkpt><trkpt lat="45.6133729" lon="8.3653158"><ele>264.0</ele><time>2026-05-02T12:22:31.985Z</time></trkpt><trkpt lat="45.6132895" lon="8.3652908"><ele>264.0</ele><time>2026-05-02T12:22:32.974Z</time></trkpt><trkpt lat="45.6131998" lon="8.3652613"><ele>264.0</ele><time>2026-05-02T12:22:33.98Z</time></trkpt><trkpt lat="45.6131124" lon="8.3652324"><ele>264.0</ele><time>2026-05-02T12:22:34.987Z</time></trkpt><trkpt lat="45.6130285" lon="8.3652077"><ele>264.0</ele><time>2026-05-02T12:22:35.987Z</time></trkpt><trkpt lat="45.6129366" lon="8.3651853"><ele>264.0</ele><time>2026-05-02T12:22:36.986Z</time></trkpt><trkpt lat="45.6128477" lon="8.3651575"><ele>264.0</ele><time>2026-05-02T12:22:37.99Z</time></trkpt><trkpt lat="45.6127593" lon="8.3651255"><ele>264.0</ele><time>2026-05-02T12:22:38.986Z</time></trkpt><trkpt lat="45.6126795" lon="8.3650903"><ele>264.0</ele><time>2026-05-02T12:22:39.992Z</time></trkpt><trkpt lat="45.6126015" lon="8.3650569"><ele>264.0</ele><time>2026-05-02T12:22:40.98Z</time></trkpt><trkpt lat="45.6125234" lon="8.3650321"><ele>264.0</ele><time>2026-05-02T12:22:41.981Z</time></trkpt><trkpt lat="45.6124422" lon="8.3650111"><ele>264.0</ele><time>2026-05-02T12:22:42.984Z</time></trkpt><trkpt lat="45.6123601" lon="8.3649943"><ele>264.0</ele><time>2026-05-02T12:22:43.994Z</time></trkpt><trkpt lat="45.6122754" lon="8.3649808"><ele>264.0</ele><time>2026-05-02T12:22:44.99Z</time></trkpt><trkpt lat="45.6121918" lon="8.3649673"><ele>264.0</ele><time>2026-05-02T12:22:45.994Z</time></trkpt><trkpt lat="45.6121182" lon="8.3649553"><ele>264.0</ele><time>2026-05-02T12:22:46.988Z</time></trkpt><trkpt lat="45.6120353" lon="8.3649572"><ele>264.0</ele><time>2026-05-02T12:22:47.991Z</time></trkpt><trkpt lat="45.611952" lon="8.3649693"><ele>264.0</ele><time>2026-05-02T12:22:48.985Z</time></trkpt><trkpt lat="45.6118575" lon="8.3649658"><ele>264.0</ele><time>2026-05-02T12:22:49.986Z</time></trkpt><trkpt lat="45.6117538" lon="8.3649407"><ele>264.0</ele><time>2026-05-02T12:22:50.994Z</time></trkpt><trkpt lat="45.61165" lon="8.3649112"><ele>264.0</ele><time>2026-05-02T12:22:51.992Z</time></trkpt><trkpt lat="45.6115493" lon="8.3648837"><ele>264.0</ele><time>2026-05-02T12:22:52.988Z</time></trkpt><trkpt lat="45.6114591" lon="8.3648723"><ele>264.0</ele><time>2026-05-02T12:22:53.986Z</time></trkpt><trkpt lat="45.6113793" lon="8.3648782"><ele>264.0</ele><time>2026-05-02T12:22:54.983Z</time></trkpt><trkpt lat="45.6113174" lon="8.3649324"><ele>264.0</ele><time>2026-05-02T12:22:55.985Z</time></trkpt><trkpt lat="45.6112813" lon="8.3650375"><ele>264.0</ele><time>2026-05-02T12:22:56.978Z</time></trkpt><trkpt lat="45.6112744" lon="8.3651853"><ele>264.0</ele><time>2026-05-02T12:22:57.982Z</time></trkpt><trkpt lat="45.6112753" lon="8.3653414"><ele>264.0</ele><time>2026-05-02T12:22:58.977Z</time></trkpt><trkpt lat="45.6112765" lon="8.3654941"><ele>264.0</ele><time>2026-05-02T12:22:59.987Z</time></trkpt><trkpt lat="45.6112703" lon="8.3656288"><ele>264.0</ele><time>2026-05-02T12:23:00.983Z</time></trkpt><trkpt lat="45.611264" lon="8.3657496"><ele>264.0</ele><time>2026-05-02T12:23:01.988Z</time></trkpt><trkpt lat="45.6112582" lon="8.3658587"><ele>264.1666666666667</ele><time>2026-05-02T12:23:02.981Z</time></trkpt><trkpt lat="45.6112497" lon="8.3659593"><ele>264.3333333333333</ele><time>2026-05-02T12:23:03.985Z</time></trkpt><trkpt lat="45.6112362" lon="8.3661"><ele>264.5</ele><time>2026-05-02T12:23:05.984Z</time></trkpt><trkpt lat="45.6112452" lon="8.3662209"><ele>264.66666666666663</ele><time>2026-05-02T12:23:44.982Z</time></trkpt><trkpt lat="45.6112261" lon="8.3663767"><ele>264.8333333333333</ele><time>2026-05-02T12:23:46.978Z</time></trkpt><trkpt lat="45.6112095" lon="8.3664726"><ele>265.0</ele><time>2026-05-02T12:23:47.99Z</time></trkpt><trkpt lat="45.6111846" lon="8.3666405"><ele>264.6</ele><time>2026-05-02T12:23:49.986Z</time></trkpt><trkpt lat="45.6111605" lon="8.3668072"><ele>264.2</ele><time>2026-05-02T12:23:51.988Z</time></trkpt><trkpt lat="45.6111405" lon="8.3669087"><ele>263.8</ele><time>2026-05-02T12:23:52.982Z</time></trkpt><trkpt lat="45.6111253" lon="8.3670315"><ele>263.4</ele><time>2026-05-02T12:23:53.99Z</time></trkpt><trkpt lat="45.6111106" lon="8.3671624"><ele>263.0</ele><time>2026-05-02T12:23:54.976Z</time></trkpt><trkpt lat="45.6110956" lon="8.3673082"><ele>263.0</ele><time>2026-05-02T12:23:55.988Z</time></trkpt><trkpt lat="45.6110782" lon="8.3674601"><ele>263.0</ele><time>2026-05-02T12:23:56.99Z</time></trkpt><trkpt lat="45.6110552" lon="8.3676062"><ele>263.0</ele><time>2026-05-02T12:23:57.981Z</time></trkpt><trkpt lat="45.6110263" lon="8.3677542"><ele>263.0</ele><time>2026-05-02T12:23:58.986Z</time></trkpt><trkpt lat="45.6110011" lon="8.367909"><ele>263.0</ele><time>2026-05-02T12:23:59.992Z</time></trkpt><trkpt lat="45.6109813" lon="8.3680682"><ele>262.8</ele><time>2026-05-02T12:24:00.975Z</time></trkpt><trkpt lat="45.6109601" lon="8.3682274"><ele>262.6</ele><time>2026-05-02T12:24:01.998Z</time></trkpt><trkpt lat="45.61094" lon="8.3683708"><ele>262.4</ele><time>2026-05-02T12:24:02.985Z</time></trkpt><trkpt lat="45.6109162" lon="8.3684935"><ele>262.2</ele><time>2026-05-02T12:24:03.987Z</time></trkpt><trkpt lat="45.610891" lon="8.3685909"><ele>262.0</ele><time>2026-05-02T12:24:04.988Z</time></trkpt><trkpt lat="45.6108172" lon="8.3686653"><ele>262.0</ele><time>2026-05-02T12:24:06.984Z</time></trkpt><trkpt lat="45.610752" lon="8.3686351"><ele>262.0</ele><time>2026-05-02T12:24:08.984Z</time></trkpt><trkpt lat="45.6107634" lon="8.368738"><ele>262.0</ele><time>2026-05-02T12:24:37.989Z</time></trkpt><trkpt lat="45.6106673" lon="8.3686658"><ele>262.0</ele><time>2026-05-02T12:35:00.984Z</time></trkpt><trkpt lat="45.6106931" lon="8.3687482"><ele>262.0</ele><time>2026-05-02T12:35:04.98Z</time></trkpt><trkpt lat="45.6107583" lon="8.3686925"><ele>262.0</ele><time>2026-05-02T12:35:08.971Z</time></trkpt><trkpt lat="45.610834" lon="8.3686359"><ele>262.0</ele><time>2026-05-02T12:35:28.974Z</time></trkpt><trkpt lat="45.6108752" lon="8.3685053"><ele>262.0</ele><time>2026-05-02T12:35:30.987Z</time></trkpt><trkpt lat="45.6108978" lon="8.3683858"><ele>262.0</ele><time>2026-05-02T12:35:31.988Z</time></trkpt><trkpt lat="45.6109226" lon="8.3682482"><ele>262.0</ele><time>2026-05-02T12:35:32.979Z</time></trkpt><trkpt lat="45.6109473" lon="8.3680987"><ele>262.0</ele><time>2026-05-02T12:35:33.982Z</time></trkpt><trkpt lat="45.6109725" lon="8.3679389"><ele>262.25</ele><time>2026-05-02T12:35:34.983Z</time></trkpt><trkpt lat="45.6110036" lon="8.3677623"><ele>262.5</ele><time>2026-05-02T12:35:35.981Z</time></trkpt><trkpt lat="45.6110403" lon="8.367595"><ele>262.75</ele><time>2026-05-02T12:35:36.979Z</time></trkpt><trkpt lat="45.6110708" lon="8.3674384"><ele>263.0</ele><time>2026-05-02T12:35:37.982Z</time></trkpt><trkpt lat="45.6111018" lon="8.3672993"><ele>263.0</ele><time>2026-05-02T12:35:38.973Z</time></trkpt><trkpt lat="45.6111483" lon="8.3671647"><ele>263.0</ele><time>2026-05-02T12:35:39.987Z</time></trkpt><trkpt lat="45.6111914" lon="8.3670306"><ele>263.0</ele><time>2026-05-02T12:35:40.988Z</time></trkpt><trkpt lat="45.6112321" lon="8.3668967"><ele>263.0</ele><time>2026-05-02T12:35:41.993Z</time></trkpt><trkpt lat="45.6112557" lon="8.3667586"><ele>263.0</ele><time>2026-05-02T12:35:42.995Z</time></trkpt><trkpt lat="45.6112701" lon="8.3666158"><ele>263.0</ele><time>2026-05-02T12:35:43.992Z</time></trkpt><trkpt lat="45.6112797" lon="8.3664738"><ele>263.0</ele><time>2026-05-02T12:35:44.987Z</time></trkpt><trkpt lat="45.6112926" lon="8.366333"><ele>263.0</ele><time>2026-05-02T12:35:45.989Z</time></trkpt><trkpt lat="45.611306" lon="8.3661919"><ele>263.0</ele><time>2026-05-02T12:35:46.985Z</time></trkpt><trkpt lat="45.6113183" lon="8.3660484"><ele>263.0</ele><time>2026-05-02T12:35:47.991Z</time></trkpt><trkpt lat="45.6113306" lon="8.3659097"><ele>263.2</ele><time>2026-05-02T12:35:48.981Z</time></trkpt><trkpt lat="45.611344" lon="8.3657744"><ele>263.4</ele><time>2026-05-02T12:35:49.991Z</time></trkpt><trkpt lat="45.6113603" lon="8.3656429"><ele>263.59999999999997</ele><time>2026-05-02T12:35:50.986Z</time></trkpt><trkpt lat="45.6113797" lon="8.3655149"><ele>263.8</ele><time>2026-05-02T12:35:51.981Z</time></trkpt><trkpt lat="45.6113995" lon="8.3653869"><ele>264.0</ele><time>2026-05-02T12:35:52.991Z</time></trkpt><trkpt lat="45.6114186" lon="8.3652497"><ele>264.0</ele><time>2026-05-02T12:35:53.979Z</time></trkpt><trkpt lat="45.6114427" lon="8.365114"><ele>264.0</ele><time>2026-05-02T12:35:54.987Z</time></trkpt><trkpt lat="45.61148" lon="8.3649994"><ele>264.0</ele><time>2026-05-02T12:35:55.989Z</time></trkpt><trkpt lat="45.6115236" lon="8.3649073"><ele>264.0</ele><time>2026-05-02T12:35:56.985Z</time></trkpt><trkpt lat="45.6115908" lon="8.3648737"><ele>264.0</ele><time>2026-05-02T12:35:57.984Z</time></trkpt><trkpt lat="45.6116793" lon="8.36488"><ele>264.0</ele><time>2026-05-02T12:35:58.979Z</time></trkpt><trkpt lat="45.6117803" lon="8.3648957"><ele>264.0</ele><time>2026-05-02T12:35:59.984Z</time></trkpt><trkpt lat="45.6118982" lon="8.3649166"><ele>264.0</ele><time>2026-05-02T12:36:00.982Z</time></trkpt><trkpt lat="45.6120198" lon="8.3649194"><ele>264.0</ele><time>2026-05-02T12:36:01.997Z</time></trkpt><trkpt lat="45.6121432" lon="8.3649196"><ele>264.0</ele><time>2026-05-02T12:36:02.99Z</time></trkpt><trkpt lat="45.6122699" lon="8.3649415"><ele>264.0</ele><time>2026-05-02T12:36:03.984Z</time></trkpt><trkpt lat="45.6123941" lon="8.3649749"><ele>264.0</ele><time>2026-05-02T12:36:04.982Z</time></trkpt><trkpt lat="45.6125102" lon="8.3650106"><ele>264.0</ele><time>2026-05-02T12:36:05.98Z</time></trkpt><trkpt lat="45.6126288" lon="8.3650464"><ele>264.0</ele><time>2026-05-02T12:36:06.986Z</time></trkpt><trkpt lat="45.6127482" lon="8.3650907"><ele>264.0</ele><time>2026-05-02T12:36:07.99Z</time></trkpt><trkpt lat="45.6128648" lon="8.3651274"><ele>264.0</ele><time>2026-05-02T12:36:08.979Z</time></trkpt><trkpt lat="45.6129717" lon="8.3651632"><ele>264.0</ele><time>2026-05-02T12:36:09.986Z</time></trkpt><trkpt lat="45.6130716" lon="8.3651958"><ele>264.0</ele><time>2026-05-02T12:36:10.987Z</time></trkpt><trkpt lat="45.6131754" lon="8.3652338"><ele>264.0</ele><time>2026-05-02T12:36:11.982Z</time></trkpt><trkpt lat="45.6132778" lon="8.3652727"><ele>264.0</ele><time>2026-05-02T12:36:12.988Z</time></trkpt><trkpt lat="45.6133706" lon="8.3653106"><ele>264.0</ele><time>2026-05-02T12:36:13.987Z</time></trkpt><trkpt lat="45.6134513" lon="8.3653417"><ele>264.0</ele><time>2026-05-02T12:36:14.998Z</time></trkpt><trkpt lat="45.6135179" lon="8.365364"><ele>264.0</ele><time>2026-05-02T12:36:15.995Z</time></trkpt><trkpt lat="45.6136065" lon="8.3653953"><ele>264.0</ele><time>2026-05-02T12:36:17.988Z</time></trkpt><trkpt lat="45.6136762" lon="8.3653966"><ele>264.0</ele><time>2026-05-02T12:36:21.986Z</time></trkpt><trkpt lat="45.6137682" lon="8.3653806"><ele>264.2</ele><time>2026-05-02T12:36:24.983Z</time></trkpt><trkpt lat="45.6137665" lon="8.3652605"><ele>264.4</ele><time>2026-05-02T12:36:26.989Z</time></trkpt><trkpt lat="45.6137371" lon="8.3651572"><ele>264.6</ele><time>2026-05-02T12:36:27.989Z</time></trkpt><trkpt lat="45.6137058" lon="8.3650419"><ele>264.8</ele><time>2026-05-02T12:36:28.986Z</time></trkpt><trkpt lat="45.6136823" lon="8.3649079"><ele>265.0</ele><time>2026-05-02T12:36:29.996Z</time></trkpt><trkpt lat="45.6136608" lon="8.3647604"><ele>265.0</ele><time>2026-05-02T12:36:30.975Z</time></trkpt><trkpt lat="45.6136364" lon="8.3645997"><ele>265.0</ele><time>2026-05-02T12:36:31.992Z</time></trkpt><trkpt lat="45.6136177" lon="8.3644409"><ele>265.0</ele><time>2026-05-02T12:36:32.988Z</time></trkpt><trkpt lat="45.6136032" lon="8.3642869"><ele>265.0</ele><time>2026-05-02T12:36:33.991Z</time></trkpt><trkpt lat="45.6135915" lon="8.3641382"><ele>265.0</ele><time>2026-05-02T12:36:34.984Z</time></trkpt><trkpt lat="45.6135815" lon="8.3639917"><ele>264.6</ele><time>2026-05-02T12:36:35.992Z</time></trkpt><trkpt lat="45.6135727" lon="8.3638455"><ele>264.2</ele><time>2026-05-02T12:36:36.985Z</time></trkpt><trkpt lat="45.6135628" lon="8.3637"><ele>263.8</ele><time>2026-05-02T12:36:37.986Z</time></trkpt><trkpt lat="45.6135531" lon="8.3635531"><ele>263.4</ele><time>2026-05-02T12:36:38.989Z</time></trkpt><trkpt lat="45.6135421" lon="8.3634053"><ele>263.0</ele><time>2026-05-02T12:36:39.978Z</time></trkpt><trkpt lat="45.6135302" lon="8.3632595"><ele>263.0</ele><time>2026-05-02T12:36:40.981Z</time></trkpt><trkpt lat="45.6135216" lon="8.3631131"><ele>263.0</ele><time>2026-05-02T12:36:41.985Z</time></trkpt><trkpt lat="45.6135151" lon="8.3629648"><ele>263.0</ele><time>2026-05-02T12:36:42.98Z</time></trkpt><trkpt lat="45.6135129" lon="8.362815"><ele>263.0</ele><time>2026-05-02T12:36:43.978Z</time></trkpt><trkpt lat="45.6135132" lon="8.362667"><ele>263.0</ele><time>2026-05-02T12:36:44.984Z</time></trkpt><trkpt lat="45.6135151" lon="8.3625189"><ele>263.2</ele><time>2026-05-02T12:36:45.991Z</time></trkpt><trkpt lat="45.6135225" lon="8.3623772"><ele>263.4</ele><time>2026-05-02T12:36:46.977Z</time></trkpt><trkpt lat="45.6135326" lon="8.3622485"><ele>263.59999999999997</ele><time>2026-05-02T12:36:47.984Z</time></trkpt><trkpt lat="45.6135468" lon="8.3621331"><ele>263.8</ele><time>2026-05-02T12:36:48.976Z</time></trkpt><trkpt lat="45.613561" lon="8.3620091"><ele>264.0</ele><time>2026-05-02T12:36:49.982Z</time></trkpt><trkpt lat="45.613569" lon="8.3618689"><ele>264.75</ele><time>2026-05-02T12:36:50.985Z</time></trkpt><trkpt lat="45.6135703" lon="8.3617058"><ele>265.5</ele><time>2026-05-02T12:36:51.979Z</time></trkpt><trkpt lat="45.6135757" lon="8.361522"><ele>266.25</ele><time>2026-05-02T12:36:52.98Z</time></trkpt><trkpt lat="45.6135851" lon="8.3613129"><ele>267.0</ele><time>2026-05-02T12:36:53.986Z</time></trkpt><trkpt lat="45.613597" lon="8.3610814"><ele>267.6666666666667</ele><time>2026-05-02T12:36:54.971Z</time></trkpt><trkpt lat="45.6136109" lon="8.3608243"><ele>268.33333333333337</ele><time>2026-05-02T12:36:55.986Z</time></trkpt><trkpt lat="45.6136261" lon="8.3605553"><ele>269.0</ele><time>2026-05-02T12:36:56.988Z</time></trkpt><trkpt lat="45.6136409" lon="8.3602963"><ele>270.0</ele><time>2026-05-02T12:36:57.984Z</time></trkpt><trkpt lat="45.6136567" lon="8.3600601"><ele>271.0</ele><time>2026-05-02T12:36:58.985Z</time></trkpt><trkpt lat="45.6136715" lon="8.3598567"><ele>272.0</ele><time>2026-05-02T12:36:59.985Z</time></trkpt><trkpt lat="45.6136837" lon="8.3596968"><ele>273.0</ele><time>2026-05-02T12:37:00.989Z</time></trkpt><trkpt lat="45.6136938" lon="8.3595796"><ele>273.2857142857143</ele><time>2026-05-02T12:37:01.982Z</time></trkpt><trkpt lat="45.6136973" lon="8.359478"><ele>273.57142857142856</ele><time>2026-05-02T12:37:02.982Z</time></trkpt><trkpt lat="45.6136974" lon="8.3593734"><ele>273.8571428571429</ele><time>2026-05-02T12:37:03.984Z</time></trkpt><trkpt lat="45.6136981" lon="8.3592635"><ele>274.1428571428571</ele><time>2026-05-02T12:37:04.984Z</time></trkpt><trkpt lat="45.6137049" lon="8.3591515"><ele>274.42857142857144</ele><time>2026-05-02T12:37:05.992Z</time></trkpt><trkpt lat="45.6137142" lon="8.3590475"><ele>274.7142857142857</ele><time>2026-05-02T12:37:06.984Z</time></trkpt><trkpt lat="45.6137235" lon="8.3589505"><ele>275.0</ele><time>2026-05-02T12:37:07.989Z</time></trkpt><trkpt lat="45.6137535" lon="8.3587839"><ele>275.0</ele><time>2026-05-02T12:37:09.982Z</time></trkpt><trkpt lat="45.6138103" lon="8.358678"><ele>275.0</ele><time>2026-05-02T12:37:11.99Z</time></trkpt><trkpt lat="45.6138675" lon="8.3586299"><ele>275.0</ele><time>2026-05-02T12:37:13.995Z</time></trkpt><trkpt lat="45.6139364" lon="8.3585759"><ele>275.0</ele><time>2026-05-02T12:37:36.972Z</time></trkpt><trkpt lat="45.6140251" lon="8.3584677"><ele>275.0</ele><time>2026-05-02T12:37:38.978Z</time></trkpt><trkpt lat="45.6140886" lon="8.3584148"><ele>275.0</ele><time>2026-05-02T12:37:39.974Z</time></trkpt><trkpt lat="45.6141533" lon="8.3583718"><ele>275.0</ele><time>2026-05-02T12:37:40.975Z</time></trkpt><trkpt lat="45.6142177" lon="8.3583361"><ele>275.0</ele><time>2026-05-02T12:37:41.978Z</time></trkpt><trkpt lat="45.6142829" lon="8.3583109"><ele>275.0</ele><time>2026-05-02T12:37:42.982Z</time></trkpt><trkpt lat="45.6144017" lon="8.358267"><ele>275.0</ele><time>2026-05-02T12:37:44.976Z</time></trkpt><trkpt lat="45.6145117" lon="8.3582059"><ele>275.0</ele><time>2026-05-02T12:37:46.972Z</time></trkpt><trkpt lat="45.6145687" lon="8.358157"><ele>275.0</ele><time>2026-05-02T12:37:47.985Z</time></trkpt><trkpt lat="45.6146235" lon="8.3580903"><ele>275.8</ele><time>2026-05-02T12:37:48.98Z</time></trkpt><trkpt lat="45.6146871" lon="8.3580108"><ele>276.6</ele><time>2026-05-02T12:37:49.988Z</time></trkpt><trkpt lat="45.6147546" lon="8.3579219"><ele>277.4</ele><time>2026-05-02T12:37:50.979Z</time></trkpt><trkpt lat="45.6148235" lon="8.3578185"><ele>278.2</ele><time>2026-05-02T12:37:51.99Z</time></trkpt><trkpt lat="45.6148901" lon="8.3577095"><ele>279.0</ele><time>2026-05-02T12:37:52.972Z</time></trkpt><trkpt lat="45.6149555" lon="8.3575987"><ele>279.0</ele><time>2026-05-02T12:37:53.992Z</time></trkpt><trkpt lat="45.6150198" lon="8.357484"><ele>279.0</ele><time>2026-05-02T12:37:54.979Z</time></trkpt><trkpt lat="45.6150851" lon="8.3573711"><ele>279.0</ele><time>2026-05-02T12:37:55.982Z</time></trkpt><trkpt lat="45.6151483" lon="8.3572733"><ele>279.0</ele><time>2026-05-02T12:37:56.978Z</time></trkpt><trkpt lat="45.6152102" lon="8.3571874"><ele>279.0</ele><time>2026-05-02T12:37:57.991Z</time></trkpt><trkpt lat="45.6152686" lon="8.3571153"><ele>279.8333333333333</ele><time>2026-05-02T12:37:58.985Z</time></trkpt><trkpt lat="45.6153225" lon="8.3570497"><ele>280.6666666666667</ele><time>2026-05-02T12:37:59.974Z</time></trkpt><trkpt lat="45.6153757" lon="8.3569925"><ele>281.5</ele><time>2026-05-02T12:38:00.974Z</time></trkpt><trkpt lat="45.6154342" lon="8.3569478"><ele>282.33333333333337</ele><time>2026-05-02T12:38:01.976Z</time></trkpt><trkpt lat="45.6154969" lon="8.3569168"><ele>283.1666666666667</ele><time>2026-05-02T12:38:02.988Z</time></trkpt><trkpt lat="45.6156092" lon="8.3568919"><ele>284.0</ele><time>2026-05-02T12:38:04.981Z</time></trkpt><trkpt lat="45.6157212" lon="8.3568706"><ele>284.0</ele><time>2026-05-02T12:38:06.98Z</time></trkpt><trkpt lat="45.6158171" lon="8.3568375"><ele>284.0</ele><time>2026-05-02T12:38:08.976Z</time></trkpt><trkpt lat="45.6159321" lon="8.3567676"><ele>284.0</ele><time>2026-05-02T12:38:10.98Z</time></trkpt><trkpt lat="45.6160036" lon="8.3567247"><ele>284.0</ele><time>2026-05-02T12:38:11.985Z</time></trkpt><trkpt lat="45.6160797" lon="8.3566623"><ele>284.0</ele><time>2026-05-02T12:38:12.98Z</time></trkpt><trkpt lat="45.6161606" lon="8.3565988"><ele>284.83333333333337</ele><time>2026-05-02T12:38:13.992Z</time></trkpt><trkpt lat="45.616237" lon="8.3565427"><ele>285.6666666666667</ele><time>2026-05-02T12:38:14.979Z</time></trkpt><trkpt lat="45.6163087" lon="8.3564899"><ele>286.5</ele><time>2026-05-02T12:38:15.99Z</time></trkpt><trkpt lat="45.6163734" lon="8.3564466"><ele>287.3333333333333</ele><time>2026-05-02T12:38:16.982Z</time></trkpt><trkpt lat="45.6164831" lon="8.3563924"><ele>288.16666666666663</ele><time>2026-05-02T12:38:18.991Z</time></trkpt><trkpt lat="45.6165703" lon="8.3563713"><ele>289.0</ele><time>2026-05-02T12:38:20.98Z</time></trkpt><trkpt lat="45.6166359" lon="8.3563813"><ele>289.0</ele><time>2026-05-02T12:38:22.993Z</time></trkpt><trkpt lat="45.616701" lon="8.3563997"><ele>289.0</ele><time>2026-05-02T12:38:25.98Z</time></trkpt><trkpt lat="45.6167713" lon="8.3564162"><ele>289.0</ele><time>2026-05-02T12:38:29.989Z</time></trkpt><trkpt lat="45.6168438" lon="8.3564509"><ele>289.0</ele><time>2026-05-02T12:38:32.993Z</time></trkpt><trkpt lat="45.6169179" lon="8.3564678"><ele>289.0</ele><time>2026-05-02T12:38:34.981Z</time></trkpt><trkpt lat="45.6169983" lon="8.3564866"><ele>289.0</ele><time>2026-05-02T12:38:36.983Z</time></trkpt><trkpt lat="45.6170979" lon="8.356509"><ele>288.59999999999997</ele><time>2026-05-02T12:38:38.991Z</time></trkpt><trkpt lat="45.6172277" lon="8.3565087"><ele>288.2</ele><time>2026-05-02T12:38:40.978Z</time></trkpt><trkpt lat="45.6173161" lon="8.3565026"><ele>287.79999999999995</ele><time>2026-05-02T12:38:41.989Z</time></trkpt><trkpt lat="45.6174021" lon="8.3564873"><ele>287.4</ele><time>2026-05-02T12:38:42.98Z</time></trkpt><trkpt lat="45.6175062" lon="8.356469"><ele>287.0</ele><time>2026-05-02T12:38:43.993Z</time></trkpt><trkpt lat="45.6176165" lon="8.3564515"><ele>287.0</ele><time>2026-05-02T12:38:44.988Z</time></trkpt><trkpt lat="45.6177159" lon="8.3564403"><ele>287.0</ele><time>2026-05-02T12:38:45.995Z</time></trkpt><trkpt lat="45.6177915" lon="8.3564355"><ele>287.0</ele><time>2026-05-02T12:38:46.981Z</time></trkpt><trkpt lat="45.6178909" lon="8.3564309"><ele>287.0</ele><time>2026-05-02T12:38:48.985Z</time></trkpt><trkpt lat="45.61802" lon="8.3564201"><ele>287.0</ele><time>2026-05-02T12:38:50.982Z</time></trkpt><trkpt lat="45.6180915" lon="8.3564161"><ele>287.57142857142856</ele><time>2026-05-02T12:38:51.986Z</time></trkpt><trkpt lat="45.6181675" lon="8.3564219"><ele>288.1428571428571</ele><time>2026-05-02T12:38:52.98Z</time></trkpt><trkpt lat="45.6182434" lon="8.3564347"><ele>288.7142857142857</ele><time>2026-05-02T12:38:53.989Z</time></trkpt><trkpt lat="45.6183237" lon="8.3564468"><ele>289.2857142857143</ele><time>2026-05-02T12:38:54.981Z</time></trkpt><trkpt lat="45.6183996" lon="8.3564614"><ele>289.85714285714283</ele><time>2026-05-02T12:38:55.982Z</time></trkpt><trkpt lat="45.6184697" lon="8.3564783"><ele>290.42857142857144</ele><time>2026-05-02T12:38:56.986Z</time></trkpt><trkpt lat="45.6185331" lon="8.356489"><ele>291.0</ele><time>2026-05-02T12:38:57.974Z</time></trkpt><trkpt lat="45.6186389" lon="8.35649"><ele>291.0</ele><time>2026-05-02T12:38:59.985Z</time></trkpt><trkpt lat="45.6187257" lon="8.3564746"><ele>291.0</ele><time>2026-05-02T12:39:01.978Z</time></trkpt><trkpt lat="45.6187892" lon="8.3564466"><ele>291.0</ele><time>2026-05-02T12:39:03.986Z</time></trkpt><trkpt lat="45.6188524" lon="8.3563941"><ele>291.0</ele><time>2026-05-02T12:39:06.986Z</time></trkpt><trkpt lat="45.6189051" lon="8.3563437"><ele>291.0</ele><time>2026-05-02T12:39:08.977Z</time></trkpt><trkpt lat="45.6189537" lon="8.3562818"><ele>291.0</ele><time>2026-05-02T12:39:10.979Z</time></trkpt><trkpt lat="45.6189977" lon="8.3562074"><ele>291.0</ele><time>2026-05-02T12:39:13.989Z</time></trkpt><trkpt lat="45.61904" lon="8.3561226"><ele>291.0</ele><time>2026-05-02T12:39:16.967Z</time></trkpt><trkpt lat="45.6190749" lon="8.3559982"><ele>291.0</ele><time>2026-05-02T12:39:19.981Z</time></trkpt><trkpt lat="45.619093" lon="8.3558372"><ele>291.0</ele><time>2026-05-02T12:39:21.98Z</time></trkpt><trkpt lat="45.6191007" lon="8.3557294"><ele>291.0</ele><time>2026-05-02T12:39:22.968Z</time></trkpt><trkpt lat="45.6191115" lon="8.355611"><ele>291.0</ele><time>2026-05-02T12:39:23.986Z</time></trkpt><trkpt lat="45.6191246" lon="8.3554902"><ele>291.2</ele><time>2026-05-02T12:39:24.976Z</time></trkpt><trkpt lat="45.6191414" lon="8.3553595"><ele>291.40000000000003</ele><time>2026-05-02T12:39:25.994Z</time></trkpt><trkpt lat="45.6191626" lon="8.3552262"><ele>291.6</ele><time>2026-05-02T12:39:26.982Z</time></trkpt><trkpt lat="45.619182" lon="8.3550865"><ele>291.8</ele><time>2026-05-02T12:39:27.992Z</time></trkpt><trkpt lat="45.6191967" lon="8.3549433"><ele>292.0</ele><time>2026-05-02T12:39:28.982Z</time></trkpt><trkpt lat="45.6192132" lon="8.3548002"><ele>292.8</ele><time>2026-05-02T12:39:29.992Z</time></trkpt><trkpt lat="45.6192314" lon="8.3546621"><ele>293.6</ele><time>2026-05-02T12:39:30.979Z</time></trkpt><trkpt lat="45.6192484" lon="8.3545186"><ele>294.40000000000003</ele><time>2026-05-02T12:39:31.988Z</time></trkpt><trkpt lat="45.6192634" lon="8.3543755"><ele>295.2</ele><time>2026-05-02T12:39:32.986Z</time></trkpt><trkpt lat="45.619277" lon="8.3542337"><ele>296.0</ele><time>2026-05-02T12:39:33.987Z</time></trkpt><trkpt lat="45.6192913" lon="8.3540891"><ele>296.0</ele><time>2026-05-02T12:39:34.986Z</time></trkpt><trkpt lat="45.6193081" lon="8.353945"><ele>296.0</ele><time>2026-05-02T12:39:35.979Z</time></trkpt><trkpt lat="45.6193234" lon="8.3538043"><ele>296.0</ele><time>2026-05-02T12:39:36.997Z</time></trkpt><trkpt lat="45.619337" lon="8.3536698"><ele>296.0</ele><time>2026-05-02T12:39:37.992Z</time></trkpt><trkpt lat="45.6193517" lon="8.3535382"><ele>296.0</ele><time>2026-05-02T12:39:38.991Z</time></trkpt><trkpt lat="45.6193652" lon="8.3534049"><ele>296.2</ele><time>2026-05-02T12:39:40.002Z</time></trkpt><trkpt lat="45.6193785" lon="8.3532708"><ele>296.40000000000003</ele><time>2026-05-02T12:39:40.983Z</time></trkpt><trkpt lat="45.619392" lon="8.353129"><ele>296.6</ele><time>2026-05-02T12:39:41.979Z</time></trkpt><trkpt lat="45.6194083" lon="8.3529818"><ele>296.8</ele><time>2026-05-02T12:39:42.984Z</time></trkpt><trkpt lat="45.6194238" lon="8.3528291"><ele>297.0</ele><time>2026-05-02T12:39:43.981Z</time></trkpt><trkpt lat="45.6194381" lon="8.3526753"><ele>297.4</ele><time>2026-05-02T12:39:44.976Z</time></trkpt><trkpt lat="45.6194589" lon="8.3525247"><ele>297.79999999999995</ele><time>2026-05-02T12:39:45.972Z</time></trkpt><trkpt lat="45.6194771" lon="8.3523761"><ele>298.2</ele><time>2026-05-02T12:39:46.983Z</time></trkpt><trkpt lat="45.619492" lon="8.352228"><ele>298.59999999999997</ele><time>2026-05-02T12:39:47.977Z</time></trkpt><trkpt lat="45.6195056" lon="8.3520737"><ele>299.0</ele><time>2026-05-02T12:39:48.988Z</time></trkpt><trkpt lat="45.6195184" lon="8.3519199"><ele>299.0</ele><time>2026-05-02T12:39:49.985Z</time></trkpt><trkpt lat="45.6195347" lon="8.3517772"><ele>299.0</ele><time>2026-05-02T12:39:50.987Z</time></trkpt><trkpt lat="45.6195557" lon="8.351641"><ele>299.0</ele><time>2026-05-02T12:39:51.98Z</time></trkpt><trkpt lat="45.6195778" lon="8.3515029"><ele>299.0</ele><time>2026-05-02T12:39:52.985Z</time></trkpt><trkpt lat="45.6196078" lon="8.3513688"><ele>299.0</ele><time>2026-05-02T12:39:53.986Z</time></trkpt><trkpt lat="45.6196408" lon="8.3512397"><ele>299.33333333333337</ele><time>2026-05-02T12:39:54.992Z</time></trkpt><trkpt lat="45.6196755" lon="8.3511184"><ele>299.6666666666667</ele><time>2026-05-02T12:39:55.976Z</time></trkpt><trkpt lat="45.6197133" lon="8.3510042"><ele>300.0</ele><time>2026-05-02T12:39:56.988Z</time></trkpt><trkpt lat="45.6197529" lon="8.3509075"><ele>300.3333333333333</ele><time>2026-05-02T12:39:57.993Z</time></trkpt><trkpt lat="45.619792" lon="8.3508312"><ele>300.66666666666663</ele><time>2026-05-02T12:39:58.987Z</time></trkpt><trkpt lat="45.6198807" lon="8.3507555"><ele>301.0</ele><time>2026-05-02T12:40:00.979Z</time></trkpt><trkpt lat="45.6199833" lon="8.3507841"><ele>301.0</ele><time>2026-05-02T12:40:02.99Z</time></trkpt><trkpt lat="45.6200387" lon="8.3508299"><ele>301.0</ele><time>2026-05-02T12:40:03.986Z</time></trkpt><trkpt lat="45.6200935" lon="8.3508773"><ele>301.0</ele><time>2026-05-02T12:40:04.992Z</time></trkpt><trkpt lat="45.6201998" lon="8.3509693"><ele>301.0</ele><time>2026-05-02T12:40:06.98Z</time></trkpt><trkpt lat="45.6202555" lon="8.3510166"><ele>301.0</ele><time>2026-05-02T12:40:07.995Z</time></trkpt><trkpt lat="45.6203618" lon="8.3510836"><ele>301.0</ele><time>2026-05-02T12:40:09.981Z</time></trkpt><trkpt lat="45.6204393" lon="8.3510915"><ele>302.2</ele><time>2026-05-02T12:40:11.979Z</time></trkpt><trkpt lat="45.6205187" lon="8.3510014"><ele>303.40000000000003</ele><time>2026-05-02T12:40:14.979Z</time></trkpt><trkpt lat="45.6205737" lon="8.3508814"><ele>304.6</ele><time>2026-05-02T12:40:16.985Z</time></trkpt><trkpt lat="45.6206273" lon="8.3507343"><ele>305.8</ele><time>2026-05-02T12:40:18.982Z</time></trkpt><trkpt lat="45.6206852" lon="8.3505681"><ele>307.0</ele><time>2026-05-02T12:40:20.998Z</time></trkpt><trkpt lat="45.6207212" lon="8.3504838"><ele>307.1428571428571</ele><time>2026-05-02T12:40:21.991Z</time></trkpt><trkpt lat="45.6207626" lon="8.3504046"><ele>307.2857142857143</ele><time>2026-05-02T12:40:22.992Z</time></trkpt><trkpt lat="45.6208116" lon="8.3503327"><ele>307.42857142857144</ele><time>2026-05-02T12:40:23.981Z</time></trkpt><trkpt lat="45.6208694" lon="8.3502713"><ele>307.57142857142856</ele><time>2026-05-02T12:40:24.987Z</time></trkpt><trkpt lat="45.62093" lon="8.3502136"><ele>307.7142857142857</ele><time>2026-05-02T12:40:25.983Z</time></trkpt><trkpt lat="45.6209882" lon="8.3501514"><ele>307.85714285714283</ele><time>2026-05-02T12:40:26.991Z</time></trkpt><trkpt lat="45.6210425" lon="8.3500831"><ele>308.0</ele><time>2026-05-02T12:40:27.983Z</time></trkpt><trkpt lat="45.6210956" lon="8.3500137"><ele>308.0</ele><time>2026-05-02T12:40:28.981Z</time></trkpt><trkpt lat="45.6211445" lon="8.3499394"><ele>308.0</ele><time>2026-05-02T12:40:29.99Z</time></trkpt><trkpt lat="45.6211894" lon="8.349867"><ele>308.0</ele><time>2026-05-02T12:40:30.989Z</time></trkpt><trkpt lat="45.6212553" lon="8.3497611"><ele>308.0</ele><time>2026-05-02T12:40:32.981Z</time></trkpt><trkpt lat="45.6213147" lon="8.3496811"><ele>308.0</ele><time>2026-05-02T12:40:35.989Z</time></trkpt><trkpt lat="45.6212491" lon="8.3497376"><ele>308.0</ele><time>2026-05-02T12:40:51.977Z</time></trkpt><trkpt lat="45.6211904" lon="8.3498388"><ele>308.0</ele><time>2026-05-02T12:40:53.976Z</time></trkpt><trkpt lat="45.6211433" lon="8.3499156"><ele>308.0</ele><time>2026-05-02T12:40:55.986Z</time></trkpt><trkpt lat="45.6211143" lon="8.3500014"><ele>308.0</ele><time>2026-05-02T12:40:58.993Z</time></trkpt><trkpt lat="45.6211275" lon="8.3501086"><ele>308.0</ele><time>2026-05-02T12:41:01.978Z</time></trkpt><trkpt lat="45.6210802" lon="8.3501939"><ele>308.0</ele><time>2026-05-02T12:41:03.979Z</time></trkpt><trkpt lat="45.6209991" lon="8.350273"><ele>308.0</ele><time>2026-05-02T12:41:05.98Z</time></trkpt><trkpt lat="45.6209265" lon="8.3503379"><ele>308.0</ele><time>2026-05-02T12:41:07.987Z</time></trkpt><trkpt lat="45.620868" lon="8.3504058"><ele>308.0</ele><time>2026-05-02T12:41:09.989Z</time></trkpt><trkpt lat="45.6208361" lon="8.3504842"><ele>308.0</ele><time>2026-05-02T12:41:12.975Z</time></trkpt><trkpt lat="45.6208972" lon="8.3505454"><ele>308.0</ele><time>2026-05-02T12:41:16.98Z</time></trkpt><trkpt lat="45.620983" lon="8.3505798"><ele>308.0</ele><time>2026-05-02T12:41:18.983Z</time></trkpt><trkpt lat="45.6210633" lon="8.3506376"><ele>308.0</ele><time>2026-05-02T12:41:20.982Z</time></trkpt><trkpt lat="45.6211407" lon="8.3507109"><ele>309.83333333333337</ele><time>2026-05-02T12:41:22.977Z</time></trkpt><trkpt lat="45.6212177" lon="8.350791"><ele>311.6666666666667</ele><time>2026-05-02T12:41:24.983Z</time></trkpt><trkpt lat="45.6213004" lon="8.3508791"><ele>313.5</ele><time>2026-05-02T12:41:26.986Z</time></trkpt><trkpt lat="45.6213785" lon="8.3509478"><ele>315.3333333333333</ele><time>2026-05-02T12:41:28.991Z</time></trkpt><trkpt lat="45.6214449" lon="8.3509937"><ele>317.16666666666663</ele><time>2026-05-02T12:41:30.978Z</time></trkpt><trkpt lat="45.6215044" lon="8.3510408"><ele>319.0</ele><time>2026-05-02T12:41:32.979Z</time></trkpt><trkpt lat="45.6215589" lon="8.3511092"><ele>319.0</ele><time>2026-05-02T12:41:35.977Z</time></trkpt><trkpt lat="45.6216256" lon="8.3511479"><ele>319.0</ele><time>2026-05-02T12:41:38.979Z</time></trkpt><trkpt lat="45.6216772" lon="8.3512092"><ele>319.0</ele><time>2026-05-02T12:41:42.985Z</time></trkpt><trkpt lat="45.621599" lon="8.3511439"><ele>319.0</ele><time>2026-05-02T12:41:54.972Z</time></trkpt><trkpt lat="45.6215438" lon="8.3510922"><ele>319.0</ele><time>2026-05-02T12:41:56.985Z</time></trkpt><trkpt lat="45.6214756" lon="8.3510238"><ele>319.0</ele><time>2026-05-02T12:41:59.976Z</time></trkpt><trkpt lat="45.6214062" lon="8.3509693"><ele>319.0</ele><time>2026-05-02T12:42:01.987Z</time></trkpt><trkpt lat="45.6212978" lon="8.3508643"><ele>319.0</ele><time>2026-05-02T12:42:03.98Z</time></trkpt><trkpt lat="45.6212249" lon="8.3507934"><ele>319.0</ele><time>2026-05-02T12:42:04.985Z</time></trkpt><trkpt lat="45.6211568" lon="8.3507265"><ele>319.0</ele><time>2026-05-02T12:42:05.992Z</time></trkpt><trkpt lat="45.6210717" lon="8.3506434"><ele>319.0</ele><time>2026-05-02T12:42:07.993Z</time></trkpt><trkpt lat="45.6210077" lon="8.3505989"><ele>317.16666666666663</ele><time>2026-05-02T12:42:10.975Z</time></trkpt><trkpt lat="45.6209404" lon="8.3505509"><ele>315.3333333333333</ele><time>2026-05-02T12:42:12.985Z</time></trkpt><trkpt lat="45.6208714" lon="8.3504909"><ele>313.5</ele><time>2026-05-02T12:42:14.98Z</time></trkpt><trkpt lat="45.6208491" lon="8.3503952"><ele>311.6666666666667</ele><time>2026-05-02T12:42:17.982Z</time></trkpt><trkpt lat="45.6209208" lon="8.3503324"><ele>309.83333333333337</ele><time>2026-05-02T12:42:20.976Z</time></trkpt><trkpt lat="45.621001" lon="8.3502914"><ele>308.0</ele><time>2026-05-02T12:42:23.99Z</time></trkpt><trkpt lat="45.6209983" lon="8.3501523"><ele>308.0</ele><time>2026-05-02T12:42:26.976Z</time></trkpt><trkpt lat="45.6210398" lon="8.3500331"><ele>308.0</ele><time>2026-05-02T12:42:29.994Z</time></trkpt><trkpt lat="45.6211098" lon="8.3499332"><ele>308.0</ele><time>2026-05-02T12:42:31.978Z</time></trkpt><trkpt lat="45.621186" lon="8.3497819"><ele>308.0</ele><time>2026-05-02T12:42:33.981Z</time></trkpt><trkpt lat="45.6212295" lon="8.3496929"><ele>308.0</ele><time>2026-05-02T12:42:34.978Z</time></trkpt><trkpt lat="45.6212776" lon="8.3495976"><ele>309.6</ele><time>2026-05-02T12:42:35.983Z</time></trkpt><trkpt lat="45.621326" lon="8.34949"><ele>311.20000000000005</ele><time>2026-05-02T12:42:36.982Z</time></trkpt><trkpt lat="45.6213817" lon="8.3493735"><ele>312.8</ele><time>2026-05-02T12:42:37.989Z</time></trkpt><trkpt lat="45.621433" lon="8.3492572"><ele>314.40000000000003</ele><time>2026-05-02T12:42:38.982Z</time></trkpt><trkpt lat="45.6214782" lon="8.3491509"><ele>316.0</ele><time>2026-05-02T12:42:39.99Z</time></trkpt><trkpt lat="45.6215203" lon="8.3490564"><ele>316.0</ele><time>2026-05-02T12:42:40.974Z</time></trkpt><trkpt lat="45.6215547" lon="8.3489638"><ele>316.0</ele><time>2026-05-02T12:42:41.987Z</time></trkpt><trkpt lat="45.6215827" lon="8.3488773"><ele>316.0</ele><time>2026-05-02T12:42:42.974Z</time></trkpt><trkpt lat="45.6216316" lon="8.3487289"><ele>316.0</ele><time>2026-05-02T12:42:44.981Z</time></trkpt><trkpt lat="45.6216464" lon="8.3486098"><ele>316.0</ele><time>2026-05-02T12:42:46.982Z</time></trkpt><trkpt lat="45.6216333" lon="8.3485056"><ele>316.0</ele><time>2026-05-02T12:42:48.983Z</time></trkpt><trkpt lat="45.6215916" lon="8.3483814"><ele>315.0</ele><time>2026-05-02T12:42:50.987Z</time></trkpt><trkpt lat="45.6215366" lon="8.3482359"><ele>314.0</ele><time>2026-05-02T12:42:52.977Z</time></trkpt><trkpt lat="45.6214839" lon="8.3480833"><ele>313.0</ele><time>2026-05-02T12:42:54.977Z</time></trkpt><trkpt lat="45.6214381" lon="8.3479292"><ele>312.0</ele><time>2026-05-02T12:42:56.986Z</time></trkpt><trkpt lat="45.621382" lon="8.3477568"><ele>311.8333333333333</ele><time>2026-05-02T12:42:58.975Z</time></trkpt><trkpt lat="45.621347" lon="8.3476535"><ele>311.6666666666667</ele><time>2026-05-02T12:42:59.989Z</time></trkpt><trkpt lat="45.6213131" lon="8.3475425"><ele>311.5</ele><time>2026-05-02T12:43:00.979Z</time></trkpt><trkpt lat="45.6212796" lon="8.3474241"><ele>311.33333333333337</ele><time>2026-05-02T12:43:01.968Z</time></trkpt><trkpt lat="45.6212459" lon="8.3472996"><ele>311.1666666666667</ele><time>2026-05-02T12:43:02.988Z</time></trkpt><trkpt lat="45.6212126" lon="8.3471735"><ele>311.0</ele><time>2026-05-02T12:43:03.98Z</time></trkpt><trkpt lat="45.6211798" lon="8.3470514"><ele>310.33333333333337</ele><time>2026-05-02T12:43:04.987Z</time></trkpt><trkpt lat="45.6211454" lon="8.3469416"><ele>309.6666666666667</ele><time>2026-05-02T12:43:05.981Z</time></trkpt><trkpt lat="45.6211108" lon="8.3468396"><ele>309.0</ele><time>2026-05-02T12:43:06.988Z</time></trkpt><trkpt lat="45.6210774" lon="8.3467401"><ele>308.3333333333333</ele><time>2026-05-02T12:43:07.982Z</time></trkpt><trkpt lat="45.6210493" lon="8.3466394"><ele>307.66666666666663</ele><time>2026-05-02T12:43:08.983Z</time></trkpt><trkpt lat="45.6210335" lon="8.346532"><ele>307.0</ele><time>2026-05-02T12:43:09.985Z</time></trkpt><trkpt lat="45.6210293" lon="8.3464223"><ele>307.16666666666663</ele><time>2026-05-02T12:43:10.976Z</time></trkpt><trkpt lat="45.6210274" lon="8.3463064"><ele>307.3333333333333</ele><time>2026-05-02T12:43:11.986Z</time></trkpt><trkpt lat="45.6210322" lon="8.3461838"><ele>307.5</ele><time>2026-05-02T12:43:12.986Z</time></trkpt><trkpt lat="45.6210327" lon="8.3460508"><ele>307.6666666666667</ele><time>2026-05-02T12:43:13.981Z</time></trkpt><trkpt lat="45.6210349" lon="8.3459185"><ele>307.83333333333337</ele><time>2026-05-02T12:43:14.98Z</time></trkpt><trkpt lat="45.6210369" lon="8.3457853"><ele>308.0</ele><time>2026-05-02T12:43:15.986Z</time></trkpt><trkpt lat="45.6210397" lon="8.3456549"><ele>308.0</ele><time>2026-05-02T12:43:16.976Z</time></trkpt><trkpt lat="45.62104" lon="8.3455231"><ele>308.0</ele><time>2026-05-02T12:43:17.986Z</time></trkpt><trkpt lat="45.6210367" lon="8.3453944"><ele>308.0</ele><time>2026-05-02T12:43:18.977Z</time></trkpt><trkpt lat="45.6210338" lon="8.3452615"><ele>308.0</ele><time>2026-05-02T12:43:19.983Z</time></trkpt><trkpt lat="45.6210304" lon="8.3451328"><ele>308.0</ele><time>2026-05-02T12:43:20.975Z</time></trkpt><trkpt lat="45.6210237" lon="8.3450058"><ele>308.0</ele><time>2026-05-02T12:43:21.984Z</time></trkpt><trkpt lat="45.6210213" lon="8.3448806"><ele>308.0</ele><time>2026-05-02T12:43:22.975Z</time></trkpt><trkpt lat="45.6210214" lon="8.3447509"><ele>308.0</ele><time>2026-05-02T12:43:23.986Z</time></trkpt><trkpt lat="45.6210216" lon="8.3446207"><ele>308.0</ele><time>2026-05-02T12:43:24.986Z</time></trkpt><trkpt lat="45.62102" lon="8.3444921"><ele>308.0</ele><time>2026-05-02T12:43:25.988Z</time></trkpt><trkpt lat="45.6210223" lon="8.3443701"><ele>308.0</ele><time>2026-05-02T12:43:26.981Z</time></trkpt><trkpt lat="45.6210244" lon="8.3442472"><ele>308.1666666666667</ele><time>2026-05-02T12:43:27.981Z</time></trkpt><trkpt lat="45.6210277" lon="8.3441314"><ele>308.33333333333337</ele><time>2026-05-02T12:43:28.972Z</time></trkpt><trkpt lat="45.6210256" lon="8.3440141"><ele>308.5</ele><time>2026-05-02T12:43:29.989Z</time></trkpt><trkpt lat="45.6210219" lon="8.3438982"><ele>308.6666666666667</ele><time>2026-05-02T12:43:30.978Z</time></trkpt><trkpt lat="45.6210158" lon="8.3437859"><ele>308.8333333333333</ele><time>2026-05-02T12:43:31.988Z</time></trkpt><trkpt lat="45.6210139" lon="8.3436777"><ele>309.0</ele><time>2026-05-02T12:43:32.981Z</time></trkpt><trkpt lat="45.6210108" lon="8.3435682"><ele>309.2</ele><time>2026-05-02T12:43:33.991Z</time></trkpt><trkpt lat="45.6210045" lon="8.3434527"><ele>309.4</ele><time>2026-05-02T12:43:34.978Z</time></trkpt><trkpt lat="45.6209948" lon="8.3433267"><ele>309.6</ele><time>2026-05-02T12:43:35.984Z</time></trkpt><trkpt lat="45.6209826" lon="8.34319"><ele>309.8</ele><time>2026-05-02T12:43:36.985Z</time></trkpt><trkpt lat="45.6209711" lon="8.3430362"><ele>310.0</ele><time>2026-05-02T12:43:37.986Z</time></trkpt><trkpt lat="45.6209618" lon="8.3428645"><ele>309.75</ele><time>2026-05-02T12:43:38.978Z</time></trkpt><trkpt lat="45.6209568" lon="8.34269"><ele>309.5</ele><time>2026-05-02T12:43:39.981Z</time></trkpt><trkpt lat="45.6209533" lon="8.3425128"><ele>309.25</ele><time>2026-05-02T12:43:40.976Z</time></trkpt><trkpt lat="45.6209422" lon="8.3423441"><ele>309.0</ele><time>2026-05-02T12:43:41.987Z</time></trkpt><trkpt lat="45.6209339" lon="8.3421926"><ele>309.0</ele><time>2026-05-02T12:43:42.971Z</time></trkpt><trkpt lat="45.6209242" lon="8.3420496"><ele>309.0</ele><time>2026-05-02T12:43:43.984Z</time></trkpt><trkpt lat="45.6209116" lon="8.3419094"><ele>309.0</ele><time>2026-05-02T12:43:44.98Z</time></trkpt><trkpt lat="45.6208911" lon="8.3417783"><ele>309.0</ele><time>2026-05-02T12:43:45.983Z</time></trkpt><trkpt lat="45.6208611" lon="8.3416624"><ele>309.0</ele><time>2026-05-02T12:43:46.98Z</time></trkpt><trkpt lat="45.6208219" lon="8.3415672"><ele>309.00000000000006</ele><time>2026-05-02T12:43:47.989Z</time></trkpt><trkpt lat="45.6207766" lon="8.3414953"><ele>309.0</ele><time>2026-05-02T12:43:48.986Z</time></trkpt><trkpt lat="45.6207267" lon="8.3414352"><ele>309.0</ele><time>2026-05-02T12:43:49.972Z</time></trkpt><trkpt lat="45.6206795" lon="8.3413729"><ele>309.0</ele><time>2026-05-02T12:43:50.986Z</time></trkpt><trkpt lat="45.6206297" lon="8.3413107"><ele>309.0</ele><time>2026-05-02T12:43:51.99Z</time></trkpt><trkpt lat="45.6205808" lon="8.3412537"><ele>309.00000000000006</ele><time>2026-05-02T12:43:52.981Z</time></trkpt><trkpt lat="45.620498" lon="8.3411343"><ele>309.0</ele><time>2026-05-02T12:43:54.984Z</time></trkpt><trkpt lat="45.6204396" lon="8.3410177"><ele>309.0</ele><time>2026-05-02T12:43:56.983Z</time></trkpt><trkpt lat="45.6204213" lon="8.3409094"><ele>309.0</ele><time>2026-05-02T12:43:58.988Z</time></trkpt><trkpt lat="45.6204618" lon="8.3407907"><ele>309.0</ele><time>2026-05-02T12:44:00.993Z</time></trkpt><trkpt lat="45.6205326" lon="8.3406764"><ele>309.0</ele><time>2026-05-02T12:44:02.976Z</time></trkpt><trkpt lat="45.6205682" lon="8.3405277"><ele>309.0</ele><time>2026-05-02T12:44:04.985Z</time></trkpt><trkpt lat="45.6205522" lon="8.3403728"><ele>309.0</ele><time>2026-05-02T12:44:06.981Z</time></trkpt><trkpt lat="45.6205252" lon="8.3402189"><ele>309.0</ele><time>2026-05-02T12:44:08.982Z</time></trkpt><trkpt lat="45.620482" lon="8.3400566"><ele>309.0</ele><time>2026-05-02T12:44:10.979Z</time></trkpt><trkpt lat="45.6204616" lon="8.3399708"><ele>309.0</ele><time>2026-05-02T12:44:11.986Z</time></trkpt><trkpt lat="45.6204139" lon="8.3398121"><ele>309.0</ele><time>2026-05-02T12:44:13.984Z</time></trkpt><trkpt lat="45.6203585" lon="8.3396489"><ele>308.8571428571429</ele><time>2026-05-02T12:44:15.988Z</time></trkpt><trkpt lat="45.6203314" lon="8.3395544"><ele>308.7142857142857</ele><time>2026-05-02T12:44:16.981Z</time></trkpt><trkpt lat="45.6203061" lon="8.3394583"><ele>308.57142857142856</ele><time>2026-05-02T12:44:17.985Z</time></trkpt><trkpt lat="45.6202805" lon="8.3393635"><ele>308.42857142857144</ele><time>2026-05-02T12:44:18.982Z</time></trkpt><trkpt lat="45.6202513" lon="8.3392731"><ele>308.2857142857143</ele><time>2026-05-02T12:44:19.976Z</time></trkpt><trkpt lat="45.6202195" lon="8.3391867"><ele>308.14285714285717</ele><time>2026-05-02T12:44:20.986Z</time></trkpt><trkpt lat="45.6201928" lon="8.3391002"><ele>308.0</ele><time>2026-05-02T12:44:21.973Z</time></trkpt><trkpt lat="45.6201724" lon="8.3390087"><ele>308.0</ele><time>2026-05-02T12:44:22.979Z</time></trkpt><trkpt lat="45.6201479" lon="8.3389169"><ele>308.0</ele><time>2026-05-02T12:44:23.982Z</time></trkpt><trkpt lat="45.6201228" lon="8.3388239"><ele>308.0</ele><time>2026-05-02T12:44:24.985Z</time></trkpt><trkpt lat="45.6200963" lon="8.3387262"><ele>308.0</ele><time>2026-05-02T12:44:25.977Z</time></trkpt><trkpt lat="45.6200684" lon="8.338627"><ele>308.0</ele><time>2026-05-02T12:44:26.986Z</time></trkpt><trkpt lat="45.6200384" lon="8.3385242"><ele>308.0</ele><time>2026-05-02T12:44:27.981Z</time></trkpt><trkpt lat="45.6200087" lon="8.338421"><ele>308.0</ele><time>2026-05-02T12:44:28.981Z</time></trkpt><trkpt lat="45.6199741" lon="8.3383206"><ele>307.7142857142857</ele><time>2026-05-02T12:44:29.992Z</time></trkpt><trkpt lat="45.6199417" lon="8.338227"><ele>307.42857142857144</ele><time>2026-05-02T12:44:30.973Z</time></trkpt><trkpt lat="45.6199105" lon="8.3381358"><ele>307.1428571428571</ele><time>2026-05-02T12:44:31.981Z</time></trkpt><trkpt lat="45.6198803" lon="8.3380398"><ele>306.8571428571429</ele><time>2026-05-02T12:44:32.973Z</time></trkpt><trkpt lat="45.619853" lon="8.3379441"><ele>306.57142857142856</ele><time>2026-05-02T12:44:33.984Z</time></trkpt><trkpt lat="45.6198253" lon="8.337852"><ele>306.2857142857143</ele><time>2026-05-02T12:44:34.979Z</time></trkpt><trkpt lat="45.6197956" lon="8.3377604"><ele>306.0</ele><time>2026-05-02T12:44:35.983Z</time></trkpt><trkpt lat="45.6197697" lon="8.3376674"><ele>306.0</ele><time>2026-05-02T12:44:36.986Z</time></trkpt><trkpt lat="45.6197423" lon="8.3375756"><ele>306.0</ele><time>2026-05-02T12:44:37.976Z</time></trkpt><trkpt lat="45.6197168" lon="8.337488"><ele>306.0</ele><time>2026-05-02T12:44:38.986Z</time></trkpt><trkpt lat="45.6196944" lon="8.3373367"><ele>306.0</ele><time>2026-05-02T12:44:40.987Z</time></trkpt><trkpt lat="45.6197123" lon="8.3371933"><ele>306.0</ele><time>2026-05-02T12:44:42.976Z</time></trkpt><trkpt lat="45.619763" lon="8.3370384"><ele>305.6666666666667</ele><time>2026-05-02T12:44:44.982Z</time></trkpt><trkpt lat="45.6197923" lon="8.336954"><ele>305.3333333333333</ele><time>2026-05-02T12:44:45.975Z</time></trkpt><trkpt lat="45.61982" lon="8.336861"><ele>305.0</ele><time>2026-05-02T12:44:46.985Z</time></trkpt><trkpt lat="45.6198465" lon="8.3367605"><ele>304.66666666666663</ele><time>2026-05-02T12:44:47.971Z</time></trkpt><trkpt lat="45.6198721" lon="8.3366458"><ele>304.3333333333333</ele><time>2026-05-02T12:44:48.985Z</time></trkpt><trkpt lat="45.6198939" lon="8.3365203"><ele>304.0</ele><time>2026-05-02T12:44:49.976Z</time></trkpt><trkpt lat="45.6199152" lon="8.3363922"><ele>303.8333333333333</ele><time>2026-05-02T12:44:50.977Z</time></trkpt><trkpt lat="45.619937" lon="8.3362698"><ele>303.66666666666663</ele><time>2026-05-02T12:44:51.979Z</time></trkpt><trkpt lat="45.6199573" lon="8.3361497"><ele>303.5</ele><time>2026-05-02T12:44:52.987Z</time></trkpt><trkpt lat="45.6199756" lon="8.3360372"><ele>303.3333333333333</ele><time>2026-05-02T12:44:53.984Z</time></trkpt><trkpt lat="45.6199948" lon="8.33593"><ele>303.1666666666667</ele><time>2026-05-02T12:44:54.981Z</time></trkpt><trkpt lat="45.6200132" lon="8.3358261"><ele>303.0</ele><time>2026-05-02T12:44:55.989Z</time></trkpt><trkpt lat="45.6200314" lon="8.3357237"><ele>303.0</ele><time>2026-05-02T12:44:56.971Z</time></trkpt><trkpt lat="45.6200495" lon="8.3356241"><ele>303.0</ele><time>2026-05-02T12:44:57.987Z</time></trkpt><trkpt lat="45.6200665" lon="8.3355265"><ele>303.0</ele><time>2026-05-02T12:44:58.98Z</time></trkpt><trkpt lat="45.6200861" lon="8.3354266"><ele>303.0</ele><time>2026-05-02T12:44:59.987Z</time></trkpt><trkpt lat="45.6201072" lon="8.3353232"><ele>303.0</ele><time>2026-05-02T12:45:00.978Z</time></trkpt><trkpt lat="45.6201275" lon="8.3352189"><ele>303.0</ele><time>2026-05-02T12:45:01.979Z</time></trkpt><trkpt lat="45.6201487" lon="8.3351115"><ele>303.0</ele><time>2026-05-02T12:45:02.965Z</time></trkpt><trkpt lat="45.6201679" lon="8.3350033"><ele>303.2857142857143</ele><time>2026-05-02T12:45:03.981Z</time></trkpt><trkpt lat="45.6201875" lon="8.3348981"><ele>303.57142857142856</ele><time>2026-05-02T12:45:04.978Z</time></trkpt><trkpt lat="45.6202053" lon="8.334794"><ele>303.8571428571429</ele><time>2026-05-02T12:45:05.991Z</time></trkpt><trkpt lat="45.6202235" lon="8.3346876"><ele>304.1428571428571</ele><time>2026-05-02T12:45:06.974Z</time></trkpt><trkpt lat="45.6202434" lon="8.3345812"><ele>304.4285714285714</ele><time>2026-05-02T12:45:07.987Z</time></trkpt><trkpt lat="45.6202609" lon="8.3344788"><ele>304.7142857142857</ele><time>2026-05-02T12:45:08.994Z</time></trkpt><trkpt lat="45.6202772" lon="8.3343816"><ele>305.0</ele><time>2026-05-02T12:45:09.989Z</time></trkpt><trkpt lat="45.6202909" lon="8.3342853"><ele>305.1666666666667</ele><time>2026-05-02T12:45:10.987Z</time></trkpt><trkpt lat="45.6203008" lon="8.334185"><ele>305.33333333333337</ele><time>2026-05-02T12:45:11.98Z</time></trkpt><trkpt lat="45.6203049" lon="8.3340737"><ele>305.5</ele><time>2026-05-02T12:45:12.993Z</time></trkpt><trkpt lat="45.6203102" lon="8.3339554"><ele>305.6666666666667</ele><time>2026-05-02T12:45:13.982Z</time></trkpt><trkpt lat="45.6203192" lon="8.3338348"><ele>305.8333333333333</ele><time>2026-05-02T12:45:14.985Z</time></trkpt><trkpt lat="45.6203306" lon="8.3337199"><ele>306.0</ele><time>2026-05-02T12:45:15.978Z</time></trkpt><trkpt lat="45.6203437" lon="8.3336128"><ele>306.1428571428571</ele><time>2026-05-02T12:45:16.982Z</time></trkpt><trkpt lat="45.6203559" lon="8.3335128"><ele>306.2857142857143</ele><time>2026-05-02T12:45:17.99Z</time></trkpt><trkpt lat="45.6203689" lon="8.3334207"><ele>306.42857142857144</ele><time>2026-05-02T12:45:18.974Z</time></trkpt><trkpt lat="45.6203773" lon="8.3333225"><ele>306.57142857142856</ele><time>2026-05-02T12:45:19.984Z</time></trkpt><trkpt lat="45.620388" lon="8.3332169"><ele>306.7142857142857</ele><time>2026-05-02T12:45:20.978Z</time></trkpt><trkpt lat="45.6203967" lon="8.3331073"><ele>306.85714285714283</ele><time>2026-05-02T12:45:21.984Z</time></trkpt><trkpt lat="45.6204011" lon="8.3329989"><ele>307.0</ele><time>2026-05-02T12:45:22.978Z</time></trkpt><trkpt lat="45.6204017" lon="8.3328889"><ele>307.16666666666663</ele><time>2026-05-02T12:45:23.979Z</time></trkpt><trkpt lat="45.6204053" lon="8.3327802"><ele>307.3333333333333</ele><time>2026-05-02T12:45:24.983Z</time></trkpt><trkpt lat="45.6204074" lon="8.3326716"><ele>307.5</ele><time>2026-05-02T12:45:25.99Z</time></trkpt><trkpt lat="45.6204064" lon="8.3325597"><ele>307.6666666666667</ele><time>2026-05-02T12:45:26.978Z</time></trkpt><trkpt lat="45.6204074" lon="8.3324488"><ele>307.83333333333337</ele><time>2026-05-02T12:45:27.974Z</time></trkpt><trkpt lat="45.6204119" lon="8.3323409"><ele>308.0</ele><time>2026-05-02T12:45:28.981Z</time></trkpt><trkpt lat="45.6204173" lon="8.3322293"><ele>307.7142857142857</ele><time>2026-05-02T12:45:29.977Z</time></trkpt><trkpt lat="45.6204171" lon="8.3321151"><ele>307.42857142857144</ele><time>2026-05-02T12:45:30.98Z</time></trkpt><trkpt lat="45.6204131" lon="8.3320031"><ele>307.1428571428571</ele><time>2026-05-02T12:45:31.975Z</time></trkpt><trkpt lat="45.620412" lon="8.3318963"><ele>306.8571428571429</ele><time>2026-05-02T12:45:32.984Z</time></trkpt><trkpt lat="45.6204131" lon="8.3317964"><ele>306.57142857142856</ele><time>2026-05-02T12:45:33.978Z</time></trkpt><trkpt lat="45.6204203" lon="8.3316952"><ele>306.2857142857143</ele><time>2026-05-02T12:45:34.987Z</time></trkpt><trkpt lat="45.6204305" lon="8.3315982"><ele>306.0</ele><time>2026-05-02T12:45:35.987Z</time></trkpt><trkpt lat="45.6204432" lon="8.3315058"><ele>306.0</ele><time>2026-05-02T12:45:36.977Z</time></trkpt><trkpt lat="45.6204592" lon="8.3314116"><ele>306.0</ele><time>2026-05-02T12:45:37.979Z</time></trkpt><trkpt lat="45.6204787" lon="8.3313182"><ele>306.0</ele><time>2026-05-02T12:45:38.98Z</time></trkpt><trkpt lat="45.6205003" lon="8.3312302"><ele>306.0</ele><time>2026-05-02T12:45:39.98Z</time></trkpt><trkpt lat="45.6205247" lon="8.3311412"><ele>306.0</ele><time>2026-05-02T12:45:40.984Z</time></trkpt><trkpt lat="45.6205485" lon="8.3310465"><ele>306.0</ele><time>2026-05-02T12:45:41.986Z</time></trkpt><trkpt lat="45.6205656" lon="8.3309413"><ele>306.0</ele><time>2026-05-02T12:45:42.988Z</time></trkpt><trkpt lat="45.620575" lon="8.3308345"><ele>306.0</ele><time>2026-05-02T12:45:43.982Z</time></trkpt><trkpt lat="45.6205777" lon="8.3307283"><ele>306.0</ele><time>2026-05-02T12:45:44.988Z</time></trkpt><trkpt lat="45.6205748" lon="8.3306212"><ele>306.0</ele><time>2026-05-02T12:45:45.986Z</time></trkpt><trkpt lat="45.6205696" lon="8.3305122"><ele>306.0</ele><time>2026-05-02T12:45:46.967Z</time></trkpt><trkpt lat="45.6205692" lon="8.3304052"><ele>306.0</ele><time>2026-05-02T12:45:47.98Z</time></trkpt><trkpt lat="45.6205722" lon="8.3302952"><ele>306.0</ele><time>2026-05-02T12:45:48.976Z</time></trkpt><trkpt lat="45.6205905" lon="8.3301979"><ele>306.0</ele><time>2026-05-02T12:45:49.99Z</time></trkpt><trkpt lat="45.6206226" lon="8.3301114"><ele>306.0</ele><time>2026-05-02T12:45:50.972Z</time></trkpt><trkpt lat="45.6206636" lon="8.3300365"><ele>306.0</ele><time>2026-05-02T12:45:51.99Z</time></trkpt><trkpt lat="45.620762" lon="8.3299203"><ele>306.0</ele><time>2026-05-02T12:45:53.988Z</time></trkpt><trkpt lat="45.6208194" lon="8.3298554"><ele>306.0</ele><time>2026-05-02T12:45:54.984Z</time></trkpt><trkpt lat="45.6208719" lon="8.3297879"><ele>306.0</ele><time>2026-05-02T12:45:55.985Z</time></trkpt><trkpt lat="45.6209249" lon="8.3297129"><ele>306.0</ele><time>2026-05-02T12:45:56.988Z</time></trkpt><trkpt lat="45.6209714" lon="8.3296297"><ele>305.3333333333333</ele><time>2026-05-02T12:45:57.985Z</time></trkpt><trkpt lat="45.6210162" lon="8.3295427"><ele>304.6666666666667</ele><time>2026-05-02T12:45:58.994Z</time></trkpt><trkpt lat="45.62105" lon="8.3294503"><ele>304.0</ele><time>2026-05-02T12:45:59.977Z</time></trkpt><trkpt lat="45.6210813" lon="8.3293492"><ele>303.33333333333337</ele><time>2026-05-02T12:46:00.981Z</time></trkpt><trkpt lat="45.6211026" lon="8.3292453"><ele>302.6666666666667</ele><time>2026-05-02T12:46:01.979Z</time></trkpt><trkpt lat="45.6211143" lon="8.3291337"><ele>302.0</ele><time>2026-05-02T12:46:02.98Z</time></trkpt><trkpt lat="45.6211195" lon="8.3290114"><ele>302.0</ele><time>2026-05-02T12:46:03.987Z</time></trkpt><trkpt lat="45.6211228" lon="8.3288946"><ele>302.0</ele><time>2026-05-02T12:46:04.987Z</time></trkpt><trkpt lat="45.6211287" lon="8.3287808"><ele>302.0</ele><time>2026-05-02T12:46:05.987Z</time></trkpt><trkpt lat="45.6211355" lon="8.3286676"><ele>302.0</ele><time>2026-05-02T12:46:06.98Z</time></trkpt><trkpt lat="45.6211433" lon="8.3285542"><ele>302.0</ele><time>2026-05-02T12:46:07.98Z</time></trkpt><trkpt lat="45.6211502" lon="8.3284394"><ele>302.0</ele><time>2026-05-02T12:46:08.984Z</time></trkpt><trkpt lat="45.6211625" lon="8.328323"><ele>301.5</ele><time>2026-05-02T12:46:09.986Z</time></trkpt><trkpt lat="45.6211741" lon="8.3281986"><ele>301.0</ele><time>2026-05-02T12:46:10.974Z</time></trkpt><trkpt lat="45.6211847" lon="8.3280707"><ele>300.5</ele><time>2026-05-02T12:46:11.986Z</time></trkpt><trkpt lat="45.6211943" lon="8.3279454"><ele>300.0</ele><time>2026-05-02T12:46:12.974Z</time></trkpt><trkpt lat="45.6212043" lon="8.3278205"><ele>299.5</ele><time>2026-05-02T12:46:13.981Z</time></trkpt><trkpt lat="45.6212113" lon="8.3276953"><ele>299.0</ele><time>2026-05-02T12:46:14.989Z</time></trkpt><trkpt lat="45.6212253" lon="8.3275771"><ele>299.0</ele><time>2026-05-02T12:46:15.991Z</time></trkpt><trkpt lat="45.6212351" lon="8.3274564"><ele>299.0</ele><time>2026-05-02T12:46:16.977Z</time></trkpt><trkpt lat="45.6212435" lon="8.3273301"><ele>299.0</ele><time>2026-05-02T12:46:17.992Z</time></trkpt><trkpt lat="45.6212489" lon="8.3272074"><ele>299.0</ele><time>2026-05-02T12:46:18.978Z</time></trkpt><trkpt lat="45.6212554" lon="8.3270859"><ele>299.0</ele><time>2026-05-02T12:46:19.974Z</time></trkpt><trkpt lat="45.6212604" lon="8.3269639"><ele>299.0</ele><time>2026-05-02T12:46:20.983Z</time></trkpt><trkpt lat="45.6212682" lon="8.3268482"><ele>299.0</ele><time>2026-05-02T12:46:21.989Z</time></trkpt><trkpt lat="45.6212766" lon="8.3267396"><ele>299.0</ele><time>2026-05-02T12:46:22.99Z</time></trkpt><trkpt lat="45.6212827" lon="8.3266333"><ele>299.0</ele><time>2026-05-02T12:46:23.988Z</time></trkpt><trkpt lat="45.6212939" lon="8.3265212"><ele>299.0</ele><time>2026-05-02T12:46:24.979Z</time></trkpt><trkpt lat="45.6213104" lon="8.3264055"><ele>299.0</ele><time>2026-05-02T12:46:25.992Z</time></trkpt><trkpt lat="45.6213334" lon="8.32629"><ele>299.0</ele><time>2026-05-02T12:46:26.991Z</time></trkpt><trkpt lat="45.6213723" lon="8.3261768"><ele>299.0</ele><time>2026-05-02T12:46:27.99Z</time></trkpt><trkpt lat="45.6214227" lon="8.3260666"><ele>299.0</ele><time>2026-05-02T12:46:28.983Z</time></trkpt><trkpt lat="45.6214892" lon="8.3259618"><ele>299.0</ele><time>2026-05-02T12:46:29.982Z</time></trkpt><trkpt lat="45.6215745" lon="8.3258717"><ele>299.0</ele><time>2026-05-02T12:46:30.983Z</time></trkpt><trkpt lat="45.621675" lon="8.325817"><ele>299.0</ele><time>2026-05-02T12:46:31.98Z</time></trkpt><trkpt lat="45.6217802" lon="8.3257905"><ele>299.0</ele><time>2026-05-02T12:46:32.99Z</time></trkpt><trkpt lat="45.6218839" lon="8.3257827"><ele>299.0</ele><time>2026-05-02T12:46:33.988Z</time></trkpt><trkpt lat="45.6219778" lon="8.3257793"><ele>299.0</ele><time>2026-05-02T12:46:34.985Z</time></trkpt><trkpt lat="45.6220587" lon="8.3257848"><ele>299.0</ele><time>2026-05-02T12:46:35.981Z</time></trkpt><trkpt lat="45.6221298" lon="8.3257933"><ele>299.0</ele><time>2026-05-02T12:46:36.975Z</time></trkpt><trkpt lat="45.6222441" lon="8.3257862"><ele>298.8</ele><time>2026-05-02T12:46:38.99Z</time></trkpt><trkpt lat="45.6223105" lon="8.3256963"><ele>298.59999999999997</ele><time>2026-05-02T12:46:40.973Z</time></trkpt><trkpt lat="45.6223417" lon="8.3255458"><ele>298.4</ele><time>2026-05-02T12:46:42.969Z</time></trkpt><trkpt lat="45.6223738" lon="8.325392"><ele>298.2</ele><time>2026-05-02T12:46:44.987Z</time></trkpt><trkpt lat="45.6224116" lon="8.3252269"><ele>298.0</ele><time>2026-05-02T12:46:46.977Z</time></trkpt><trkpt lat="45.6224449" lon="8.3250567"><ele>298.3333333333333</ele><time>2026-05-02T12:46:48.979Z</time></trkpt><trkpt lat="45.622478" lon="8.3248855"><ele>298.66666666666663</ele><time>2026-05-02T12:46:50.987Z</time></trkpt><trkpt lat="45.6224991" lon="8.3247996"><ele>299.0</ele><time>2026-05-02T12:46:51.982Z</time></trkpt><trkpt lat="45.622539" lon="8.3246306"><ele>299.3333333333333</ele><time>2026-05-02T12:46:53.98Z</time></trkpt><trkpt lat="45.6225628" lon="8.3245456"><ele>299.6666666666667</ele><time>2026-05-02T12:46:54.981Z</time></trkpt><trkpt lat="45.6225902" lon="8.3244605"><ele>300.0</ele><time>2026-05-02T12:46:55.986Z</time></trkpt><trkpt lat="45.6226185" lon="8.3243757"><ele>300.1428571428571</ele><time>2026-05-02T12:46:56.979Z</time></trkpt><trkpt lat="45.6226443" lon="8.3242903"><ele>300.2857142857143</ele><time>2026-05-02T12:46:57.98Z</time></trkpt><trkpt lat="45.6226629" lon="8.3242023"><ele>300.42857142857144</ele><time>2026-05-02T12:46:58.978Z</time></trkpt><trkpt lat="45.6226751" lon="8.3241093"><ele>300.57142857142856</ele><time>2026-05-02T12:46:59.986Z</time></trkpt><trkpt lat="45.6226801" lon="8.3240109"><ele>300.7142857142857</ele><time>2026-05-02T12:47:00.98Z</time></trkpt><trkpt lat="45.6226824" lon="8.3239128"><ele>300.85714285714283</ele><time>2026-05-02T12:47:01.987Z</time></trkpt><trkpt lat="45.6226822" lon="8.3238128"><ele>301.0</ele><time>2026-05-02T12:47:02.979Z</time></trkpt><trkpt lat="45.6226802" lon="8.3237149"><ele>301.0</ele><time>2026-05-02T12:47:03.98Z</time></trkpt><trkpt lat="45.6226756" lon="8.3236138"><ele>301.0</ele><time>2026-05-02T12:47:04.982Z</time></trkpt><trkpt lat="45.6226714" lon="8.3235132"><ele>301.0</ele><time>2026-05-02T12:47:05.977Z</time></trkpt><trkpt lat="45.622664" lon="8.3234101"><ele>301.0</ele><time>2026-05-02T12:47:06.985Z</time></trkpt><trkpt lat="45.6226632" lon="8.3233069"><ele>301.0</ele><time>2026-05-02T12:47:07.987Z</time></trkpt><trkpt lat="45.6226527" lon="8.323198"><ele>301.0</ele><time>2026-05-02T12:47:08.98Z</time></trkpt><trkpt lat="45.6226374" lon="8.3230731"><ele>301.5</ele><time>2026-05-02T12:47:09.989Z</time></trkpt><trkpt lat="45.622623" lon="8.3229403"><ele>302.0</ele><time>2026-05-02T12:47:10.988Z</time></trkpt><trkpt lat="45.6226086" lon="8.3228075"><ele>302.5</ele><time>2026-05-02T12:47:11.982Z</time></trkpt><trkpt lat="45.6226069" lon="8.3226876"><ele>303.0</ele><time>2026-05-02T12:47:12.986Z</time></trkpt><trkpt lat="45.6226075" lon="8.322587"><ele>303.5</ele><time>2026-05-02T12:47:13.978Z</time></trkpt><trkpt lat="45.6226048" lon="8.3224928"><ele>304.0</ele><time>2026-05-02T12:47:14.985Z</time></trkpt><trkpt lat="45.6226" lon="8.322363"><ele>304.0</ele><time>2026-05-02T12:47:16.983Z</time></trkpt><trkpt lat="45.6225508" lon="8.3222693"><ele>304.0</ele><time>2026-05-02T12:47:21.977Z</time></trkpt><trkpt lat="45.6224463" lon="8.3222603"><ele>304.0</ele><time>2026-05-02T12:47:23.979Z</time></trkpt><trkpt lat="45.6223759" lon="8.3222622"><ele>304.0</ele><time>2026-05-02T12:47:24.978Z</time></trkpt><trkpt lat="45.6223018" lon="8.3222693"><ele>304.0</ele><time>2026-05-02T12:47:25.987Z</time></trkpt><trkpt lat="45.622229" lon="8.3222814"><ele>304.0</ele><time>2026-05-02T12:47:26.99Z</time></trkpt><trkpt lat="45.6221614" lon="8.3222886"><ele>304.0</ele><time>2026-05-02T12:47:27.989Z</time></trkpt><trkpt lat="45.6220953" lon="8.3222975"><ele>304.0</ele><time>2026-05-02T12:47:28.975Z</time></trkpt><trkpt lat="45.6220318" lon="8.3223031"><ele>304.0</ele><time>2026-05-02T12:47:29.985Z</time></trkpt><trkpt lat="45.6219319" lon="8.3222607"><ele>304.0</ele><time>2026-05-02T12:47:31.993Z</time></trkpt><trkpt lat="45.6219189" lon="8.3221441"><ele>304.0</ele><time>2026-05-02T12:47:33.979Z</time></trkpt><trkpt lat="45.6219347" lon="8.3220462"><ele>304.0</ele><time>2026-05-02T12:47:35.989Z</time></trkpt><trkpt lat="45.6218817" lon="8.3219972"><ele>305.0</ele><time>2026-05-02T12:47:40.964Z</time></trkpt><trkpt lat="45.6218837" lon="8.3218989"><ele>306.0</ele><time>2026-05-02T12:47:43.984Z</time></trkpt><trkpt lat="45.6219052" lon="8.3218118"><ele>307.0</ele><time>2026-05-02T12:47:45.988Z</time></trkpt><trkpt lat="45.6219106" lon="8.3216748"><ele>308.0</ele><time>2026-05-02T12:47:47.989Z</time></trkpt><trkpt lat="45.6219102" lon="8.3215238"><ele>309.0</ele><time>2026-05-02T12:47:49.985Z</time></trkpt><trkpt lat="45.6219051" lon="8.3214009"><ele>310.0</ele><time>2026-05-02T12:47:51.982Z</time></trkpt><trkpt lat="45.6218985" lon="8.3213037"><ele>310.66666666666663</ele><time>2026-05-02T12:47:53.987Z</time></trkpt><trkpt lat="45.6218591" lon="8.3211899"><ele>311.3333333333333</ele><time>2026-05-02T12:48:28.988Z</time></trkpt><trkpt lat="45.6218368" lon="8.3210896"><ele>312.0</ele><time>2026-05-02T12:48:30.984Z</time></trkpt><trkpt lat="45.6218216" lon="8.3209588"><ele>312.6666666666667</ele><time>2026-05-02T12:48:32.978Z</time></trkpt><trkpt lat="45.6218046" lon="8.3208034"><ele>313.33333333333337</ele><time>2026-05-02T12:48:34.985Z</time></trkpt><trkpt lat="45.6217963" lon="8.3207134"><ele>314.0</ele><time>2026-05-02T12:48:35.982Z</time></trkpt><trkpt lat="45.6217881" lon="8.3206188"><ele>313.59999999999997</ele><time>2026-05-02T12:48:36.989Z</time></trkpt><trkpt lat="45.62178" lon="8.320527"><ele>313.2</ele><time>2026-05-02T12:48:37.989Z</time></trkpt><trkpt lat="45.6217764" lon="8.3203648"><ele>312.79999999999995</ele><time>2026-05-02T12:48:39.989Z</time></trkpt><trkpt lat="45.62175" lon="8.3202164"><ele>312.4</ele><time>2026-05-02T12:48:41.991Z</time></trkpt><trkpt lat="45.6217002" lon="8.3200997"><ele>312.0</ele><time>2026-05-02T12:48:43.985Z</time></trkpt><trkpt lat="45.6216284" lon="8.3200268"><ele>312.0</ele><time>2026-05-02T12:48:45.989Z</time></trkpt><trkpt lat="45.6215383" lon="8.3200064"><ele>312.0</ele><time>2026-05-02T12:48:47.98Z</time></trkpt><trkpt lat="45.6214288" lon="8.3200311"><ele>312.0</ele><time>2026-05-02T12:48:49.98Z</time></trkpt><trkpt lat="45.6213201" lon="8.3200586"><ele>312.0</ele><time>2026-05-02T12:48:51.988Z</time></trkpt><trkpt lat="45.6212367" lon="8.3200704"><ele>312.0</ele><time>2026-05-02T12:48:53.982Z</time></trkpt><trkpt lat="45.6211738" lon="8.3200466"><ele>313.2857142857143</ele><time>2026-05-02T12:48:55.985Z</time></trkpt><trkpt lat="45.6211145" lon="8.3200054"><ele>314.57142857142856</ele><time>2026-05-02T12:48:58.986Z</time></trkpt><trkpt lat="45.6210545" lon="8.3199726"><ele>315.85714285714283</ele><time>2026-05-02T12:49:02.978Z</time></trkpt><trkpt lat="45.6209878" lon="8.3199345"><ele>317.1428571428571</ele><time>2026-05-02T12:49:06.971Z</time></trkpt><trkpt lat="45.6209112" lon="8.3198903"><ele>318.42857142857144</ele><time>2026-05-02T12:49:10.987Z</time></trkpt><trkpt lat="45.6208377" lon="8.3198446"><ele>319.71428571428567</ele><time>2026-05-02T12:49:13.975Z</time></trkpt><trkpt lat="45.6207725" lon="8.3197988"><ele>321.0</ele><time>2026-05-02T12:49:15.979Z</time></trkpt><trkpt lat="45.6207084" lon="8.3197434"><ele>320.6666666666667</ele><time>2026-05-02T12:49:17.988Z</time></trkpt><trkpt lat="45.6206491" lon="8.3196914"><ele>320.3333333333333</ele><time>2026-05-02T12:49:19.987Z</time></trkpt><trkpt lat="45.620579" lon="8.319634"><ele>320.0</ele><time>2026-05-02T12:49:21.987Z</time></trkpt><trkpt lat="45.6204941" lon="8.3195535"><ele>319.66666666666663</ele><time>2026-05-02T12:49:23.989Z</time></trkpt><trkpt lat="45.6204158" lon="8.3194762"><ele>319.3333333333333</ele><time>2026-05-02T12:49:25.98Z</time></trkpt><trkpt lat="45.6203326" lon="8.3193993"><ele>319.0</ele><time>2026-05-02T12:49:27.978Z</time></trkpt><trkpt lat="45.6202247" lon="8.3193151"><ele>319.5714285714286</ele><time>2026-05-02T12:49:29.983Z</time></trkpt><trkpt lat="45.6201649" lon="8.3192729"><ele>320.1428571428571</ele><time>2026-05-02T12:49:30.973Z</time></trkpt><trkpt lat="45.6201029" lon="8.3192301"><ele>320.7142857142857</ele><time>2026-05-02T12:49:31.981Z</time></trkpt><trkpt lat="45.6200407" lon="8.3191885"><ele>321.28571428571433</ele><time>2026-05-02T12:49:32.974Z</time></trkpt><trkpt lat="45.619976" lon="8.3191495"><ele>321.8571428571429</ele><time>2026-05-02T12:49:33.986Z</time></trkpt><trkpt lat="45.6199107" lon="8.3191131"><ele>322.42857142857144</ele><time>2026-05-02T12:49:34.977Z</time></trkpt><trkpt lat="45.6198411" lon="8.3190814"><ele>323.0</ele><time>2026-05-02T12:49:35.979Z</time></trkpt><trkpt lat="45.6197734" lon="8.3190503"><ele>323.0</ele><time>2026-05-02T12:49:36.984Z</time></trkpt><trkpt lat="45.6197039" lon="8.3190208"><ele>323.0</ele><time>2026-05-02T12:49:37.967Z</time></trkpt><trkpt lat="45.6196437" lon="8.3189905"><ele>323.0</ele><time>2026-05-02T12:49:38.985Z</time></trkpt><trkpt lat="45.6195815" lon="8.3189607"><ele>323.0</ele><time>2026-05-02T12:49:39.977Z</time></trkpt><trkpt lat="45.6195166" lon="8.3189273"><ele>323.0</ele><time>2026-05-02T12:49:40.98Z</time></trkpt><trkpt lat="45.6193917" lon="8.3188706"><ele>323.0</ele><time>2026-05-02T12:49:42.986Z</time></trkpt><trkpt lat="45.6193186" lon="8.3188517"><ele>322.2</ele><time>2026-05-02T12:49:43.973Z</time></trkpt><trkpt lat="45.6192369" lon="8.3188286"><ele>321.4</ele><time>2026-05-02T12:49:44.985Z</time></trkpt><trkpt lat="45.6191443" lon="8.3188017"><ele>320.59999999999997</ele><time>2026-05-02T12:49:45.975Z</time></trkpt><trkpt lat="45.6190425" lon="8.3187592"><ele>319.79999999999995</ele><time>2026-05-02T12:49:46.983Z</time></trkpt><trkpt lat="45.6189395" lon="8.3187023"><ele>319.0</ele><time>2026-05-02T12:49:47.986Z</time></trkpt><trkpt lat="45.6188452" lon="8.318646"><ele>319.0</ele><time>2026-05-02T12:49:48.983Z</time></trkpt><trkpt lat="45.6187583" lon="8.3185943"><ele>319.0</ele><time>2026-05-02T12:49:49.983Z</time></trkpt><trkpt lat="45.6186718" lon="8.3185446"><ele>319.0</ele><time>2026-05-02T12:49:50.985Z</time></trkpt><trkpt lat="45.6185927" lon="8.318501"><ele>319.0</ele><time>2026-05-02T12:49:51.988Z</time></trkpt><trkpt lat="45.6185183" lon="8.3184628"><ele>319.0</ele><time>2026-05-02T12:49:52.983Z</time></trkpt><trkpt lat="45.6184468" lon="8.3184266"><ele>319.0</ele><time>2026-05-02T12:49:53.986Z</time></trkpt><trkpt lat="45.6183849" lon="8.3183889"><ele>318.8333333333333</ele><time>2026-05-02T12:49:54.977Z</time></trkpt><trkpt lat="45.618293" lon="8.3183283"><ele>318.66666666666663</ele><time>2026-05-02T12:49:56.977Z</time></trkpt><trkpt lat="45.618223" lon="8.3182751"><ele>318.5</ele><time>2026-05-02T12:49:58.975Z</time></trkpt><trkpt lat="45.6181373" lon="8.3182285"><ele>318.3333333333333</ele><time>2026-05-02T12:50:01.988Z</time></trkpt><trkpt lat="45.6180697" lon="8.3181861"><ele>318.1666666666667</ele><time>2026-05-02T12:50:03.981Z</time></trkpt><trkpt lat="45.6180068" lon="8.3181269"><ele>318.0</ele><time>2026-05-02T12:50:05.984Z</time></trkpt><trkpt lat="45.6179494" lon="8.3180601"><ele>318.0</ele><time>2026-05-02T12:50:07.989Z</time></trkpt><trkpt lat="45.6179115" lon="8.3179617"><ele>318.0</ele><time>2026-05-02T12:50:09.987Z</time></trkpt><trkpt lat="45.6178924" lon="8.3178377"><ele>318.0</ele><time>2026-05-02T12:50:11.986Z</time></trkpt><trkpt lat="45.6179018" lon="8.3176945"><ele>318.0</ele><time>2026-05-02T12:50:13.989Z</time></trkpt><trkpt lat="45.6178982" lon="8.3175592"><ele>318.0</ele><time>2026-05-02T12:50:15.979Z</time></trkpt><trkpt lat="45.6178673" lon="8.3174406"><ele>318.6</ele><time>2026-05-02T12:50:17.99Z</time></trkpt><trkpt lat="45.617801" lon="8.3173526"><ele>319.20000000000005</ele><time>2026-05-02T12:50:19.984Z</time></trkpt><trkpt lat="45.6176919" lon="8.3172887"><ele>319.8</ele><time>2026-05-02T12:50:21.982Z</time></trkpt><trkpt lat="45.6176309" lon="8.3172653"><ele>320.40000000000003</ele><time>2026-05-02T12:50:22.991Z</time></trkpt><trkpt lat="45.6175123" lon="8.3172136"><ele>321.0</ele><time>2026-05-02T12:50:24.982Z</time></trkpt><trkpt lat="45.617408" lon="8.317142"><ele>319.2</ele><time>2026-05-02T12:50:26.985Z</time></trkpt><trkpt lat="45.6173328" lon="8.3170809"><ele>317.40000000000003</ele><time>2026-05-02T12:50:28.979Z</time></trkpt><trkpt lat="45.617264" lon="8.3170356"><ele>315.6</ele><time>2026-05-02T12:50:30.982Z</time></trkpt><trkpt lat="45.6171861" lon="8.3169673"><ele>313.8</ele><time>2026-05-02T12:50:32.987Z</time></trkpt><trkpt lat="45.6170829" lon="8.3168749"><ele>312.0</ele><time>2026-05-02T12:50:34.987Z</time></trkpt><trkpt lat="45.6169933" lon="8.3167681"><ele>313.0</ele><time>2026-05-02T12:50:36.973Z</time></trkpt><trkpt lat="45.6169397" lon="8.3166661"><ele>314.0</ele><time>2026-05-02T12:50:38.978Z</time></trkpt><trkpt lat="45.616894" lon="8.3165651"><ele>315.0</ele><time>2026-05-02T12:50:40.977Z</time></trkpt><trkpt lat="45.6168537" lon="8.3164657"><ele>316.0</ele><time>2026-05-02T12:50:42.974Z</time></trkpt><trkpt lat="45.6167956" lon="8.3163555"><ele>317.0</ele><time>2026-05-02T12:50:44.969Z</time></trkpt><trkpt lat="45.6167144" lon="8.3162362"><ele>317.0</ele><time>2026-05-02T12:50:46.986Z</time></trkpt><trkpt lat="45.6166149" lon="8.3161308"><ele>317.0</ele><time>2026-05-02T12:50:48.976Z</time></trkpt><trkpt lat="45.6165182" lon="8.3160358"><ele>317.0</ele><time>2026-05-02T12:50:50.978Z</time></trkpt><trkpt lat="45.616433" lon="8.3159556"><ele>317.0</ele><time>2026-05-02T12:50:52.974Z</time></trkpt><trkpt lat="45.6163514" lon="8.3158693"><ele>317.0</ele><time>2026-05-02T12:50:54.983Z</time></trkpt><trkpt lat="45.6162744" lon="8.3157759"><ele>317.0</ele><time>2026-05-02T12:50:56.985Z</time></trkpt><trkpt lat="45.6161921" lon="8.3156823"><ele>317.0</ele><time>2026-05-02T12:50:58.981Z</time></trkpt><trkpt lat="45.6161025" lon="8.3156007"><ele>317.0</ele><time>2026-05-02T12:51:00.988Z</time></trkpt><trkpt lat="45.6160273" lon="8.315533"><ele>317.0</ele><time>2026-05-02T12:51:02.986Z</time></trkpt><trkpt lat="45.6159792" lon="8.3154439"><ele>317.0</ele><time>2026-05-02T12:51:05.979Z</time></trkpt><trkpt lat="45.6159605" lon="8.3153352"><ele>316.1666666666667</ele><time>2026-05-02T12:51:08.97Z</time></trkpt><trkpt lat="45.6159295" lon="8.3152467"><ele>315.33333333333337</ele><time>2026-05-02T12:51:10.983Z</time></trkpt><trkpt lat="45.6158852" lon="8.3151649"><ele>314.5</ele><time>2026-05-02T12:51:12.978Z</time></trkpt><trkpt lat="45.6158154" lon="8.3150957"><ele>313.6666666666667</ele><time>2026-05-02T12:51:14.98Z</time></trkpt><trkpt lat="45.6157226" lon="8.3150359"><ele>312.8333333333333</ele><time>2026-05-02T12:51:16.982Z</time></trkpt><trkpt lat="45.6156314" lon="8.3149635"><ele>312.0</ele><time>2026-05-02T12:51:18.973Z</time></trkpt><trkpt lat="45.6155517" lon="8.3148783"><ele>312.0</ele><time>2026-05-02T12:51:21Z</time></trkpt><trkpt lat="45.615479" lon="8.3147802"><ele>312.0</ele><time>2026-05-02T12:51:22.986Z</time></trkpt><trkpt lat="45.615421" lon="8.3146714"><ele>312.0</ele><time>2026-05-02T12:51:24.979Z</time></trkpt><trkpt lat="45.6153774" lon="8.3145763"><ele>312.0</ele><time>2026-05-02T12:51:26.986Z</time></trkpt><trkpt lat="45.6153222" lon="8.3144939"><ele>312.0</ele><time>2026-05-02T12:51:28.981Z</time></trkpt><trkpt lat="45.6152518" lon="8.3144122"><ele>312.0</ele><time>2026-05-02T12:51:30.985Z</time></trkpt><trkpt lat="45.6152039" lon="8.3143364"><ele>311.3333333333333</ele><time>2026-05-02T12:51:32.991Z</time></trkpt><trkpt lat="45.6151491" lon="8.3142504"><ele>310.6666666666667</ele><time>2026-05-02T12:51:35.988Z</time></trkpt><trkpt lat="45.6150858" lon="8.3142136"><ele>310.0</ele><time>2026-05-02T12:51:37.979Z</time></trkpt><trkpt lat="45.6150021" lon="8.3141881"><ele>309.33333333333337</ele><time>2026-05-02T12:51:39.979Z</time></trkpt><trkpt lat="45.6149107" lon="8.3141812"><ele>308.6666666666667</ele><time>2026-05-02T12:51:41.997Z</time></trkpt><trkpt lat="45.6148104" lon="8.3141753"><ele>308.0</ele><time>2026-05-02T12:51:43.987Z</time></trkpt><trkpt lat="45.6147169" lon="8.314178"><ele>308.0</ele><time>2026-05-02T12:51:45.983Z</time></trkpt><trkpt lat="45.6146461" lon="8.3141872"><ele>308.0</ele><time>2026-05-02T12:51:47.983Z</time></trkpt><trkpt lat="45.6145613" lon="8.3142334"><ele>308.0</ele><time>2026-05-02T12:51:50.987Z</time></trkpt><trkpt lat="45.6145151" lon="8.3143334"><ele>308.0</ele><time>2026-05-02T12:51:53.987Z</time></trkpt><trkpt lat="45.6144743" lon="8.3144024"><ele>308.0</ele><time>2026-05-02T12:51:55.983Z</time></trkpt><trkpt lat="45.6144148" lon="8.3144733"><ele>308.0</ele><time>2026-05-02T12:51:57.985Z</time></trkpt><trkpt lat="45.6143675" lon="8.3145334"><ele>307.1666666666667</ele><time>2026-05-02T12:51:59.979Z</time></trkpt><trkpt lat="45.6143102" lon="8.3145902"><ele>306.33333333333337</ele><time>2026-05-02T12:52:01.986Z</time></trkpt><trkpt lat="45.6142268" lon="8.3146377"><ele>305.5</ele><time>2026-05-02T12:52:04.974Z</time></trkpt><trkpt lat="45.6141484" lon="8.3146727"><ele>304.6666666666667</ele><time>2026-05-02T12:52:06.989Z</time></trkpt><trkpt lat="45.6140747" lon="8.3147147"><ele>303.8333333333333</ele><time>2026-05-02T12:52:08.99Z</time></trkpt><trkpt lat="45.6139999" lon="8.3147664"><ele>303.0</ele><time>2026-05-02T12:52:10.99Z</time></trkpt><trkpt lat="45.6139287" lon="8.3147907"><ele>302.0</ele><time>2026-05-02T12:52:12.983Z</time></trkpt><trkpt lat="45.6138371" lon="8.3147958"><ele>301.0</ele><time>2026-05-02T12:52:14.987Z</time></trkpt><trkpt lat="45.6137654" lon="8.3148039"><ele>300.0</ele><time>2026-05-02T12:52:16.989Z</time></trkpt><trkpt lat="45.6136746" lon="8.3148133"><ele>299.0</ele><time>2026-05-02T12:52:19.975Z</time></trkpt><trkpt lat="45.6135897" lon="8.3148559"><ele>298.0</ele><time>2026-05-02T12:52:22.987Z</time></trkpt><trkpt lat="45.6135137" lon="8.3148771"><ele>297.0</ele><time>2026-05-02T12:52:24.991Z</time></trkpt><trkpt lat="45.613443" lon="8.3148786"><ele>296.8</ele><time>2026-05-02T12:52:26.98Z</time></trkpt><trkpt lat="45.6133449" lon="8.3148239"><ele>296.6</ele><time>2026-05-02T12:52:32.984Z</time></trkpt><trkpt lat="45.6133102" lon="8.3147041"><ele>296.40000000000003</ele><time>2026-05-02T12:52:34.978Z</time></trkpt><trkpt lat="45.6132617" lon="8.3145779"><ele>296.2</ele><time>2026-05-02T12:52:36.982Z</time></trkpt><trkpt lat="45.6132124" lon="8.3144408"><ele>296.0</ele><time>2026-05-02T12:52:38.982Z</time></trkpt><trkpt lat="45.6131761" lon="8.3143108"><ele>296.0</ele><time>2026-05-02T12:52:40.984Z</time></trkpt><trkpt lat="45.6131218" lon="8.3141833"><ele>296.0</ele><time>2026-05-02T12:52:42.98Z</time></trkpt><trkpt lat="45.6130517" lon="8.314096"><ele>296.0</ele><time>2026-05-02T12:52:44.986Z</time></trkpt><trkpt lat="45.6129729" lon="8.3140672"><ele>296.0</ele><time>2026-05-02T12:52:46.986Z</time></trkpt><trkpt lat="45.6128783" lon="8.3140506"><ele>296.0</ele><time>2026-05-02T12:52:48.994Z</time></trkpt><trkpt lat="45.6127913" lon="8.3139945"><ele>295.83333333333337</ele><time>2026-05-02T12:52:50.985Z</time></trkpt><trkpt lat="45.612741" lon="8.3139068"><ele>295.6666666666667</ele><time>2026-05-02T12:52:52.988Z</time></trkpt><trkpt lat="45.6127194" lon="8.3137925"><ele>295.5</ele><time>2026-05-02T12:52:54.983Z</time></trkpt><trkpt lat="45.6127033" lon="8.3136695"><ele>295.3333333333333</ele><time>2026-05-02T12:53:05.968Z</time></trkpt><trkpt lat="45.6127558" lon="8.3135686"><ele>295.16666666666663</ele><time>2026-05-02T12:53:07.98Z</time></trkpt><trkpt lat="45.6128065" lon="8.3135007"><ele>295.0</ele><time>2026-05-02T12:53:08.985Z</time></trkpt><trkpt lat="45.6128639" lon="8.3134195"><ele>295.0</ele><time>2026-05-02T12:53:09.993Z</time></trkpt><trkpt lat="45.612932" lon="8.3133298"><ele>295.0</ele><time>2026-05-02T12:53:10.989Z</time></trkpt><trkpt lat="45.6130145" lon="8.3132258"><ele>295.0</ele><time>2026-05-02T12:53:11.98Z</time></trkpt><trkpt lat="45.6131114" lon="8.3131049"><ele>295.0</ele><time>2026-05-02T12:53:12.977Z</time></trkpt><trkpt lat="45.6132138" lon="8.3129753"><ele>295.5</ele><time>2026-05-02T12:53:13.991Z</time></trkpt><trkpt lat="45.6133203" lon="8.3128503"><ele>296.0</ele><time>2026-05-02T12:53:14.978Z</time></trkpt><trkpt lat="45.6134353" lon="8.3127236"><ele>296.5</ele><time>2026-05-02T12:53:15.983Z</time></trkpt><trkpt lat="45.6135477" lon="8.3125967"><ele>297.0</ele><time>2026-05-02T12:53:16.978Z</time></trkpt><trkpt lat="45.6136598" lon="8.3124669"><ele>297.0</ele><time>2026-05-02T12:53:17.986Z</time></trkpt><trkpt lat="45.6137713" lon="8.3123365"><ele>297.0</ele><time>2026-05-02T12:53:18.979Z</time></trkpt><trkpt lat="45.6138796" lon="8.3122085"><ele>297.0</ele><time>2026-05-02T12:53:19.979Z</time></trkpt><trkpt lat="45.6139883" lon="8.3120839"><ele>297.0</ele><time>2026-05-02T12:53:20.986Z</time></trkpt><trkpt lat="45.6140934" lon="8.3119602"><ele>297.0</ele><time>2026-05-02T12:53:21.979Z</time></trkpt><trkpt lat="45.6141996" lon="8.3118366"><ele>297.0</ele><time>2026-05-02T12:53:22.985Z</time></trkpt><trkpt lat="45.6143138" lon="8.3117194"><ele>297.0</ele><time>2026-05-02T12:53:23.989Z</time></trkpt><trkpt lat="45.6144313" lon="8.3116076"><ele>297.0</ele><time>2026-05-02T12:53:24.985Z</time></trkpt><trkpt lat="45.6145497" lon="8.3115013"><ele>297.0</ele><time>2026-05-02T12:53:25.987Z</time></trkpt><trkpt lat="45.6146705" lon="8.3113992"><ele>297.0</ele><time>2026-05-02T12:53:26.982Z</time></trkpt><trkpt lat="45.6147912" lon="8.3112996"><ele>297.0</ele><time>2026-05-02T12:53:27.987Z</time></trkpt><trkpt lat="45.6149051" lon="8.3111968"><ele>297.0</ele><time>2026-05-02T12:53:28.981Z</time></trkpt><trkpt lat="45.6150151" lon="8.3110943"><ele>297.0</ele><time>2026-05-02T12:53:29.98Z</time></trkpt><trkpt lat="45.6151247" lon="8.3109948"><ele>297.0</ele><time>2026-05-02T12:53:30.971Z</time></trkpt><trkpt lat="45.6152351" lon="8.3108945"><ele>297.0</ele><time>2026-05-02T12:53:31.99Z</time></trkpt><trkpt lat="45.6153445" lon="8.3107965"><ele>297.0</ele><time>2026-05-02T12:53:32.982Z</time></trkpt><trkpt lat="45.6154559" lon="8.3106981"><ele>297.5</ele><time>2026-05-02T12:53:33.981Z</time></trkpt><trkpt lat="45.6155644" lon="8.310598"><ele>298.0</ele><time>2026-05-02T12:53:34.981Z</time></trkpt><trkpt lat="45.6156743" lon="8.3104993"><ele>298.5</ele><time>2026-05-02T12:53:35.994Z</time></trkpt><trkpt lat="45.61578" lon="8.3104029"><ele>299.0</ele><time>2026-05-02T12:53:36.982Z</time></trkpt><trkpt lat="45.6158892" lon="8.310315"><ele>299.0</ele><time>2026-05-02T12:53:37.983Z</time></trkpt><trkpt lat="45.6160023" lon="8.3102369"><ele>299.0</ele><time>2026-05-02T12:53:38.968Z</time></trkpt><trkpt lat="45.6161197" lon="8.3101689"><ele>299.0</ele><time>2026-05-02T12:53:39.99Z</time></trkpt><trkpt lat="45.616243" lon="8.3101009"><ele>299.0</ele><time>2026-05-02T12:53:40.971Z</time></trkpt><trkpt lat="45.6163783" lon="8.3100329"><ele>299.5</ele><time>2026-05-02T12:53:41.98Z</time></trkpt><trkpt lat="45.6165151" lon="8.3099621"><ele>300.0</ele><time>2026-05-02T12:53:42.978Z</time></trkpt><trkpt lat="45.6166487" lon="8.3098959"><ele>300.5</ele><time>2026-05-02T12:53:43.979Z</time></trkpt><trkpt lat="45.6167784" lon="8.3098409"><ele>301.0</ele><time>2026-05-02T12:53:44.979Z</time></trkpt><trkpt lat="45.6169051" lon="8.3097875"><ele>301.5</ele><time>2026-05-02T12:53:45.987Z</time></trkpt><trkpt lat="45.6170328" lon="8.309732"><ele>302.0</ele><time>2026-05-02T12:53:46.984Z</time></trkpt><trkpt lat="45.6171607" lon="8.3096738"><ele>302.5</ele><time>2026-05-02T12:53:47.981Z</time></trkpt><trkpt lat="45.6172862" lon="8.3096161"><ele>303.0</ele><time>2026-05-02T12:53:48.979Z</time></trkpt><trkpt lat="45.6174044" lon="8.3095576"><ele>303.0</ele><time>2026-05-02T12:53:49.991Z</time></trkpt><trkpt lat="45.617516" lon="8.3095028"><ele>303.0</ele><time>2026-05-02T12:53:50.985Z</time></trkpt><trkpt lat="45.6176273" lon="8.3094478"><ele>303.0</ele><time>2026-05-02T12:53:51.986Z</time></trkpt><trkpt lat="45.6177366" lon="8.3093835"><ele>303.0</ele><time>2026-05-02T12:53:52.971Z</time></trkpt><trkpt lat="45.6178438" lon="8.3092989"><ele>303.25</ele><time>2026-05-02T12:53:53.984Z</time></trkpt><trkpt lat="45.6179361" lon="8.3091836"><ele>303.5</ele><time>2026-05-02T12:53:54.977Z</time></trkpt><trkpt lat="45.618002" lon="8.309035"><ele>303.75</ele><time>2026-05-02T12:53:55.979Z</time></trkpt><trkpt lat="45.6180449" lon="8.3088583"><ele>304.0</ele><time>2026-05-02T12:53:56.984Z</time></trkpt><trkpt lat="45.6180817" lon="8.3086674"><ele>303.5</ele><time>2026-05-02T12:53:57.984Z</time></trkpt><trkpt lat="45.6181248" lon="8.3084767"><ele>303.0</ele><time>2026-05-02T12:53:58.975Z</time></trkpt><trkpt lat="45.6181691" lon="8.3082872"><ele>302.5</ele><time>2026-05-02T12:53:59.978Z</time></trkpt><trkpt lat="45.6182132" lon="8.3080991"><ele>302.0</ele><time>2026-05-02T12:54:00.982Z</time></trkpt><trkpt lat="45.6182578" lon="8.3079147"><ele>303.25</ele><time>2026-05-02T12:54:01.978Z</time></trkpt><trkpt lat="45.6183043" lon="8.3077305"><ele>304.5</ele><time>2026-05-02T12:54:02.984Z</time></trkpt><trkpt lat="45.6183496" lon="8.30755"><ele>305.75</ele><time>2026-05-02T12:54:03.979Z</time></trkpt><trkpt lat="45.618395" lon="8.3073708"><ele>307.0</ele><time>2026-05-02T12:54:04.99Z</time></trkpt><trkpt lat="45.6184372" lon="8.3071968"><ele>308.75</ele><time>2026-05-02T12:54:05.986Z</time></trkpt><trkpt lat="45.6184812" lon="8.307026"><ele>310.5</ele><time>2026-05-02T12:54:06.977Z</time></trkpt><trkpt lat="45.6185251" lon="8.3068612"><ele>312.25</ele><time>2026-05-02T12:54:07.983Z</time></trkpt><trkpt lat="45.6185658" lon="8.3067082"><ele>314.0</ele><time>2026-05-02T12:54:08.996Z</time></trkpt><trkpt lat="45.6186011" lon="8.3065756"><ele>314.0</ele><time>2026-05-02T12:54:09.987Z</time></trkpt><trkpt lat="45.6186327" lon="8.3064614"><ele>314.0</ele><time>2026-05-02T12:54:10.985Z</time></trkpt><trkpt lat="45.6186596" lon="8.3063638"><ele>314.0</ele><time>2026-05-02T12:54:11.994Z</time></trkpt><trkpt lat="45.6186882" lon="8.306229"><ele>314.0</ele><time>2026-05-02T12:54:13.974Z</time></trkpt><trkpt lat="45.6186176" lon="8.3061838"><ele>314.0</ele><time>2026-05-02T12:54:17.984Z</time></trkpt><trkpt lat="45.6185178" lon="8.3062134"><ele>314.0</ele><time>2026-05-02T12:54:33.988Z</time></trkpt><trkpt lat="45.6184213" lon="8.3062358"><ele>314.0</ele><time>2026-05-02T12:54:35.986Z</time></trkpt><trkpt lat="45.6183485" lon="8.3062482"><ele>314.0</ele><time>2026-05-02T12:54:36.997Z</time></trkpt><trkpt lat="45.6182716" lon="8.3062718"><ele>314.0</ele><time>2026-05-02T12:54:37.989Z</time></trkpt><trkpt lat="45.61819" lon="8.3063154"><ele>314.0</ele><time>2026-05-02T12:54:38.975Z</time></trkpt><trkpt lat="45.6181131" lon="8.3063607"><ele>314.0</ele><time>2026-05-02T12:54:39.988Z</time></trkpt><trkpt lat="45.6180422" lon="8.3064003"><ele>314.0</ele><time>2026-05-02T12:54:40.998Z</time></trkpt><trkpt lat="45.617945" lon="8.3064413"><ele>314.0</ele><time>2026-05-02T12:54:42.978Z</time></trkpt><trkpt lat="45.6178612" lon="8.30642"><ele>314.0</ele><time>2026-05-02T12:54:45.991Z</time></trkpt><trkpt lat="45.617809" lon="8.3063389"><ele>314.0</ele><time>2026-05-02T12:54:48.983Z</time></trkpt><trkpt lat="45.6178824" lon="8.3062192"><ele>314.0</ele><time>2026-05-02T12:54:54.993Z</time></trkpt><trkpt lat="45.6179098" lon="8.3061124"><ele>314.0</ele><time>2026-05-02T12:54:56.988Z</time></trkpt><trkpt lat="45.617952" lon="8.3060009"><ele>314.0</ele><time>2026-05-02T12:54:58.98Z</time></trkpt><trkpt lat="45.6179805" lon="8.3058762"><ele>314.4</ele><time>2026-05-02T12:55:00.984Z</time></trkpt><trkpt lat="45.6180148" lon="8.3057494"><ele>314.79999999999995</ele><time>2026-05-02T12:55:02.968Z</time></trkpt><trkpt lat="45.6180454" lon="8.3056237"><ele>315.20000000000005</ele><time>2026-05-02T12:55:04.974Z</time></trkpt><trkpt lat="45.6180753" lon="8.305461"><ele>315.6</ele><time>2026-05-02T12:55:06.982Z</time></trkpt><trkpt lat="45.6180888" lon="8.3052761"><ele>316.0</ele><time>2026-05-02T12:55:08.974Z</time></trkpt><trkpt lat="45.6180922" lon="8.3051837"><ele>316.0</ele><time>2026-05-02T12:55:09.99Z</time></trkpt><trkpt lat="45.6181025" lon="8.3050344"><ele>316.0</ele><time>2026-05-02T12:55:11.978Z</time></trkpt><trkpt lat="45.6181436" lon="8.304903"><ele>316.0</ele><time>2026-05-02T12:55:13.979Z</time></trkpt><trkpt lat="45.618186" lon="8.3047818"><ele>316.0</ele><time>2026-05-02T12:55:15.98Z</time></trkpt><trkpt lat="45.6181884" lon="8.3046866"><ele>316.0</ele><time>2026-05-02T12:55:17.976Z</time></trkpt><trkpt lat="45.6181444" lon="8.3046134"><ele>316.0</ele><time>2026-05-02T12:55:19.982Z</time></trkpt><trkpt lat="45.618048" lon="8.3045595"><ele>315.3333333333333</ele><time>2026-05-02T12:55:21.978Z</time></trkpt><trkpt lat="45.6179881" lon="8.3045308"><ele>314.66666666666663</ele><time>2026-05-02T12:55:22.976Z</time></trkpt><trkpt lat="45.6178904" lon="8.3044516"><ele>314.0</ele><time>2026-05-02T12:55:24.979Z</time></trkpt><trkpt lat="45.6178235" lon="8.3043626"><ele>313.3333333333333</ele><time>2026-05-02T12:55:26.978Z</time></trkpt><trkpt lat="45.6177666" lon="8.3042722"><ele>312.6666666666667</ele><time>2026-05-02T12:55:28.974Z</time></trkpt><trkpt lat="45.6177094" lon="8.3041927"><ele>312.0</ele><time>2026-05-02T12:55:30.973Z</time></trkpt><trkpt lat="45.6176455" lon="8.3041393"><ele>312.0</ele><time>2026-05-02T12:55:32.975Z</time></trkpt><trkpt lat="45.6175668" lon="8.3041274"><ele>312.0</ele><time>2026-05-02T12:55:34.982Z</time></trkpt><trkpt lat="45.6174848" lon="8.3041538"><ele>312.0</ele><time>2026-05-02T12:55:36.985Z</time></trkpt><trkpt lat="45.6174161" lon="8.3041919"><ele>312.0</ele><time>2026-05-02T12:55:38.975Z</time></trkpt><trkpt lat="45.617354" lon="8.3042444"><ele>312.0</ele><time>2026-05-02T12:55:47.979Z</time></trkpt><trkpt lat="45.6172878" lon="8.3042706"><ele>312.0</ele><time>2026-05-02T12:55:49.97Z</time></trkpt><trkpt lat="45.6172007" lon="8.3042927"><ele>312.0</ele><time>2026-05-02T12:55:51.974Z</time></trkpt><trkpt lat="45.6171109" lon="8.3043283"><ele>312.0</ele><time>2026-05-02T12:55:53.99Z</time></trkpt><trkpt lat="45.6170306" lon="8.304378"><ele>312.0</ele><time>2026-05-02T12:55:55.981Z</time></trkpt><trkpt lat="45.6169638" lon="8.3044456"><ele>312.0</ele><time>2026-05-02T12:55:57.98Z</time></trkpt><trkpt lat="45.6168772" lon="8.3045097"><ele>312.0</ele><time>2026-05-02T12:55:59.978Z</time></trkpt><trkpt lat="45.6167808" lon="8.3045779"><ele>312.3333333333333</ele><time>2026-05-02T12:56:01.982Z</time></trkpt><trkpt lat="45.6166916" lon="8.3046437"><ele>312.6666666666667</ele><time>2026-05-02T12:56:03.982Z</time></trkpt><trkpt lat="45.6166244" lon="8.3046817"><ele>313.0</ele><time>2026-05-02T12:56:05.98Z</time></trkpt><trkpt lat="45.6165513" lon="8.3047362"><ele>313.33333333333337</ele><time>2026-05-02T12:56:07.984Z</time></trkpt><trkpt lat="45.6164897" lon="8.3048178"><ele>313.6666666666667</ele><time>2026-05-02T12:56:09.985Z</time></trkpt><trkpt lat="45.6164303" lon="8.3049435"><ele>314.0</ele><time>2026-05-02T12:56:11.975Z</time></trkpt><trkpt lat="45.6163594" lon="8.3050699"><ele>314.0</ele><time>2026-05-02T12:56:13.975Z</time></trkpt><trkpt lat="45.6162737" lon="8.3051874"><ele>314.0</ele><time>2026-05-02T12:56:15.977Z</time></trkpt><trkpt lat="45.6162254" lon="8.3052484"><ele>314.0</ele><time>2026-05-02T12:56:16.98Z</time></trkpt><trkpt lat="45.6161226" lon="8.3053629"><ele>314.0</ele><time>2026-05-02T12:56:18.978Z</time></trkpt><trkpt lat="45.6160673" lon="8.3054166"><ele>314.0</ele><time>2026-05-02T12:56:19.99Z</time></trkpt><trkpt lat="45.6160111" lon="8.3054642"><ele>314.0</ele><time>2026-05-02T12:56:20.978Z</time></trkpt><trkpt lat="45.6159207" lon="8.3055401"><ele>315.0</ele><time>2026-05-02T12:56:22.977Z</time></trkpt><trkpt lat="45.615861" lon="8.3056056"><ele>316.0</ele><time>2026-05-02T12:56:24.976Z</time></trkpt><trkpt lat="45.615898" lon="8.3055151"><ele>317.0</ele><time>2026-05-02T12:56:58.984Z</time></trkpt><trkpt lat="45.6159374" lon="8.3054186"><ele>318.0</ele><time>2026-05-02T12:57:00.975Z</time></trkpt><trkpt lat="45.6159819" lon="8.305328"><ele>319.0</ele><time>2026-05-02T12:57:02.984Z</time></trkpt><trkpt lat="45.6160246" lon="8.305226"><ele>320.0</ele><time>2026-05-02T12:57:04.978Z</time></trkpt><trkpt lat="45.6160606" lon="8.3051185"><ele>320.0</ele><time>2026-05-02T12:57:06.979Z</time></trkpt><trkpt lat="45.6160981" lon="8.3050218"><ele>320.0</ele><time>2026-05-02T12:57:08.984Z</time></trkpt><trkpt lat="45.6161478" lon="8.3049357"><ele>320.0</ele><time>2026-05-02T12:57:10.99Z</time></trkpt><trkpt lat="45.6162046" lon="8.3048547"><ele>320.0</ele><time>2026-05-02T12:57:12.985Z</time></trkpt><trkpt lat="45.6162613" lon="8.3047848"><ele>320.0</ele><time>2026-05-02T12:57:14.982Z</time></trkpt><trkpt lat="45.6163398" lon="8.3046828"><ele>320.0</ele><time>2026-05-02T12:57:16.983Z</time></trkpt><trkpt lat="45.6163914" lon="8.3046168"><ele>320.0</ele><time>2026-05-02T12:57:17.983Z</time></trkpt><trkpt lat="45.6164459" lon="8.3045508"><ele>320.0</ele><time>2026-05-02T12:57:18.976Z</time></trkpt><trkpt lat="45.6165038" lon="8.3044872"><ele>320.0</ele><time>2026-05-02T12:57:19.982Z</time></trkpt><trkpt lat="45.6165608" lon="8.3044299"><ele>320.0</ele><time>2026-05-02T12:57:20.981Z</time></trkpt><trkpt lat="45.6166135" lon="8.304378"><ele>320.0</ele><time>2026-05-02T12:57:21.98Z</time></trkpt><trkpt lat="45.6166964" lon="8.3043052"><ele>320.0</ele><time>2026-05-02T12:57:23.971Z</time></trkpt><trkpt lat="45.6167501" lon="8.3042438"><ele>320.0</ele><time>2026-05-02T12:57:25.977Z</time></trkpt><trkpt lat="45.6167996" lon="8.3041737"><ele>320.0</ele><time>2026-05-02T12:57:28.979Z</time></trkpt><trkpt lat="45.616841" lon="8.3041031"><ele>320.0</ele><time>2026-05-02T12:57:31.972Z</time></trkpt><trkpt lat="45.6169" lon="8.3040345"><ele>320.0</ele><time>2026-05-02T12:57:34.977Z</time></trkpt><trkpt lat="45.6169865" lon="8.3039672"><ele>320.0</ele><time>2026-05-02T12:57:37.977Z</time></trkpt><trkpt lat="45.6170538" lon="8.3039034"><ele>320.0</ele><time>2026-05-02T12:57:39.98Z</time></trkpt><trkpt lat="45.6171167" lon="8.3038412"><ele>320.0</ele><time>2026-05-02T12:57:41.992Z</time></trkpt><trkpt lat="45.6171916" lon="8.3037635"><ele>320.4</ele><time>2026-05-02T12:57:43.978Z</time></trkpt><trkpt lat="45.6172553" lon="8.3036621"><ele>320.8</ele><time>2026-05-02T12:57:45.985Z</time></trkpt><trkpt lat="45.617338" lon="8.3035344"><ele>321.20000000000005</ele><time>2026-05-02T12:57:47.988Z</time></trkpt><trkpt lat="45.6174152" lon="8.3034118"><ele>321.6</ele><time>2026-05-02T12:57:49.978Z</time></trkpt><trkpt lat="45.6174861" lon="8.3033002"><ele>322.0</ele><time>2026-05-02T12:57:51.978Z</time></trkpt><trkpt lat="45.6175453" lon="8.3032237"><ele>322.0</ele><time>2026-05-02T12:57:53.982Z</time></trkpt><trkpt lat="45.617598" lon="8.3031447"><ele>322.0</ele><time>2026-05-02T12:57:55.976Z</time></trkpt><trkpt lat="45.617643" lon="8.3030632"><ele>322.0</ele><time>2026-05-02T12:57:57.975Z</time></trkpt><trkpt lat="45.6176925" lon="8.3029827"><ele>322.0</ele><time>2026-05-02T12:57:59.985Z</time></trkpt><trkpt lat="45.6177546" lon="8.302872"><ele>322.0</ele><time>2026-05-02T12:58:01.97Z</time></trkpt><trkpt lat="45.6178341" lon="8.302764"><ele>322.0</ele><time>2026-05-02T12:58:03.981Z</time></trkpt><trkpt lat="45.6179105" lon="8.3026793"><ele>322.20000000000005</ele><time>2026-05-02T12:58:05.987Z</time></trkpt><trkpt lat="45.6179806" lon="8.3026054"><ele>322.4</ele><time>2026-05-02T12:58:07.977Z</time></trkpt><trkpt lat="45.6180398" lon="8.3025164"><ele>322.6</ele><time>2026-05-02T12:58:09.987Z</time></trkpt><trkpt lat="45.6180931" lon="8.3024241"><ele>322.79999999999995</ele><time>2026-05-02T12:58:11.986Z</time></trkpt><trkpt lat="45.6181634" lon="8.3023332"><ele>323.0</ele><time>2026-05-02T12:58:13.98Z</time></trkpt><trkpt lat="45.6182432" lon="8.3022447"><ele>323.0</ele><time>2026-05-02T12:58:15.982Z</time></trkpt><trkpt lat="45.6183009" lon="8.3021601"><ele>323.0</ele><time>2026-05-02T12:58:17.98Z</time></trkpt><trkpt lat="45.6183594" lon="8.3020678"><ele>323.0</ele><time>2026-05-02T12:58:19.984Z</time></trkpt><trkpt lat="45.6184085" lon="8.3019639"><ele>323.0</ele><time>2026-05-02T12:58:21.987Z</time></trkpt><trkpt lat="45.6184375" lon="8.3018349"><ele>323.0</ele><time>2026-05-02T12:58:23.985Z</time></trkpt><trkpt lat="45.6184666" lon="8.301698"><ele>323.0</ele><time>2026-05-02T12:58:25.987Z</time></trkpt><trkpt lat="45.6185049" lon="8.3015789"><ele>323.0</ele><time>2026-05-02T12:58:27.976Z</time></trkpt><trkpt lat="45.6185487" lon="8.3014652"><ele>323.0</ele><time>2026-05-02T12:58:29.976Z</time></trkpt><trkpt lat="45.6186115" lon="8.3013523"><ele>323.0</ele><time>2026-05-02T12:58:31.98Z</time></trkpt><trkpt lat="45.6186861" lon="8.3012893"><ele>323.0</ele><time>2026-05-02T12:58:33.979Z</time></trkpt><trkpt lat="45.6187945" lon="8.3012586"><ele>323.83333333333337</ele><time>2026-05-02T12:58:35.988Z</time></trkpt><trkpt lat="45.6188612" lon="8.3012462"><ele>324.6666666666667</ele><time>2026-05-02T12:58:36.989Z</time></trkpt><trkpt lat="45.61893" lon="8.3012365"><ele>325.5</ele><time>2026-05-02T12:58:37.974Z</time></trkpt><trkpt lat="45.6190411" lon="8.3012244"><ele>326.3333333333333</ele><time>2026-05-02T12:58:39.983Z</time></trkpt><trkpt lat="45.6191322" lon="8.3011959"><ele>327.16666666666663</ele><time>2026-05-02T12:58:41.981Z</time></trkpt><trkpt lat="45.6191957" lon="8.3011237"><ele>328.0</ele><time>2026-05-02T12:58:43.978Z</time></trkpt><trkpt lat="45.6192463" lon="8.3010249"><ele>328.0</ele><time>2026-05-02T12:58:45.971Z</time></trkpt><trkpt lat="45.6192964" lon="8.3009244"><ele>328.0</ele><time>2026-05-02T12:58:47.978Z</time></trkpt><trkpt lat="45.6193401" lon="8.3007971"><ele>328.0</ele><time>2026-05-02T12:58:49.985Z</time></trkpt><trkpt lat="45.6193748" lon="8.3006576"><ele>328.0</ele><time>2026-05-02T12:58:51.982Z</time></trkpt><trkpt lat="45.6193981" lon="8.3005385"><ele>328.0</ele><time>2026-05-02T12:58:53.978Z</time></trkpt><trkpt lat="45.6194232" lon="8.3004213"><ele>327.8333333333333</ele><time>2026-05-02T12:58:55.978Z</time></trkpt><trkpt lat="45.6194647" lon="8.3003221"><ele>327.66666666666663</ele><time>2026-05-02T12:58:57.982Z</time></trkpt><trkpt lat="45.6195261" lon="8.3002485"><ele>327.5</ele><time>2026-05-02T12:58:59.982Z</time></trkpt><trkpt lat="45.6195874" lon="8.3001753"><ele>327.3333333333333</ele><time>2026-05-02T12:59:01.976Z</time></trkpt><trkpt lat="45.6196251" lon="8.3000679"><ele>327.1666666666667</ele><time>2026-05-02T12:59:03.97Z</time></trkpt><trkpt lat="45.6196313" lon="8.2999549"><ele>327.0</ele><time>2026-05-02T12:59:05.959Z</time></trkpt><trkpt lat="45.6196157" lon="8.2998428"><ele>327.8</ele><time>2026-05-02T12:59:07.971Z</time></trkpt><trkpt lat="45.61956" lon="8.2997478"><ele>328.6</ele><time>2026-05-02T12:59:09.972Z</time></trkpt><trkpt lat="45.6194931" lon="8.2996563"><ele>329.40000000000003</ele><time>2026-05-02T12:59:11.968Z</time></trkpt><trkpt lat="45.6194248" lon="8.2995679"><ele>330.20000000000005</ele><time>2026-05-02T12:59:13.973Z</time></trkpt><trkpt lat="45.6193636" lon="8.2994717"><ele>331.0</ele><time>2026-05-02T12:59:15.963Z</time></trkpt><trkpt lat="45.6193184" lon="8.2993619"><ele>331.0</ele><time>2026-05-02T12:59:17.956Z</time></trkpt><trkpt lat="45.619278" lon="8.2992594"><ele>331.0</ele><time>2026-05-02T12:59:19.97Z</time></trkpt><trkpt lat="45.6192664" lon="8.2991598"><ele>331.0</ele><time>2026-05-02T12:59:21.965Z</time></trkpt><trkpt lat="45.6192632" lon="8.2990287"><ele>331.0</ele><time>2026-05-02T12:59:32.939Z</time></trkpt><trkpt lat="45.6193038" lon="8.2989375"><ele>331.0</ele><time>2026-05-02T12:59:33.967Z</time></trkpt><trkpt lat="45.6193608" lon="8.2987977"><ele>331.0</ele><time>2026-05-02T12:59:35.962Z</time></trkpt><trkpt lat="45.6193996" lon="8.2986736"><ele>331.0</ele><time>2026-05-02T12:59:37.965Z</time></trkpt><trkpt lat="45.6194211" lon="8.298549"><ele>331.0</ele><time>2026-05-02T12:59:39.972Z</time></trkpt><trkpt lat="45.6194457" lon="8.2984047"><ele>331.0</ele><time>2026-05-02T12:59:41.972Z</time></trkpt><trkpt lat="45.6194863" lon="8.2982657"><ele>331.0</ele><time>2026-05-02T12:59:43.983Z</time></trkpt><trkpt lat="45.6195452" lon="8.2981361"><ele>331.0</ele><time>2026-05-02T12:59:45.981Z</time></trkpt><trkpt lat="45.6196202" lon="8.2979894"><ele>331.8333333333333</ele><time>2026-05-02T12:59:47.984Z</time></trkpt><trkpt lat="45.6196624" lon="8.2979209"><ele>332.66666666666663</ele><time>2026-05-02T12:59:48.983Z</time></trkpt><trkpt lat="45.61971" lon="8.2978529"><ele>333.5</ele><time>2026-05-02T12:59:49.984Z</time></trkpt><trkpt lat="45.6197583" lon="8.2977853"><ele>334.3333333333333</ele><time>2026-05-02T12:59:50.983Z</time></trkpt><trkpt lat="45.6198037" lon="8.2977195"><ele>335.1666666666667</ele><time>2026-05-02T12:59:51.966Z</time></trkpt><trkpt lat="45.6198949" lon="8.297606"><ele>336.0</ele><time>2026-05-02T12:59:53.983Z</time></trkpt><trkpt lat="45.6199816" lon="8.2975339"><ele>336.0</ele><time>2026-05-02T12:59:55.983Z</time></trkpt><trkpt lat="45.6200583" lon="8.2974262"><ele>336.0</ele><time>2026-05-02T12:59:57.986Z</time></trkpt><trkpt lat="45.6200974" lon="8.2973031"><ele>336.0</ele><time>2026-05-02T12:59:59.979Z</time></trkpt><trkpt lat="45.620117" lon="8.2971893"><ele>336.0</ele><time>2026-05-02T13:00:01.987Z</time></trkpt><trkpt lat="45.6201511" lon="8.2970751"><ele>336.0</ele><time>2026-05-02T13:00:03.978Z</time></trkpt><trkpt lat="45.6201916" lon="8.2969919"><ele>336.0</ele><time>2026-05-02T13:00:05.979Z</time></trkpt><trkpt lat="45.620237" lon="8.2968781"><ele>337.0</ele><time>2026-05-02T13:00:07.975Z</time></trkpt><trkpt lat="45.6202915" lon="8.2967547"><ele>338.0</ele><time>2026-05-02T13:00:09.982Z</time></trkpt><trkpt lat="45.6203381" lon="8.2966304"><ele>339.0</ele><time>2026-05-02T13:00:11.981Z</time></trkpt><trkpt lat="45.6203697" lon="8.2965275"><ele>340.0</ele><time>2026-05-02T13:00:13.981Z</time></trkpt><trkpt lat="45.6203993" lon="8.2964189"><ele>341.0</ele><time>2026-05-02T13:00:15.982Z</time></trkpt><trkpt lat="45.6204171" lon="8.2963197"><ele>342.0</ele><time>2026-05-02T13:00:17.974Z</time></trkpt><trkpt lat="45.6204842" lon="8.2962339"><ele>342.6666666666667</ele><time>2026-05-02T13:00:20.982Z</time></trkpt><trkpt lat="45.6205583" lon="8.2961766"><ele>343.3333333333333</ele><time>2026-05-02T13:00:23.987Z</time></trkpt><trkpt lat="45.6206312" lon="8.2960932"><ele>344.0</ele><time>2026-05-02T13:00:26.98Z</time></trkpt><trkpt lat="45.6207052" lon="8.2960113"><ele>344.66666666666663</ele><time>2026-05-02T13:00:29.987Z</time></trkpt><trkpt lat="45.620766" lon="8.2959201"><ele>345.3333333333333</ele><time>2026-05-02T13:00:32.983Z</time></trkpt><trkpt lat="45.6208163" lon="8.2958222"><ele>346.0</ele><time>2026-05-02T13:00:35.972Z</time></trkpt><trkpt lat="45.6208491" lon="8.2957244"><ele>346.0</ele><time>2026-05-02T13:00:38.983Z</time></trkpt><trkpt lat="45.6208813" lon="8.2956263"><ele>346.0</ele><time>2026-05-02T13:00:42.981Z</time></trkpt><trkpt lat="45.6208765" lon="8.2955195"><ele>346.0</ele><time>2026-05-02T13:00:47.985Z</time></trkpt><trkpt lat="45.6208937" lon="8.2953875"><ele>346.0</ele><time>2026-05-02T13:00:51.978Z</time></trkpt><trkpt lat="45.620929" lon="8.29529"><ele>346.0</ele><time>2026-05-02T13:00:53.986Z</time></trkpt><trkpt lat="45.6209605" lon="8.2951693"><ele>346.0</ele><time>2026-05-02T13:00:55.976Z</time></trkpt><trkpt lat="45.6210016" lon="8.2950196"><ele>346.6</ele><time>2026-05-02T13:00:57.98Z</time></trkpt><trkpt lat="45.6210431" lon="8.2948716"><ele>347.20000000000005</ele><time>2026-05-02T13:00:59.986Z</time></trkpt><trkpt lat="45.6210783" lon="8.2947267"><ele>347.79999999999995</ele><time>2026-05-02T13:01:01.985Z</time></trkpt><trkpt lat="45.6210988" lon="8.2945887"><ele>348.4</ele><time>2026-05-02T13:01:03.98Z</time></trkpt><trkpt lat="45.6211081" lon="8.294456"><ele>349.0</ele><time>2026-05-02T13:01:05.982Z</time></trkpt><trkpt lat="45.6211364" lon="8.2943303"><ele>349.79999999999995</ele><time>2026-05-02T13:01:07.979Z</time></trkpt><trkpt lat="45.6211992" lon="8.2942243"><ele>350.59999999999997</ele><time>2026-05-02T13:01:09.976Z</time></trkpt><trkpt lat="45.6212578" lon="8.2941421"><ele>351.4</ele><time>2026-05-02T13:01:11.972Z</time></trkpt><trkpt lat="45.6212983" lon="8.2940514"><ele>352.2</ele><time>2026-05-02T13:01:13.987Z</time></trkpt><trkpt lat="45.6213333" lon="8.2939726"><ele>353.0</ele><time>2026-05-02T13:01:15.982Z</time></trkpt><trkpt lat="45.6213304" lon="8.2937736"><ele>353.4285714285714</ele><time>2026-05-02T13:01:36.965Z</time></trkpt><trkpt lat="45.6213789" lon="8.2936807"><ele>353.8571428571429</ele><time>2026-05-02T13:01:39.984Z</time></trkpt><trkpt lat="45.6214123" lon="8.2936033"><ele>354.2857142857143</ele><time>2026-05-02T13:01:41.99Z</time></trkpt><trkpt lat="45.6214561" lon="8.2935191"><ele>354.71428571428567</ele><time>2026-05-02T13:01:43.974Z</time></trkpt><trkpt lat="45.6215078" lon="8.2934602"><ele>355.1428571428571</ele><time>2026-05-02T13:01:47.982Z</time></trkpt><trkpt lat="45.6215375" lon="8.2933573"><ele>355.57142857142856</ele><time>2026-05-02T13:04:48.967Z</time></trkpt><trkpt lat="45.6216006" lon="8.2933064"><ele>356.0</ele><time>2026-05-02T13:04:50.971Z</time></trkpt><trkpt lat="45.6216551" lon="8.2932457"><ele>356.0</ele><time>2026-05-02T13:04:52.981Z</time></trkpt><trkpt lat="45.6217131" lon="8.2931872"><ele>356.0</ele><time>2026-05-02T13:04:55.988Z</time></trkpt><trkpt lat="45.6217755" lon="8.2931018"><ele>356.0</ele><time>2026-05-02T13:04:58.975Z</time></trkpt><trkpt lat="45.6218182" lon="8.2929879"><ele>356.0</ele><time>2026-05-02T13:05:01.975Z</time></trkpt><trkpt lat="45.621901" lon="8.2928835"><ele>356.0</ele><time>2026-05-02T13:06:24.964Z</time></trkpt><trkpt lat="45.6219401" lon="8.2928011"><ele>356.0</ele><time>2026-05-02T13:06:26.985Z</time></trkpt><trkpt lat="45.6219776" lon="8.2926997"><ele>355.99999999999994</ele><time>2026-05-02T13:06:29.974Z</time></trkpt><trkpt lat="45.6220079" lon="8.2926189"><ele>356.0</ele><time>2026-05-02T13:06:31.978Z</time></trkpt><trkpt lat="45.6220452" lon="8.292529"><ele>356.0</ele><time>2026-05-02T13:06:33.979Z</time></trkpt><trkpt lat="45.6220807" lon="8.2924531"><ele>356.0</ele><time>2026-05-02T13:06:35.981Z</time></trkpt><trkpt lat="45.6221258" lon="8.2923715"><ele>356.0</ele><time>2026-05-02T13:06:37.985Z</time></trkpt><trkpt lat="45.6221759" lon="8.2922837"><ele>355.99999999999994</ele><time>2026-05-02T13:06:40.978Z</time></trkpt><trkpt lat="45.6222427" lon="8.29222"><ele>356.0</ele><time>2026-05-02T13:06:43.987Z</time></trkpt><trkpt lat="45.6222972" lon="8.2921522"><ele>356.20000000000005</ele><time>2026-05-02T13:06:45.979Z</time></trkpt><trkpt lat="45.6223689" lon="8.2920764"><ele>356.40000000000003</ele><time>2026-05-02T13:06:47.98Z</time></trkpt><trkpt lat="45.622456" lon="8.2919798"><ele>356.6</ele><time>2026-05-02T13:06:49.983Z</time></trkpt><trkpt lat="45.6225438" lon="8.2918982"><ele>356.8</ele><time>2026-05-02T13:06:51.979Z</time></trkpt><trkpt lat="45.6226284" lon="8.2918191"><ele>357.0</ele><time>2026-05-02T13:06:53.976Z</time></trkpt><trkpt lat="45.6227127" lon="8.2917199"><ele>357.0</ele><time>2026-05-02T13:06:55.984Z</time></trkpt><trkpt lat="45.6227842" lon="8.2916162"><ele>357.0</ele><time>2026-05-02T13:06:57.982Z</time></trkpt><trkpt lat="45.6228383" lon="8.2915029"><ele>357.0</ele><time>2026-05-02T13:06:59.982Z</time></trkpt><trkpt lat="45.622852" lon="8.2913702"><ele>357.0</ele><time>2026-05-02T13:07:01.978Z</time></trkpt><trkpt lat="45.6228289" lon="8.2912258"><ele>357.0</ele><time>2026-05-02T13:07:03.973Z</time></trkpt><trkpt lat="45.6228009" lon="8.2911222"><ele>356.8</ele><time>2026-05-02T13:07:05.976Z</time></trkpt><trkpt lat="45.6227739" lon="8.291022"><ele>356.6</ele><time>2026-05-02T13:07:07.981Z</time></trkpt><trkpt lat="45.6227197" lon="8.2909043"><ele>356.40000000000003</ele><time>2026-05-02T13:07:09.985Z</time></trkpt><trkpt lat="45.6226399" lon="8.2907914"><ele>356.20000000000005</ele><time>2026-05-02T13:07:11.985Z</time></trkpt><trkpt lat="45.6225939" lon="8.2907249"><ele>356.0</ele><time>2026-05-02T13:07:12.973Z</time></trkpt><trkpt lat="45.6225322" lon="8.2905911"><ele>355.33333333333337</ele><time>2026-05-02T13:07:14.975Z</time></trkpt><trkpt lat="45.6225298" lon="8.2904869"><ele>354.6666666666667</ele><time>2026-05-02T13:07:16.977Z</time></trkpt><trkpt lat="45.6226286" lon="8.2904373"><ele>354.0</ele><time>2026-05-02T13:07:19.984Z</time></trkpt><trkpt lat="45.6226976" lon="8.2904377"><ele>353.3333333333333</ele><time>2026-05-02T13:07:20.977Z</time></trkpt><trkpt lat="45.6227787" lon="8.2904417"><ele>352.66666666666663</ele><time>2026-05-02T13:07:21.977Z</time></trkpt><trkpt lat="45.6228693" lon="8.2904334"><ele>352.0</ele><time>2026-05-02T13:07:22.975Z</time></trkpt><trkpt lat="45.622961" lon="8.2904105"><ele>351.40000000000003</ele><time>2026-05-02T13:07:23.984Z</time></trkpt><trkpt lat="45.6230529" lon="8.2903678"><ele>350.8</ele><time>2026-05-02T13:07:24.982Z</time></trkpt><trkpt lat="45.6231383" lon="8.2903128"><ele>350.2</ele><time>2026-05-02T13:07:25.978Z</time></trkpt><trkpt lat="45.6232286" lon="8.2902633"><ele>349.6</ele><time>2026-05-02T13:07:26.98Z</time></trkpt><trkpt lat="45.6233225" lon="8.2902227"><ele>349.0</ele><time>2026-05-02T13:07:27.976Z</time></trkpt><trkpt lat="45.6234208" lon="8.2901834"><ele>349.0</ele><time>2026-05-02T13:07:28.982Z</time></trkpt><trkpt lat="45.623525" lon="8.2901577"><ele>349.0</ele><time>2026-05-02T13:07:29.985Z</time></trkpt><trkpt lat="45.6236288" lon="8.2901421"><ele>349.0</ele><time>2026-05-02T13:07:30.98Z</time></trkpt><trkpt lat="45.6237251" lon="8.2901235"><ele>349.0</ele><time>2026-05-02T13:07:31.989Z</time></trkpt><trkpt lat="45.6238181" lon="8.2900944"><ele>349.0</ele><time>2026-05-02T13:07:32.983Z</time></trkpt><trkpt lat="45.6238966" lon="8.2900454"><ele>348.99999999999994</ele><time>2026-05-02T13:07:33.981Z</time></trkpt><trkpt lat="45.6239732" lon="8.2899929"><ele>349.0</ele><time>2026-05-02T13:07:34.977Z</time></trkpt><trkpt lat="45.6240473" lon="8.2899452"><ele>349.0</ele><time>2026-05-02T13:07:35.981Z</time></trkpt><trkpt lat="45.6241191" lon="8.2899061"><ele>349.0</ele><time>2026-05-02T13:07:36.978Z</time></trkpt><trkpt lat="45.6241819" lon="8.2898885"><ele>349.0</ele><time>2026-05-02T13:07:37.983Z</time></trkpt><trkpt lat="45.624245" lon="8.2898908"><ele>348.99999999999994</ele><time>2026-05-02T13:07:38.985Z</time></trkpt><trkpt lat="45.6243082" lon="8.2899061"><ele>349.0</ele><time>2026-05-02T13:07:39.982Z</time></trkpt><trkpt lat="45.6243743" lon="8.2899342"><ele>349.0</ele><time>2026-05-02T13:07:40.98Z</time></trkpt><trkpt lat="45.6244332" lon="8.2899728"><ele>349.0</ele><time>2026-05-02T13:07:41.983Z</time></trkpt><trkpt lat="45.6245387" lon="8.2900308"><ele>349.0</ele><time>2026-05-02T13:07:43.984Z</time></trkpt><trkpt lat="45.6246311" lon="8.2900913"><ele>349.0</ele><time>2026-05-02T13:07:45.986Z</time></trkpt><trkpt lat="45.6247036" lon="8.2901867"><ele>349.0</ele><time>2026-05-02T13:07:47.977Z</time></trkpt><trkpt lat="45.6247852" lon="8.2902986"><ele>348.16666666666663</ele><time>2026-05-02T13:07:49.977Z</time></trkpt><trkpt lat="45.6248848" lon="8.2903993"><ele>347.3333333333333</ele><time>2026-05-02T13:07:51.976Z</time></trkpt><trkpt lat="45.6249384" lon="8.2904485"><ele>346.5</ele><time>2026-05-02T13:07:52.982Z</time></trkpt><trkpt lat="45.6249933" lon="8.2904931"><ele>345.6666666666667</ele><time>2026-05-02T13:07:53.975Z</time></trkpt><trkpt lat="45.6250503" lon="8.2905438"><ele>344.83333333333337</ele><time>2026-05-02T13:07:54.977Z</time></trkpt><trkpt lat="45.6251049" lon="8.2905936"><ele>344.0</ele><time>2026-05-02T13:07:55.978Z</time></trkpt><trkpt lat="45.6251905" lon="8.2907106"><ele>346.0</ele><time>2026-05-02T13:07:57.987Z</time></trkpt><trkpt lat="45.6252499" lon="8.290863"><ele>348.0</ele><time>2026-05-02T13:07:59.979Z</time></trkpt><trkpt lat="45.6252667" lon="8.2909612"><ele>350.0</ele><time>2026-05-02T13:08:00.984Z</time></trkpt><trkpt lat="45.6252711" lon="8.2910774"><ele>352.0</ele><time>2026-05-02T13:08:01.98Z</time></trkpt><trkpt lat="45.6252652" lon="8.2912081"><ele>354.0</ele><time>2026-05-02T13:08:02.973Z</time></trkpt><trkpt lat="45.6252534" lon="8.2913476"><ele>353.2</ele><time>2026-05-02T13:08:03.969Z</time></trkpt><trkpt lat="45.6252485" lon="8.2914954"><ele>352.4</ele><time>2026-05-02T13:08:04.983Z</time></trkpt><trkpt lat="45.6252491" lon="8.291647"><ele>351.6</ele><time>2026-05-02T13:08:05.971Z</time></trkpt><trkpt lat="45.6252524" lon="8.2917886"><ele>350.8</ele><time>2026-05-02T13:08:06.986Z</time></trkpt><trkpt lat="45.6252601" lon="8.2919134"><ele>350.0</ele><time>2026-05-02T13:08:07.984Z</time></trkpt><trkpt lat="45.6252701" lon="8.2920213"><ele>350.0</ele><time>2026-05-02T13:08:08.984Z</time></trkpt><trkpt lat="45.6252859" lon="8.2921096"><ele>350.0</ele><time>2026-05-02T13:08:09.981Z</time></trkpt><trkpt lat="45.6253302" lon="8.2922437"><ele>350.0</ele><time>2026-05-02T13:08:11.982Z</time></trkpt><trkpt lat="45.6253731" lon="8.2923375"><ele>350.0</ele><time>2026-05-02T13:08:13.977Z</time></trkpt><trkpt lat="45.6254177" lon="8.2924161"><ele>350.0</ele><time>2026-05-02T13:08:25.976Z</time></trkpt><trkpt lat="45.6255233" lon="8.2924197"><ele>350.0</ele><time>2026-05-02T13:08:28.978Z</time></trkpt><trkpt lat="45.6255847" lon="8.2923789"><ele>350.33333333333337</ele><time>2026-05-02T13:08:29.978Z</time></trkpt><trkpt lat="45.6256608" lon="8.2923291"><ele>350.6666666666667</ele><time>2026-05-02T13:08:30.972Z</time></trkpt><trkpt lat="45.625742" lon="8.2922898"><ele>351.0</ele><time>2026-05-02T13:08:31.979Z</time></trkpt><trkpt lat="45.6258284" lon="8.2922523"><ele>351.3333333333333</ele><time>2026-05-02T13:08:32.98Z</time></trkpt><trkpt lat="45.625916" lon="8.2922257"><ele>351.66666666666663</ele><time>2026-05-02T13:08:33.982Z</time></trkpt><trkpt lat="45.6260009" lon="8.2922299"><ele>352.0</ele><time>2026-05-02T13:08:34.973Z</time></trkpt><trkpt lat="45.6260861" lon="8.2922594"><ele>350.6</ele><time>2026-05-02T13:08:35.983Z</time></trkpt><trkpt lat="45.6261742" lon="8.2923156"><ele>349.20000000000005</ele><time>2026-05-02T13:08:36.975Z</time></trkpt><trkpt lat="45.6262522" lon="8.2923998"><ele>347.8</ele><time>2026-05-02T13:08:37.968Z</time></trkpt><trkpt lat="45.6263298" lon="8.2924925"><ele>346.4</ele><time>2026-05-02T13:08:38.982Z</time></trkpt><trkpt lat="45.6264" lon="8.2925985"><ele>345.0</ele><time>2026-05-02T13:08:39.978Z</time></trkpt><trkpt lat="45.626464" lon="8.2927061"><ele>345.0</ele><time>2026-05-02T13:08:40.983Z</time></trkpt><trkpt lat="45.6265227" lon="8.2927953"><ele>345.0</ele><time>2026-05-02T13:08:41.977Z</time></trkpt><trkpt lat="45.6265758" lon="8.2928684"><ele>345.0</ele><time>2026-05-02T13:08:42.98Z</time></trkpt><trkpt lat="45.626631" lon="8.2929215"><ele>345.0</ele><time>2026-05-02T13:08:43.976Z</time></trkpt><trkpt lat="45.6267535" lon="8.292932"><ele>345.0</ele><time>2026-05-02T13:08:45.976Z</time></trkpt><trkpt lat="45.6268268" lon="8.2928953"><ele>345.0</ele><time>2026-05-02T13:08:46.975Z</time></trkpt><trkpt lat="45.626891" lon="8.292855"><ele>345.0</ele><time>2026-05-02T13:08:47.982Z</time></trkpt><trkpt lat="45.6269595" lon="8.2928572"><ele>345.0</ele><time>2026-05-02T13:08:48.97Z</time></trkpt><trkpt lat="45.6270273" lon="8.2928938"><ele>345.0</ele><time>2026-05-02T13:08:49.98Z</time></trkpt><trkpt lat="45.62709" lon="8.292952"><ele>345.0</ele><time>2026-05-02T13:08:50.974Z</time></trkpt><trkpt lat="45.6271538" lon="8.2930219"><ele>345.0</ele><time>2026-05-02T13:08:51.978Z</time></trkpt><trkpt lat="45.62721" lon="8.2930898"><ele>345.0</ele><time>2026-05-02T13:08:52.974Z</time></trkpt><trkpt lat="45.6272622" lon="8.2931474"><ele>345.0</ele><time>2026-05-02T13:08:53.986Z</time></trkpt><trkpt lat="45.6273785" lon="8.2932158"><ele>345.5</ele><time>2026-05-02T13:08:55.977Z</time></trkpt><trkpt lat="45.6274488" lon="8.2932264"><ele>346.0</ele><time>2026-05-02T13:08:56.977Z</time></trkpt><trkpt lat="45.6275357" lon="8.2932162"><ele>346.5</ele><time>2026-05-02T13:08:57.978Z</time></trkpt><trkpt lat="45.627633" lon="8.29319"><ele>347.0</ele><time>2026-05-02T13:08:58.972Z</time></trkpt><trkpt lat="45.6277275" lon="8.2931585"><ele>347.5</ele><time>2026-05-02T13:08:59.99Z</time></trkpt><trkpt lat="45.6278154" lon="8.2931289"><ele>348.0</ele><time>2026-05-02T13:09:00.98Z</time></trkpt><trkpt lat="45.6278947" lon="8.293097"><ele>348.0</ele><time>2026-05-02T13:09:01.982Z</time></trkpt><trkpt lat="45.6279607" lon="8.2930683"><ele>348.0</ele><time>2026-05-02T13:09:02.974Z</time></trkpt><trkpt lat="45.6280452" lon="8.2930506"><ele>348.0</ele><time>2026-05-02T13:09:04.973Z</time></trkpt><trkpt lat="45.6279883" lon="8.2930078"><ele>348.0</ele><time>2026-05-02T13:13:27.968Z</time></trkpt><trkpt lat="45.6280192" lon="8.2931087"><ele>348.0</ele><time>2026-05-02T13:14:11.97Z</time></trkpt><trkpt lat="45.6280646" lon="8.2932003"><ele>348.0</ele><time>2026-05-02T13:14:14.994Z</time></trkpt><trkpt lat="45.6281252" lon="8.2932419"><ele>348.0</ele><time>2026-05-02T13:14:17.97Z</time></trkpt><trkpt lat="45.6282015" lon="8.2932528"><ele>348.0</ele><time>2026-05-02T13:14:19.982Z</time></trkpt><trkpt lat="45.6283104" lon="8.293258"><ele>348.0</ele><time>2026-05-02T13:14:21.973Z</time></trkpt><trkpt lat="45.6284365" lon="8.2932502"><ele>348.0</ele><time>2026-05-02T13:14:23.97Z</time></trkpt><trkpt lat="45.628556" lon="8.2932333"><ele>348.0</ele><time>2026-05-02T13:14:25.979Z</time></trkpt><trkpt lat="45.6286621" lon="8.2932037"><ele>348.3333333333333</ele><time>2026-05-02T13:14:27.98Z</time></trkpt><trkpt lat="45.6287502" lon="8.2931593"><ele>348.6666666666667</ele><time>2026-05-02T13:14:29.977Z</time></trkpt><trkpt lat="45.6288265" lon="8.2931055"><ele>349.0</ele><time>2026-05-02T13:14:31.976Z</time></trkpt><trkpt lat="45.628903" lon="8.293029"><ele>349.33333333333337</ele><time>2026-05-02T13:14:33.982Z</time></trkpt><trkpt lat="45.6289816" lon="8.2929518"><ele>349.6666666666667</ele><time>2026-05-02T13:14:35.976Z</time></trkpt><trkpt lat="45.6290395" lon="8.2928815"><ele>350.0</ele><time>2026-05-02T13:14:37.972Z</time></trkpt><trkpt lat="45.6290928" lon="8.2928191"><ele>350.7142857142857</ele><time>2026-05-02T13:15:09.971Z</time></trkpt><trkpt lat="45.6291696" lon="8.2927112"><ele>351.42857142857144</ele><time>2026-05-02T13:15:11.98Z</time></trkpt><trkpt lat="45.6292139" lon="8.2926472"><ele>352.1428571428571</ele><time>2026-05-02T13:15:12.976Z</time></trkpt><trkpt lat="45.6292612" lon="8.2925837"><ele>352.8571428571429</ele><time>2026-05-02T13:15:13.97Z</time></trkpt><trkpt lat="45.6293067" lon="8.2925156"><ele>353.57142857142856</ele><time>2026-05-02T13:15:14.98Z</time></trkpt><trkpt lat="45.629348" lon="8.292444"><ele>354.2857142857143</ele><time>2026-05-02T13:15:15.977Z</time></trkpt><trkpt lat="45.6293911" lon="8.2923702"><ele>355.0</ele><time>2026-05-02T13:15:16.979Z</time></trkpt><trkpt lat="45.6294325" lon="8.2923"><ele>354.0</ele><time>2026-05-02T13:15:17.979Z</time></trkpt><trkpt lat="45.6294729" lon="8.2922292"><ele>353.0</ele><time>2026-05-02T13:15:18.977Z</time></trkpt><trkpt lat="45.6295447" lon="8.2920899"><ele>352.0</ele><time>2026-05-02T13:15:20.965Z</time></trkpt><trkpt lat="45.6296054" lon="8.2919652"><ele>351.0</ele><time>2026-05-02T13:15:22.967Z</time></trkpt><trkpt lat="45.6296666" lon="8.2918583"><ele>350.0</ele><time>2026-05-02T13:15:24.971Z</time></trkpt><trkpt lat="45.6297487" lon="8.2917733"><ele>352.4</ele><time>2026-05-02T13:15:26.964Z</time></trkpt><trkpt lat="45.6298415" lon="8.291718"><ele>354.8</ele><time>2026-05-02T13:15:28.973Z</time></trkpt><trkpt lat="45.6299331" lon="8.2916733"><ele>357.20000000000005</ele><time>2026-05-02T13:15:30.974Z</time></trkpt><trkpt lat="45.6300222" lon="8.2916178"><ele>359.6</ele><time>2026-05-02T13:15:32.973Z</time></trkpt><trkpt lat="45.6301227" lon="8.2915735"><ele>362.0</ele><time>2026-05-02T13:15:34.965Z</time></trkpt><trkpt lat="45.6302137" lon="8.2915337"><ele>362.0</ele><time>2026-05-02T13:15:36.963Z</time></trkpt><trkpt lat="45.6302875" lon="8.2915132"><ele>362.0</ele><time>2026-05-02T13:15:38.969Z</time></trkpt><trkpt lat="45.6303631" lon="8.2915319"><ele>362.0</ele><time>2026-05-02T13:15:40.961Z</time></trkpt><trkpt lat="45.630451" lon="8.2915814"><ele>362.0</ele><time>2026-05-02T13:15:42.972Z</time></trkpt><trkpt lat="45.6305402" lon="8.2916397"><ele>362.0</ele><time>2026-05-02T13:15:44.973Z</time></trkpt><trkpt lat="45.6306376" lon="8.2916733"><ele>362.0</ele><time>2026-05-02T13:15:46.97Z</time></trkpt><trkpt lat="45.6307411" lon="8.2916728"><ele>362.8</ele><time>2026-05-02T13:15:48.983Z</time></trkpt><trkpt lat="45.6308432" lon="8.2916651"><ele>363.6</ele><time>2026-05-02T13:15:50.981Z</time></trkpt><trkpt lat="45.6309481" lon="8.2916948"><ele>364.40000000000003</ele><time>2026-05-02T13:15:52.969Z</time></trkpt><trkpt lat="45.6310498" lon="8.2917233"><ele>365.20000000000005</ele><time>2026-05-02T13:15:54.968Z</time></trkpt><trkpt lat="45.6311326" lon="8.2917142"><ele>366.0</ele><time>2026-05-02T13:15:56.971Z</time></trkpt><trkpt lat="45.6312087" lon="8.2917108"><ele>366.3333333333333</ele><time>2026-05-02T13:15:58.982Z</time></trkpt><trkpt lat="45.6312916" lon="8.2917148"><ele>366.6666666666667</ele><time>2026-05-02T13:16:00.979Z</time></trkpt><trkpt lat="45.6313714" lon="8.2917144"><ele>367.0</ele><time>2026-05-02T13:16:02.974Z</time></trkpt><trkpt lat="45.6314707" lon="8.2917068"><ele>367.33333333333337</ele><time>2026-05-02T13:16:05.981Z</time></trkpt><trkpt lat="45.6315504" lon="8.2916981"><ele>367.6666666666667</ele><time>2026-05-02T13:16:07.975Z</time></trkpt><trkpt lat="45.6316285" lon="8.2917028"><ele>368.0</ele><time>2026-05-02T13:16:09.976Z</time></trkpt><trkpt lat="45.6317091" lon="8.2917399"><ele>368.0</ele><time>2026-05-02T13:16:11.98Z</time></trkpt><trkpt lat="45.6317793" lon="8.2917821"><ele>368.0</ele><time>2026-05-02T13:16:13.979Z</time></trkpt><trkpt lat="45.6318606" lon="8.2918312"><ele>368.0</ele><time>2026-05-02T13:16:16.972Z</time></trkpt><trkpt lat="45.6319333" lon="8.2918642"><ele>368.0</ele><time>2026-05-02T13:16:19.974Z</time></trkpt><trkpt lat="45.6320085" lon="8.2919138"><ele>368.0</ele><time>2026-05-02T13:16:22.984Z</time></trkpt><trkpt lat="45.6320639" lon="8.2919786"><ele>368.0</ele><time>2026-05-02T13:16:25.97Z</time></trkpt><trkpt lat="45.6321129" lon="8.2920392"><ele>367.83333333333337</ele><time>2026-05-02T13:16:28.972Z</time></trkpt><trkpt lat="45.6321632" lon="8.2920972"><ele>367.6666666666667</ele><time>2026-05-02T13:16:31.974Z</time></trkpt><trkpt lat="45.6322237" lon="8.2921617"><ele>367.5</ele><time>2026-05-02T13:16:34.982Z</time></trkpt><trkpt lat="45.6322805" lon="8.2922155"><ele>367.3333333333333</ele><time>2026-05-02T13:16:36.979Z</time></trkpt><trkpt lat="45.6323551" lon="8.2922849"><ele>367.16666666666663</ele><time>2026-05-02T13:16:38.973Z</time></trkpt><trkpt lat="45.6324452" lon="8.2923295"><ele>367.0</ele><time>2026-05-02T13:16:40.972Z</time></trkpt><trkpt lat="45.6325393" lon="8.2923737"><ele>367.0</ele><time>2026-05-02T13:16:42.97Z</time></trkpt><trkpt lat="45.6326196" lon="8.2924402"><ele>367.0</ele><time>2026-05-02T13:16:44.973Z</time></trkpt><trkpt lat="45.6326842" lon="8.2925311"><ele>367.0</ele><time>2026-05-02T13:16:46.965Z</time></trkpt><trkpt lat="45.6327559" lon="8.2926376"><ele>367.0</ele><time>2026-05-02T13:16:48.973Z</time></trkpt><trkpt lat="45.6328312" lon="8.2927352"><ele>367.0</ele><time>2026-05-02T13:16:50.972Z</time></trkpt><trkpt lat="45.6329159" lon="8.2928045"><ele>368.3333333333333</ele><time>2026-05-02T13:16:52.978Z</time></trkpt><trkpt lat="45.6330027" lon="8.2928322"><ele>369.66666666666663</ele><time>2026-05-02T13:16:54.968Z</time></trkpt><trkpt lat="45.6330902" lon="8.2928591"><ele>371.0</ele><time>2026-05-02T13:16:56.979Z</time></trkpt><trkpt lat="45.633173" lon="8.2929208"><ele>372.3333333333333</ele><time>2026-05-02T13:16:58.978Z</time></trkpt><trkpt lat="45.6332473" lon="8.2929725"><ele>373.6666666666667</ele><time>2026-05-02T13:17:00.96Z</time></trkpt><trkpt lat="45.6333305" lon="8.2929753"><ele>375.0</ele><time>2026-05-02T13:17:02.969Z</time></trkpt><trkpt lat="45.6334178" lon="8.2929419"><ele>375.0</ele><time>2026-05-02T13:17:04.97Z</time></trkpt><trkpt lat="45.6334969" lon="8.2929146"><ele>375.0</ele><time>2026-05-02T13:17:06.974Z</time></trkpt><trkpt lat="45.6335705" lon="8.2929653"><ele>375.0</ele><time>2026-05-02T13:17:08.963Z</time></trkpt><trkpt lat="45.6336393" lon="8.2930107"><ele>375.0</ele><time>2026-05-02T13:17:10.971Z</time></trkpt><trkpt lat="45.6337133" lon="8.2930638"><ele>375.0</ele><time>2026-05-02T13:17:12.977Z</time></trkpt><trkpt lat="45.6337768" lon="8.2931302"><ele>375.0</ele><time>2026-05-02T13:17:14.972Z</time></trkpt><trkpt lat="45.633846" lon="8.2931853"><ele>376.0</ele><time>2026-05-02T13:17:16.97Z</time></trkpt><trkpt lat="45.6339102" lon="8.2932412"><ele>377.0</ele><time>2026-05-02T13:17:18.966Z</time></trkpt><trkpt lat="45.6339729" lon="8.2933123"><ele>378.0</ele><time>2026-05-02T13:17:20.968Z</time></trkpt><trkpt lat="45.6340203" lon="8.2934072"><ele>379.0</ele><time>2026-05-02T13:17:22.971Z</time></trkpt><trkpt lat="45.6340575" lon="8.2935057"><ele>380.0</ele><time>2026-05-02T13:17:24.976Z</time></trkpt><trkpt lat="45.6340939" lon="8.2935903"><ele>381.0</ele><time>2026-05-02T13:17:26.965Z</time></trkpt><trkpt lat="45.6341333" lon="8.2936817"><ele>381.0</ele><time>2026-05-02T13:17:38.984Z</time></trkpt><trkpt lat="45.6341419" lon="8.2937925"><ele>381.0</ele><time>2026-05-02T13:17:40.977Z</time></trkpt><trkpt lat="45.6341328" lon="8.2939087"><ele>381.0</ele><time>2026-05-02T13:17:42.979Z</time></trkpt><trkpt lat="45.6341287" lon="8.2940303"><ele>381.0</ele><time>2026-05-02T13:17:44.984Z</time></trkpt><trkpt lat="45.6341578" lon="8.2941248"><ele>381.0</ele><time>2026-05-02T13:17:46.972Z</time></trkpt><trkpt lat="45.6342176" lon="8.2942052"><ele>381.0</ele><time>2026-05-02T13:17:48.977Z</time></trkpt><trkpt lat="45.6342847" lon="8.2942568"><ele>383.20000000000005</ele><time>2026-05-02T13:17:50.979Z</time></trkpt><trkpt lat="45.6343654" lon="8.2942688"><ele>385.40000000000003</ele><time>2026-05-02T13:17:52.98Z</time></trkpt><trkpt lat="45.6344499" lon="8.2942859"><ele>387.6</ele><time>2026-05-02T13:17:54.974Z</time></trkpt><trkpt lat="45.6345456" lon="8.2943155"><ele>389.8</ele><time>2026-05-02T13:17:56.976Z</time></trkpt><trkpt lat="45.6346462" lon="8.2943396"><ele>392.0</ele><time>2026-05-02T13:17:58.969Z</time></trkpt><trkpt lat="45.6347562" lon="8.2943722"><ele>391.99999999999994</ele><time>2026-05-02T13:18:00.976Z</time></trkpt><trkpt lat="45.6348532" lon="8.2944059"><ele>392.0</ele><time>2026-05-02T13:18:02.981Z</time></trkpt><trkpt lat="45.6349381" lon="8.2944198"><ele>392.0</ele><time>2026-05-02T13:18:04.981Z</time></trkpt><trkpt lat="45.6350206" lon="8.2944282"><ele>392.0</ele><time>2026-05-02T13:18:06.972Z</time></trkpt><trkpt lat="45.6351065" lon="8.2944429"><ele>391.99999999999994</ele><time>2026-05-02T13:18:08.974Z</time></trkpt><trkpt lat="45.635187" lon="8.2944627"><ele>392.0</ele><time>2026-05-02T13:18:10.984Z</time></trkpt><trkpt lat="45.6352524" lon="8.2944838"><ele>393.99999999999994</ele><time>2026-05-02T13:18:12.981Z</time></trkpt><trkpt lat="45.6353148" lon="8.2945156"><ele>396.0</ele><time>2026-05-02T13:18:14.977Z</time></trkpt><trkpt lat="45.6353781" lon="8.2945601"><ele>398.0</ele><time>2026-05-02T13:18:16.975Z</time></trkpt><trkpt lat="45.6354325" lon="8.2946345"><ele>400.0</ele><time>2026-05-02T13:18:18.983Z</time></trkpt><trkpt lat="45.635474" lon="8.294711"><ele>401.99999999999994</ele><time>2026-05-02T13:18:20.972Z</time></trkpt><trkpt lat="45.6355045" lon="8.2948235"><ele>404.0</ele><time>2026-05-02T13:18:23.98Z</time></trkpt><trkpt lat="45.6355327" lon="8.2949597"><ele>405.49999999999994</ele><time>2026-05-02T13:18:26.979Z</time></trkpt><trkpt lat="45.6355665" lon="8.2950545"><ele>407.0</ele><time>2026-05-02T13:18:28.978Z</time></trkpt><trkpt lat="45.6356108" lon="8.2951357"><ele>408.5</ele><time>2026-05-02T13:18:30.977Z</time></trkpt><trkpt lat="45.6356567" lon="8.2952329"><ele>410.0</ele><time>2026-05-02T13:18:32.977Z</time></trkpt><trkpt lat="45.6356952" lon="8.2953488"><ele>411.49999999999994</ele><time>2026-05-02T13:18:34.976Z</time></trkpt><trkpt lat="45.6357399" lon="8.295497"><ele>413.0</ele><time>2026-05-02T13:18:36.974Z</time></trkpt><trkpt lat="45.6358039" lon="8.2956239"><ele>412.99999999999994</ele><time>2026-05-02T13:18:38.98Z</time></trkpt><trkpt lat="45.635888" lon="8.2956547"><ele>413.0</ele><time>2026-05-02T13:18:40.973Z</time></trkpt><trkpt lat="45.6359589" lon="8.295639"><ele>413.0</ele><time>2026-05-02T13:18:41.982Z</time></trkpt><trkpt lat="45.6360364" lon="8.2956271"><ele>413.0</ele><time>2026-05-02T13:18:42.982Z</time></trkpt><trkpt lat="45.6361046" lon="8.2956323"><ele>412.99999999999994</ele><time>2026-05-02T13:18:43.975Z</time></trkpt><trkpt lat="45.6361911" lon="8.2956955"><ele>413.0</ele><time>2026-05-02T13:18:45.974Z</time></trkpt><trkpt lat="45.6362465" lon="8.295777"><ele>413.49999999999994</ele><time>2026-05-02T13:18:47.967Z</time></trkpt><trkpt lat="45.6362938" lon="8.2958629"><ele>414.0</ele><time>2026-05-02T13:18:49.966Z</time></trkpt><trkpt lat="45.6363245" lon="8.2959619"><ele>414.5</ele><time>2026-05-02T13:18:51.969Z</time></trkpt><trkpt lat="45.6363459" lon="8.2960528"><ele>415.0</ele><time>2026-05-02T13:18:53.967Z</time></trkpt><trkpt lat="45.6363626" lon="8.2961666"><ele>415.49999999999994</ele><time>2026-05-02T13:18:55.973Z</time></trkpt><trkpt lat="45.6364002" lon="8.2962639"><ele>416.0</ele><time>2026-05-02T13:18:57.977Z</time></trkpt><trkpt lat="45.6364457" lon="8.2963584"><ele>416.3333333333333</ele><time>2026-05-02T13:19:00.967Z</time></trkpt><trkpt lat="45.6364538" lon="8.2964866"><ele>416.66666666666663</ele><time>2026-05-02T13:19:04.97Z</time></trkpt><trkpt lat="45.6364767" lon="8.2965936"><ele>417.0</ele><time>2026-05-02T13:19:06.97Z</time></trkpt><trkpt lat="45.6365032" lon="8.2967009"><ele>417.33333333333337</ele><time>2026-05-02T13:19:08.977Z</time></trkpt><trkpt lat="45.6365522" lon="8.2967965"><ele>417.6666666666667</ele><time>2026-05-02T13:19:10.966Z</time></trkpt><trkpt lat="45.6365959" lon="8.2968883"><ele>418.0</ele><time>2026-05-02T13:19:12.969Z</time></trkpt><trkpt lat="45.6366386" lon="8.2969812"><ele>418.00000000000006</ele><time>2026-05-02T13:19:14.976Z</time></trkpt><trkpt lat="45.6366716" lon="8.2970784"><ele>418.0</ele><time>2026-05-02T13:19:16.983Z</time></trkpt><trkpt lat="45.6367164" lon="8.2971747"><ele>418.0</ele><time>2026-05-02T13:19:18.972Z</time></trkpt><trkpt lat="45.6367666" lon="8.2972732"><ele>418.0</ele><time>2026-05-02T13:19:20.985Z</time></trkpt><trkpt lat="45.6368185" lon="8.2973686"><ele>418.00000000000006</ele><time>2026-05-02T13:19:22.976Z</time></trkpt><trkpt lat="45.636862" lon="8.2974599"><ele>418.0</ele><time>2026-05-02T13:19:24.974Z</time></trkpt><trkpt lat="45.6369035" lon="8.2975547"><ele>417.6666666666667</ele><time>2026-05-02T13:19:26.97Z</time></trkpt><trkpt lat="45.6369529" lon="8.2976501"><ele>417.33333333333337</ele><time>2026-05-02T13:19:28.973Z</time></trkpt><trkpt lat="45.6370048" lon="8.2977522"><ele>417.0</ele><time>2026-05-02T13:19:30.963Z</time></trkpt><trkpt lat="45.6370484" lon="8.2978625"><ele>416.66666666666663</ele><time>2026-05-02T13:19:32.974Z</time></trkpt><trkpt lat="45.6370904" lon="8.2979726"><ele>416.3333333333333</ele><time>2026-05-02T13:19:34.978Z</time></trkpt><trkpt lat="45.6371332" lon="8.2980786"><ele>416.0</ele><time>2026-05-02T13:19:36.983Z</time></trkpt><trkpt lat="45.6371753" lon="8.2981765"><ele>418.3333333333333</ele><time>2026-05-02T13:19:38.975Z</time></trkpt><trkpt lat="45.6372249" lon="8.2982757"><ele>420.66666666666663</ele><time>2026-05-02T13:19:40.982Z</time></trkpt><trkpt lat="45.6372719" lon="8.2983611"><ele>423.0</ele><time>2026-05-02T13:19:42.979Z</time></trkpt><trkpt lat="45.6373197" lon="8.2984509"><ele>425.33333333333337</ele><time>2026-05-02T13:19:44.982Z</time></trkpt><trkpt lat="45.6373713" lon="8.2985427"><ele>427.6666666666667</ele><time>2026-05-02T13:19:46.985Z</time></trkpt><trkpt lat="45.6374215" lon="8.2986343"><ele>430.0</ele><time>2026-05-02T13:19:48.972Z</time></trkpt><trkpt lat="45.6374701" lon="8.2987234"><ele>430.00000000000006</ele><time>2026-05-02T13:19:50.97Z</time></trkpt><trkpt lat="45.6375153" lon="8.2987927"><ele>430.0</ele><time>2026-05-02T13:19:52.994Z</time></trkpt><trkpt lat="45.6375921" lon="8.2988554"><ele>430.0</ele><time>2026-05-02T13:19:55.97Z</time></trkpt><trkpt lat="45.6376812" lon="8.2988795"><ele>430.0</ele><time>2026-05-02T13:19:58.975Z</time></trkpt><trkpt lat="45.637746" lon="8.2989096"><ele>430.00000000000006</ele><time>2026-05-02T13:20:01.983Z</time></trkpt><trkpt lat="45.6378131" lon="8.2988505"><ele>430.0</ele><time>2026-05-02T13:20:20.976Z</time></trkpt><trkpt lat="45.6378877" lon="8.2987795"><ele>431.7142857142857</ele><time>2026-05-02T13:20:23.979Z</time></trkpt><trkpt lat="45.6379518" lon="8.2987396"><ele>433.42857142857144</ele><time>2026-05-02T13:20:25.979Z</time></trkpt><trkpt lat="45.6380149" lon="8.2987193"><ele>435.14285714285717</ele><time>2026-05-02T13:20:27.982Z</time></trkpt><trkpt lat="45.6380912" lon="8.298713"><ele>436.8571428571429</ele><time>2026-05-02T13:20:30.978Z</time></trkpt><trkpt lat="45.6381636" lon="8.298694"><ele>438.57142857142856</ele><time>2026-05-02T13:21:07.989Z</time></trkpt><trkpt lat="45.6382468" lon="8.2987202"><ele>440.28571428571433</ele><time>2026-05-02T13:21:10.976Z</time></trkpt><trkpt lat="45.6383098" lon="8.2987537"><ele>442.0</ele><time>2026-05-02T13:21:12.976Z</time></trkpt><trkpt lat="45.638389" lon="8.298786"><ele>442.00000000000006</ele><time>2026-05-02T13:21:15.979Z</time></trkpt><trkpt lat="45.6384859" lon="8.2988113"><ele>442.0</ele><time>2026-05-02T13:21:18.974Z</time></trkpt><trkpt lat="45.6385534" lon="8.2988127"><ele>442.0</ele><time>2026-05-02T13:21:20.979Z</time></trkpt><trkpt lat="45.6386172" lon="8.2988211"><ele>442.0</ele><time>2026-05-02T13:21:22.967Z</time></trkpt><trkpt lat="45.6386794" lon="8.2988494"><ele>442.0</ele><time>2026-05-02T13:21:24.965Z</time></trkpt><trkpt lat="45.6387361" lon="8.2988903"><ele>442.00000000000006</ele><time>2026-05-02T13:21:26.972Z</time></trkpt><trkpt lat="45.638799" lon="8.2988999"><ele>442.0</ele><time>2026-05-02T13:21:28.971Z</time></trkpt><trkpt lat="45.6388725" lon="8.2988757"><ele>441.6</ele><time>2026-05-02T13:21:30.969Z</time></trkpt><trkpt lat="45.6389555" lon="8.2988533"><ele>441.20000000000005</ele><time>2026-05-02T13:21:32.976Z</time></trkpt><trkpt lat="45.639059" lon="8.2988852"><ele>440.8</ele><time>2026-05-02T13:21:34.967Z</time></trkpt><trkpt lat="45.6391618" lon="8.2989329"><ele>440.4</ele><time>2026-05-02T13:21:36.967Z</time></trkpt><trkpt lat="45.639265" lon="8.2989334"><ele>440.0</ele><time>2026-05-02T13:21:38.982Z</time></trkpt><trkpt lat="45.6393679" lon="8.2989288"><ele>441.16666666666663</ele><time>2026-05-02T13:21:40.981Z</time></trkpt><trkpt lat="45.6394744" lon="8.2989597"><ele>442.3333333333333</ele><time>2026-05-02T13:21:42.977Z</time></trkpt><trkpt lat="45.6395673" lon="8.2989906"><ele>443.5</ele><time>2026-05-02T13:21:44.986Z</time></trkpt><trkpt lat="45.6396386" lon="8.2990103"><ele>444.66666666666663</ele><time>2026-05-02T13:21:46.961Z</time></trkpt><trkpt lat="45.6397119" lon="8.2990321"><ele>445.8333333333333</ele><time>2026-05-02T13:21:48.966Z</time></trkpt><trkpt lat="45.6397784" lon="8.2990549"><ele>447.0</ele><time>2026-05-02T13:21:50.963Z</time></trkpt><trkpt lat="45.6398612" lon="8.2991008"><ele>447.0</ele><time>2026-05-02T13:21:52.968Z</time></trkpt><trkpt lat="45.6399475" lon="8.29916"><ele>447.00000000000006</ele><time>2026-05-02T13:21:54.963Z</time></trkpt><trkpt lat="45.6400332" lon="8.299224"><ele>447.00000000000006</ele><time>2026-05-02T13:21:56.972Z</time></trkpt><trkpt lat="45.6401147" lon="8.2992642"><ele>447.0</ele><time>2026-05-02T13:21:58.969Z</time></trkpt><trkpt lat="45.6402057" lon="8.2992695"><ele>447.0</ele><time>2026-05-02T13:22:00.964Z</time></trkpt><trkpt lat="45.6402982" lon="8.2992449"><ele>447.57142857142856</ele><time>2026-05-02T13:22:02.976Z</time></trkpt><trkpt lat="45.6403768" lon="8.2991938"><ele>448.1428571428571</ele><time>2026-05-02T13:22:04.976Z</time></trkpt><trkpt lat="45.6404385" lon="8.2991306"><ele>448.71428571428567</ele><time>2026-05-02T13:22:06.984Z</time></trkpt><trkpt lat="45.6404844" lon="8.2990585"><ele>449.2857142857143</ele><time>2026-05-02T13:22:08.98Z</time></trkpt><trkpt lat="45.6405348" lon="8.2989815"><ele>449.8571428571429</ele><time>2026-05-02T13:22:10.984Z</time></trkpt><trkpt lat="45.6405831" lon="8.298909"><ele>450.4285714285714</ele><time>2026-05-02T13:22:12.974Z</time></trkpt><trkpt lat="45.6406214" lon="8.2988252"><ele>451.0</ele><time>2026-05-02T13:22:14.979Z</time></trkpt><trkpt lat="45.6406768" lon="8.2987181"><ele>452.83333333333337</ele><time>2026-05-02T13:22:17.97Z</time></trkpt><trkpt lat="45.6407287" lon="8.2986062"><ele>454.6666666666667</ele><time>2026-05-02T13:22:20.977Z</time></trkpt><trkpt lat="45.6407731" lon="8.2985217"><ele>456.5</ele><time>2026-05-02T13:22:22.977Z</time></trkpt><trkpt lat="45.6408199" lon="8.2984396"><ele>458.33333333333337</ele><time>2026-05-02T13:22:24.986Z</time></trkpt><trkpt lat="45.640875" lon="8.2983652"><ele>460.1666666666667</ele><time>2026-05-02T13:22:26.983Z</time></trkpt><trkpt lat="45.6409141" lon="8.2982751"><ele>462.0</ele><time>2026-05-02T13:22:28.982Z</time></trkpt><trkpt lat="45.6409383" lon="8.2981778"><ele>462.1666666666667</ele><time>2026-05-02T13:22:30.976Z</time></trkpt><trkpt lat="45.6409614" lon="8.2980849"><ele>462.33333333333337</ele><time>2026-05-02T13:22:32.976Z</time></trkpt><trkpt lat="45.6409903" lon="8.2979953"><ele>462.5</ele><time>2026-05-02T13:22:34.975Z</time></trkpt><trkpt lat="45.6409985" lon="8.297904"><ele>462.6666666666667</ele><time>2026-05-02T13:22:36.974Z</time></trkpt><trkpt lat="45.6410222" lon="8.2977802"><ele>462.83333333333337</ele><time>2026-05-02T13:22:39.977Z</time></trkpt><trkpt lat="45.6410596" lon="8.2976609"><ele>463.0</ele><time>2026-05-02T13:22:42.977Z</time></trkpt><trkpt lat="45.6411105" lon="8.2975837"><ele>467.0</ele><time>2026-05-02T13:22:45.97Z</time></trkpt><trkpt lat="45.6411666" lon="8.2975208"><ele>470.99999999999994</ele><time>2026-05-02T13:22:48.984Z</time></trkpt><trkpt lat="45.6412208" lon="8.2974181"><ele>475.0</ele><time>2026-05-02T13:22:51.983Z</time></trkpt><trkpt lat="45.6412544" lon="8.2973373"><ele>479.0</ele><time>2026-05-02T13:22:53.972Z</time></trkpt><trkpt lat="45.6412916" lon="8.2972552"><ele>482.99999999999994</ele><time>2026-05-02T13:22:55.978Z</time></trkpt><trkpt lat="45.6413186" lon="8.2971675"><ele>487.0</ele><time>2026-05-02T13:22:57.981Z</time></trkpt><trkpt lat="45.6413371" lon="8.2970476"><ele>491.0</ele><time>2026-05-02T13:23:00.986Z</time></trkpt><trkpt lat="45.6413421" lon="8.2969077"><ele>491.0</ele><time>2026-05-02T13:23:03.986Z</time></trkpt><trkpt lat="45.6413281" lon="8.296819"><ele>490.99999999999994</ele><time>2026-05-02T13:23:05.974Z</time></trkpt><trkpt lat="45.6413151" lon="8.2966925"><ele>491.0</ele><time>2026-05-02T13:23:08.972Z</time></trkpt><trkpt lat="45.6413171" lon="8.2965611"><ele>491.0</ele><time>2026-05-02T13:23:11.981Z</time></trkpt><trkpt lat="45.6413039" lon="8.2964716"><ele>490.99999999999994</ele><time>2026-05-02T13:23:13.985Z</time></trkpt><trkpt lat="45.641293" lon="8.2963809"><ele>491.0</ele><time>2026-05-02T13:23:15.98Z</time></trkpt><trkpt lat="45.6412898" lon="8.2962851"><ele>491.0</ele><time>2026-05-02T13:23:17.976Z</time></trkpt><trkpt lat="45.6413035" lon="8.2961766"><ele>490.99999999999994</ele><time>2026-05-02T13:23:49.968Z</time></trkpt><trkpt lat="45.6413848" lon="8.2961258"><ele>491.0</ele><time>2026-05-02T13:23:52.97Z</time></trkpt><trkpt lat="45.6414553" lon="8.2961453"><ele>491.0</ele><time>2026-05-02T13:23:54.975Z</time></trkpt><trkpt lat="45.6415135" lon="8.2962159"><ele>491.0</ele><time>2026-05-02T13:23:56.986Z</time></trkpt><trkpt lat="45.6415514" lon="8.2963199"><ele>490.99999999999994</ele><time>2026-05-02T13:23:59.974Z</time></trkpt><trkpt lat="45.6415712" lon="8.2964347"><ele>491.0</ele><time>2026-05-02T13:24:11.977Z</time></trkpt><trkpt lat="45.6415915" lon="8.296551"><ele>491.0</ele><time>2026-05-02T13:24:13.984Z</time></trkpt><trkpt lat="45.6416132" lon="8.2966825"><ele>491.0</ele><time>2026-05-02T13:24:15.982Z</time></trkpt><trkpt lat="45.6416381" lon="8.2968186"><ele>491.0</ele><time>2026-05-02T13:24:17.972Z</time></trkpt><trkpt lat="45.6416776" lon="8.2969437"><ele>491.0</ele><time>2026-05-02T13:24:19.977Z</time></trkpt><trkpt lat="45.6417311" lon="8.297057"><ele>491.0</ele><time>2026-05-02T13:24:21.971Z</time></trkpt><trkpt lat="45.6418171" lon="8.2971576"><ele>490.99999999999994</ele><time>2026-05-02T13:24:23.979Z</time></trkpt><trkpt lat="45.6418725" lon="8.2972279"><ele>491.0</ele><time>2026-05-02T13:24:24.976Z</time></trkpt><trkpt lat="45.6419268" lon="8.2973048"><ele>491.0</ele><time>2026-05-02T13:24:25.979Z</time></trkpt><trkpt lat="45.6419743" lon="8.2973656"><ele>491.0</ele><time>2026-05-02T13:24:26.973Z</time></trkpt><trkpt lat="45.6420169" lon="8.2974685"><ele>490.99999999999994</ele><time>2026-05-02T13:24:28.971Z</time></trkpt><trkpt lat="45.6420367" lon="8.2975797"><ele>491.0</ele><time>2026-05-02T13:24:31.966Z</time></trkpt><trkpt lat="45.6420753" lon="8.2977024"><ele>490.6</ele><time>2026-05-02T13:24:34.971Z</time></trkpt><trkpt lat="45.6421034" lon="8.2978056"><ele>490.20000000000005</ele><time>2026-05-02T13:24:36.983Z</time></trkpt><trkpt lat="45.6421502" lon="8.2979186"><ele>489.79999999999995</ele><time>2026-05-02T13:24:38.976Z</time></trkpt><trkpt lat="45.6422048" lon="8.2980542"><ele>489.4</ele><time>2026-05-02T13:24:40.972Z</time></trkpt><trkpt lat="45.6422465" lon="8.2981889"><ele>489.0</ele><time>2026-05-02T13:24:42.981Z</time></trkpt><trkpt lat="45.6422735" lon="8.2983194"><ele>491.4</ele><time>2026-05-02T13:24:44.974Z</time></trkpt><trkpt lat="45.6423203" lon="8.2984369"><ele>493.79999999999995</ele><time>2026-05-02T13:24:46.971Z</time></trkpt><trkpt lat="45.6423855" lon="8.2985402"><ele>496.20000000000005</ele><time>2026-05-02T13:24:48.978Z</time></trkpt><trkpt lat="45.6424614" lon="8.2986237"><ele>498.6</ele><time>2026-05-02T13:24:50.979Z</time></trkpt><trkpt lat="45.6425793" lon="8.298706"><ele>501.0</ele><time>2026-05-02T13:24:52.978Z</time></trkpt><trkpt lat="45.6426567" lon="8.2987361"><ele>501.0</ele><time>2026-05-02T13:24:53.974Z</time></trkpt><trkpt lat="45.6427536" lon="8.2987462"><ele>501.0</ele><time>2026-05-02T13:24:54.979Z</time></trkpt><trkpt lat="45.6428671" lon="8.2987407"><ele>501.0</ele><time>2026-05-02T13:24:55.98Z</time></trkpt><trkpt lat="45.6429688" lon="8.2987313"><ele>501.0</ele><time>2026-05-02T13:24:56.983Z</time></trkpt><trkpt lat="45.643054" lon="8.2987268"><ele>501.0</ele><time>2026-05-02T13:24:57.977Z</time></trkpt><trkpt lat="45.6431236" lon="8.2987264"><ele>499.20000000000005</ele><time>2026-05-02T13:24:58.971Z</time></trkpt><trkpt lat="45.6432311" lon="8.2987518"><ele>497.40000000000003</ele><time>2026-05-02T13:25:00.976Z</time></trkpt><trkpt lat="45.6433334" lon="8.2987884"><ele>495.6</ele><time>2026-05-02T13:25:02.977Z</time></trkpt><trkpt lat="45.6434286" lon="8.2988133"><ele>493.8</ele><time>2026-05-02T13:25:04.971Z</time></trkpt><trkpt lat="45.6435212" lon="8.2988195"><ele>492.0</ele><time>2026-05-02T13:25:06.971Z</time></trkpt><trkpt lat="45.6436122" lon="8.2988257"><ele>492.6</ele><time>2026-05-02T13:25:08.977Z</time></trkpt><trkpt lat="45.643703" lon="8.2988181"><ele>493.20000000000005</ele><time>2026-05-02T13:25:10.974Z</time></trkpt><trkpt lat="45.6438027" lon="8.2988051"><ele>493.8</ele><time>2026-05-02T13:25:12.983Z</time></trkpt><trkpt lat="45.6439055" lon="8.2987863"><ele>494.4</ele><time>2026-05-02T13:25:14.982Z</time></trkpt><trkpt lat="45.6439958" lon="8.2987734"><ele>495.0</ele><time>2026-05-02T13:25:16.98Z</time></trkpt><trkpt lat="45.6440665" lon="8.2987665"><ele>495.0</ele><time>2026-05-02T13:25:18.971Z</time></trkpt><trkpt lat="45.6441331" lon="8.2987566"><ele>495.0</ele><time>2026-05-02T13:25:20.985Z</time></trkpt><trkpt lat="45.644199" lon="8.2987547"><ele>495.0</ele><time>2026-05-02T13:25:23.972Z</time></trkpt><trkpt lat="45.6442809" lon="8.2987835"><ele>495.0</ele><time>2026-05-02T13:26:00.983Z</time></trkpt><trkpt lat="45.6441952" lon="8.2987616"><ele>495.0</ele><time>2026-05-02T13:26:06.97Z</time></trkpt><trkpt lat="45.6441089" lon="8.2987335"><ele>495.0</ele><time>2026-05-02T13:32:07.981Z</time></trkpt><trkpt lat="45.6440329" lon="8.2987469"><ele>495.0</ele><time>2026-05-02T13:32:08.973Z</time></trkpt><trkpt lat="45.6439485" lon="8.2987577"><ele>495.0</ele><time>2026-05-02T13:32:09.975Z</time></trkpt><trkpt lat="45.6438581" lon="8.2987725"><ele>495.0</ele><time>2026-05-02T13:32:10.967Z</time></trkpt><trkpt lat="45.6437596" lon="8.2987908"><ele>495.0</ele><time>2026-05-02T13:32:11.972Z</time></trkpt><trkpt lat="45.6436511" lon="8.2988025"><ele>495.0</ele><time>2026-05-02T13:32:12.976Z</time></trkpt><trkpt lat="45.6435294" lon="8.2988004"><ele>494.25</ele><time>2026-05-02T13:32:13.978Z</time></trkpt><trkpt lat="45.6433978" lon="8.2987906"><ele>493.5</ele><time>2026-05-02T13:32:14.971Z</time></trkpt><trkpt lat="45.6432617" lon="8.2987676"><ele>492.75</ele><time>2026-05-02T13:32:15.982Z</time></trkpt><trkpt lat="45.6431351" lon="8.2987381"><ele>492.0</ele><time>2026-05-02T13:32:16.977Z</time></trkpt><trkpt lat="45.6430267" lon="8.2987168"><ele>492.0</ele><time>2026-05-02T13:32:17.969Z</time></trkpt><trkpt lat="45.6429247" lon="8.2987141"><ele>492.00000000000006</ele><time>2026-05-02T13:32:18.972Z</time></trkpt><trkpt lat="45.64282" lon="8.2987148"><ele>492.00000000000006</ele><time>2026-05-02T13:32:19.97Z</time></trkpt><trkpt lat="45.6427169" lon="8.2987126"><ele>492.0</ele><time>2026-05-02T13:32:20.979Z</time></trkpt><trkpt lat="45.6426195" lon="8.2987012"><ele>492.0</ele><time>2026-05-02T13:32:21.98Z</time></trkpt><trkpt lat="45.6425318" lon="8.2986715"><ele>493.28571428571433</ele><time>2026-05-02T13:32:22.978Z</time></trkpt><trkpt lat="45.6424616" lon="8.2986209"><ele>494.57142857142856</ele><time>2026-05-02T13:32:23.968Z</time></trkpt><trkpt lat="45.6424032" lon="8.2985589"><ele>495.8571428571429</ele><time>2026-05-02T13:32:24.967Z</time></trkpt><trkpt lat="45.6423505" lon="8.2984909"><ele>497.14285714285717</ele><time>2026-05-02T13:32:25.964Z</time></trkpt><trkpt lat="45.6423037" lon="8.2984157"><ele>498.42857142857144</ele><time>2026-05-02T13:32:26.975Z</time></trkpt><trkpt lat="45.6422653" lon="8.2983325"><ele>499.7142857142857</ele><time>2026-05-02T13:32:27.977Z</time></trkpt><trkpt lat="45.6422338" lon="8.2982387"><ele>501.0</ele><time>2026-05-02T13:32:28.976Z</time></trkpt><trkpt lat="45.6422043" lon="8.2981389"><ele>501.0</ele><time>2026-05-02T13:32:29.979Z</time></trkpt><trkpt lat="45.6421826" lon="8.2980461"><ele>501.0</ele><time>2026-05-02T13:32:30.976Z</time></trkpt><trkpt lat="45.6421534" lon="8.2979249"><ele>501.0</ele><time>2026-05-02T13:32:32.976Z</time></trkpt><trkpt lat="45.6421722" lon="8.2980284"><ele>501.0</ele><time>2026-05-02T13:32:37.974Z</time></trkpt><trkpt lat="45.6421983" lon="8.2981109"><ele>501.0</ele><time>2026-05-02T13:32:38.972Z</time></trkpt><trkpt lat="45.6422315" lon="8.2982194"><ele>501.0</ele><time>2026-05-02T13:32:39.975Z</time></trkpt><trkpt lat="45.6422774" lon="8.2983371"><ele>501.0</ele><time>2026-05-02T13:32:40.965Z</time></trkpt><trkpt lat="45.6423438" lon="8.298456"><ele>501.0</ele><time>2026-05-02T13:32:41.977Z</time></trkpt><trkpt lat="45.6424284" lon="8.298563"><ele>501.0</ele><time>2026-05-02T13:32:42.98Z</time></trkpt><trkpt lat="45.6425315" lon="8.2986455"><ele>501.0</ele><time>2026-05-02T13:32:43.966Z</time></trkpt><trkpt lat="45.6426511" lon="8.2986909"><ele>501.0</ele><time>2026-05-02T13:32:44.976Z</time></trkpt><trkpt lat="45.642776" lon="8.2987095"><ele>501.0</ele><time>2026-05-02T13:32:45.98Z</time></trkpt><trkpt lat="45.6429038" lon="8.2987081"><ele>501.0</ele><time>2026-05-02T13:32:46.974Z</time></trkpt><trkpt lat="45.6430411" lon="8.2987025"><ele>501.0</ele><time>2026-05-02T13:32:47.978Z</time></trkpt><trkpt lat="45.6431815" lon="8.2987173"><ele>499.0</ele><time>2026-05-02T13:32:48.982Z</time></trkpt><trkpt lat="45.6433259" lon="8.2987571"><ele>497.0</ele><time>2026-05-02T13:32:49.979Z</time></trkpt><trkpt lat="45.6434835" lon="8.2988012"><ele>495.0</ele><time>2026-05-02T13:32:50.975Z</time></trkpt><trkpt lat="45.6436608" lon="8.2988278"><ele>495.0</ele><time>2026-05-02T13:32:51.981Z</time></trkpt><trkpt lat="45.6438507" lon="8.2988297"><ele>495.0</ele><time>2026-05-02T13:32:52.985Z</time></trkpt><trkpt lat="45.6440437" lon="8.2988179"><ele>495.0</ele><time>2026-05-02T13:32:53.974Z</time></trkpt><trkpt lat="45.6442373" lon="8.2988091"><ele>495.0</ele><time>2026-05-02T13:32:54.974Z</time></trkpt><trkpt lat="45.6444316" lon="8.298819"><ele>495.0</ele><time>2026-05-02T13:32:55.971Z</time></trkpt><trkpt lat="45.6446117" lon="8.2988375"><ele>495.0</ele><time>2026-05-02T13:32:56.976Z</time></trkpt><trkpt lat="45.6447691" lon="8.2988606"><ele>496.4</ele><time>2026-05-02T13:32:57.976Z</time></trkpt><trkpt lat="45.6448928" lon="8.2989004"><ele>497.8</ele><time>2026-05-02T13:32:58.972Z</time></trkpt><trkpt lat="45.6449856" lon="8.2989585"><ele>499.20000000000005</ele><time>2026-05-02T13:32:59.984Z</time></trkpt><trkpt lat="45.6450471" lon="8.2990178"><ele>500.6</ele><time>2026-05-02T13:33:00.961Z</time></trkpt><trkpt lat="45.6451296" lon="8.2991249"><ele>502.0</ele><time>2026-05-02T13:33:02.978Z</time></trkpt><trkpt lat="45.6452038" lon="8.2992327"><ele>502.0</ele><time>2026-05-02T13:33:04.972Z</time></trkpt><trkpt lat="45.6452822" lon="8.2993611"><ele>502.00000000000006</ele><time>2026-05-02T13:33:06.974Z</time></trkpt><trkpt lat="45.6453557" lon="8.2994653"><ele>502.00000000000006</ele><time>2026-05-02T13:33:08.982Z</time></trkpt><trkpt lat="45.6454084" lon="8.2995519"><ele>502.0</ele><time>2026-05-02T13:33:10.967Z</time></trkpt><trkpt lat="45.6454854" lon="8.2996264"><ele>502.0</ele><time>2026-05-02T13:33:12.973Z</time></trkpt><trkpt lat="45.6456006" lon="8.2996899"><ele>500.1666666666667</ele><time>2026-05-02T13:33:14.968Z</time></trkpt><trkpt lat="45.6456678" lon="8.2997222"><ele>498.33333333333337</ele><time>2026-05-02T13:33:15.967Z</time></trkpt><trkpt lat="45.6457315" lon="8.2997564"><ele>496.5</ele><time>2026-05-02T13:33:16.966Z</time></trkpt><trkpt lat="45.6457961" lon="8.2997945"><ele>494.66666666666663</ele><time>2026-05-02T13:33:17.98Z</time></trkpt><trkpt lat="45.6458628" lon="8.2998381"><ele>492.8333333333333</ele><time>2026-05-02T13:33:18.973Z</time></trkpt><trkpt lat="45.6459251" lon="8.2998831"><ele>491.0</ele><time>2026-05-02T13:33:19.983Z</time></trkpt><trkpt lat="45.6460181" lon="8.2999703"><ele>491.0</ele><time>2026-05-02T13:33:21.976Z</time></trkpt><trkpt lat="45.6459106" lon="8.2998958"><ele>491.0</ele><time>2026-05-02T13:33:27.962Z</time></trkpt><trkpt lat="45.645821" lon="8.2998384"><ele>491.0</ele><time>2026-05-02T13:33:28.978Z</time></trkpt><trkpt lat="45.6457156" lon="8.2997751"><ele>491.0</ele><time>2026-05-02T13:33:29.976Z</time></trkpt><trkpt lat="45.6456052" lon="8.2997101"><ele>490.75</ele><time>2026-05-02T13:33:30.976Z</time></trkpt><trkpt lat="45.6454999" lon="8.2996367"><ele>490.5</ele><time>2026-05-02T13:33:31.975Z</time></trkpt><trkpt lat="45.6454042" lon="8.2995474"><ele>490.25</ele><time>2026-05-02T13:33:32.974Z</time></trkpt><trkpt lat="45.6453152" lon="8.299434"><ele>490.0</ele><time>2026-05-02T13:33:33.976Z</time></trkpt><trkpt lat="45.6452252" lon="8.2993109"><ele>493.0</ele><time>2026-05-02T13:33:34.975Z</time></trkpt><trkpt lat="45.6451341" lon="8.2991845"><ele>496.0</ele><time>2026-05-02T13:33:35.971Z</time></trkpt><trkpt lat="45.6450376" lon="8.2990619"><ele>499.0</ele><time>2026-05-02T13:33:36.98Z</time></trkpt><trkpt lat="45.644933" lon="8.2989646"><ele>502.0</ele><time>2026-05-02T13:33:37.977Z</time></trkpt><trkpt lat="45.6448113" lon="8.298888"><ele>499.6666666666667</ele><time>2026-05-02T13:33:38.964Z</time></trkpt><trkpt lat="45.6446709" lon="8.2988382"><ele>497.33333333333337</ele><time>2026-05-02T13:33:39.973Z</time></trkpt><trkpt lat="45.6445182" lon="8.2988114"><ele>495.0</ele><time>2026-05-02T13:33:40.972Z</time></trkpt><trkpt lat="45.6443551" lon="8.2988039"><ele>495.0</ele><time>2026-05-02T13:33:41.979Z</time></trkpt><trkpt lat="45.6441799" lon="8.298793"><ele>495.0</ele><time>2026-05-02T13:33:42.973Z</time></trkpt><trkpt lat="45.6439935" lon="8.2987871"><ele>495.0</ele><time>2026-05-02T13:33:43.981Z</time></trkpt><trkpt lat="45.6437986" lon="8.2988014"><ele>494.0</ele><time>2026-05-02T13:33:44.972Z</time></trkpt><trkpt lat="45.6436009" lon="8.2988158"><ele>493.0</ele><time>2026-05-02T13:33:45.974Z</time></trkpt><trkpt lat="45.6434263" lon="8.2988172"><ele>492.0</ele><time>2026-05-02T13:33:46.967Z</time></trkpt><trkpt lat="45.6432887" lon="8.2987941"><ele>492.0</ele><time>2026-05-02T13:33:47.975Z</time></trkpt><trkpt lat="45.6431819" lon="8.2987656"><ele>492.00000000000006</ele><time>2026-05-02T13:33:48.967Z</time></trkpt><trkpt lat="45.6431054" lon="8.2987457"><ele>492.00000000000006</ele><time>2026-05-02T13:33:49.98Z</time></trkpt><trkpt lat="45.6430416" lon="8.2987347"><ele>492.0</ele><time>2026-05-02T13:33:50.969Z</time></trkpt><trkpt lat="45.6429161" lon="8.29873"><ele>492.0</ele><time>2026-05-02T13:33:52.972Z</time></trkpt><trkpt lat="45.642803" lon="8.298718"><ele>492.00000000000006</ele><time>2026-05-02T13:33:54.97Z</time></trkpt><trkpt lat="45.6427326" lon="8.2986977"><ele>492.0</ele><time>2026-05-02T13:33:56.972Z</time></trkpt><trkpt lat="45.6428212" lon="8.2987381"><ele>492.00000000000006</ele><time>2026-05-02T13:34:00.975Z</time></trkpt><trkpt lat="45.6428859" lon="8.2987355"><ele>492.00000000000006</ele><time>2026-05-02T13:34:01.974Z</time></trkpt><trkpt lat="45.642958" lon="8.2987304"><ele>492.0</ele><time>2026-05-02T13:34:02.979Z</time></trkpt><trkpt lat="45.643032" lon="8.298727"><ele>492.00000000000006</ele><time>2026-05-02T13:34:03.977Z</time></trkpt><trkpt lat="45.6430996" lon="8.2987278"><ele>492.00000000000006</ele><time>2026-05-02T13:34:04.965Z</time></trkpt><trkpt lat="45.6431667" lon="8.2987376"><ele>492.00000000000006</ele><time>2026-05-02T13:34:05.977Z</time></trkpt><trkpt lat="45.6432288" lon="8.2987582"><ele>492.0</ele><time>2026-05-02T13:34:06.975Z</time></trkpt><trkpt lat="45.6432899" lon="8.2987861"><ele>492.00000000000006</ele><time>2026-05-02T13:34:07.978Z</time></trkpt><trkpt lat="45.6433608" lon="8.2988139"><ele>492.00000000000006</ele><time>2026-05-02T13:34:08.972Z</time></trkpt><trkpt lat="45.643443" lon="8.2988409"><ele>492.0</ele><time>2026-05-02T13:34:09.973Z</time></trkpt><trkpt lat="45.6435202" lon="8.2988637"><ele>492.00000000000006</ele><time>2026-05-02T13:34:10.967Z</time></trkpt><trkpt lat="45.6435944" lon="8.2988765"><ele>492.00000000000006</ele><time>2026-05-02T13:34:11.977Z</time></trkpt><trkpt lat="45.6436678" lon="8.2988758"><ele>492.5</ele><time>2026-05-02T13:34:12.966Z</time></trkpt><trkpt lat="45.6437428" lon="8.2988643"><ele>493.0</ele><time>2026-05-02T13:34:13.979Z</time></trkpt><trkpt lat="45.6438222" lon="8.2988463"><ele>493.5</ele><time>2026-05-02T13:34:14.973Z</time></trkpt><trkpt lat="45.6439155" lon="8.2988155"><ele>494.0</ele><time>2026-05-02T13:34:15.976Z</time></trkpt><trkpt lat="45.6440057" lon="8.2987959"><ele>494.5</ele><time>2026-05-02T13:34:16.966Z</time></trkpt><trkpt lat="45.6440812" lon="8.2987856"><ele>495.0</ele><time>2026-05-02T13:34:17.976Z</time></trkpt><trkpt lat="45.6441649" lon="8.2987873"><ele>495.0</ele><time>2026-05-02T13:34:19.973Z</time></trkpt><trkpt lat="45.6442688" lon="8.2987805"><ele>495.0</ele><time>2026-05-02T13:37:09.963Z</time></trkpt><trkpt lat="45.6443949" lon="8.2987997"><ele>495.0</ele><time>2026-05-02T13:37:11.975Z</time></trkpt><trkpt lat="45.6444687" lon="8.2988104"><ele>495.0</ele><time>2026-05-02T13:37:12.969Z</time></trkpt><trkpt lat="45.6445437" lon="8.2988192"><ele>495.0</ele><time>2026-05-02T13:37:13.98Z</time></trkpt><trkpt lat="45.6446227" lon="8.298833"><ele>496.1666666666667</ele><time>2026-05-02T13:37:14.974Z</time></trkpt><trkpt lat="45.6447096" lon="8.2988524"><ele>497.33333333333337</ele><time>2026-05-02T13:37:15.973Z</time></trkpt><trkpt lat="45.6447914" lon="8.2988776"><ele>498.5</ele><time>2026-05-02T13:37:16.97Z</time></trkpt><trkpt lat="45.6448707" lon="8.2989096"><ele>499.6666666666667</ele><time>2026-05-02T13:37:17.982Z</time></trkpt><trkpt lat="45.6449457" lon="8.2989542"><ele>500.83333333333337</ele><time>2026-05-02T13:37:18.966Z</time></trkpt><trkpt lat="45.6450122" lon="8.2990051"><ele>502.0</ele><time>2026-05-02T13:37:19.976Z</time></trkpt><trkpt lat="45.6450972" lon="8.2991106"><ele>502.0</ele><time>2026-05-02T13:37:21.978Z</time></trkpt><trkpt lat="45.6451678" lon="8.2992085"><ele>502.00000000000006</ele><time>2026-05-02T13:37:23.977Z</time></trkpt><trkpt lat="45.645234" lon="8.2993017"><ele>502.00000000000006</ele><time>2026-05-02T13:37:25.979Z</time></trkpt><trkpt lat="45.6453055" lon="8.2994207"><ele>502.0</ele><time>2026-05-02T13:37:27.975Z</time></trkpt><trkpt lat="45.6453561" lon="8.2994948"><ele>502.0</ele><time>2026-05-02T13:37:28.969Z</time></trkpt><trkpt lat="45.6454207" lon="8.2995706"><ele>499.8</ele><time>2026-05-02T13:37:29.982Z</time></trkpt><trkpt lat="45.6455004" lon="8.2996398"><ele>497.6</ele><time>2026-05-02T13:37:30.969Z</time></trkpt><trkpt lat="45.6455935" lon="8.2996982"><ele>495.40000000000003</ele><time>2026-05-02T13:37:31.975Z</time></trkpt><trkpt lat="45.6456871" lon="8.2997524"><ele>493.20000000000005</ele><time>2026-05-02T13:37:32.973Z</time></trkpt><trkpt lat="45.645783" lon="8.2998107"><ele>491.0</ele><time>2026-05-02T13:37:33.981Z</time></trkpt><trkpt lat="45.6458786" lon="8.2998751"><ele>490.99999999999994</ele><time>2026-05-02T13:37:34.97Z</time></trkpt><trkpt lat="45.6459642" lon="8.2999412"><ele>491.0</ele><time>2026-05-02T13:37:35.968Z</time></trkpt><trkpt lat="45.646037" lon="8.3000104"><ele>491.0</ele><time>2026-05-02T13:37:36.967Z</time></trkpt><trkpt lat="45.646106" lon="8.3000864"><ele>491.0</ele><time>2026-05-02T13:37:37.966Z</time></trkpt><trkpt lat="45.6461751" lon="8.3001635"><ele>490.99999999999994</ele><time>2026-05-02T13:37:38.966Z</time></trkpt><trkpt lat="45.6462435" lon="8.3002308"><ele>491.0</ele><time>2026-05-02T13:37:39.973Z</time></trkpt><trkpt lat="45.6463115" lon="8.3002787"><ele>490.3333333333333</ele><time>2026-05-02T13:37:40.958Z</time></trkpt><trkpt lat="45.6463721" lon="8.3003129"><ele>489.66666666666663</ele><time>2026-05-02T13:37:41.978Z</time></trkpt><trkpt lat="45.6464506" lon="8.3003744"><ele>489.0</ele><time>2026-05-02T13:37:43.975Z</time></trkpt><trkpt lat="45.6464964" lon="8.3004421"><ele>488.33333333333337</ele><time>2026-05-02T13:37:45.978Z</time></trkpt><trkpt lat="45.6465597" lon="8.3005329"><ele>487.6666666666667</ele><time>2026-05-02T13:37:48.97Z</time></trkpt><trkpt lat="45.6466168" lon="8.3006065"><ele>487.0</ele><time>2026-05-02T13:37:51.975Z</time></trkpt><trkpt lat="45.6466557" lon="8.3006906"><ele>487.50000000000006</ele><time>2026-05-02T13:37:53.98Z</time></trkpt><trkpt lat="45.6467042" lon="8.3007821"><ele>488.0</ele><time>2026-05-02T13:37:56.971Z</time></trkpt><trkpt lat="45.6467818" lon="8.3008588"><ele>488.5</ele><time>2026-05-02T13:37:59.984Z</time></trkpt><trkpt lat="45.6468366" lon="8.3009114"><ele>489.0</ele><time>2026-05-02T13:38:01.978Z</time></trkpt><trkpt lat="45.6468969" lon="8.3009591"><ele>489.50000000000006</ele><time>2026-05-02T13:38:03.971Z</time></trkpt><trkpt lat="45.6469514" lon="8.3010265"><ele>490.0</ele><time>2026-05-02T13:38:05.872Z</time></trkpt><trkpt lat="45.6470054" lon="8.3011016"><ele>490.0</ele><time>2026-05-02T13:38:07.96Z</time></trkpt><trkpt lat="45.6470822" lon="8.301201"><ele>490.0</ele><time>2026-05-02T13:38:09.969Z</time></trkpt><trkpt lat="45.6471731" lon="8.3012946"><ele>490.0</ele><time>2026-05-02T13:38:11.967Z</time></trkpt><trkpt lat="45.6472581" lon="8.3013834"><ele>490.0</ele><time>2026-05-02T13:38:13.965Z</time></trkpt><trkpt lat="45.6473414" lon="8.3014515"><ele>490.0</ele><time>2026-05-02T13:38:15.988Z</time></trkpt><trkpt lat="45.6474298" lon="8.3015424"><ele>490.1666666666667</ele><time>2026-05-02T13:38:17.973Z</time></trkpt><trkpt lat="45.6475131" lon="8.3016495"><ele>490.33333333333337</ele><time>2026-05-02T13:38:19.976Z</time></trkpt><trkpt lat="45.6475817" lon="8.301752"><ele>490.5</ele><time>2026-05-02T13:38:21.974Z</time></trkpt><trkpt lat="45.6476197" lon="8.3018724"><ele>490.66666666666663</ele><time>2026-05-02T13:38:23.977Z</time></trkpt><trkpt lat="45.6476448" lon="8.3019728"><ele>490.8333333333333</ele><time>2026-05-02T13:38:25.97Z</time></trkpt><trkpt lat="45.6477087" lon="8.3019645"><ele>491.0</ele><time>2026-05-02T13:38:28.968Z</time></trkpt><trkpt lat="45.6477159" lon="8.3018509"><ele>491.0</ele><time>2026-05-02T13:38:30.967Z</time></trkpt><trkpt lat="45.6477117" lon="8.3017008"><ele>491.0</ele><time>2026-05-02T13:38:32.962Z</time></trkpt><trkpt lat="45.6477282" lon="8.3015276"><ele>491.0</ele><time>2026-05-02T13:38:34.978Z</time></trkpt><trkpt lat="45.6477935" lon="8.3014195"><ele>491.0</ele><time>2026-05-02T13:38:36.964Z</time></trkpt><trkpt lat="45.647863" lon="8.3013226"><ele>491.0</ele><time>2026-05-02T13:38:38.975Z</time></trkpt><trkpt lat="45.6479268" lon="8.3012473"><ele>489.3333333333333</ele><time>2026-05-02T13:38:40.967Z</time></trkpt><trkpt lat="45.6479806" lon="8.301142"><ele>487.66666666666663</ele><time>2026-05-02T13:38:47.97Z</time></trkpt><trkpt lat="45.6480024" lon="8.3010463"><ele>486.0</ele><time>2026-05-02T13:38:49.982Z</time></trkpt><trkpt lat="45.6480343" lon="8.3009241"><ele>484.33333333333337</ele><time>2026-05-02T13:38:51.973Z</time></trkpt><trkpt lat="45.6480706" lon="8.3008302"><ele>482.6666666666667</ele><time>2026-05-02T13:38:53.977Z</time></trkpt><trkpt lat="45.6481345" lon="8.3007897"><ele>481.0</ele><time>2026-05-02T13:38:55.983Z</time></trkpt><trkpt lat="45.6482106" lon="8.3008165"><ele>481.00000000000006</ele><time>2026-05-02T13:38:57.976Z</time></trkpt><trkpt lat="45.6482937" lon="8.3008708"><ele>481.0</ele><time>2026-05-02T13:38:59.982Z</time></trkpt><trkpt lat="45.6483719" lon="8.3009389"><ele>481.0</ele><time>2026-05-02T13:39:01.981Z</time></trkpt><trkpt lat="45.6484498" lon="8.3009927"><ele>481.0</ele><time>2026-05-02T13:39:03.97Z</time></trkpt><trkpt lat="45.648531" lon="8.3010219"><ele>481.00000000000006</ele><time>2026-05-02T13:39:05.975Z</time></trkpt><trkpt lat="45.6485951" lon="8.3010443"><ele>481.0</ele><time>2026-05-02T13:39:07.977Z</time></trkpt><trkpt lat="45.6486629" lon="8.301045"><ele>480.50000000000006</ele><time>2026-05-02T13:39:16.965Z</time></trkpt><trkpt lat="45.6487323" lon="8.3010166"><ele>480.0</ele><time>2026-05-02T13:39:23.966Z</time></trkpt><trkpt lat="45.6487969" lon="8.3009831"><ele>479.5</ele><time>2026-05-02T13:39:25.985Z</time></trkpt><trkpt lat="45.6488776" lon="8.3009476"><ele>479.0</ele><time>2026-05-02T13:39:27.961Z</time></trkpt><trkpt lat="45.649006" lon="8.3009046"><ele>478.50000000000006</ele><time>2026-05-02T13:39:29.968Z</time></trkpt><trkpt lat="45.6490837" lon="8.300875"><ele>478.0</ele><time>2026-05-02T13:39:30.981Z</time></trkpt><trkpt lat="45.6491582" lon="8.3008392"><ele>478.00000000000006</ele><time>2026-05-02T13:39:31.968Z</time></trkpt><trkpt lat="45.6492286" lon="8.3007998"><ele>478.0</ele><time>2026-05-02T13:39:32.98Z</time></trkpt><trkpt lat="45.649293" lon="8.3007616"><ele>478.0</ele><time>2026-05-02T13:39:33.962Z</time></trkpt><trkpt lat="45.6493892" lon="8.3007018"><ele>478.0</ele><time>2026-05-02T13:39:35.972Z</time></trkpt><trkpt lat="45.6494469" lon="8.3006576"><ele>478.00000000000006</ele><time>2026-05-02T13:39:37.967Z</time></trkpt><trkpt lat="45.6495278" lon="8.3006757"><ele>478.0</ele><time>2026-05-02T13:39:40.964Z</time></trkpt><trkpt lat="45.6495919" lon="8.3007561"><ele>480.6666666666667</ele><time>2026-05-02T13:39:43.959Z</time></trkpt><trkpt lat="45.649625" lon="8.3006743"><ele>483.33333333333337</ele><time>2026-05-02T13:39:48.983Z</time></trkpt><trkpt lat="45.6496954" lon="8.3006676"><ele>486.0</ele><time>2026-05-02T13:39:51.973Z</time></trkpt><trkpt lat="45.6496152" lon="8.3006924"><ele>488.66666666666663</ele><time>2026-05-02T13:40:20.982Z</time></trkpt><trkpt lat="45.6496191" lon="8.3007933"><ele>491.3333333333333</ele><time>2026-05-02T13:40:22.979Z</time></trkpt><trkpt lat="45.6496534" lon="8.3008901"><ele>494.0</ele><time>2026-05-02T13:40:24.976Z</time></trkpt><trkpt lat="45.6497107" lon="8.3009887"><ele>493.99999999999994</ele><time>2026-05-02T13:40:26.978Z</time></trkpt><trkpt lat="45.6497818" lon="8.3010737"><ele>494.0</ele><time>2026-05-02T13:40:28.978Z</time></trkpt><trkpt lat="45.6498637" lon="8.3011518"><ele>494.0</ele><time>2026-05-02T13:40:30.978Z</time></trkpt><trkpt lat="45.6499291" lon="8.3012218"><ele>494.0</ele><time>2026-05-02T13:40:32.962Z</time></trkpt><trkpt lat="45.6499915" lon="8.3012477"><ele>493.99999999999994</ele><time>2026-05-02T13:40:35.977Z</time></trkpt><trkpt lat="45.6500206" lon="8.3011643"><ele>494.0</ele><time>2026-05-02T13:40:38.998Z</time></trkpt><trkpt lat="45.6499731" lon="8.3010707"><ele>493.99999999999994</ele><time>2026-05-02T13:40:41.966Z</time></trkpt><trkpt lat="45.6499588" lon="8.3009671"><ele>494.0</ele><time>2026-05-02T13:40:44.967Z</time></trkpt><trkpt lat="45.6500281" lon="8.3009209"><ele>494.0</ele><time>2026-05-02T13:40:47.977Z</time></trkpt><trkpt lat="45.6501196" lon="8.3009066"><ele>494.0</ele><time>2026-05-02T13:40:50.97Z</time></trkpt><trkpt lat="45.6502118" lon="8.3008923"><ele>493.99999999999994</ele><time>2026-05-02T13:40:53.974Z</time></trkpt><trkpt lat="45.6502948" lon="8.3008881"><ele>494.0</ele><time>2026-05-02T13:40:56.982Z</time></trkpt><trkpt lat="45.6503797" lon="8.3008742"><ele>497.16666666666663</ele><time>2026-05-02T13:40:59.979Z</time></trkpt><trkpt lat="45.6504635" lon="8.3008484"><ele>500.3333333333333</ele><time>2026-05-02T13:41:02.969Z</time></trkpt><trkpt lat="45.6505309" lon="8.3008171"><ele>503.5</ele><time>2026-05-02T13:41:05.969Z</time></trkpt><trkpt lat="45.6506004" lon="8.3007657"><ele>506.66666666666663</ele><time>2026-05-02T13:41:08.972Z</time></trkpt><trkpt lat="45.6506585" lon="8.3006943"><ele>509.8333333333333</ele><time>2026-05-02T13:41:11.979Z</time></trkpt><trkpt lat="45.6507232" lon="8.3007038"><ele>513.0</ele><time>2026-05-02T13:41:15.981Z</time></trkpt><trkpt lat="45.6506839" lon="8.3007949"><ele>513.0</ele><time>2026-05-02T13:41:18.974Z</time></trkpt><trkpt lat="45.6506297" lon="8.3008832"><ele>513.0</ele><time>2026-05-02T13:41:21.966Z</time></trkpt><trkpt lat="45.6506226" lon="8.3010032"><ele>513.0</ele><time>2026-05-02T13:41:24.974Z</time></trkpt><trkpt lat="45.6506876" lon="8.3010686"><ele>513.0</ele><time>2026-05-02T13:41:27.978Z</time></trkpt><trkpt lat="45.6507519" lon="8.3010632"><ele>513.0</ele><time>2026-05-02T13:41:29.971Z</time></trkpt><trkpt lat="45.6508329" lon="8.3009843"><ele>513.0</ele><time>2026-05-02T13:41:32.972Z</time></trkpt><trkpt lat="45.6508935" lon="8.3009138"><ele>513.0000000000001</ele><time>2026-05-02T13:41:34.969Z</time></trkpt><trkpt lat="45.6509414" lon="8.3008496"><ele>513.0</ele><time>2026-05-02T13:41:36.977Z</time></trkpt><trkpt lat="45.6509933" lon="8.3007836"><ele>513.0</ele><time>2026-05-02T13:41:38.989Z</time></trkpt><trkpt lat="45.65104" lon="8.3007022"><ele>513.0</ele><time>2026-05-02T13:41:40.969Z</time></trkpt><trkpt lat="45.6510777" lon="8.3006119"><ele>513.0</ele><time>2026-05-02T13:41:42.972Z</time></trkpt><trkpt lat="45.651118" lon="8.3005164"><ele>513.0000000000001</ele><time>2026-05-02T13:41:44.981Z</time></trkpt><trkpt lat="45.6511634" lon="8.3004255"><ele>513.0</ele><time>2026-05-02T13:41:46.98Z</time></trkpt><trkpt lat="45.6512085" lon="8.3003583"><ele>515.6666666666666</ele><time>2026-05-02T13:41:48.983Z</time></trkpt><trkpt lat="45.6512718" lon="8.3002768"><ele>518.3333333333334</ele><time>2026-05-02T13:41:51.968Z</time></trkpt><trkpt lat="45.6513295" lon="8.3001767"><ele>521.0</ele><time>2026-05-02T13:41:54.975Z</time></trkpt><trkpt lat="45.6513689" lon="8.3001043"><ele>523.6666666666667</ele><time>2026-05-02T13:41:56.978Z</time></trkpt><trkpt lat="45.651391" lon="8.300019"><ele>526.3333333333334</ele><time>2026-05-02T13:41:58.976Z</time></trkpt><trkpt lat="45.6514053" lon="8.2998886"><ele>529.0</ele><time>2026-05-02T13:42:01.967Z</time></trkpt><trkpt lat="45.6514293" lon="8.2997644"><ele>530.5714285714286</ele><time>2026-05-02T13:42:04.973Z</time></trkpt><trkpt lat="45.6514336" lon="8.2996565"><ele>532.1428571428571</ele><time>2026-05-02T13:42:06.982Z</time></trkpt><trkpt lat="45.6514318" lon="8.299557"><ele>533.7142857142857</ele><time>2026-05-02T13:42:08.986Z</time></trkpt><trkpt lat="45.651443" lon="8.299463"><ele>535.2857142857142</ele><time>2026-05-02T13:42:10.969Z</time></trkpt><trkpt lat="45.6514745" lon="8.2993751"><ele>536.8571428571428</ele><time>2026-05-02T13:42:12.975Z</time></trkpt><trkpt lat="45.6515145" lon="8.299287"><ele>538.4285714285714</ele><time>2026-05-02T13:42:14.977Z</time></trkpt><trkpt lat="45.6515486" lon="8.2991973"><ele>540.0</ele><time>2026-05-02T13:42:16.971Z</time></trkpt><trkpt lat="45.6515717" lon="8.2991017"><ele>540.0</ele><time>2026-05-02T13:42:18.97Z</time></trkpt><trkpt lat="45.6515896" lon="8.2990121"><ele>540.0</ele><time>2026-05-02T13:42:20.973Z</time></trkpt><trkpt lat="45.6516079" lon="8.2988906"><ele>540.0</ele><time>2026-05-02T13:42:23.97Z</time></trkpt><trkpt lat="45.6516595" lon="8.298796"><ele>540.0</ele><time>2026-05-02T13:42:26.975Z</time></trkpt><trkpt lat="45.6517414" lon="8.2987211"><ele>540.0</ele><time>2026-05-02T13:42:29.969Z</time></trkpt><trkpt lat="45.6518114" lon="8.2986721"><ele>540.0</ele><time>2026-05-02T13:42:32.979Z</time></trkpt><trkpt lat="45.6518768" lon="8.2985986"><ele>540.1428571428571</ele><time>2026-05-02T13:42:35.97Z</time></trkpt><trkpt lat="45.6519224" lon="8.298492"><ele>540.2857142857142</ele><time>2026-05-02T13:42:38.97Z</time></trkpt><trkpt lat="45.6519201" lon="8.2984005"><ele>540.4285714285714</ele><time>2026-05-02T13:42:40.98Z</time></trkpt><trkpt lat="45.651913" lon="8.2982977"><ele>540.5714285714286</ele><time>2026-05-02T13:42:42.984Z</time></trkpt><trkpt lat="45.6519277" lon="8.2981891"><ele>540.7142857142858</ele><time>2026-05-02T13:42:44.971Z</time></trkpt><trkpt lat="45.6519436" lon="8.2980885"><ele>540.8571428571429</ele><time>2026-05-02T13:42:46.974Z</time></trkpt><trkpt lat="45.6519565" lon="8.2979965"><ele>541.0</ele><time>2026-05-02T13:42:48.979Z</time></trkpt><trkpt lat="45.651938" lon="8.2978672"><ele>541.0</ele><time>2026-05-02T13:42:51.976Z</time></trkpt><trkpt lat="45.6519151" lon="8.2977766"><ele>541.0</ele><time>2026-05-02T13:42:53.974Z</time></trkpt><trkpt lat="45.6518947" lon="8.2976835"><ele>541.0</ele><time>2026-05-02T13:42:55.975Z</time></trkpt><trkpt lat="45.6519488" lon="8.2976012"><ele>541.0</ele><time>2026-05-02T13:42:58.971Z</time></trkpt><trkpt lat="45.6520123" lon="8.2976298"><ele>541.0</ele><time>2026-05-02T13:43:00.972Z</time></trkpt><trkpt lat="45.652064" lon="8.2977546"><ele>541.0</ele><time>2026-05-02T13:43:03.978Z</time></trkpt><trkpt lat="45.6520784" lon="8.2978678"><ele>540.8333333333334</ele><time>2026-05-02T13:43:05.978Z</time></trkpt><trkpt lat="45.6520999" lon="8.2979898"><ele>540.6666666666667</ele><time>2026-05-02T13:43:08.964Z</time></trkpt><trkpt lat="45.6521238" lon="8.2980999"><ele>540.5</ele><time>2026-05-02T13:43:11.987Z</time></trkpt><trkpt lat="45.6521471" lon="8.2982397"><ele>540.3333333333334</ele><time>2026-05-02T13:43:14.977Z</time></trkpt><trkpt lat="45.6521664" lon="8.2983397"><ele>540.1666666666666</ele><time>2026-05-02T13:43:16.967Z</time></trkpt><trkpt lat="45.6521935" lon="8.298451"><ele>540.0</ele><time>2026-05-02T13:43:18.961Z</time></trkpt><trkpt lat="45.6522024" lon="8.2985808"><ele>544.0</ele><time>2026-05-02T13:43:20.969Z</time></trkpt><trkpt lat="45.6522011" lon="8.2986871"><ele>548.0</ele><time>2026-05-02T13:43:22.954Z</time></trkpt><trkpt lat="45.6522287" lon="8.2987884"><ele>552.0</ele><time>2026-05-02T13:43:24.962Z</time></trkpt><trkpt lat="45.6522989" lon="8.2988798"><ele>556.0</ele><time>2026-05-02T13:43:26.96Z</time></trkpt><trkpt lat="45.6523685" lon="8.2989582"><ele>560.0</ele><time>2026-05-02T13:43:28.974Z</time></trkpt><trkpt lat="45.6524345" lon="8.299027"><ele>564.0</ele><time>2026-05-02T13:43:30.963Z</time></trkpt><trkpt lat="45.6525007" lon="8.2991019"><ele>564.1666666666666</ele><time>2026-05-02T13:43:32.97Z</time></trkpt><trkpt lat="45.6525571" lon="8.299167"><ele>564.3333333333334</ele><time>2026-05-02T13:43:34.956Z</time></trkpt><trkpt lat="45.6526302" lon="8.2992382"><ele>564.5</ele><time>2026-05-02T13:43:37.969Z</time></trkpt><trkpt lat="45.652719" lon="8.2992447"><ele>564.6666666666667</ele><time>2026-05-02T13:43:40.97Z</time></trkpt><trkpt lat="45.6528118" lon="8.2992259"><ele>564.8333333333334</ele><time>2026-05-02T13:43:43.976Z</time></trkpt><trkpt lat="45.6528862" lon="8.2992"><ele>565.0</ele><time>2026-05-02T13:43:45.98Z</time></trkpt><trkpt lat="45.6529635" lon="8.299172"><ele>566.8333333333334</ele><time>2026-05-02T13:43:47.966Z</time></trkpt><trkpt lat="45.6530405" lon="8.2991353"><ele>568.6666666666667</ele><time>2026-05-02T13:43:49.972Z</time></trkpt><trkpt lat="45.6531154" lon="8.2990885"><ele>570.5</ele><time>2026-05-02T13:43:51.972Z</time></trkpt><trkpt lat="45.6531778" lon="8.2990339"><ele>572.3333333333334</ele><time>2026-05-02T13:43:53.982Z</time></trkpt><trkpt lat="45.6532479" lon="8.2989889"><ele>574.1666666666666</ele><time>2026-05-02T13:43:55.964Z</time></trkpt><trkpt lat="45.6533303" lon="8.2989502"><ele>576.0</ele><time>2026-05-02T13:43:57.98Z</time></trkpt><trkpt lat="45.6534098" lon="8.2989384"><ele>576.0000000000001</ele><time>2026-05-02T13:43:59.974Z</time></trkpt><trkpt lat="45.6534805" lon="8.2989308"><ele>576.0</ele><time>2026-05-02T13:44:01.982Z</time></trkpt><trkpt lat="45.6535442" lon="8.29894"><ele>576.0</ele><time>2026-05-02T13:44:03.969Z</time></trkpt><trkpt lat="45.6536111" lon="8.2989672"><ele>576.0</ele><time>2026-05-02T13:44:05.966Z</time></trkpt><trkpt lat="45.6536825" lon="8.2990044"><ele>576.0</ele><time>2026-05-02T13:44:07.975Z</time></trkpt><trkpt lat="45.6537549" lon="8.2990136"><ele>576.0000000000001</ele><time>2026-05-02T13:44:09.983Z</time></trkpt><trkpt lat="45.6538266" lon="8.2990018"><ele>576.0</ele><time>2026-05-02T13:44:11.978Z</time></trkpt><trkpt lat="45.6539036" lon="8.299007"><ele>578.3333333333334</ele><time>2026-05-02T13:44:13.974Z</time></trkpt><trkpt lat="45.65399" lon="8.2990375"><ele>580.6666666666666</ele><time>2026-05-02T13:44:16.971Z</time></trkpt><trkpt lat="45.6540669" lon="8.2990721"><ele>583.0</ele><time>2026-05-02T13:44:19.974Z</time></trkpt><trkpt lat="45.6541283" lon="8.299115"><ele>585.3333333333333</ele><time>2026-05-02T13:44:22.966Z</time></trkpt><trkpt lat="45.6541952" lon="8.2991493"><ele>587.6666666666666</ele><time>2026-05-02T13:44:26.96Z</time></trkpt><trkpt lat="45.6542735" lon="8.2991555"><ele>590.0</ele><time>2026-05-02T13:44:30.968Z</time></trkpt><trkpt lat="45.6543532" lon="8.2991564"><ele>590.0</ele><time>2026-05-02T13:44:35.971Z</time></trkpt><trkpt lat="45.6544248" lon="8.2991167"><ele>590.0</ele><time>2026-05-02T13:44:39.971Z</time></trkpt><trkpt lat="45.6544864" lon="8.2990618"><ele>590.0</ele><time>2026-05-02T13:44:42.972Z</time></trkpt><trkpt lat="45.654559" lon="8.2990204"><ele>590.0</ele><time>2026-05-02T13:44:45.978Z</time></trkpt><trkpt lat="45.6546327" lon="8.2989634"><ele>590.0</ele><time>2026-05-02T13:44:48.956Z</time></trkpt><trkpt lat="45.654715" lon="8.2989"><ele>590.0</ele><time>2026-05-02T13:44:51.967Z</time></trkpt><trkpt lat="45.6547833" lon="8.2988215"><ele>586.7142857142858</ele><time>2026-05-02T13:44:54.979Z</time></trkpt><trkpt lat="45.6548486" lon="8.2987625"><ele>583.4285714285714</ele><time>2026-05-02T13:44:57.969Z</time></trkpt><trkpt lat="45.6549169" lon="8.2987344"><ele>580.1428571428571</ele><time>2026-05-02T13:45:00.967Z</time></trkpt><trkpt lat="45.6549782" lon="8.2986799"><ele>576.8571428571429</ele><time>2026-05-02T13:45:03.97Z</time></trkpt><trkpt lat="45.6550272" lon="8.2986195"><ele>573.5714285714286</ele><time>2026-05-02T13:45:06.969Z</time></trkpt><trkpt lat="45.6550794" lon="8.29856"><ele>570.2857142857143</ele><time>2026-05-02T13:45:10.967Z</time></trkpt><trkpt lat="45.655153" lon="8.2984991"><ele>567.0</ele><time>2026-05-02T13:45:14.969Z</time></trkpt><trkpt lat="45.6552048" lon="8.2984409"><ele>567.0</ele><time>2026-05-02T13:45:17.973Z</time></trkpt><trkpt lat="45.6552594" lon="8.2983758"><ele>567.0</ele><time>2026-05-02T13:45:21.975Z</time></trkpt><trkpt lat="45.6553116" lon="8.2983222"><ele>567.0</ele><time>2026-05-02T13:45:24.969Z</time></trkpt><trkpt lat="45.6553848" lon="8.2982693"><ele>567.0</ele><time>2026-05-02T13:45:27.977Z</time></trkpt><trkpt lat="45.6554613" lon="8.2982138"><ele>567.0</ele><time>2026-05-02T13:45:30.964Z</time></trkpt><trkpt lat="45.6555314" lon="8.2981667"><ele>567.0</ele><time>2026-05-02T13:45:32.961Z</time></trkpt><trkpt lat="45.6556094" lon="8.2981267"><ele>567.5</ele><time>2026-05-02T13:45:34.956Z</time></trkpt><trkpt lat="45.6556759" lon="8.2980907"><ele>568.0</ele><time>2026-05-02T13:45:36.973Z</time></trkpt><trkpt lat="45.655736" lon="8.2980417"><ele>568.5</ele><time>2026-05-02T13:45:38.975Z</time></trkpt><trkpt lat="45.6558077" lon="8.2979568"><ele>569.0</ele><time>2026-05-02T13:45:40.976Z</time></trkpt><trkpt lat="45.6558943" lon="8.297863"><ele>569.5</ele><time>2026-05-02T13:45:42.973Z</time></trkpt><trkpt lat="45.655984" lon="8.2978096"><ele>570.0</ele><time>2026-05-02T13:45:44.967Z</time></trkpt><trkpt lat="45.6560734" lon="8.2977736"><ele>573.1666666666666</ele><time>2026-05-02T13:45:46.966Z</time></trkpt><trkpt lat="45.6561521" lon="8.2977433"><ele>576.3333333333334</ele><time>2026-05-02T13:45:48.959Z</time></trkpt><trkpt lat="45.6562178" lon="8.2977166"><ele>579.5</ele><time>2026-05-02T13:45:50.961Z</time></trkpt><trkpt lat="45.6562961" lon="8.297675"><ele>582.6666666666667</ele><time>2026-05-02T13:45:53.969Z</time></trkpt><trkpt lat="45.6563696" lon="8.2976066"><ele>585.8333333333334</ele><time>2026-05-02T13:45:56.976Z</time></trkpt><trkpt lat="45.6564168" lon="8.2975305"><ele>589.0</ele><time>2026-05-02T13:45:58.968Z</time></trkpt><trkpt lat="45.6564631" lon="8.2974462"><ele>589.0</ele><time>2026-05-02T13:46:01.963Z</time></trkpt><trkpt lat="45.6565273" lon="8.2973692"><ele>589.0</ele><time>2026-05-02T13:46:06.968Z</time></trkpt><trkpt lat="45.6565878" lon="8.2972836"><ele>589.0</ele><time>2026-05-02T13:46:41.956Z</time></trkpt><trkpt lat="45.6566689" lon="8.2972752"><ele>589.0</ele><time>2026-05-02T13:46:45.966Z</time></trkpt><trkpt lat="45.6567312" lon="8.2972621"><ele>589.0</ele><time>2026-05-02T13:46:47.966Z</time></trkpt><trkpt lat="45.6568112" lon="8.2972416"><ele>589.0</ele><time>2026-05-02T13:46:49.97Z</time></trkpt><trkpt lat="45.6568951" lon="8.2972199"><ele>588.4285714285714</ele><time>2026-05-02T13:46:51.969Z</time></trkpt><trkpt lat="45.656973" lon="8.2971976"><ele>587.8571428571428</ele><time>2026-05-02T13:46:53.964Z</time></trkpt><trkpt lat="45.6570426" lon="8.2971715"><ele>587.2857142857142</ele><time>2026-05-02T13:46:55.972Z</time></trkpt><trkpt lat="45.6571175" lon="8.2971577"><ele>586.7142857142857</ele><time>2026-05-02T13:46:57.979Z</time></trkpt><trkpt lat="45.657183" lon="8.2971498"><ele>586.1428571428571</ele><time>2026-05-02T13:46:59.974Z</time></trkpt><trkpt lat="45.6572506" lon="8.2971545"><ele>585.5714285714286</ele><time>2026-05-02T13:47:01.971Z</time></trkpt><trkpt lat="45.6573157" lon="8.297188"><ele>585.0</ele><time>2026-05-02T13:47:03.97Z</time></trkpt><trkpt lat="45.6573821" lon="8.2972411"><ele>585.3333333333334</ele><time>2026-05-02T13:47:05.962Z</time></trkpt><trkpt lat="45.6574379" lon="8.2972973"><ele>585.6666666666666</ele><time>2026-05-02T13:47:07.962Z</time></trkpt><trkpt lat="45.6575057" lon="8.2973513"><ele>586.0</ele><time>2026-05-02T13:47:09.977Z</time></trkpt><trkpt lat="45.6575832" lon="8.297415"><ele>586.3333333333333</ele><time>2026-05-02T13:47:11.973Z</time></trkpt><trkpt lat="45.6576697" lon="8.2974828"><ele>586.6666666666666</ele><time>2026-05-02T13:47:13.97Z</time></trkpt><trkpt lat="45.6577595" lon="8.2975588"><ele>587.0</ele><time>2026-05-02T13:47:15.971Z</time></trkpt><trkpt lat="45.6578377" lon="8.2976352"><ele>587.0</ele><time>2026-05-02T13:47:17.975Z</time></trkpt><trkpt lat="45.6579148" lon="8.2976984"><ele>587.0</ele><time>2026-05-02T13:47:19.966Z</time></trkpt><trkpt lat="45.6579805" lon="8.2977714"><ele>587.0</ele><time>2026-05-02T13:47:21.975Z</time></trkpt><trkpt lat="45.6580322" lon="8.2978515"><ele>587.0</ele><time>2026-05-02T13:47:23.97Z</time></trkpt><trkpt lat="45.6580665" lon="8.2979375"><ele>587.0</ele><time>2026-05-02T13:47:25.972Z</time></trkpt><trkpt lat="45.6580879" lon="8.298033"><ele>587.0</ele><time>2026-05-02T13:47:27.975Z</time></trkpt><trkpt lat="45.6581084" lon="8.2981259"><ele>587.8571428571429</ele><time>2026-05-02T13:47:29.975Z</time></trkpt><trkpt lat="45.6581454" lon="8.2982001"><ele>588.7142857142858</ele><time>2026-05-02T13:47:31.969Z</time></trkpt><trkpt lat="45.6582057" lon="8.2982347"><ele>589.5714285714286</ele><time>2026-05-02T13:47:33.967Z</time></trkpt><trkpt lat="45.6582698" lon="8.2982355"><ele>590.4285714285714</ele><time>2026-05-02T13:47:35.964Z</time></trkpt><trkpt lat="45.6583401" lon="8.2982223"><ele>591.2857142857142</ele><time>2026-05-02T13:47:38.971Z</time></trkpt><trkpt lat="45.6584078" lon="8.2981873"><ele>592.1428571428571</ele><time>2026-05-02T13:47:41.976Z</time></trkpt><trkpt lat="45.6584827" lon="8.2981371"><ele>593.0</ele><time>2026-05-02T13:47:45.974Z</time></trkpt><trkpt lat="45.6585479" lon="8.2981149"><ele>593.0</ele><time>2026-05-02T13:47:48.959Z</time></trkpt><trkpt lat="45.6586085" lon="8.29809"><ele>593.0</ele><time>2026-05-02T13:47:51.969Z</time></trkpt><trkpt lat="45.6586745" lon="8.298058"><ele>593.0</ele><time>2026-05-02T13:47:54.967Z</time></trkpt><trkpt lat="45.6587507" lon="8.2980213"><ele>593.0</ele><time>2026-05-02T13:47:57.974Z</time></trkpt><trkpt lat="45.6588277" lon="8.297979"><ele>593.0</ele><time>2026-05-02T13:48:00.966Z</time></trkpt><trkpt lat="45.658908" lon="8.297935"><ele>593.0</ele><time>2026-05-02T13:48:03.962Z</time></trkpt><trkpt lat="45.6589782" lon="8.2978855"><ele>591.0</ele><time>2026-05-02T13:48:06.97Z</time></trkpt><trkpt lat="45.6590397" lon="8.2978325"><ele>589.0</ele><time>2026-05-02T13:48:09.968Z</time></trkpt><trkpt lat="45.6591039" lon="8.2977737"><ele>587.0</ele><time>2026-05-02T13:48:12.972Z</time></trkpt><trkpt lat="45.6591888" lon="8.2977005"><ele>585.0</ele><time>2026-05-02T13:48:15.973Z</time></trkpt><trkpt lat="45.6592711" lon="8.2976766"><ele>583.0</ele><time>2026-05-02T13:48:17.969Z</time></trkpt><trkpt lat="45.6593639" lon="8.2976647"><ele>581.0</ele><time>2026-05-02T13:48:19.965Z</time></trkpt><trkpt lat="45.6594609" lon="8.2976535"><ele>580.6666666666666</ele><time>2026-05-02T13:48:21.974Z</time></trkpt><trkpt lat="45.6595431" lon="8.2976398"><ele>580.3333333333333</ele><time>2026-05-02T13:48:23.969Z</time></trkpt><trkpt lat="45.6596176" lon="8.2976168"><ele>580.0</ele><time>2026-05-02T13:48:25.975Z</time></trkpt><trkpt lat="45.6597072" lon="8.2975918"><ele>579.6666666666666</ele><time>2026-05-02T13:48:27.983Z</time></trkpt><trkpt lat="45.6597994" lon="8.2975963"><ele>579.3333333333334</ele><time>2026-05-02T13:48:29.968Z</time></trkpt><trkpt lat="45.6598941" lon="8.2976179"><ele>579.0</ele><time>2026-05-02T13:48:31.97Z</time></trkpt><trkpt lat="45.6599872" lon="8.2976383"><ele>579.0</ele><time>2026-05-02T13:48:33.975Z</time></trkpt><trkpt lat="45.6600741" lon="8.2976489"><ele>579.0</ele><time>2026-05-02T13:48:35.97Z</time></trkpt><trkpt lat="45.6601515" lon="8.2976334"><ele>579.0</ele><time>2026-05-02T13:48:37.974Z</time></trkpt><trkpt lat="45.6602142" lon="8.2975829"><ele>579.0</ele><time>2026-05-02T13:48:39.971Z</time></trkpt><trkpt lat="45.6602734" lon="8.2975137"><ele>579.0</ele><time>2026-05-02T13:48:41.977Z</time></trkpt><trkpt lat="45.6603374" lon="8.2974452"><ele>579.0</ele><time>2026-05-02T13:48:43.975Z</time></trkpt><trkpt lat="45.6603907" lon="8.2973867"><ele>580.8</ele><time>2026-05-02T13:48:45.971Z</time></trkpt><trkpt lat="45.6604513" lon="8.2973313"><ele>582.5999999999999</ele><time>2026-05-02T13:48:47.972Z</time></trkpt><trkpt lat="45.660519" lon="8.2972457"><ele>584.4</ele><time>2026-05-02T13:48:49.976Z</time></trkpt><trkpt lat="45.6605729" lon="8.2971414"><ele>586.1999999999999</ele><time>2026-05-02T13:48:51.978Z</time></trkpt><trkpt lat="45.6606328" lon="8.2970155"><ele>588.0</ele><time>2026-05-02T13:48:54.961Z</time></trkpt><trkpt lat="45.6606831" lon="8.2968817"><ele>588.0</ele><time>2026-05-02T13:48:56.966Z</time></trkpt><trkpt lat="45.6607235" lon="8.2967909"><ele>588.0</ele><time>2026-05-02T13:48:58.959Z</time></trkpt><trkpt lat="45.6607642" lon="8.296719"><ele>588.0</ele><time>2026-05-02T13:49:00.958Z</time></trkpt><trkpt lat="45.660834" lon="8.2966434"><ele>588.0</ele><time>2026-05-02T13:49:03.963Z</time></trkpt><trkpt lat="45.6608973" lon="8.2966235"><ele>588.0</ele><time>2026-05-02T13:49:05.962Z</time></trkpt><trkpt lat="45.6609697" lon="8.2965822"><ele>588.0</ele><time>2026-05-02T13:49:08.984Z</time></trkpt><trkpt lat="45.6610429" lon="8.2965277"><ele>588.0</ele><time>2026-05-02T13:49:11.965Z</time></trkpt><trkpt lat="45.6611125" lon="8.2964474"><ele>588.0</ele><time>2026-05-02T13:49:14.968Z</time></trkpt><trkpt lat="45.6611654" lon="8.2963784"><ele>588.0</ele><time>2026-05-02T13:49:16.972Z</time></trkpt><trkpt lat="45.6612075" lon="8.2962974"><ele>588.0</ele><time>2026-05-02T13:49:18.967Z</time></trkpt><trkpt lat="45.661249" lon="8.2962068"><ele>588.0</ele><time>2026-05-02T13:49:20.968Z</time></trkpt><trkpt lat="45.6612648" lon="8.2961039"><ele>588.0</ele><time>2026-05-02T13:49:22.97Z</time></trkpt><trkpt lat="45.66129" lon="8.2960158"><ele>588.0</ele><time>2026-05-02T13:49:24.968Z</time></trkpt><trkpt lat="45.6613434" lon="8.2959044"><ele>589.0</ele><time>2026-05-02T13:49:27.966Z</time></trkpt><trkpt lat="45.6613951" lon="8.2958469"><ele>590.0</ele><time>2026-05-02T13:49:29.961Z</time></trkpt><trkpt lat="45.6614794" lon="8.295793"><ele>591.0</ele><time>2026-05-02T13:49:31.968Z</time></trkpt><trkpt lat="45.6615465" lon="8.2957316"><ele>592.0</ele><time>2026-05-02T13:49:33.967Z</time></trkpt><trkpt lat="45.6615948" lon="8.2956633"><ele>593.0</ele><time>2026-05-02T13:49:35.975Z</time></trkpt><trkpt lat="45.6616544" lon="8.2955729"><ele>594.0</ele><time>2026-05-02T13:49:38.974Z</time></trkpt><trkpt lat="45.6616875" lon="8.2954956"><ele>594.0</ele><time>2026-05-02T13:49:40.975Z</time></trkpt><trkpt lat="45.6617036" lon="8.295408"><ele>594.0</ele><time>2026-05-02T13:49:42.966Z</time></trkpt><trkpt lat="45.6617265" lon="8.2953018"><ele>594.0</ele><time>2026-05-02T13:49:44.987Z</time></trkpt><trkpt lat="45.6617562" lon="8.2952178"><ele>594.0</ele><time>2026-05-02T13:49:46.968Z</time></trkpt><trkpt lat="45.6618318" lon="8.2951319"><ele>594.0</ele><time>2026-05-02T13:49:49.974Z</time></trkpt><trkpt lat="45.6618958" lon="8.2951044"><ele>594.0</ele><time>2026-05-02T13:49:51.936Z</time></trkpt><trkpt lat="45.6619563" lon="8.2950321"><ele>594.0</ele><time>2026-05-02T13:49:53.969Z</time></trkpt><trkpt lat="45.6620023" lon="8.2949705"><ele>594.5</ele><time>2026-05-02T13:49:55.965Z</time></trkpt><trkpt lat="45.6620725" lon="8.2948859"><ele>595.0</ele><time>2026-05-02T13:49:58.971Z</time></trkpt><trkpt lat="45.6621236" lon="8.2948205"><ele>595.5</ele><time>2026-05-02T13:50:00.977Z</time></trkpt><trkpt lat="45.6621704" lon="8.2947505"><ele>596.0</ele><time>2026-05-02T13:50:02.965Z</time></trkpt><trkpt lat="45.6622187" lon="8.2946554"><ele>596.5</ele><time>2026-05-02T13:50:07.96Z</time></trkpt><trkpt lat="45.6622692" lon="8.2945678"><ele>597.0</ele><time>2026-05-02T13:50:09.973Z</time></trkpt><trkpt lat="45.6623183" lon="8.2944677"><ele>599.8571428571429</ele><time>2026-05-02T13:50:12.962Z</time></trkpt><trkpt lat="45.6623393" lon="8.2943759"><ele>602.7142857142858</ele><time>2026-05-02T13:50:15.967Z</time></trkpt><trkpt lat="45.6623516" lon="8.294244"><ele>605.5714285714287</ele><time>2026-05-02T13:50:18.966Z</time></trkpt><trkpt lat="45.6623611" lon="8.2941431"><ele>608.4285714285714</ele><time>2026-05-02T13:50:20.98Z</time></trkpt><trkpt lat="45.6623852" lon="8.2940432"><ele>611.2857142857142</ele><time>2026-05-02T13:50:22.964Z</time></trkpt><trkpt lat="45.662402" lon="8.2939419"><ele>614.1428571428572</ele><time>2026-05-02T13:50:24.966Z</time></trkpt><trkpt lat="45.6624056" lon="8.2938453"><ele>617.0</ele><time>2026-05-02T13:50:26.969Z</time></trkpt><trkpt lat="45.6623849" lon="8.2937304"><ele>619.8333333333333</ele><time>2026-05-02T13:50:29.968Z</time></trkpt><trkpt lat="45.6623186" lon="8.2936505"><ele>622.6666666666666</ele><time>2026-05-02T13:50:32.977Z</time></trkpt><trkpt lat="45.6622644" lon="8.2935499"><ele>625.5</ele><time>2026-05-02T13:50:35.972Z</time></trkpt><trkpt lat="45.6622297" lon="8.2934487"><ele>628.3333333333334</ele><time>2026-05-02T13:50:37.975Z</time></trkpt><trkpt lat="45.6621893" lon="8.2933402"><ele>631.1666666666667</ele><time>2026-05-02T13:50:39.974Z</time></trkpt><trkpt lat="45.662141" lon="8.2932564"><ele>634.0</ele><time>2026-05-02T13:50:41.969Z</time></trkpt><trkpt lat="45.6620824" lon="8.293188"><ele>634.0</ele><time>2026-05-02T13:50:43.976Z</time></trkpt><trkpt lat="45.6620262" lon="8.2931017"><ele>634.0</ele><time>2026-05-02T13:50:46.972Z</time></trkpt><trkpt lat="45.6620403" lon="8.2930092"><ele>634.0</ele><time>2026-05-02T13:50:49.967Z</time></trkpt><trkpt lat="45.6620899" lon="8.2929024"><ele>634.0</ele><time>2026-05-02T13:50:52.973Z</time></trkpt><trkpt lat="45.6621255" lon="8.2928274"><ele>634.0</ele><time>2026-05-02T13:50:54.978Z</time></trkpt><trkpt lat="45.6621767" lon="8.2927181"><ele>634.0</ele><time>2026-05-02T13:50:57.967Z</time></trkpt><trkpt lat="45.6622235" lon="8.2926529"><ele>633.0</ele><time>2026-05-02T13:50:59.96Z</time></trkpt><trkpt lat="45.6622702" lon="8.2925583"><ele>632.0</ele><time>2026-05-02T13:51:01.955Z</time></trkpt><trkpt lat="45.6622937" lon="8.2924333"><ele>631.0</ele><time>2026-05-02T13:51:03.966Z</time></trkpt><trkpt lat="45.6622953" lon="8.292317"><ele>630.0</ele><time>2026-05-02T13:51:05.955Z</time></trkpt><trkpt lat="45.6622992" lon="8.2922075"><ele>629.0</ele><time>2026-05-02T13:51:07.973Z</time></trkpt><trkpt lat="45.6623039" lon="8.2921034"><ele>628.0</ele><time>2026-05-02T13:51:09.958Z</time></trkpt><trkpt lat="45.6623176" lon="8.2920012"><ele>623.8333333333334</ele><time>2026-05-02T13:51:11.979Z</time></trkpt><trkpt lat="45.6623214" lon="8.2918887"><ele>619.6666666666667</ele><time>2026-05-02T13:51:13.968Z</time></trkpt><trkpt lat="45.6623215" lon="8.2917829"><ele>615.5</ele><time>2026-05-02T13:51:15.978Z</time></trkpt><trkpt lat="45.6623835" lon="8.2917045"><ele>611.3333333333334</ele><time>2026-05-02T13:51:34.977Z</time></trkpt><trkpt lat="45.6624433" lon="8.291632"><ele>607.1666666666666</ele><time>2026-05-02T13:51:37.967Z</time></trkpt><trkpt lat="45.6624446" lon="8.2915288"><ele>603.0</ele><time>2026-05-02T13:51:40.967Z</time></trkpt><trkpt lat="45.6623699" lon="8.2915023"><ele>603.0</ele><time>2026-05-02T13:51:45.963Z</time></trkpt><trkpt lat="45.6623115" lon="8.2915429"><ele>603.0</ele><time>2026-05-02T13:51:49.982Z</time></trkpt><trkpt lat="45.6622482" lon="8.291564"><ele>603.0</ele><time>2026-05-02T13:51:54.968Z</time></trkpt><trkpt lat="45.6622519" lon="8.2914509"><ele>603.0</ele><time>2026-05-02T13:52:00.969Z</time></trkpt><trkpt lat="45.6622961" lon="8.291371"><ele>603.0</ele><time>2026-05-02T13:52:03.963Z</time></trkpt><trkpt lat="45.6623622" lon="8.2913007"><ele>603.0</ele><time>2026-05-02T13:52:06.967Z</time></trkpt><trkpt lat="45.6623522" lon="8.2912043"><ele>603.0</ele><time>2026-05-02T13:52:09.97Z</time></trkpt><trkpt lat="45.6622758" lon="8.2911511"><ele>599.1428571428572</ele><time>2026-05-02T13:52:13.984Z</time></trkpt><trkpt lat="45.6621984" lon="8.2911449"><ele>595.2857142857142</ele><time>2026-05-02T13:52:17.965Z</time></trkpt><trkpt lat="45.6621762" lon="8.2910361"><ele>591.4285714285714</ele><time>2026-05-02T13:52:21.964Z</time></trkpt><trkpt lat="45.6622399" lon="8.2909801"><ele>587.5714285714287</ele><time>2026-05-02T13:52:25.962Z</time></trkpt><trkpt lat="45.6623089" lon="8.2909919"><ele>583.7142857142858</ele><time>2026-05-02T13:52:28.961Z</time></trkpt><trkpt lat="45.6623755" lon="8.2910257"><ele>579.8571428571429</ele><time>2026-05-02T13:52:31.972Z</time></trkpt><trkpt lat="45.6624517" lon="8.2910466"><ele>576.0</ele><time>2026-05-02T13:52:35.97Z</time></trkpt><trkpt lat="45.6625077" lon="8.291091"><ele>576.0</ele><time>2026-05-02T13:52:37.966Z</time></trkpt><trkpt lat="45.662574" lon="8.2911351"><ele>576.0</ele><time>2026-05-02T13:52:39.975Z</time></trkpt><trkpt lat="45.6626375" lon="8.2911884"><ele>576.0</ele><time>2026-05-02T13:52:41.966Z</time></trkpt><trkpt lat="45.6627111" lon="8.2912225"><ele>576.0</ele><time>2026-05-02T13:52:44.96Z</time></trkpt><trkpt lat="45.6628075" lon="8.2912499"><ele>576.0</ele><time>2026-05-02T13:52:47.972Z</time></trkpt><trkpt lat="45.6628703" lon="8.2912717"><ele>576.0</ele><time>2026-05-02T13:52:49.979Z</time></trkpt><trkpt lat="45.6629362" lon="8.2912841"><ele>573.3333333333334</ele><time>2026-05-02T13:52:52.969Z</time></trkpt><trkpt lat="45.6630279" lon="8.2912996"><ele>570.6666666666666</ele><time>2026-05-02T13:52:55.971Z</time></trkpt><trkpt lat="45.6630926" lon="8.2913059"><ele>568.0</ele><time>2026-05-02T13:52:57.968Z</time></trkpt><trkpt lat="45.6631597" lon="8.2913222"><ele>565.3333333333333</ele><time>2026-05-02T13:52:59.967Z</time></trkpt><trkpt lat="45.6632368" lon="8.2913302"><ele>562.6666666666666</ele><time>2026-05-02T13:53:02.964Z</time></trkpt><trkpt lat="45.6633195" lon="8.2913281"><ele>560.0</ele><time>2026-05-02T13:53:05.975Z</time></trkpt><trkpt lat="45.6634087" lon="8.2912783"><ele>560.0</ele><time>2026-05-02T13:53:08.974Z</time></trkpt><trkpt lat="45.6634735" lon="8.2912244"><ele>560.0</ele><time>2026-05-02T13:53:10.978Z</time></trkpt><trkpt lat="45.6635523" lon="8.2911843"><ele>560.0</ele><time>2026-05-02T13:53:13.974Z</time></trkpt><trkpt lat="45.6636063" lon="8.2912413"><ele>560.0</ele><time>2026-05-02T13:53:30.969Z</time></trkpt><trkpt lat="45.6636658" lon="8.2913237"><ele>560.0</ele><time>2026-05-02T13:53:33.965Z</time></trkpt><trkpt lat="45.6637065" lon="8.2913982"><ele>560.0</ele><time>2026-05-02T13:53:35.976Z</time></trkpt><trkpt lat="45.6637728" lon="8.2914921"><ele>561.5714285714286</ele><time>2026-05-02T13:53:38.966Z</time></trkpt><trkpt lat="45.663819" lon="8.2915695"><ele>563.1428571428571</ele><time>2026-05-02T13:53:40.968Z</time></trkpt><trkpt lat="45.6638605" lon="8.2916412"><ele>564.7142857142858</ele><time>2026-05-02T13:53:42.968Z</time></trkpt><trkpt lat="45.6639256" lon="8.2916867"><ele>566.2857142857142</ele><time>2026-05-02T13:53:45.979Z</time></trkpt><trkpt lat="45.663988" lon="8.2916334"><ele>567.8571428571429</ele><time>2026-05-02T13:53:48.974Z</time></trkpt><trkpt lat="45.6640383" lon="8.2915446"><ele>569.4285714285714</ele><time>2026-05-02T13:53:51.975Z</time></trkpt><trkpt lat="45.6640606" lon="8.2914391"><ele>571.0</ele><time>2026-05-02T13:53:54.971Z</time></trkpt><trkpt lat="45.6640811" lon="8.2913189"><ele>571.0</ele><time>2026-05-02T13:53:57.972Z</time></trkpt><trkpt lat="45.6641268" lon="8.2912183"><ele>571.0</ele><time>2026-05-02T13:54:00.962Z</time></trkpt><trkpt lat="45.664171" lon="8.2911013"><ele>571.0</ele><time>2026-05-02T13:54:04.976Z</time></trkpt><trkpt lat="45.6642079" lon="8.2909956"><ele>571.0</ele><time>2026-05-02T13:54:06.969Z</time></trkpt><trkpt lat="45.6642451" lon="8.290907"><ele>571.0</ele><time>2026-05-02T13:54:08.975Z</time></trkpt><trkpt lat="45.6642919" lon="8.290804"><ele>571.0</ele><time>2026-05-02T13:54:11.968Z</time></trkpt><trkpt lat="45.6643077" lon="8.2906878"><ele>571.0</ele><time>2026-05-02T13:54:14.967Z</time></trkpt><trkpt lat="45.6643391" lon="8.2906065"><ele>571.0</ele><time>2026-05-02T13:54:17.969Z</time></trkpt><trkpt lat="45.6644023" lon="8.2906751"><ele>571.0</ele><time>2026-05-02T13:54:21.97Z</time></trkpt><trkpt lat="45.6644478" lon="8.2907438"><ele>571.0</ele><time>2026-05-02T13:54:24.971Z</time></trkpt><trkpt lat="45.6645059" lon="8.290781"><ele>571.0</ele><time>2026-05-02T13:54:28.971Z</time></trkpt><trkpt lat="45.6645789" lon="8.2907828"><ele>571.0</ele><time>2026-05-02T13:54:32.973Z</time></trkpt><trkpt lat="45.6646449" lon="8.2907561"><ele>571.0</ele><time>2026-05-02T13:54:35.973Z</time></trkpt><trkpt lat="45.6647217" lon="8.2907128"><ele>571.3333333333334</ele><time>2026-05-02T13:54:38.969Z</time></trkpt><trkpt lat="45.6647976" lon="8.2906741"><ele>571.6666666666667</ele><time>2026-05-02T13:54:41.972Z</time></trkpt><trkpt lat="45.6648817" lon="8.290657"><ele>572.0</ele><time>2026-05-02T13:54:44.961Z</time></trkpt><trkpt lat="45.6649546" lon="8.2906507"><ele>572.3333333333334</ele><time>2026-05-02T13:54:47.975Z</time></trkpt><trkpt lat="45.6650446" lon="8.2906122"><ele>572.6666666666666</ele><time>2026-05-02T13:54:50.967Z</time></trkpt><trkpt lat="45.6651239" lon="8.2905942"><ele>573.0</ele><time>2026-05-02T13:54:52.974Z</time></trkpt><trkpt lat="45.6652029" lon="8.2905602"><ele>568.5714285714286</ele><time>2026-05-02T13:54:54.965Z</time></trkpt><trkpt lat="45.6652723" lon="8.2904968"><ele>564.1428571428572</ele><time>2026-05-02T13:54:56.971Z</time></trkpt><trkpt lat="45.6653231" lon="8.2904419"><ele>559.7142857142858</ele><time>2026-05-02T13:54:58.97Z</time></trkpt><trkpt lat="45.6653796" lon="8.2903811"><ele>555.2857142857143</ele><time>2026-05-02T13:55:00.97Z</time></trkpt><trkpt lat="45.6654393" lon="8.2903134"><ele>550.8571428571429</ele><time>2026-05-02T13:55:02.97Z</time></trkpt><trkpt lat="45.6654935" lon="8.2902412"><ele>546.4285714285714</ele><time>2026-05-02T13:55:04.963Z</time></trkpt><trkpt lat="45.6655217" lon="8.290135"><ele>542.0</ele><time>2026-05-02T13:55:26.956Z</time></trkpt><trkpt lat="45.6655928" lon="8.2900717"><ele>541.5</ele><time>2026-05-02T13:55:30.966Z</time></trkpt><trkpt lat="45.6656514" lon="8.2900266"><ele>541.0</ele><time>2026-05-02T13:55:32.963Z</time></trkpt><trkpt lat="45.6657093" lon="8.2899882"><ele>540.5</ele><time>2026-05-02T13:55:34.973Z</time></trkpt><trkpt lat="45.6657979" lon="8.2899753"><ele>540.0</ele><time>2026-05-02T13:55:37.971Z</time></trkpt><trkpt lat="45.6658778" lon="8.2900357"><ele>539.5</ele><time>2026-05-02T13:55:40.962Z</time></trkpt><trkpt lat="45.6658995" lon="8.2901598"><ele>539.0</ele><time>2026-05-02T13:55:43.975Z</time></trkpt><trkpt lat="45.6659012" lon="8.2902897"><ele>539.0</ele><time>2026-05-02T13:55:46.962Z</time></trkpt><trkpt lat="45.6659205" lon="8.2904068"><ele>539.0</ele><time>2026-05-02T13:55:49.971Z</time></trkpt><trkpt lat="45.6659512" lon="8.2905161"><ele>539.0</ele><time>2026-05-02T13:55:52.977Z</time></trkpt><trkpt lat="45.6659749" lon="8.2906521"><ele>539.0</ele><time>2026-05-02T13:55:55.968Z</time></trkpt><trkpt lat="45.6659962" lon="8.2907465"><ele>539.0</ele><time>2026-05-02T13:55:57.961Z</time></trkpt><trkpt lat="45.6660547" lon="8.2908388"><ele>539.0</ele><time>2026-05-02T13:56:00.961Z</time></trkpt><trkpt lat="45.6661353" lon="8.2909107"><ele>538.5</ele><time>2026-05-02T13:56:03.964Z</time></trkpt><trkpt lat="45.6662082" lon="8.2909751"><ele>538.0</ele><time>2026-05-02T13:56:05.971Z</time></trkpt><trkpt lat="45.6662742" lon="8.2910579"><ele>537.5</ele><time>2026-05-02T13:56:07.97Z</time></trkpt><trkpt lat="45.6663184" lon="8.2911222"><ele>537.0</ele><time>2026-05-02T13:56:09.975Z</time></trkpt><trkpt lat="45.6663997" lon="8.2910885"><ele>536.5</ele><time>2026-05-02T13:56:28.971Z</time></trkpt><trkpt lat="45.6664512" lon="8.2910105"><ele>536.0</ele><time>2026-05-02T13:56:31.974Z</time></trkpt><trkpt lat="45.6664627" lon="8.2909205"><ele>536.0</ele><time>2026-05-02T13:56:34.969Z</time></trkpt><trkpt lat="45.6664679" lon="8.2908139"><ele>536.0</ele><time>2026-05-02T13:56:39.974Z</time></trkpt><trkpt lat="45.6664922" lon="8.2907252"><ele>536.0</ele><time>2026-05-02T13:56:43.964Z</time></trkpt><trkpt lat="45.6665162" lon="8.2906267"><ele>536.0</ele><time>2026-05-02T13:56:46.976Z</time></trkpt><trkpt lat="45.6665503" lon="8.2905483"><ele>536.0</ele><time>2026-05-02T13:56:49.969Z</time></trkpt><trkpt lat="45.6665966" lon="8.2904808"><ele>536.0</ele><time>2026-05-02T13:56:52.975Z</time></trkpt><trkpt lat="45.6666615" lon="8.2904214"><ele>536.0</ele><time>2026-05-02T13:56:55.973Z</time></trkpt><trkpt lat="45.6667207" lon="8.2903794"><ele>532.8333333333333</ele><time>2026-05-02T13:56:58.967Z</time></trkpt><trkpt lat="45.6667832" lon="8.2903308"><ele>529.6666666666666</ele><time>2026-05-02T13:57:01.969Z</time></trkpt><trkpt lat="45.666839" lon="8.2902884"><ele>526.5</ele><time>2026-05-02T13:57:03.961Z</time></trkpt><trkpt lat="45.6669239" lon="8.2902507"><ele>523.3333333333334</ele><time>2026-05-02T13:57:06.971Z</time></trkpt><trkpt lat="45.6669944" lon="8.2902198"><ele>520.1666666666667</ele><time>2026-05-02T13:57:09.971Z</time></trkpt><trkpt lat="45.6670622" lon="8.2901703"><ele>517.0</ele><time>2026-05-02T13:57:13.972Z</time></trkpt><trkpt lat="45.6671505" lon="8.2901648"><ele>516.6666666666667</ele><time>2026-05-02T13:57:16.973Z</time></trkpt><trkpt lat="45.667225" lon="8.290217"><ele>516.3333333333334</ele><time>2026-05-02T13:57:19.972Z</time></trkpt><trkpt lat="45.6672893" lon="8.2902675"><ele>516.0</ele><time>2026-05-02T13:57:22.96Z</time></trkpt><trkpt lat="45.6673391" lon="8.2903585"><ele>515.6666666666666</ele><time>2026-05-02T13:57:25.974Z</time></trkpt><trkpt lat="45.6674615" lon="8.2903897"><ele>515.3333333333333</ele><time>2026-05-02T14:02:14.971Z</time></trkpt><trkpt lat="45.6674972" lon="8.2902999"><ele>515.0</ele><time>2026-05-02T14:04:48.966Z</time></trkpt><trkpt lat="45.6675345" lon="8.2902213"><ele>515.0</ele><time>2026-05-02T14:05:01.969Z</time></trkpt><trkpt lat="45.667497" lon="8.2903091"><ele>515.0</ele><time>2026-05-02T14:05:06.971Z</time></trkpt><trkpt lat="45.6674756" lon="8.2904168"><ele>515.0</ele><time>2026-05-02T14:05:09.97Z</time></trkpt><trkpt lat="45.6674379" lon="8.2905434"><ele>515.0</ele><time>2026-05-02T14:05:12.973Z</time></trkpt><trkpt lat="45.6674082" lon="8.290662"><ele>515.0</ele><time>2026-05-02T14:05:15.971Z</time></trkpt><trkpt lat="45.6673534" lon="8.2907499"><ele>515.0</ele><time>2026-05-02T14:05:18.967Z</time></trkpt><trkpt lat="45.66731" lon="8.2908631"><ele>515.0</ele><time>2026-05-02T14:05:21.975Z</time></trkpt><trkpt lat="45.6673" lon="8.2909898"><ele>515.0</ele><time>2026-05-02T14:05:24.973Z</time></trkpt><trkpt lat="45.6672989" lon="8.2910834"><ele>515.0</ele><time>2026-05-02T14:05:27.966Z</time></trkpt><trkpt lat="45.6673205" lon="8.2911795"><ele>515.0</ele><time>2026-05-02T14:05:32.962Z</time></trkpt><trkpt lat="45.6673696" lon="8.2912575"><ele>515.0</ele><time>2026-05-02T14:05:34.975Z</time></trkpt><trkpt lat="45.6673956" lon="8.2913569"><ele>515.0</ele><time>2026-05-02T14:05:36.967Z</time></trkpt><trkpt lat="45.6674094" lon="8.2914469"><ele>515.0</ele><time>2026-05-02T14:05:38.968Z</time></trkpt><trkpt lat="45.6674398" lon="8.2915517"><ele>515.0</ele><time>2026-05-02T14:05:40.968Z</time></trkpt><trkpt lat="45.6674785" lon="8.2916495"><ele>515.0</ele><time>2026-05-02T14:05:43.975Z</time></trkpt><trkpt lat="45.6675149" lon="8.2917251"><ele>515.0</ele><time>2026-05-02T14:05:45.969Z</time></trkpt><trkpt lat="45.6675538" lon="8.2917973"><ele>515.0</ele><time>2026-05-02T14:06:16.967Z</time></trkpt><trkpt lat="45.6675128" lon="8.2917026"><ele>515.0</ele><time>2026-05-02T14:06:19.972Z</time></trkpt><trkpt lat="45.667478" lon="8.2915763"><ele>515.0</ele><time>2026-05-02T14:06:22.97Z</time></trkpt><trkpt lat="45.6674583" lon="8.2914862"><ele>515.0</ele><time>2026-05-02T14:06:24.965Z</time></trkpt><trkpt lat="45.6674259" lon="8.2913952"><ele>515.0</ele><time>2026-05-02T14:06:27.966Z</time></trkpt><trkpt lat="45.6673825" lon="8.2913004"><ele>515.0</ele><time>2026-05-02T14:06:30.966Z</time></trkpt><trkpt lat="45.6673425" lon="8.291207"><ele>515.0</ele><time>2026-05-02T14:06:33.956Z</time></trkpt><trkpt lat="45.6673157" lon="8.2911014"><ele>515.0</ele><time>2026-05-02T14:06:36.968Z</time></trkpt><trkpt lat="45.6673064" lon="8.2909601"><ele>515.0</ele><time>2026-05-02T14:06:51.966Z</time></trkpt><trkpt lat="45.6673389" lon="8.2908728"><ele>515.0</ele><time>2026-05-02T14:06:53.974Z</time></trkpt><trkpt lat="45.6673752" lon="8.2907338"><ele>515.0</ele><time>2026-05-02T14:06:55.968Z</time></trkpt><trkpt lat="45.6674064" lon="8.2906093"><ele>515.0</ele><time>2026-05-02T14:06:57.975Z</time></trkpt><trkpt lat="45.6674372" lon="8.2905304"><ele>515.0</ele><time>2026-05-02T14:06:59.973Z</time></trkpt><trkpt lat="45.6674673" lon="8.290423"><ele>515.0</ele><time>2026-05-02T14:07:53.96Z</time></trkpt><trkpt lat="45.6674406" lon="8.2903304"><ele>515.0</ele><time>2026-05-02T14:08:12.976Z</time></trkpt><trkpt lat="45.6674265" lon="8.2902417"><ele>515.0</ele><time>2026-05-02T14:08:16.967Z</time></trkpt><trkpt lat="45.6674211" lon="8.2901503"><ele>515.0</ele><time>2026-05-02T14:08:18.965Z</time></trkpt><trkpt lat="45.6674067" lon="8.2900454"><ele>515.0</ele><time>2026-05-02T14:08:20.976Z</time></trkpt><trkpt lat="45.6673905" lon="8.2899064"><ele>515.0</ele><time>2026-05-02T14:08:22.971Z</time></trkpt><trkpt lat="45.6674078" lon="8.2897689"><ele>515.0</ele><time>2026-05-02T14:08:24.97Z</time></trkpt><trkpt lat="45.6674449" lon="8.2896012"><ele>515.0</ele><time>2026-05-02T14:08:26.967Z</time></trkpt><trkpt lat="45.6674667" lon="8.2894983"><ele>515.0</ele><time>2026-05-02T14:08:27.97Z</time></trkpt><trkpt lat="45.6674888" lon="8.2894014"><ele>512.5</ele><time>2026-05-02T14:08:28.969Z</time></trkpt><trkpt lat="45.6675143" lon="8.2893185"><ele>510.0</ele><time>2026-05-02T14:08:29.964Z</time></trkpt><trkpt lat="45.6675684" lon="8.2891981"><ele>507.5</ele><time>2026-05-02T14:08:31.97Z</time></trkpt><trkpt lat="45.6676064" lon="8.2890937"><ele>505.0</ele><time>2026-05-02T14:08:33.963Z</time></trkpt><trkpt lat="45.6676371" lon="8.2889846"><ele>502.49999999999994</ele><time>2026-05-02T14:08:35.974Z</time></trkpt><trkpt lat="45.6676559" lon="8.2888773"><ele>500.0</ele><time>2026-05-02T14:08:37.962Z</time></trkpt><trkpt lat="45.6676582" lon="8.2887625"><ele>498.16666666666663</ele><time>2026-05-02T14:08:39.965Z</time></trkpt><trkpt lat="45.6676449" lon="8.2886553"><ele>496.3333333333333</ele><time>2026-05-02T14:08:42.964Z</time></trkpt><trkpt lat="45.6676383" lon="8.2885323"><ele>494.5</ele><time>2026-05-02T14:09:13.957Z</time></trkpt><trkpt lat="45.6676469" lon="8.2884191"><ele>492.66666666666663</ele><time>2026-05-02T14:09:15.98Z</time></trkpt><trkpt lat="45.6676317" lon="8.2883093"><ele>490.8333333333333</ele><time>2026-05-02T14:09:17.978Z</time></trkpt><trkpt lat="45.6675896" lon="8.288205"><ele>489.0</ele><time>2026-05-02T14:09:20.964Z</time></trkpt><trkpt lat="45.6675231" lon="8.2881644"><ele>489.0</ele><time>2026-05-02T14:09:23.967Z</time></trkpt><trkpt lat="45.6674623" lon="8.2881143"><ele>489.0</ele><time>2026-05-02T14:09:26.974Z</time></trkpt><trkpt lat="45.6674023" lon="8.2880477"><ele>489.0</ele><time>2026-05-02T14:09:29.96Z</time></trkpt><trkpt lat="45.6673518" lon="8.2879818"><ele>489.0</ele><time>2026-05-02T14:09:33.967Z</time></trkpt><trkpt lat="45.6673471" lon="8.2878772"><ele>489.0</ele><time>2026-05-02T14:10:20.957Z</time></trkpt><trkpt lat="45.6673245" lon="8.287755"><ele>489.0</ele><time>2026-05-02T14:10:22.972Z</time></trkpt><trkpt lat="45.6672792" lon="8.2876455"><ele>488.14285714285717</ele><time>2026-05-02T14:10:24.967Z</time></trkpt><trkpt lat="45.6672308" lon="8.2875687"><ele>487.28571428571433</ele><time>2026-05-02T14:10:26.965Z</time></trkpt><trkpt lat="45.6671832" lon="8.2875043"><ele>486.42857142857144</ele><time>2026-05-02T14:10:28.971Z</time></trkpt><trkpt lat="45.6671392" lon="8.2874261"><ele>485.57142857142856</ele><time>2026-05-02T14:10:30.969Z</time></trkpt><trkpt lat="45.6670984" lon="8.2873489"><ele>484.7142857142857</ele><time>2026-05-02T14:10:32.975Z</time></trkpt><trkpt lat="45.6670665" lon="8.2872493"><ele>483.8571428571429</ele><time>2026-05-02T14:10:34.975Z</time></trkpt><trkpt lat="45.6670529" lon="8.2871428"><ele>483.0</ele><time>2026-05-02T14:10:36.976Z</time></trkpt><trkpt lat="45.667062" lon="8.2870472"><ele>482.7142857142857</ele><time>2026-05-02T14:10:39.971Z</time></trkpt><trkpt lat="45.6670932" lon="8.2869613"><ele>482.42857142857144</ele><time>2026-05-02T14:11:13.96Z</time></trkpt><trkpt lat="45.667155" lon="8.2868816"><ele>482.1428571428571</ele><time>2026-05-02T14:11:15.966Z</time></trkpt><trkpt lat="45.6672059" lon="8.2868136"><ele>481.85714285714283</ele><time>2026-05-02T14:11:17.957Z</time></trkpt><trkpt lat="45.6672285" lon="8.2867181"><ele>481.57142857142856</ele><time>2026-05-02T14:11:20.975Z</time></trkpt><trkpt lat="45.6671634" lon="8.2866599"><ele>481.2857142857142</ele><time>2026-05-02T14:11:23.971Z</time></trkpt><trkpt lat="45.6671011" lon="8.2866373"><ele>480.99999999999994</ele><time>2026-05-02T14:11:25.976Z</time></trkpt><trkpt lat="45.6670335" lon="8.2866202"><ele>481.00000000000006</ele><time>2026-05-02T14:11:27.967Z</time></trkpt><trkpt lat="45.6669675" lon="8.2865973"><ele>481.0</ele><time>2026-05-02T14:11:30.956Z</time></trkpt><trkpt lat="45.6669082" lon="8.286553"><ele>481.0</ele><time>2026-05-02T14:11:45.959Z</time></trkpt><trkpt lat="45.6668374" lon="8.2864831"><ele>481.0</ele><time>2026-05-02T14:11:47.964Z</time></trkpt><trkpt lat="45.6667352" lon="8.2864063"><ele>481.00000000000006</ele><time>2026-05-02T14:11:49.969Z</time></trkpt><trkpt lat="45.666646" lon="8.2863367"><ele>481.0</ele><time>2026-05-02T14:11:51.963Z</time></trkpt><trkpt lat="45.6665765" lon="8.2862822"><ele>478.1666666666667</ele><time>2026-05-02T14:11:53.959Z</time></trkpt><trkpt lat="45.6664878" lon="8.2862053"><ele>475.33333333333337</ele><time>2026-05-02T14:11:56.973Z</time></trkpt><trkpt lat="45.6664262" lon="8.2861173"><ele>472.5</ele><time>2026-05-02T14:11:58.953Z</time></trkpt><trkpt lat="45.6663701" lon="8.2860396"><ele>469.66666666666663</ele><time>2026-05-02T14:12:00.963Z</time></trkpt><trkpt lat="45.6663137" lon="8.2859862"><ele>466.8333333333333</ele><time>2026-05-02T14:12:02.971Z</time></trkpt><trkpt lat="45.6662417" lon="8.2859494"><ele>464.0</ele><time>2026-05-02T14:12:05.969Z</time></trkpt><trkpt lat="45.6661818" lon="8.2859146"><ele>463.99999999999994</ele><time>2026-05-02T14:12:07.974Z</time></trkpt><trkpt lat="45.6661156" lon="8.2858503"><ele>464.0</ele><time>2026-05-02T14:12:09.969Z</time></trkpt><trkpt lat="45.6660438" lon="8.2858005"><ele>464.0</ele><time>2026-05-02T14:12:11.971Z</time></trkpt><trkpt lat="45.6659766" lon="8.2857379"><ele>464.0</ele><time>2026-05-02T14:12:13.972Z</time></trkpt><trkpt lat="45.6659275" lon="8.2856802"><ele>463.99999999999994</ele><time>2026-05-02T14:12:15.974Z</time></trkpt><trkpt lat="45.6658726" lon="8.2856338"><ele>464.0</ele><time>2026-05-02T14:12:19.972Z</time></trkpt><trkpt lat="45.6657957" lon="8.2855752"><ele>459.99999999999994</ele><time>2026-05-02T14:12:29.959Z</time></trkpt><trkpt lat="45.6657493" lon="8.2855135"><ele>456.0</ele><time>2026-05-02T14:12:31.964Z</time></trkpt><trkpt lat="45.6657109" lon="8.2854128"><ele>452.0</ele><time>2026-05-02T14:12:34.958Z</time></trkpt><trkpt lat="45.6656967" lon="8.2853167"><ele>448.0</ele><time>2026-05-02T14:13:21.967Z</time></trkpt><trkpt lat="45.6657261" lon="8.2851996"><ele>443.99999999999994</ele><time>2026-05-02T14:13:24.961Z</time></trkpt><trkpt lat="45.6657494" lon="8.2850542"><ele>440.0</ele><time>2026-05-02T14:13:26.955Z</time></trkpt><trkpt lat="45.6657274" lon="8.2849616"><ele>439.99999999999994</ele><time>2026-05-02T14:13:28.959Z</time></trkpt><trkpt lat="45.6656715" lon="8.2849102"><ele>440.0</ele><time>2026-05-02T14:13:31.973Z</time></trkpt><trkpt lat="45.66561" lon="8.284863"><ele>440.0</ele><time>2026-05-02T14:16:46.95Z</time></trkpt><trkpt lat="45.6655636" lon="8.2848008"><ele>440.0</ele><time>2026-05-02T14:16:49.962Z</time></trkpt><trkpt lat="45.6655372" lon="8.2846935"><ele>440.0</ele><time>2026-05-02T14:16:53.969Z</time></trkpt><trkpt lat="45.6655286" lon="8.284597"><ele>439.99999999999994</ele><time>2026-05-02T14:16:56.975Z</time></trkpt><trkpt lat="45.6655289" lon="8.2844929"><ele>440.0</ele><time>2026-05-02T14:16:59.967Z</time></trkpt><trkpt lat="45.6655627" lon="8.2843923"><ele>438.3333333333333</ele><time>2026-05-02T14:17:01.969Z</time></trkpt><trkpt lat="45.6655676" lon="8.2842884"><ele>436.66666666666663</ele><time>2026-05-02T14:17:04.963Z</time></trkpt><trkpt lat="45.6654917" lon="8.2842675"><ele>435.0</ele><time>2026-05-02T14:17:08.969Z</time></trkpt><trkpt lat="45.6654257" lon="8.2842995"><ele>433.33333333333337</ele><time>2026-05-02T14:17:11.97Z</time></trkpt><trkpt lat="45.6653336" lon="8.2843715"><ele>431.6666666666667</ele><time>2026-05-02T14:17:25.967Z</time></trkpt><trkpt lat="45.6652682" lon="8.2843875"><ele>430.0</ele><time>2026-05-02T14:17:28.969Z</time></trkpt><trkpt lat="45.6652184" lon="8.2843289"><ele>430.00000000000006</ele><time>2026-05-02T14:17:31.963Z</time></trkpt><trkpt lat="45.6652346" lon="8.284213"><ele>430.0</ele><time>2026-05-02T14:17:35.973Z</time></trkpt><trkpt lat="45.6652968" lon="8.28413"><ele>430.0</ele><time>2026-05-02T14:17:38.963Z</time></trkpt><trkpt lat="45.6653738" lon="8.2840719"><ele>430.0</ele><time>2026-05-02T14:17:40.966Z</time></trkpt><trkpt lat="45.665436" lon="8.2840008"><ele>430.00000000000006</ele><time>2026-05-02T14:17:42.965Z</time></trkpt><trkpt lat="45.665373" lon="8.2839981"><ele>430.0</ele><time>2026-05-02T14:18:06.966Z</time></trkpt><trkpt lat="45.6653054" lon="8.2840135"><ele>430.00000000000006</ele><time>2026-05-02T14:18:09.974Z</time></trkpt><trkpt lat="45.6652367" lon="8.2840175"><ele>430.0</ele><time>2026-05-02T14:18:12.971Z</time></trkpt><trkpt lat="45.6651708" lon="8.2840177"><ele>430.0</ele><time>2026-05-02T14:18:30.967Z</time></trkpt><trkpt lat="45.6652448" lon="8.2839983"><ele>430.0</ele><time>2026-05-02T14:18:34.964Z</time></trkpt><trkpt lat="45.6653077" lon="8.2839865"><ele>430.00000000000006</ele><time>2026-05-02T14:18:36.975Z</time></trkpt><trkpt lat="45.6653955" lon="8.2839877"><ele>430.0</ele><time>2026-05-02T14:18:39.973Z</time></trkpt><trkpt lat="45.6653066" lon="8.284"><ele>430.83333333333337</ele><time>2026-05-02T14:18:50.962Z</time></trkpt><trkpt lat="45.6652233" lon="8.2840085"><ele>431.6666666666667</ele><time>2026-05-02T14:18:53.961Z</time></trkpt><trkpt lat="45.6651448" lon="8.2839705"><ele>432.5</ele><time>2026-05-02T14:19:21.958Z</time></trkpt><trkpt lat="45.6650862" lon="8.2839211"><ele>433.33333333333337</ele><time>2026-05-02T14:19:23.959Z</time></trkpt><trkpt lat="45.6650192" lon="8.2838753"><ele>434.1666666666667</ele><time>2026-05-02T14:19:25.962Z</time></trkpt><trkpt lat="45.6649585" lon="8.2838098"><ele>435.0</ele><time>2026-05-02T14:19:27.966Z</time></trkpt><trkpt lat="45.6649136" lon="8.2837225"><ele>435.0</ele><time>2026-05-02T14:19:29.968Z</time></trkpt><trkpt lat="45.664871" lon="8.2836452"><ele>435.0</ele><time>2026-05-02T14:19:31.963Z</time></trkpt><trkpt lat="45.6648017" lon="8.2835811"><ele>435.0</ele><time>2026-05-02T14:19:34.968Z</time></trkpt><trkpt lat="45.6647311" lon="8.2835915"><ele>435.0</ele><time>2026-05-02T14:19:36.97Z</time></trkpt><trkpt lat="45.6646375" lon="8.2836222"><ele>435.0</ele><time>2026-05-02T14:19:38.964Z</time></trkpt><trkpt lat="45.6645348" lon="8.2836349"><ele>435.0</ele><time>2026-05-02T14:19:40.966Z</time></trkpt><trkpt lat="45.6644563" lon="8.2836318"><ele>432.5714285714286</ele><time>2026-05-02T14:19:42.959Z</time></trkpt><trkpt lat="45.6643803" lon="8.283604"><ele>430.14285714285717</ele><time>2026-05-02T14:19:45.967Z</time></trkpt><trkpt lat="45.6642965" lon="8.2835545"><ele>427.7142857142857</ele><time>2026-05-02T14:19:48.964Z</time></trkpt><trkpt lat="45.6642272" lon="8.2835015"><ele>425.28571428571433</ele><time>2026-05-02T14:19:50.969Z</time></trkpt><trkpt lat="45.6641726" lon="8.2834349"><ele>422.85714285714283</ele><time>2026-05-02T14:19:52.968Z</time></trkpt><trkpt lat="45.6641254" lon="8.2833727"><ele>420.42857142857144</ele><time>2026-05-02T14:19:54.96Z</time></trkpt><trkpt lat="45.6640728" lon="8.283318"><ele>418.0</ele><time>2026-05-02T14:19:56.976Z</time></trkpt><trkpt lat="45.6640205" lon="8.2832535"><ele>418.0</ele><time>2026-05-02T14:19:58.97Z</time></trkpt><trkpt lat="45.6639593" lon="8.2831952"><ele>418.0</ele><time>2026-05-02T14:20:00.965Z</time></trkpt><trkpt lat="45.6638891" lon="8.2831568"><ele>418.0</ele><time>2026-05-02T14:20:02.968Z</time></trkpt><trkpt lat="45.6638236" lon="8.2831235"><ele>418.0</ele><time>2026-05-02T14:20:04.955Z</time></trkpt><trkpt lat="45.6637606" lon="8.2831175"><ele>418.0</ele><time>2026-05-02T14:20:06.967Z</time></trkpt><trkpt lat="45.6637002" lon="8.2831463"><ele>418.0</ele><time>2026-05-02T14:20:08.968Z</time></trkpt><trkpt lat="45.6636278" lon="8.2831353"><ele>418.0</ele><time>2026-05-02T14:20:11.97Z</time></trkpt><trkpt lat="45.6636302" lon="8.2830383"><ele>418.6666666666667</ele><time>2026-05-02T14:20:13.979Z</time></trkpt><trkpt lat="45.6636593" lon="8.282931"><ele>419.33333333333337</ele><time>2026-05-02T14:20:15.975Z</time></trkpt><trkpt lat="45.6636833" lon="8.2828227"><ele>420.0</ele><time>2026-05-02T14:20:17.971Z</time></trkpt><trkpt lat="45.6636949" lon="8.2827216"><ele>420.66666666666663</ele><time>2026-05-02T14:20:19.971Z</time></trkpt><trkpt lat="45.6636759" lon="8.2826026"><ele>421.3333333333333</ele><time>2026-05-02T14:20:22.97Z</time></trkpt><trkpt lat="45.6636013" lon="8.2825984"><ele>422.0</ele><time>2026-05-02T14:20:25.968Z</time></trkpt><trkpt lat="45.6635592" lon="8.2826856"><ele>422.0</ele><time>2026-05-02T14:20:28.968Z</time></trkpt><trkpt lat="45.6635161" lon="8.2827865"><ele>422.0</ele><time>2026-05-02T14:20:32.97Z</time></trkpt><trkpt lat="45.6634436" lon="8.2828335"><ele>422.0</ele><time>2026-05-02T14:20:34.972Z</time></trkpt><trkpt lat="45.6633771" lon="8.2828612"><ele>422.0</ele><time>2026-05-02T14:20:36.97Z</time></trkpt><trkpt lat="45.6633228" lon="8.2829258"><ele>422.0</ele><time>2026-05-02T14:20:38.972Z</time></trkpt><trkpt lat="45.663269" lon="8.2830008"><ele>422.0</ele><time>2026-05-02T14:20:40.965Z</time></trkpt><trkpt lat="45.663216" lon="8.2830593"><ele>422.0</ele><time>2026-05-02T14:20:42.968Z</time></trkpt><trkpt lat="45.6631547" lon="8.283091"><ele>421.99999999999994</ele><time>2026-05-02T14:20:44.956Z</time></trkpt><trkpt lat="45.663068" lon="8.283083"><ele>422.0</ele><time>2026-05-02T14:20:47.964Z</time></trkpt><trkpt lat="45.6629879" lon="8.2830348"><ele>422.0</ele><time>2026-05-02T14:20:50.968Z</time></trkpt><trkpt lat="45.662925" lon="8.2830152"><ele>422.0</ele><time>2026-05-02T14:20:52.961Z</time></trkpt><trkpt lat="45.6628595" lon="8.2829767"><ele>421.99999999999994</ele><time>2026-05-02T14:20:54.971Z</time></trkpt><trkpt lat="45.6627884" lon="8.2829393"><ele>422.0</ele><time>2026-05-02T14:20:56.963Z</time></trkpt><trkpt lat="45.6627247" lon="8.2828844"><ele>419.8333333333333</ele><time>2026-05-02T14:20:58.971Z</time></trkpt><trkpt lat="45.6626581" lon="8.2828313"><ele>417.66666666666663</ele><time>2026-05-02T14:21:00.97Z</time></trkpt><trkpt lat="45.6625995" lon="8.282788"><ele>415.5</ele><time>2026-05-02T14:21:02.966Z</time></trkpt><trkpt lat="45.6625217" lon="8.2827261"><ele>413.33333333333337</ele><time>2026-05-02T14:21:05.963Z</time></trkpt><trkpt lat="45.6624627" lon="8.282671"><ele>411.1666666666667</ele><time>2026-05-02T14:21:07.959Z</time></trkpt><trkpt lat="45.6624066" lon="8.2825951"><ele>409.0</ele><time>2026-05-02T14:21:09.961Z</time></trkpt><trkpt lat="45.6623769" lon="8.28248"><ele>409.00000000000006</ele><time>2026-05-02T14:21:11.956Z</time></trkpt><trkpt lat="45.6623716" lon="8.2823583"><ele>409.0</ele><time>2026-05-02T14:21:13.965Z</time></trkpt><trkpt lat="45.6623374" lon="8.2822703"><ele>409.0</ele><time>2026-05-02T14:21:15.967Z</time></trkpt><trkpt lat="45.6622788" lon="8.2822115"><ele>409.0</ele><time>2026-05-02T14:21:17.972Z</time></trkpt><trkpt lat="45.6621942" lon="8.282167"><ele>409.00000000000006</ele><time>2026-05-02T14:21:19.969Z</time></trkpt><trkpt lat="45.6621051" lon="8.2821099"><ele>409.0</ele><time>2026-05-02T14:21:21.971Z</time></trkpt><trkpt lat="45.6620216" lon="8.2820513"><ele>407.6666666666667</ele><time>2026-05-02T14:21:23.968Z</time></trkpt><trkpt lat="45.6619557" lon="8.2820013"><ele>406.33333333333337</ele><time>2026-05-02T14:21:25.967Z</time></trkpt><trkpt lat="45.6618796" lon="8.2819322"><ele>405.0</ele><time>2026-05-02T14:21:27.971Z</time></trkpt><trkpt lat="45.6618308" lon="8.2818407"><ele>403.66666666666663</ele><time>2026-05-02T14:21:29.972Z</time></trkpt><trkpt lat="45.6617999" lon="8.2817383"><ele>402.3333333333333</ele><time>2026-05-02T14:21:31.968Z</time></trkpt><trkpt lat="45.6617318" lon="8.2816344"><ele>401.0</ele><time>2026-05-02T14:21:33.965Z</time></trkpt><trkpt lat="45.6616673" lon="8.281538"><ele>400.99999999999994</ele><time>2026-05-02T14:21:35.972Z</time></trkpt><trkpt lat="45.6616115" lon="8.2814488"><ele>401.0</ele><time>2026-05-02T14:21:37.969Z</time></trkpt><trkpt lat="45.6615661" lon="8.2813466"><ele>401.0</ele><time>2026-05-02T14:21:39.968Z</time></trkpt><trkpt lat="45.6615291" lon="8.2812479"><ele>401.0</ele><time>2026-05-02T14:21:41.96Z</time></trkpt><trkpt lat="45.6614859" lon="8.281175"><ele>400.99999999999994</ele><time>2026-05-02T14:21:43.96Z</time></trkpt><trkpt lat="45.6613809" lon="8.2811652"><ele>401.0</ele><time>2026-05-02T14:21:46.958Z</time></trkpt><trkpt lat="45.6612995" lon="8.2811539"><ele>400.5</ele><time>2026-05-02T14:21:47.969Z</time></trkpt><trkpt lat="45.661212" lon="8.2811287"><ele>400.0</ele><time>2026-05-02T14:21:48.968Z</time></trkpt><trkpt lat="45.6611066" lon="8.2810859"><ele>399.5</ele><time>2026-05-02T14:21:49.964Z</time></trkpt><trkpt lat="45.660986" lon="8.2810293"><ele>399.0</ele><time>2026-05-02T14:21:50.97Z</time></trkpt><trkpt lat="45.6608492" lon="8.2809444"><ele>399.0</ele><time>2026-05-02T14:21:51.97Z</time></trkpt><trkpt lat="45.6607085" lon="8.2808491"><ele>399.0</ele><time>2026-05-02T14:21:52.964Z</time></trkpt><trkpt lat="45.6605586" lon="8.2807588"><ele>399.0</ele><time>2026-05-02T14:21:53.975Z</time></trkpt><trkpt lat="45.6604171" lon="8.2806764"><ele>399.0</ele><time>2026-05-02T14:21:54.966Z</time></trkpt><trkpt lat="45.660285" lon="8.2806089"><ele>399.0</ele><time>2026-05-02T14:21:55.973Z</time></trkpt><trkpt lat="45.6601899" lon="8.2805861"><ele>399.0</ele><time>2026-05-02T14:21:56.965Z</time></trkpt><trkpt lat="45.6601073" lon="8.2805746"><ele>399.0</ele><time>2026-05-02T14:21:57.966Z</time></trkpt><trkpt lat="45.6600392" lon="8.280547"><ele>399.0</ele><time>2026-05-02T14:21:58.958Z</time></trkpt><trkpt lat="45.6599283" lon="8.2804516"><ele>399.6666666666667</ele><time>2026-05-02T14:22:00.96Z</time></trkpt><trkpt lat="45.6598589" lon="8.2804087"><ele>400.33333333333337</ele><time>2026-05-02T14:22:01.981Z</time></trkpt><trkpt lat="45.6597797" lon="8.2803874"><ele>401.0</ele><time>2026-05-02T14:22:02.958Z</time></trkpt><trkpt lat="45.6597001" lon="8.2803484"><ele>401.6666666666667</ele><time>2026-05-02T14:22:03.962Z</time></trkpt><trkpt lat="45.6596201" lon="8.2803037"><ele>402.33333333333337</ele><time>2026-05-02T14:22:04.959Z</time></trkpt><trkpt lat="45.6595519" lon="8.2802754"><ele>403.0</ele><time>2026-05-02T14:22:05.962Z</time></trkpt><trkpt lat="45.6594789" lon="8.2803806"><ele>401.6666666666667</ele><time>2026-05-02T14:22:27.961Z</time></trkpt><trkpt lat="45.6593994" lon="8.2803551"><ele>400.33333333333337</ele><time>2026-05-02T14:22:37.961Z</time></trkpt><trkpt lat="45.6593016" lon="8.2803286"><ele>399.0</ele><time>2026-05-02T14:22:39.962Z</time></trkpt><trkpt lat="45.6592267" lon="8.2802818"><ele>397.66666666666663</ele><time>2026-05-02T14:22:41.961Z</time></trkpt><trkpt lat="45.6591657" lon="8.2802243"><ele>396.3333333333333</ele><time>2026-05-02T14:22:43.966Z</time></trkpt><trkpt lat="45.6590916" lon="8.2801591"><ele>395.0</ele><time>2026-05-02T14:22:45.963Z</time></trkpt><trkpt lat="45.6590043" lon="8.2801267"><ele>394.99999999999994</ele><time>2026-05-02T14:22:47.966Z</time></trkpt><trkpt lat="45.6589183" lon="8.2801286"><ele>395.0</ele><time>2026-05-02T14:22:49.968Z</time></trkpt><trkpt lat="45.658824" lon="8.2801499"><ele>395.0</ele><time>2026-05-02T14:22:51.964Z</time></trkpt><trkpt lat="45.6587493" lon="8.2801608"><ele>395.0</ele><time>2026-05-02T14:22:53.969Z</time></trkpt><trkpt lat="45.6586822" lon="8.280164"><ele>394.99999999999994</ele><time>2026-05-02T14:22:55.978Z</time></trkpt><trkpt lat="45.6585885" lon="8.2801672"><ele>395.0</ele><time>2026-05-02T14:22:58.965Z</time></trkpt><trkpt lat="45.6585196" lon="8.2801646"><ele>393.3333333333333</ele><time>2026-05-02T14:23:00.966Z</time></trkpt><trkpt lat="45.6584472" lon="8.2801197"><ele>391.66666666666663</ele><time>2026-05-02T14:23:02.959Z</time></trkpt><trkpt lat="45.6583836" lon="8.280055"><ele>390.0</ele><time>2026-05-02T14:23:04.963Z</time></trkpt><trkpt lat="45.6583096" lon="8.2799926"><ele>388.33333333333337</ele><time>2026-05-02T14:23:06.966Z</time></trkpt><trkpt lat="45.6582285" lon="8.2799285"><ele>386.6666666666667</ele><time>2026-05-02T14:23:08.964Z</time></trkpt><trkpt lat="45.6581352" lon="8.2799049"><ele>385.0</ele><time>2026-05-02T14:23:10.967Z</time></trkpt><trkpt lat="45.6580438" lon="8.2798952"><ele>385.00000000000006</ele><time>2026-05-02T14:23:12.965Z</time></trkpt><trkpt lat="45.6579517" lon="8.2798836"><ele>385.0</ele><time>2026-05-02T14:23:14.969Z</time></trkpt><trkpt lat="45.6578695" lon="8.2798716"><ele>385.0</ele><time>2026-05-02T14:23:16.958Z</time></trkpt><trkpt lat="45.6577801" lon="8.2798535"><ele>385.0</ele><time>2026-05-02T14:23:18.971Z</time></trkpt><trkpt lat="45.6576944" lon="8.2798696"><ele>385.00000000000006</ele><time>2026-05-02T14:23:20.961Z</time></trkpt><trkpt lat="45.6576313" lon="8.2798838"><ele>385.0</ele><time>2026-05-02T14:23:22.966Z</time></trkpt><trkpt lat="45.6575683" lon="8.2798894"><ele>384.00000000000006</ele><time>2026-05-02T14:23:24.976Z</time></trkpt><trkpt lat="45.6574908" lon="8.2798963"><ele>383.0</ele><time>2026-05-02T14:23:26.97Z</time></trkpt><trkpt lat="45.6574092" lon="8.2798984"><ele>382.0</ele><time>2026-05-02T14:23:28.965Z</time></trkpt><trkpt lat="45.6573255" lon="8.2799"><ele>381.0</ele><time>2026-05-02T14:23:30.96Z</time></trkpt><trkpt lat="45.6572279" lon="8.2799169"><ele>380.0</ele><time>2026-05-02T14:23:32.961Z</time></trkpt><trkpt lat="45.6571546" lon="8.2799245"><ele>379.0</ele><time>2026-05-02T14:23:33.97Z</time></trkpt><trkpt lat="45.6570576" lon="8.2799482"><ele>378.79999999999995</ele><time>2026-05-02T14:23:34.974Z</time></trkpt><trkpt lat="45.6569433" lon="8.2799788"><ele>378.59999999999997</ele><time>2026-05-02T14:23:35.965Z</time></trkpt><trkpt lat="45.6568303" lon="8.28"><ele>378.4</ele><time>2026-05-02T14:23:36.978Z</time></trkpt><trkpt lat="45.656725" lon="8.280017"><ele>378.2</ele><time>2026-05-02T14:23:37.972Z</time></trkpt><trkpt lat="45.6566524" lon="8.2800302"><ele>378.0</ele><time>2026-05-02T14:23:38.957Z</time></trkpt><trkpt lat="45.6565594" lon="8.2800292"><ele>378.0</ele><time>2026-05-02T14:23:40.965Z</time></trkpt><trkpt lat="45.656477" lon="8.2800019"><ele>378.0</ele><time>2026-05-02T14:23:42.961Z</time></trkpt><trkpt lat="45.656416" lon="8.2799488"><ele>378.0</ele><time>2026-05-02T14:23:44.964Z</time></trkpt><trkpt lat="45.6563464" lon="8.2798805"><ele>378.0</ele><time>2026-05-02T14:23:46.96Z</time></trkpt><trkpt lat="45.6562827" lon="8.2798116"><ele>378.0</ele><time>2026-05-02T14:23:48.964Z</time></trkpt><trkpt lat="45.6562179" lon="8.279755"><ele>378.0</ele><time>2026-05-02T14:23:50.958Z</time></trkpt><trkpt lat="45.65613" lon="8.2797613"><ele>376.79999999999995</ele><time>2026-05-02T14:23:52.968Z</time></trkpt><trkpt lat="45.6560205" lon="8.2797798"><ele>375.6</ele><time>2026-05-02T14:23:54.959Z</time></trkpt><trkpt lat="45.655925" lon="8.2797985"><ele>374.4</ele><time>2026-05-02T14:23:56.964Z</time></trkpt><trkpt lat="45.6558539" lon="8.2798221"><ele>373.20000000000005</ele><time>2026-05-02T14:23:58.96Z</time></trkpt><trkpt lat="45.6557861" lon="8.2798115"><ele>372.0</ele><time>2026-05-02T14:24:00.972Z</time></trkpt><trkpt lat="45.6556905" lon="8.2797417"><ele>374.0</ele><time>2026-05-02T14:24:02.969Z</time></trkpt><trkpt lat="45.6556307" lon="8.2796934"><ele>376.0</ele><time>2026-05-02T14:24:03.968Z</time></trkpt><trkpt lat="45.655547" lon="8.2796383"><ele>378.0</ele><time>2026-05-02T14:24:04.958Z</time></trkpt><trkpt lat="45.6554582" lon="8.2795971"><ele>380.0</ele><time>2026-05-02T14:24:05.967Z</time></trkpt><trkpt lat="45.6553792" lon="8.2795643"><ele>382.0</ele><time>2026-05-02T14:24:06.959Z</time></trkpt><trkpt lat="45.6552997" lon="8.2795408"><ele>384.0</ele><time>2026-05-02T14:24:07.972Z</time></trkpt><trkpt lat="45.655217" lon="8.2795344"><ele>383.99999999999994</ele><time>2026-05-02T14:24:08.964Z</time></trkpt><trkpt lat="45.65514" lon="8.2795416"><ele>384.0</ele><time>2026-05-02T14:24:09.97Z</time></trkpt><trkpt lat="45.655075" lon="8.2795701"><ele>384.0</ele><time>2026-05-02T14:24:10.972Z</time></trkpt><trkpt lat="45.6550191" lon="8.2796265"><ele>384.0</ele><time>2026-05-02T14:24:11.966Z</time></trkpt><trkpt lat="45.6549705" lon="8.2796944"><ele>384.0</ele><time>2026-05-02T14:24:12.964Z</time></trkpt><trkpt lat="45.6549131" lon="8.279747"><ele>383.99999999999994</ele><time>2026-05-02T14:24:13.959Z</time></trkpt><trkpt lat="45.6548417" lon="8.2797749"><ele>384.0</ele><time>2026-05-02T14:24:14.957Z</time></trkpt><trkpt lat="45.654757" lon="8.2797695"><ele>384.0</ele><time>2026-05-02T14:24:15.971Z</time></trkpt><trkpt lat="45.6546872" lon="8.2797465"><ele>384.0</ele><time>2026-05-02T14:24:16.962Z</time></trkpt><trkpt lat="45.6546092" lon="8.2796743"><ele>384.0</ele><time>2026-05-02T14:24:18.957Z</time></trkpt><trkpt lat="45.6545453" lon="8.2795925"><ele>384.0</ele><time>2026-05-02T14:24:21.961Z</time></trkpt><trkpt lat="45.6544876" lon="8.2795164"><ele>384.0</ele><time>2026-05-02T14:24:24.969Z</time></trkpt><trkpt lat="45.6544245" lon="8.2794712"><ele>384.0</ele><time>2026-05-02T14:24:27.959Z</time></trkpt><trkpt lat="45.6543501" lon="8.279485"><ele>384.5</ele><time>2026-05-02T14:24:30.967Z</time></trkpt><trkpt lat="45.6542814" lon="8.2795011"><ele>385.0</ele><time>2026-05-02T14:24:33.96Z</time></trkpt><trkpt lat="45.654201" lon="8.2794859"><ele>385.5</ele><time>2026-05-02T14:24:37.956Z</time></trkpt><trkpt lat="45.6541294" lon="8.279494"><ele>386.0</ele><time>2026-05-02T14:24:39.961Z</time></trkpt><trkpt lat="45.6540366" lon="8.2795235"><ele>386.5</ele><time>2026-05-02T14:24:41.955Z</time></trkpt><trkpt lat="45.6539517" lon="8.279532"><ele>387.0</ele><time>2026-05-02T14:24:43.966Z</time></trkpt><trkpt lat="45.6538884" lon="8.2795747"><ele>387.0</ele><time>2026-05-02T14:24:46.969Z</time></trkpt><trkpt lat="45.6538146" lon="8.279614"><ele>387.0</ele><time>2026-05-02T14:24:49.969Z</time></trkpt><trkpt lat="45.6537181" lon="8.2796301"><ele>387.0</ele><time>2026-05-02T14:24:52.976Z</time></trkpt><trkpt lat="45.6536376" lon="8.2796242"><ele>387.0</ele><time>2026-05-02T14:24:54.977Z</time></trkpt><trkpt lat="45.6535692" lon="8.2796046"><ele>387.0</ele><time>2026-05-02T14:24:56.985Z</time></trkpt><trkpt lat="45.6535005" lon="8.2795567"><ele>387.0</ele><time>2026-05-02T14:24:58.967Z</time></trkpt><trkpt lat="45.6534126" lon="8.2794517"><ele>386.5</ele><time>2026-05-02T14:25:00.964Z</time></trkpt><trkpt lat="45.6533652" lon="8.2793826"><ele>386.0</ele><time>2026-05-02T14:25:01.957Z</time></trkpt><trkpt lat="45.6532905" lon="8.2792896"><ele>385.5</ele><time>2026-05-02T14:25:03.959Z</time></trkpt><trkpt lat="45.6533502" lon="8.2793405"><ele>385.0</ele><time>2026-05-02T14:25:07.963Z</time></trkpt><trkpt lat="45.6534164" lon="8.2794044"><ele>384.5</ele><time>2026-05-02T14:25:09.966Z</time></trkpt><trkpt lat="45.6534855" lon="8.2794286"><ele>384.0</ele><time>2026-05-02T14:25:12.964Z</time></trkpt><trkpt lat="45.6533905" lon="8.2793502"><ele>384.0</ele><time>2026-05-02T14:25:15.966Z</time></trkpt><trkpt lat="45.6532955" lon="8.2792675"><ele>384.0</ele><time>2026-05-02T14:25:17.956Z</time></trkpt><trkpt lat="45.6532074" lon="8.279211"><ele>384.0</ele><time>2026-05-02T14:25:19.961Z</time></trkpt><trkpt lat="45.653128" lon="8.2792345"><ele>384.0</ele><time>2026-05-02T14:25:21.959Z</time></trkpt><trkpt lat="45.6530679" lon="8.2792955"><ele>384.0</ele><time>2026-05-02T14:25:23.96Z</time></trkpt><trkpt lat="45.652989" lon="8.2793546"><ele>384.0</ele><time>2026-05-02T14:25:26.959Z</time></trkpt><trkpt lat="45.6529215" lon="8.2793645"><ele>384.0</ele><time>2026-05-02T14:25:28.96Z</time></trkpt><trkpt lat="45.652861" lon="8.2793385"><ele>384.0</ele><time>2026-05-02T14:25:30.959Z</time></trkpt><trkpt lat="45.6527817" lon="8.2793108"><ele>384.0</ele><time>2026-05-02T14:25:32.963Z</time></trkpt><trkpt lat="45.6526924" lon="8.2792847"><ele>384.0</ele><time>2026-05-02T14:25:34.964Z</time></trkpt><trkpt lat="45.6525995" lon="8.2792167"><ele>384.0</ele><time>2026-05-02T14:25:36.968Z</time></trkpt><trkpt lat="45.6524902" lon="8.27913"><ele>382.1666666666667</ele><time>2026-05-02T14:25:38.964Z</time></trkpt><trkpt lat="45.6524331" lon="8.279081"><ele>380.3333333333333</ele><time>2026-05-02T14:25:39.958Z</time></trkpt><trkpt lat="45.6523525" lon="8.2789735"><ele>378.5</ele><time>2026-05-02T14:25:41.967Z</time></trkpt><trkpt lat="45.6522885" lon="8.2789045"><ele>376.66666666666663</ele><time>2026-05-02T14:25:44.972Z</time></trkpt><trkpt lat="45.6522042" lon="8.2789142"><ele>374.8333333333333</ele><time>2026-05-02T14:25:47.966Z</time></trkpt><trkpt lat="45.6521407" lon="8.2789331"><ele>373.0</ele><time>2026-05-02T14:25:49.962Z</time></trkpt><trkpt lat="45.6520369" lon="8.2789358"><ele>376.3333333333333</ele><time>2026-05-02T14:26:04.962Z</time></trkpt><trkpt lat="45.6519585" lon="8.2789221"><ele>379.66666666666663</ele><time>2026-05-02T14:26:06.957Z</time></trkpt><trkpt lat="45.6518756" lon="8.2788646"><ele>383.0</ele><time>2026-05-02T14:26:10.976Z</time></trkpt><trkpt lat="45.6518015" lon="8.278824"><ele>386.3333333333333</ele><time>2026-05-02T14:26:13.961Z</time></trkpt><trkpt lat="45.6517247" lon="8.2787837"><ele>389.6666666666667</ele><time>2026-05-02T14:26:16.97Z</time></trkpt><trkpt lat="45.651644" lon="8.2787332"><ele>393.0</ele><time>2026-05-02T14:26:19.962Z</time></trkpt><trkpt lat="45.651578" lon="8.2787051"><ele>393.0</ele><time>2026-05-02T14:26:21.955Z</time></trkpt><trkpt lat="45.6514946" lon="8.2786546"><ele>393.0</ele><time>2026-05-02T14:26:23.962Z</time></trkpt><trkpt lat="45.6513894" lon="8.2785789"><ele>393.0</ele><time>2026-05-02T14:26:25.957Z</time></trkpt><trkpt lat="45.651297" lon="8.2784639"><ele>393.0</ele><time>2026-05-02T14:26:27.966Z</time></trkpt><trkpt lat="45.6512642" lon="8.2783774"><ele>393.0</ele><time>2026-05-02T14:26:28.963Z</time></trkpt><trkpt lat="45.6512436" lon="8.2782913"><ele>393.0</ele><time>2026-05-02T14:26:29.955Z</time></trkpt><trkpt lat="45.651239" lon="8.2781305"><ele>393.0</ele><time>2026-05-02T14:26:31.956Z</time></trkpt><trkpt lat="45.651278" lon="8.2779766"><ele>393.0</ele><time>2026-05-02T14:26:33.968Z</time></trkpt><trkpt lat="45.6512568" lon="8.2778912"><ele>393.0</ele><time>2026-05-02T14:26:47.964Z</time></trkpt><trkpt lat="45.6511916" lon="8.2778895"><ele>393.0</ele><time>2026-05-02T14:26:49.961Z</time></trkpt><trkpt lat="45.6510939" lon="8.2778822"><ele>395.1666666666667</ele><time>2026-05-02T14:26:51.978Z</time></trkpt><trkpt lat="45.6510043" lon="8.2778689"><ele>397.33333333333337</ele><time>2026-05-02T14:26:53.959Z</time></trkpt><trkpt lat="45.6509365" lon="8.277865"><ele>399.5</ele><time>2026-05-02T14:26:55.969Z</time></trkpt><trkpt lat="45.6508488" lon="8.2778685"><ele>401.6666666666667</ele><time>2026-05-02T14:26:58.958Z</time></trkpt><trkpt lat="45.6507778" lon="8.2778464"><ele>403.83333333333337</ele><time>2026-05-02T14:27:00.964Z</time></trkpt><trkpt lat="45.6506923" lon="8.2778173"><ele>406.0</ele><time>2026-05-02T14:27:02.96Z</time></trkpt><trkpt lat="45.6506213" lon="8.2777819"><ele>406.0</ele><time>2026-05-02T14:27:04.961Z</time></trkpt><trkpt lat="45.6505328" lon="8.2777307"><ele>406.0</ele><time>2026-05-02T14:27:07.965Z</time></trkpt><trkpt lat="45.6504297" lon="8.27768"><ele>406.0</ele><time>2026-05-02T14:27:09.971Z</time></trkpt><trkpt lat="45.650355" lon="8.277649"><ele>406.0</ele><time>2026-05-02T14:27:11.97Z</time></trkpt><trkpt lat="45.6502954" lon="8.2775914"><ele>406.0</ele><time>2026-05-02T14:27:13.969Z</time></trkpt><trkpt lat="45.6502281" lon="8.2774908"><ele>404.33333333333337</ele><time>2026-05-02T14:27:15.972Z</time></trkpt><trkpt lat="45.650178" lon="8.277385"><ele>402.6666666666667</ele><time>2026-05-02T14:27:17.965Z</time></trkpt><trkpt lat="45.6501399" lon="8.2773016"><ele>401.0</ele><time>2026-05-02T14:27:19.964Z</time></trkpt><trkpt lat="45.6501078" lon="8.277186"><ele>399.33333333333337</ele><time>2026-05-02T14:27:21.968Z</time></trkpt><trkpt lat="45.6501098" lon="8.2770594"><ele>397.6666666666667</ele><time>2026-05-02T14:27:23.965Z</time></trkpt><trkpt lat="45.6501315" lon="8.2769273"><ele>396.0</ele><time>2026-05-02T14:27:25.966Z</time></trkpt><trkpt lat="45.6501926" lon="8.2768136"><ele>397.4</ele><time>2026-05-02T14:27:27.975Z</time></trkpt><trkpt lat="45.6503165" lon="8.2766897"><ele>398.8</ele><time>2026-05-02T14:27:29.958Z</time></trkpt><trkpt lat="45.650412" lon="8.2766068"><ele>400.2</ele><time>2026-05-02T14:27:30.972Z</time></trkpt><trkpt lat="45.6504988" lon="8.2765316"><ele>401.59999999999997</ele><time>2026-05-02T14:27:31.976Z</time></trkpt><trkpt lat="45.6505671" lon="8.2764733"><ele>403.0</ele><time>2026-05-02T14:27:32.971Z</time></trkpt><trkpt lat="45.6506252" lon="8.2764252"><ele>400.2</ele><time>2026-05-02T14:27:33.972Z</time></trkpt><trkpt lat="45.6506862" lon="8.2763739"><ele>397.4</ele><time>2026-05-02T14:27:34.967Z</time></trkpt><trkpt lat="45.6507907" lon="8.2762808"><ele>394.59999999999997</ele><time>2026-05-02T14:27:36.974Z</time></trkpt><trkpt lat="45.6508902" lon="8.2761812"><ele>391.79999999999995</ele><time>2026-05-02T14:27:38.956Z</time></trkpt><trkpt lat="45.6509657" lon="8.2760616"><ele>389.0</ele><time>2026-05-02T14:27:40.958Z</time></trkpt><trkpt lat="45.6510274" lon="8.2759477"><ele>388.99999999999994</ele><time>2026-05-02T14:27:42.961Z</time></trkpt><trkpt lat="45.6510839" lon="8.2758661"><ele>389.0</ele><time>2026-05-02T14:27:44.967Z</time></trkpt><trkpt lat="45.6511553" lon="8.2757978"><ele>389.0</ele><time>2026-05-02T14:27:46.966Z</time></trkpt><trkpt lat="45.6512011" lon="8.27571"><ele>389.0</ele><time>2026-05-02T14:27:48.959Z</time></trkpt><trkpt lat="45.6512071" lon="8.2756203"><ele>388.99999999999994</ele><time>2026-05-02T14:27:50.962Z</time></trkpt><trkpt lat="45.6512413" lon="8.2755112"><ele>389.0</ele><time>2026-05-02T14:28:00.958Z</time></trkpt><trkpt lat="45.6513249" lon="8.2754249"><ele>388.79999999999995</ele><time>2026-05-02T14:28:02.968Z</time></trkpt><trkpt lat="45.6514238" lon="8.2753148"><ele>388.59999999999997</ele><time>2026-05-02T14:28:04.967Z</time></trkpt><trkpt lat="45.6514817" lon="8.2752615"><ele>388.4</ele><time>2026-05-02T14:28:05.964Z</time></trkpt><trkpt lat="45.651538" lon="8.2752107"><ele>388.2</ele><time>2026-05-02T14:28:06.965Z</time></trkpt><trkpt lat="45.6515917" lon="8.2751531"><ele>388.0</ele><time>2026-05-02T14:28:07.954Z</time></trkpt><trkpt lat="45.6516934" lon="8.275024"><ele>388.00000000000006</ele><time>2026-05-02T14:28:09.961Z</time></trkpt><trkpt lat="45.6517549" lon="8.2749385"><ele>388.0</ele><time>2026-05-02T14:28:10.967Z</time></trkpt><trkpt lat="45.6518112" lon="8.274855"><ele>388.0</ele><time>2026-05-02T14:28:11.963Z</time></trkpt><trkpt lat="45.6518632" lon="8.274761"><ele>388.0</ele><time>2026-05-02T14:28:12.971Z</time></trkpt><trkpt lat="45.6519149" lon="8.2746692"><ele>388.00000000000006</ele><time>2026-05-02T14:28:13.974Z</time></trkpt><trkpt lat="45.6519662" lon="8.2745867"><ele>388.0</ele><time>2026-05-02T14:28:14.97Z</time></trkpt><trkpt lat="45.6520198" lon="8.2745109"><ele>388.57142857142856</ele><time>2026-05-02T14:28:15.956Z</time></trkpt><trkpt lat="45.6520765" lon="8.2744305"><ele>389.14285714285717</ele><time>2026-05-02T14:28:16.972Z</time></trkpt><trkpt lat="45.652116" lon="8.2743515"><ele>389.7142857142857</ele><time>2026-05-02T14:28:17.966Z</time></trkpt><trkpt lat="45.6521448" lon="8.2742711"><ele>390.2857142857143</ele><time>2026-05-02T14:28:18.969Z</time></trkpt><trkpt lat="45.6521794" lon="8.2741955"><ele>390.8571428571429</ele><time>2026-05-02T14:28:19.962Z</time></trkpt><trkpt lat="45.6522168" lon="8.27412"><ele>391.42857142857144</ele><time>2026-05-02T14:28:20.964Z</time></trkpt><trkpt lat="45.6522617" lon="8.2740477"><ele>392.0</ele><time>2026-05-02T14:28:21.976Z</time></trkpt><trkpt lat="45.6523055" lon="8.2739809"><ele>391.49999999999994</ele><time>2026-05-02T14:28:22.962Z</time></trkpt><trkpt lat="45.6523896" lon="8.2738888"><ele>391.0</ele><time>2026-05-02T14:28:24.97Z</time></trkpt><trkpt lat="45.6524936" lon="8.2738112"><ele>390.5</ele><time>2026-05-02T14:28:26.967Z</time></trkpt><trkpt lat="45.6525467" lon="8.273761"><ele>390.0</ele><time>2026-05-02T14:28:27.967Z</time></trkpt><trkpt lat="45.6526051" lon="8.2736972"><ele>389.49999999999994</ele><time>2026-05-02T14:28:28.969Z</time></trkpt><trkpt lat="45.6526596" lon="8.2736309"><ele>389.0</ele><time>2026-05-02T14:28:29.964Z</time></trkpt><trkpt lat="45.6527132" lon="8.2735671"><ele>389.0</ele><time>2026-05-02T14:28:30.981Z</time></trkpt><trkpt lat="45.6527574" lon="8.2734969"><ele>389.0</ele><time>2026-05-02T14:28:31.977Z</time></trkpt><trkpt lat="45.6528045" lon="8.2734223"><ele>389.0</ele><time>2026-05-02T14:28:32.971Z</time></trkpt><trkpt lat="45.6528588" lon="8.2733543"><ele>389.0</ele><time>2026-05-02T14:28:33.962Z</time></trkpt><trkpt lat="45.6529188" lon="8.273279"><ele>389.0</ele><time>2026-05-02T14:28:34.959Z</time></trkpt><trkpt lat="45.6529789" lon="8.2732032"><ele>389.0</ele><time>2026-05-02T14:28:35.971Z</time></trkpt><trkpt lat="45.6530374" lon="8.2731302"><ele>389.0</ele><time>2026-05-02T14:28:36.97Z</time></trkpt><trkpt lat="45.6530958" lon="8.2730597"><ele>389.42857142857144</ele><time>2026-05-02T14:28:37.96Z</time></trkpt><trkpt lat="45.6531531" lon="8.2729918"><ele>389.85714285714283</ele><time>2026-05-02T14:28:38.973Z</time></trkpt><trkpt lat="45.6532058" lon="8.2729229"><ele>390.2857142857143</ele><time>2026-05-02T14:28:39.962Z</time></trkpt><trkpt lat="45.653258" lon="8.272855"><ele>390.7142857142857</ele><time>2026-05-02T14:28:40.97Z</time></trkpt><trkpt lat="45.6533121" lon="8.2727917"><ele>391.1428571428571</ele><time>2026-05-02T14:28:41.957Z</time></trkpt><trkpt lat="45.6533713" lon="8.2727376"><ele>391.57142857142856</ele><time>2026-05-02T14:28:42.972Z</time></trkpt><trkpt lat="45.653432" lon="8.2726967"><ele>392.0</ele><time>2026-05-02T14:28:43.968Z</time></trkpt><trkpt lat="45.6535198" lon="8.2726262"><ele>392.0</ele><time>2026-05-02T14:28:45.961Z</time></trkpt><trkpt lat="45.6535479" lon="8.2725437"><ele>392.0</ele><time>2026-05-02T14:28:48.96Z</time></trkpt><trkpt lat="45.6534963" lon="8.2724732"><ele>392.0</ele><time>2026-05-02T14:29:39.958Z</time></trkpt><trkpt lat="45.6534585" lon="8.2723873"><ele>392.0</ele><time>2026-05-02T14:29:46.943Z</time></trkpt><trkpt lat="45.6535218" lon="8.2724018"><ele>392.0</ele><time>2026-05-02T14:30:25.966Z</time></trkpt><trkpt lat="45.653562" lon="8.2724762"><ele>392.0</ele><time>2026-05-02T14:38:16.955Z</time></trkpt><trkpt lat="45.6535067" lon="8.2724167"><ele>392.0</ele><time>2026-05-02T14:40:56.961Z</time></trkpt><trkpt lat="45.6535429" lon="8.2725147"><ele>392.0</ele><time>2026-05-02T14:56:25.959Z</time></trkpt><trkpt lat="45.6535054" lon="8.2724405"><ele>392.0</ele><time>2026-05-02T14:57:32.955Z</time></trkpt><trkpt lat="45.65344" lon="8.2724183"><ele>392.0</ele><time>2026-05-02T14:58:00.951Z</time></trkpt></trkseg></trk></gpx>